<?xml version="1.0" encoding="UTF-8" standalone="no" ?>
<gpx xmlns="http://www.topografix.com/GPX/1/1" xmlns:xsi="http://www.w3.org/2001/XMLSchema-instance" xsi:schemaLocation="http://www.topografix.com/GPX/1/1 http://www.topografix.com/GPX/1/1/gpx.xsd" version="1.1" creator="VisuGPX - https://www.visugpx.com">
  <metadata>
    <name>Cime de Savel en boucle depuis l\'Escarène</name>
    <desc><![CDATA[Belle sélection de sentiers techniques autour de l\'Escarène.]]></desc>
  </metadata>
  <trk>
    <name><![CDATA[Track2011/11/11_08:15]]></name>
    <trkseg>
      <trkpt lat="43.84067" lon="7.34901">
        <ele>405.86142</ele>
        <time>2011-11-11T07:15:04Z</time>
      </trkpt>
      <trkpt lat="43.84072" lon="7.34895">
        <ele>411.356781</ele>
        <time>2011-11-11T07:16:05Z</time>
      </trkpt>
      <trkpt lat="43.8407" lon="7.34896">
        <ele>411.510162</ele>
        <time>2011-11-11T07:16:10Z</time>
      </trkpt>
      <trkpt lat="43.84077" lon="7.34891">
        <ele>409.310913</ele>
        <time>2011-11-11T07:20:10Z</time>
      </trkpt>
      <trkpt lat="43.84081" lon="7.34891">
        <ele>409.88504</ele>
        <time>2011-11-11T07:20:15Z</time>
      </trkpt>
      <trkpt lat="43.8409" lon="7.34892">
        <ele>409.287628</ele>
        <time>2011-11-11T07:20:20Z</time>
      </trkpt>
      <trkpt lat="43.84102" lon="7.34891">
        <ele>408.726379</ele>
        <time>2011-11-11T07:20:25Z</time>
      </trkpt>
      <trkpt lat="43.84112" lon="7.34889">
        <ele>408.467926</ele>
        <time>2011-11-11T07:20:30Z</time>
      </trkpt>
      <trkpt lat="43.84122" lon="7.34884">
        <ele>408.335449</ele>
        <time>2011-11-11T07:20:35Z</time>
      </trkpt>
      <trkpt lat="43.84132" lon="7.34881">
        <ele>408.527283</ele>
        <time>2011-11-11T07:20:40Z</time>
      </trkpt>
      <trkpt lat="43.84142" lon="7.34882">
        <ele>408.717651</ele>
        <time>2011-11-11T07:20:45Z</time>
      </trkpt>
      <trkpt lat="43.84151" lon="7.34884">
        <ele>409.050781</ele>
        <time>2011-11-11T07:20:50Z</time>
      </trkpt>
      <trkpt lat="43.84157" lon="7.34883">
        <ele>411.477631</ele>
        <time>2011-11-11T07:20:55Z</time>
      </trkpt>
      <trkpt lat="43.84163" lon="7.34884">
        <ele>412.369446</ele>
        <time>2011-11-11T07:21:00Z</time>
      </trkpt>
      <trkpt lat="43.8417" lon="7.34885">
        <ele>415.061096</ele>
        <time>2011-11-11T07:21:05Z</time>
      </trkpt>
      <trkpt lat="43.84174" lon="7.34889">
        <ele>418.20166</ele>
        <time>2011-11-11T07:21:10Z</time>
      </trkpt>
      <trkpt lat="43.84181" lon="7.34893">
        <ele>419.807495</ele>
        <time>2011-11-11T07:21:15Z</time>
      </trkpt>
      <trkpt lat="43.84189" lon="7.34894">
        <ele>421.657837</ele>
        <time>2011-11-11T07:21:20Z</time>
      </trkpt>
      <trkpt lat="43.84199" lon="7.34896">
        <ele>420.84256</ele>
        <time>2011-11-11T07:21:25Z</time>
      </trkpt>
      <trkpt lat="43.84207" lon="7.34899">
        <ele>421.069855</ele>
        <time>2011-11-11T07:21:30Z</time>
      </trkpt>
      <trkpt lat="43.84211" lon="7.34905">
        <ele>420.35791</ele>
        <time>2011-11-11T07:21:35Z</time>
      </trkpt>
      <trkpt lat="43.84208" lon="7.34914">
        <ele>420.085876</ele>
        <time>2011-11-11T07:21:40Z</time>
      </trkpt>
      <trkpt lat="43.842" lon="7.34917">
        <ele>419.90152</ele>
        <time>2011-11-11T07:21:45Z</time>
      </trkpt>
      <trkpt lat="43.84192" lon="7.34919">
        <ele>419.898102</ele>
        <time>2011-11-11T07:21:50Z</time>
      </trkpt>
      <trkpt lat="43.84185" lon="7.34923">
        <ele>420.056122</ele>
        <time>2011-11-11T07:21:55Z</time>
      </trkpt>
      <trkpt lat="43.84178" lon="7.34927">
        <ele>419.796143</ele>
        <time>2011-11-11T07:22:00Z</time>
      </trkpt>
      <trkpt lat="43.8417" lon="7.34933">
        <ele>418.687683</ele>
        <time>2011-11-11T07:22:05Z</time>
      </trkpt>
      <trkpt lat="43.84164" lon="7.34939">
        <ele>419.107208</ele>
        <time>2011-11-11T07:22:10Z</time>
      </trkpt>
      <trkpt lat="43.84161" lon="7.34949">
        <ele>419.886475</ele>
        <time>2011-11-11T07:22:15Z</time>
      </trkpt>
      <trkpt lat="43.84161" lon="7.34958">
        <ele>420.820709</ele>
        <time>2011-11-11T07:22:20Z</time>
      </trkpt>
      <trkpt lat="43.84169" lon="7.3496">
        <ele>421.567261</ele>
        <time>2011-11-11T07:22:25Z</time>
      </trkpt>
      <trkpt lat="43.84179" lon="7.34958">
        <ele>422.085144</ele>
        <time>2011-11-11T07:22:30Z</time>
      </trkpt>
      <trkpt lat="43.84188" lon="7.34955">
        <ele>422.543396</ele>
        <time>2011-11-11T07:22:35Z</time>
      </trkpt>
      <trkpt lat="43.84198" lon="7.3495">
        <ele>423.098511</ele>
        <time>2011-11-11T07:22:40Z</time>
      </trkpt>
      <trkpt lat="43.84207" lon="7.34947">
        <ele>423.808167</ele>
        <time>2011-11-11T07:22:45Z</time>
      </trkpt>
      <trkpt lat="43.84216" lon="7.34941">
        <ele>423.915863</ele>
        <time>2011-11-11T07:22:50Z</time>
      </trkpt>
      <trkpt lat="43.84224" lon="7.34933">
        <ele>424.596619</ele>
        <time>2011-11-11T07:22:55Z</time>
      </trkpt>
      <trkpt lat="43.8423" lon="7.34925">
        <ele>425.002289</ele>
        <time>2011-11-11T07:23:00Z</time>
      </trkpt>
      <trkpt lat="43.84237" lon="7.34917">
        <ele>425.279388</ele>
        <time>2011-11-11T07:23:05Z</time>
      </trkpt>
      <trkpt lat="43.84243" lon="7.34908">
        <ele>425.366974</ele>
        <time>2011-11-11T07:23:10Z</time>
      </trkpt>
      <trkpt lat="43.84244" lon="7.34897">
        <ele>425.385345</ele>
        <time>2011-11-11T07:23:15Z</time>
      </trkpt>
      <trkpt lat="43.84239" lon="7.3489">
        <ele>425.72818</ele>
        <time>2011-11-11T07:23:20Z</time>
      </trkpt>
      <trkpt lat="43.84233" lon="7.34882">
        <ele>426.152466</ele>
        <time>2011-11-11T07:23:25Z</time>
      </trkpt>
      <trkpt lat="43.84229" lon="7.34872">
        <ele>426.487244</ele>
        <time>2011-11-11T07:23:30Z</time>
      </trkpt>
      <trkpt lat="43.84227" lon="7.3486">
        <ele>426.952393</ele>
        <time>2011-11-11T07:23:35Z</time>
      </trkpt>
      <trkpt lat="43.84225" lon="7.34849">
        <ele>427.556122</ele>
        <time>2011-11-11T07:23:40Z</time>
      </trkpt>
      <trkpt lat="43.84222" lon="7.34839">
        <ele>428.139923</ele>
        <time>2011-11-11T07:23:45Z</time>
      </trkpt>
      <trkpt lat="43.84218" lon="7.34829">
        <ele>428.456451</ele>
        <time>2011-11-11T07:23:50Z</time>
      </trkpt>
      <trkpt lat="43.84214" lon="7.34821">
        <ele>430.254852</ele>
        <time>2011-11-11T07:23:55Z</time>
      </trkpt>
      <trkpt lat="43.8421" lon="7.34812">
        <ele>430.795776</ele>
        <time>2011-11-11T07:24:00Z</time>
      </trkpt>
      <trkpt lat="43.84207" lon="7.348">
        <ele>431.390137</ele>
        <time>2011-11-11T07:24:05Z</time>
      </trkpt>
      <trkpt lat="43.84204" lon="7.3479">
        <ele>432.106354</ele>
        <time>2011-11-11T07:24:10Z</time>
      </trkpt>
      <trkpt lat="43.84204" lon="7.34779">
        <ele>432.389954</ele>
        <time>2011-11-11T07:24:15Z</time>
      </trkpt>
      <trkpt lat="43.84204" lon="7.34767">
        <ele>434.578186</ele>
        <time>2011-11-11T07:24:20Z</time>
      </trkpt>
      <trkpt lat="43.84205" lon="7.34757">
        <ele>436.565399</ele>
        <time>2011-11-11T07:24:25Z</time>
      </trkpt>
      <trkpt lat="43.84207" lon="7.34746">
        <ele>439.346741</ele>
        <time>2011-11-11T07:24:30Z</time>
      </trkpt>
      <trkpt lat="43.84212" lon="7.34737">
        <ele>440.172272</ele>
        <time>2011-11-11T07:24:35Z</time>
      </trkpt>
      <trkpt lat="43.8422" lon="7.34729">
        <ele>440.098328</ele>
        <time>2011-11-11T07:24:40Z</time>
      </trkpt>
      <trkpt lat="43.84226" lon="7.34723">
        <ele>441.579742</ele>
        <time>2011-11-11T07:24:45Z</time>
      </trkpt>
      <trkpt lat="43.84232" lon="7.34718">
        <ele>442.078308</ele>
        <time>2011-11-11T07:24:50Z</time>
      </trkpt>
      <trkpt lat="43.84238" lon="7.34711">
        <ele>445.05545</ele>
        <time>2011-11-11T07:24:55Z</time>
      </trkpt>
      <trkpt lat="43.84246" lon="7.34706">
        <ele>445.577667</ele>
        <time>2011-11-11T07:25:00Z</time>
      </trkpt>
      <trkpt lat="43.84254" lon="7.34701">
        <ele>446.871155</ele>
        <time>2011-11-11T07:25:05Z</time>
      </trkpt>
      <trkpt lat="43.8426" lon="7.34692">
        <ele>447.2565</ele>
        <time>2011-11-11T07:25:10Z</time>
      </trkpt>
      <trkpt lat="43.84264" lon="7.3468">
        <ele>446.529022</ele>
        <time>2011-11-11T07:25:15Z</time>
      </trkpt>
      <trkpt lat="43.84268" lon="7.34669">
        <ele>445.637665</ele>
        <time>2011-11-11T07:25:20Z</time>
      </trkpt>
      <trkpt lat="43.84271" lon="7.34657">
        <ele>445.741669</ele>
        <time>2011-11-11T07:25:25Z</time>
      </trkpt>
      <trkpt lat="43.84275" lon="7.34646">
        <ele>446.988037</ele>
        <time>2011-11-11T07:25:30Z</time>
      </trkpt>
      <trkpt lat="43.84278" lon="7.34634">
        <ele>447.084686</ele>
        <time>2011-11-11T07:25:35Z</time>
      </trkpt>
      <trkpt lat="43.84282" lon="7.34622">
        <ele>446.202637</ele>
        <time>2011-11-11T07:25:40Z</time>
      </trkpt>
      <trkpt lat="43.84285" lon="7.34609">
        <ele>446.373657</ele>
        <time>2011-11-11T07:25:45Z</time>
      </trkpt>
      <trkpt lat="43.84291" lon="7.34596">
        <ele>446.174347</ele>
        <time>2011-11-11T07:25:50Z</time>
      </trkpt>
      <trkpt lat="43.84302" lon="7.34586">
        <ele>445.69931</ele>
        <time>2011-11-11T07:25:55Z</time>
      </trkpt>
      <trkpt lat="43.84312" lon="7.34579">
        <ele>444.637115</ele>
        <time>2011-11-11T07:26:00Z</time>
      </trkpt>
      <trkpt lat="43.84321" lon="7.34572">
        <ele>444.854004</ele>
        <time>2011-11-11T07:26:05Z</time>
      </trkpt>
      <trkpt lat="43.84331" lon="7.34565">
        <ele>444.937775</ele>
        <time>2011-11-11T07:26:10Z</time>
      </trkpt>
      <trkpt lat="43.84342" lon="7.34558">
        <ele>445.255432</ele>
        <time>2011-11-11T07:26:15Z</time>
      </trkpt>
      <trkpt lat="43.84353" lon="7.34552">
        <ele>445.638519</ele>
        <time>2011-11-11T07:26:20Z</time>
      </trkpt>
      <trkpt lat="43.84362" lon="7.34547">
        <ele>446.189636</ele>
        <time>2011-11-11T07:26:25Z</time>
      </trkpt>
      <trkpt lat="43.84371" lon="7.34542">
        <ele>446.943481</ele>
        <time>2011-11-11T07:26:30Z</time>
      </trkpt>
      <trkpt lat="43.8438" lon="7.34535">
        <ele>447.735992</ele>
        <time>2011-11-11T07:26:35Z</time>
      </trkpt>
      <trkpt lat="43.84386" lon="7.34522">
        <ele>448.44397</ele>
        <time>2011-11-11T07:26:40Z</time>
      </trkpt>
      <trkpt lat="43.84393" lon="7.3451">
        <ele>449.043182</ele>
        <time>2011-11-11T07:26:45Z</time>
      </trkpt>
      <trkpt lat="43.84401" lon="7.345">
        <ele>449.699158</ele>
        <time>2011-11-11T07:26:50Z</time>
      </trkpt>
      <trkpt lat="43.84408" lon="7.34489">
        <ele>450.389038</ele>
        <time>2011-11-11T07:26:55Z</time>
      </trkpt>
      <trkpt lat="43.84415" lon="7.34478">
        <ele>451.347778</ele>
        <time>2011-11-11T07:27:00Z</time>
      </trkpt>
      <trkpt lat="43.84422" lon="7.34466">
        <ele>451.901947</ele>
        <time>2011-11-11T07:27:05Z</time>
      </trkpt>
      <trkpt lat="43.84428" lon="7.34454">
        <ele>452.50589</ele>
        <time>2011-11-11T07:27:10Z</time>
      </trkpt>
      <trkpt lat="43.84434" lon="7.34441">
        <ele>452.715973</ele>
        <time>2011-11-11T07:27:15Z</time>
      </trkpt>
      <trkpt lat="43.8444" lon="7.34428">
        <ele>453.260834</ele>
        <time>2011-11-11T07:27:20Z</time>
      </trkpt>
      <trkpt lat="43.84445" lon="7.34416">
        <ele>453.61264</ele>
        <time>2011-11-11T07:27:25Z</time>
      </trkpt>
      <trkpt lat="43.8445" lon="7.34402">
        <ele>453.726563</ele>
        <time>2011-11-11T07:27:30Z</time>
      </trkpt>
      <trkpt lat="43.84455" lon="7.34389">
        <ele>453.446991</ele>
        <time>2011-11-11T07:27:35Z</time>
      </trkpt>
      <trkpt lat="43.84462" lon="7.34376">
        <ele>453.902771</ele>
        <time>2011-11-11T07:27:40Z</time>
      </trkpt>
      <trkpt lat="43.84472" lon="7.3437">
        <ele>453.906677</ele>
        <time>2011-11-11T07:27:45Z</time>
      </trkpt>
      <trkpt lat="43.84482" lon="7.34366">
        <ele>454.105927</ele>
        <time>2011-11-11T07:27:50Z</time>
      </trkpt>
      <trkpt lat="43.8449" lon="7.34355">
        <ele>454.547333</ele>
        <time>2011-11-11T07:27:55Z</time>
      </trkpt>
      <trkpt lat="43.84498" lon="7.34341">
        <ele>454.713287</ele>
        <time>2011-11-11T07:28:00Z</time>
      </trkpt>
      <trkpt lat="43.84506" lon="7.34328">
        <ele>454.369598</ele>
        <time>2011-11-11T07:28:05Z</time>
      </trkpt>
      <trkpt lat="43.84515" lon="7.34318">
        <ele>454.799591</ele>
        <time>2011-11-11T07:28:10Z</time>
      </trkpt>
      <trkpt lat="43.84525" lon="7.34308">
        <ele>454.822754</ele>
        <time>2011-11-11T07:28:15Z</time>
      </trkpt>
      <trkpt lat="43.84532" lon="7.34293">
        <ele>455.245209</ele>
        <time>2011-11-11T07:28:20Z</time>
      </trkpt>
      <trkpt lat="43.84534" lon="7.34277">
        <ele>455.222321</ele>
        <time>2011-11-11T07:28:25Z</time>
      </trkpt>
      <trkpt lat="43.84537" lon="7.34262">
        <ele>455.063232</ele>
        <time>2011-11-11T07:28:30Z</time>
      </trkpt>
      <trkpt lat="43.84547" lon="7.34254">
        <ele>454.895782</ele>
        <time>2011-11-11T07:28:35Z</time>
      </trkpt>
      <trkpt lat="43.84558" lon="7.34257">
        <ele>455.087372</ele>
        <time>2011-11-11T07:28:40Z</time>
      </trkpt>
      <trkpt lat="43.84569" lon="7.34262">
        <ele>455.529724</ele>
        <time>2011-11-11T07:28:45Z</time>
      </trkpt>
      <trkpt lat="43.8458" lon="7.34268">
        <ele>456.450043</ele>
        <time>2011-11-11T07:28:50Z</time>
      </trkpt>
      <trkpt lat="43.84591" lon="7.34269">
        <ele>457.406311</ele>
        <time>2011-11-11T07:28:55Z</time>
      </trkpt>
      <trkpt lat="43.84603" lon="7.34267">
        <ele>458.307159</ele>
        <time>2011-11-11T07:29:00Z</time>
      </trkpt>
      <trkpt lat="43.84614" lon="7.3427">
        <ele>458.833679</ele>
        <time>2011-11-11T07:29:05Z</time>
      </trkpt>
      <trkpt lat="43.84624" lon="7.34269">
        <ele>461.057098</ele>
        <time>2011-11-11T07:29:10Z</time>
      </trkpt>
      <trkpt lat="43.84632" lon="7.34264">
        <ele>463.343445</ele>
        <time>2011-11-11T07:29:15Z</time>
      </trkpt>
      <trkpt lat="43.84642" lon="7.34257">
        <ele>464.771515</ele>
        <time>2011-11-11T07:29:20Z</time>
      </trkpt>
      <trkpt lat="43.84653" lon="7.3425">
        <ele>464.881958</ele>
        <time>2011-11-11T07:29:25Z</time>
      </trkpt>
      <trkpt lat="43.84665" lon="7.34251">
        <ele>464.685577</ele>
        <time>2011-11-11T07:29:30Z</time>
      </trkpt>
      <trkpt lat="43.84677" lon="7.34254">
        <ele>465.575684</ele>
        <time>2011-11-11T07:29:35Z</time>
      </trkpt>
      <trkpt lat="43.84686" lon="7.34255">
        <ele>467.296753</ele>
        <time>2011-11-11T07:29:40Z</time>
      </trkpt>
      <trkpt lat="43.84689" lon="7.34246">
        <ele>469.014862</ele>
        <time>2011-11-11T07:29:45Z</time>
      </trkpt>
      <trkpt lat="43.84686" lon="7.34236">
        <ele>470.181366</ele>
        <time>2011-11-11T07:29:50Z</time>
      </trkpt>
      <trkpt lat="43.84682" lon="7.34223">
        <ele>467.875305</ele>
        <time>2011-11-11T07:29:55Z</time>
      </trkpt>
      <trkpt lat="43.84682" lon="7.34209">
        <ele>469.353149</ele>
        <time>2011-11-11T07:30:00Z</time>
      </trkpt>
      <trkpt lat="43.84687" lon="7.34195">
        <ele>467.444183</ele>
        <time>2011-11-11T07:30:05Z</time>
      </trkpt>
      <trkpt lat="43.84694" lon="7.34182">
        <ele>467.496857</ele>
        <time>2011-11-11T07:30:10Z</time>
      </trkpt>
      <trkpt lat="43.84698" lon="7.3417">
        <ele>469.75647</ele>
        <time>2011-11-11T07:30:15Z</time>
      </trkpt>
      <trkpt lat="43.84701" lon="7.34158">
        <ele>472.634949</ele>
        <time>2011-11-11T07:30:20Z</time>
      </trkpt>
      <trkpt lat="43.84706" lon="7.34143">
        <ele>472.706451</ele>
        <time>2011-11-11T07:30:25Z</time>
      </trkpt>
      <trkpt lat="43.84714" lon="7.34123">
        <ele>471.78775</ele>
        <time>2011-11-11T07:30:30Z</time>
      </trkpt>
      <trkpt lat="43.8473" lon="7.34108">
        <ele>470.102539</ele>
        <time>2011-11-11T07:30:35Z</time>
      </trkpt>
      <trkpt lat="43.84732" lon="7.34088">
        <ele>469.169373</ele>
        <time>2011-11-11T07:30:40Z</time>
      </trkpt>
      <trkpt lat="43.8473" lon="7.34069">
        <ele>468.990143</ele>
        <time>2011-11-11T07:30:45Z</time>
      </trkpt>
      <trkpt lat="43.84736" lon="7.34049">
        <ele>468.743073</ele>
        <time>2011-11-11T07:30:50Z</time>
      </trkpt>
      <trkpt lat="43.84739" lon="7.3403">
        <ele>468.66803</ele>
        <time>2011-11-11T07:30:55Z</time>
      </trkpt>
      <trkpt lat="43.84748" lon="7.34014">
        <ele>467.912811</ele>
        <time>2011-11-11T07:31:00Z</time>
      </trkpt>
      <trkpt lat="43.84758" lon="7.33999">
        <ele>468.533447</ele>
        <time>2011-11-11T07:31:05Z</time>
      </trkpt>
      <trkpt lat="43.84759" lon="7.33983">
        <ele>468.677979</ele>
        <time>2011-11-11T07:31:10Z</time>
      </trkpt>
      <trkpt lat="43.84768" lon="7.3397">
        <ele>469.710999</ele>
        <time>2011-11-11T07:31:15Z</time>
      </trkpt>
      <trkpt lat="43.84777" lon="7.33959">
        <ele>470.333801</ele>
        <time>2011-11-11T07:31:20Z</time>
      </trkpt>
      <trkpt lat="43.84787" lon="7.33952">
        <ele>471.432709</ele>
        <time>2011-11-11T07:31:25Z</time>
      </trkpt>
      <trkpt lat="43.84797" lon="7.33943">
        <ele>472.348938</ele>
        <time>2011-11-11T07:31:30Z</time>
      </trkpt>
      <trkpt lat="43.84806" lon="7.33931">
        <ele>472.660828</ele>
        <time>2011-11-11T07:31:35Z</time>
      </trkpt>
      <trkpt lat="43.84814" lon="7.3392">
        <ele>472.90918</ele>
        <time>2011-11-11T07:31:40Z</time>
      </trkpt>
      <trkpt lat="43.84823" lon="7.33911">
        <ele>473.398468</ele>
        <time>2011-11-11T07:31:45Z</time>
      </trkpt>
      <trkpt lat="43.84834" lon="7.33907">
        <ele>474.234009</ele>
        <time>2011-11-11T07:31:50Z</time>
      </trkpt>
      <trkpt lat="43.84845" lon="7.33906">
        <ele>475.030487</ele>
        <time>2011-11-11T07:31:55Z</time>
      </trkpt>
      <trkpt lat="43.84857" lon="7.3391">
        <ele>476.106049</ele>
        <time>2011-11-11T07:32:00Z</time>
      </trkpt>
      <trkpt lat="43.84868" lon="7.33915">
        <ele>476.89978</ele>
        <time>2011-11-11T07:32:05Z</time>
      </trkpt>
      <trkpt lat="43.84879" lon="7.33912">
        <ele>477.447571</ele>
        <time>2011-11-11T07:32:10Z</time>
      </trkpt>
      <trkpt lat="43.84891" lon="7.33908">
        <ele>478.057373</ele>
        <time>2011-11-11T07:32:15Z</time>
      </trkpt>
      <trkpt lat="43.84902" lon="7.33898">
        <ele>478.300293</ele>
        <time>2011-11-11T07:32:20Z</time>
      </trkpt>
      <trkpt lat="43.84913" lon="7.33886">
        <ele>478.460388</ele>
        <time>2011-11-11T07:32:25Z</time>
      </trkpt>
      <trkpt lat="43.84926" lon="7.33876">
        <ele>478.515015</ele>
        <time>2011-11-11T07:32:30Z</time>
      </trkpt>
      <trkpt lat="43.84941" lon="7.3387">
        <ele>478.766632</ele>
        <time>2011-11-11T07:32:35Z</time>
      </trkpt>
      <trkpt lat="43.84955" lon="7.33863">
        <ele>478.020569</ele>
        <time>2011-11-11T07:32:40Z</time>
      </trkpt>
      <trkpt lat="43.84965" lon="7.33848">
        <ele>477.580383</ele>
        <time>2011-11-11T07:32:45Z</time>
      </trkpt>
      <trkpt lat="43.84978" lon="7.33837">
        <ele>477.024475</ele>
        <time>2011-11-11T07:32:50Z</time>
      </trkpt>
      <trkpt lat="43.8499" lon="7.33825">
        <ele>476.820526</ele>
        <time>2011-11-11T07:32:55Z</time>
      </trkpt>
      <trkpt lat="43.85004" lon="7.33818">
        <ele>476.288849</ele>
        <time>2011-11-11T07:33:00Z</time>
      </trkpt>
      <trkpt lat="43.85018" lon="7.33815">
        <ele>476.355835</ele>
        <time>2011-11-11T07:33:05Z</time>
      </trkpt>
      <trkpt lat="43.85028" lon="7.33802">
        <ele>476.525177</ele>
        <time>2011-11-11T07:33:10Z</time>
      </trkpt>
      <trkpt lat="43.85034" lon="7.33788">
        <ele>476.299744</ele>
        <time>2011-11-11T07:33:15Z</time>
      </trkpt>
      <trkpt lat="43.85042" lon="7.33775">
        <ele>476.224121</ele>
        <time>2011-11-11T07:33:20Z</time>
      </trkpt>
      <trkpt lat="43.85054" lon="7.33767">
        <ele>476.115204</ele>
        <time>2011-11-11T07:33:25Z</time>
      </trkpt>
      <trkpt lat="43.85066" lon="7.33762">
        <ele>476.314697</ele>
        <time>2011-11-11T07:33:30Z</time>
      </trkpt>
      <trkpt lat="43.8508" lon="7.33761">
        <ele>476.30423</ele>
        <time>2011-11-11T07:33:35Z</time>
      </trkpt>
      <trkpt lat="43.85093" lon="7.3376">
        <ele>476.186951</ele>
        <time>2011-11-11T07:33:40Z</time>
      </trkpt>
      <trkpt lat="43.85106" lon="7.33761">
        <ele>476.693817</ele>
        <time>2011-11-11T07:33:45Z</time>
      </trkpt>
      <trkpt lat="43.85113" lon="7.33753">
        <ele>475.873077</ele>
        <time>2011-11-11T07:33:50Z</time>
      </trkpt>
      <trkpt lat="43.85123" lon="7.33744">
        <ele>475.191681</ele>
        <time>2011-11-11T07:33:55Z</time>
      </trkpt>
      <trkpt lat="43.85125" lon="7.33742">
        <ele>475.959991</ele>
        <time>2011-11-11T07:34:45Z</time>
      </trkpt>
      <trkpt lat="43.85126" lon="7.33742">
        <ele>476.964294</ele>
        <time>2011-11-11T07:34:50Z</time>
      </trkpt>
      <trkpt lat="43.85133" lon="7.33741">
        <ele>478.509674</ele>
        <time>2011-11-11T07:34:55Z</time>
      </trkpt>
      <trkpt lat="43.85134" lon="7.33741">
        <ele>479.144684</ele>
        <time>2011-11-11T07:35:00Z</time>
      </trkpt>
      <trkpt lat="43.85142" lon="7.33741">
        <ele>481.016907</ele>
        <time>2011-11-11T07:35:05Z</time>
      </trkpt>
      <trkpt lat="43.8515" lon="7.33745">
        <ele>483.749542</ele>
        <time>2011-11-11T07:35:10Z</time>
      </trkpt>
      <trkpt lat="43.85157" lon="7.33739">
        <ele>485.093872</ele>
        <time>2011-11-11T07:35:15Z</time>
      </trkpt>
      <trkpt lat="43.85164" lon="7.33734">
        <ele>485.934784</ele>
        <time>2011-11-11T07:35:20Z</time>
      </trkpt>
      <trkpt lat="43.85172" lon="7.33735">
        <ele>486.091125</ele>
        <time>2011-11-11T07:35:25Z</time>
      </trkpt>
      <trkpt lat="43.85182" lon="7.33737">
        <ele>485.009552</ele>
        <time>2011-11-11T07:35:30Z</time>
      </trkpt>
      <trkpt lat="43.85187" lon="7.33724">
        <ele>486.637787</ele>
        <time>2011-11-11T07:35:35Z</time>
      </trkpt>
      <trkpt lat="43.85198" lon="7.33722">
        <ele>485.746552</ele>
        <time>2011-11-11T07:35:40Z</time>
      </trkpt>
      <trkpt lat="43.8521" lon="7.33721">
        <ele>486.69693</ele>
        <time>2011-11-11T07:35:45Z</time>
      </trkpt>
      <trkpt lat="43.85222" lon="7.33723">
        <ele>487.346985</ele>
        <time>2011-11-11T07:35:50Z</time>
      </trkpt>
      <trkpt lat="43.85233" lon="7.33721">
        <ele>487.84726</ele>
        <time>2011-11-11T07:35:55Z</time>
      </trkpt>
      <trkpt lat="43.85244" lon="7.33713">
        <ele>488.958954</ele>
        <time>2011-11-11T07:36:00Z</time>
      </trkpt>
      <trkpt lat="43.85253" lon="7.33698">
        <ele>488.998749</ele>
        <time>2011-11-11T07:36:05Z</time>
      </trkpt>
      <trkpt lat="43.8526" lon="7.33683">
        <ele>488.46283</ele>
        <time>2011-11-11T07:36:10Z</time>
      </trkpt>
      <trkpt lat="43.85266" lon="7.33668">
        <ele>487.824036</ele>
        <time>2011-11-11T07:36:15Z</time>
      </trkpt>
      <trkpt lat="43.85263" lon="7.33651">
        <ele>487.453735</ele>
        <time>2011-11-11T07:36:20Z</time>
      </trkpt>
      <trkpt lat="43.8526" lon="7.33633">
        <ele>487.498993</ele>
        <time>2011-11-11T07:36:25Z</time>
      </trkpt>
      <trkpt lat="43.85261" lon="7.33619">
        <ele>488.31897</ele>
        <time>2011-11-11T07:36:30Z</time>
      </trkpt>
      <trkpt lat="43.8527" lon="7.33609">
        <ele>488.089935</ele>
        <time>2011-11-11T07:36:35Z</time>
      </trkpt>
      <trkpt lat="43.8528" lon="7.336">
        <ele>487.992004</ele>
        <time>2011-11-11T07:36:40Z</time>
      </trkpt>
      <trkpt lat="43.85293" lon="7.33598">
        <ele>487.281403</ele>
        <time>2011-11-11T07:36:45Z</time>
      </trkpt>
      <trkpt lat="43.85308" lon="7.33605">
        <ele>487.670624</ele>
        <time>2011-11-11T07:36:50Z</time>
      </trkpt>
      <trkpt lat="43.85314" lon="7.33618">
        <ele>488.487885</ele>
        <time>2011-11-11T07:36:55Z</time>
      </trkpt>
      <trkpt lat="43.85316" lon="7.33632">
        <ele>489.868164</ele>
        <time>2011-11-11T07:37:00Z</time>
      </trkpt>
      <trkpt lat="43.85324" lon="7.33643">
        <ele>491.988159</ele>
        <time>2011-11-11T07:37:05Z</time>
      </trkpt>
      <trkpt lat="43.85331" lon="7.33637">
        <ele>493.689117</ele>
        <time>2011-11-11T07:37:10Z</time>
      </trkpt>
      <trkpt lat="43.85337" lon="7.33629">
        <ele>494.588501</ele>
        <time>2011-11-11T07:37:15Z</time>
      </trkpt>
      <trkpt lat="43.85348" lon="7.33624">
        <ele>494.37262</ele>
        <time>2011-11-11T07:37:20Z</time>
      </trkpt>
      <trkpt lat="43.85359" lon="7.3362">
        <ele>495.94928</ele>
        <time>2011-11-11T07:37:25Z</time>
      </trkpt>
      <trkpt lat="43.8537" lon="7.33618">
        <ele>497.486328</ele>
        <time>2011-11-11T07:37:30Z</time>
      </trkpt>
      <trkpt lat="43.85379" lon="7.33616">
        <ele>499.662079</ele>
        <time>2011-11-11T07:37:35Z</time>
      </trkpt>
      <trkpt lat="43.85388" lon="7.33613">
        <ele>502.014587</ele>
        <time>2011-11-11T07:37:40Z</time>
      </trkpt>
      <trkpt lat="43.85395" lon="7.3361">
        <ele>503.351166</ele>
        <time>2011-11-11T07:37:45Z</time>
      </trkpt>
      <trkpt lat="43.85403" lon="7.33608">
        <ele>504.646729</ele>
        <time>2011-11-11T07:37:50Z</time>
      </trkpt>
      <trkpt lat="43.85411" lon="7.33609">
        <ele>505.79245</ele>
        <time>2011-11-11T07:37:55Z</time>
      </trkpt>
      <trkpt lat="43.85417" lon="7.33608">
        <ele>506.063019</ele>
        <time>2011-11-11T07:38:00Z</time>
      </trkpt>
      <trkpt lat="43.85423" lon="7.33609">
        <ele>506.708862</ele>
        <time>2011-11-11T07:38:05Z</time>
      </trkpt>
      <trkpt lat="43.8543" lon="7.3361">
        <ele>506.370697</ele>
        <time>2011-11-11T07:38:10Z</time>
      </trkpt>
      <trkpt lat="43.85437" lon="7.33614">
        <ele>506.810394</ele>
        <time>2011-11-11T07:38:15Z</time>
      </trkpt>
      <trkpt lat="43.85442" lon="7.33623">
        <ele>508.301727</ele>
        <time>2011-11-11T07:38:20Z</time>
      </trkpt>
      <trkpt lat="43.85434" lon="7.33623">
        <ele>509.92572</ele>
        <time>2011-11-11T07:38:25Z</time>
      </trkpt>
      <trkpt lat="43.85426" lon="7.33621">
        <ele>511.168549</ele>
        <time>2011-11-11T07:38:30Z</time>
      </trkpt>
      <trkpt lat="43.85418" lon="7.3362">
        <ele>511.221649</ele>
        <time>2011-11-11T07:38:35Z</time>
      </trkpt>
      <trkpt lat="43.85411" lon="7.33621">
        <ele>511.047058</ele>
        <time>2011-11-11T07:38:40Z</time>
      </trkpt>
      <trkpt lat="43.85403" lon="7.33626">
        <ele>510.407959</ele>
        <time>2011-11-11T07:38:45Z</time>
      </trkpt>
      <trkpt lat="43.85392" lon="7.33636">
        <ele>509.73349</ele>
        <time>2011-11-11T07:38:50Z</time>
      </trkpt>
      <trkpt lat="43.85384" lon="7.33647">
        <ele>510.725983</ele>
        <time>2011-11-11T07:38:55Z</time>
      </trkpt>
      <trkpt lat="43.85378" lon="7.33656">
        <ele>511.855865</ele>
        <time>2011-11-11T07:39:00Z</time>
      </trkpt>
      <trkpt lat="43.85371" lon="7.33661">
        <ele>512.641479</ele>
        <time>2011-11-11T07:39:05Z</time>
      </trkpt>
      <trkpt lat="43.85362" lon="7.33666">
        <ele>513.601135</ele>
        <time>2011-11-11T07:39:10Z</time>
      </trkpt>
      <trkpt lat="43.85354" lon="7.33672">
        <ele>514.177368</ele>
        <time>2011-11-11T07:39:15Z</time>
      </trkpt>
      <trkpt lat="43.85346" lon="7.3368">
        <ele>515.088257</ele>
        <time>2011-11-11T07:39:20Z</time>
      </trkpt>
      <trkpt lat="43.8534" lon="7.33689">
        <ele>517.254639</ele>
        <time>2011-11-11T07:39:25Z</time>
      </trkpt>
      <trkpt lat="43.85336" lon="7.33699">
        <ele>519.323853</ele>
        <time>2011-11-11T07:39:30Z</time>
      </trkpt>
      <trkpt lat="43.85333" lon="7.3371">
        <ele>521.144775</ele>
        <time>2011-11-11T07:39:35Z</time>
      </trkpt>
      <trkpt lat="43.85332" lon="7.33721">
        <ele>521.304382</ele>
        <time>2011-11-11T07:39:40Z</time>
      </trkpt>
      <trkpt lat="43.85331" lon="7.33731">
        <ele>522.365479</ele>
        <time>2011-11-11T07:39:45Z</time>
      </trkpt>
      <trkpt lat="43.85328" lon="7.3374">
        <ele>524.164856</ele>
        <time>2011-11-11T07:39:50Z</time>
      </trkpt>
      <trkpt lat="43.85326" lon="7.33749">
        <ele>524.866943</ele>
        <time>2011-11-11T07:39:55Z</time>
      </trkpt>
      <trkpt lat="43.85321" lon="7.33757">
        <ele>527.170898</ele>
        <time>2011-11-11T07:40:00Z</time>
      </trkpt>
      <trkpt lat="43.85314" lon="7.33761">
        <ele>527.434998</ele>
        <time>2011-11-11T07:40:05Z</time>
      </trkpt>
      <trkpt lat="43.85307" lon="7.33761">
        <ele>529.257568</ele>
        <time>2011-11-11T07:40:10Z</time>
      </trkpt>
      <trkpt lat="43.853" lon="7.33755">
        <ele>530.156982</ele>
        <time>2011-11-11T07:40:15Z</time>
      </trkpt>
      <trkpt lat="43.85294" lon="7.33749">
        <ele>531.931824</ele>
        <time>2011-11-11T07:40:20Z</time>
      </trkpt>
      <trkpt lat="43.85291" lon="7.33754">
        <ele>531.745911</ele>
        <time>2011-11-11T07:40:25Z</time>
      </trkpt>
      <trkpt lat="43.85294" lon="7.33761">
        <ele>534.373779</ele>
        <time>2011-11-11T07:40:30Z</time>
      </trkpt>
      <trkpt lat="43.85299" lon="7.33768">
        <ele>534.326538</ele>
        <time>2011-11-11T07:40:35Z</time>
      </trkpt>
      <trkpt lat="43.85303" lon="7.33775">
        <ele>534.805786</ele>
        <time>2011-11-11T07:40:40Z</time>
      </trkpt>
      <trkpt lat="43.85307" lon="7.33781">
        <ele>536.822998</ele>
        <time>2011-11-11T07:40:45Z</time>
      </trkpt>
      <trkpt lat="43.85316" lon="7.33783">
        <ele>538.238464</ele>
        <time>2011-11-11T07:40:50Z</time>
      </trkpt>
      <trkpt lat="43.85324" lon="7.33785">
        <ele>537.710449</ele>
        <time>2011-11-11T07:40:55Z</time>
      </trkpt>
      <trkpt lat="43.85326" lon="7.33793">
        <ele>538.367004</ele>
        <time>2011-11-11T07:41:00Z</time>
      </trkpt>
      <trkpt lat="43.85321" lon="7.338">
        <ele>540.570801</ele>
        <time>2011-11-11T07:41:05Z</time>
      </trkpt>
      <trkpt lat="43.85313" lon="7.33801">
        <ele>543.334351</ele>
        <time>2011-11-11T07:41:10Z</time>
      </trkpt>
      <trkpt lat="43.85306" lon="7.33798">
        <ele>545.016541</ele>
        <time>2011-11-11T07:41:15Z</time>
      </trkpt>
      <trkpt lat="43.853" lon="7.33794">
        <ele>546.701355</ele>
        <time>2011-11-11T07:41:20Z</time>
      </trkpt>
      <trkpt lat="43.85295" lon="7.33789">
        <ele>547.790894</ele>
        <time>2011-11-11T07:41:25Z</time>
      </trkpt>
      <trkpt lat="43.85291" lon="7.33786">
        <ele>547.072144</ele>
        <time>2011-11-11T07:41:30Z</time>
      </trkpt>
      <trkpt lat="43.85284" lon="7.33787">
        <ele>547.157227</ele>
        <time>2011-11-11T07:41:35Z</time>
      </trkpt>
      <trkpt lat="43.85276" lon="7.3379">
        <ele>548.833984</ele>
        <time>2011-11-11T07:41:40Z</time>
      </trkpt>
      <trkpt lat="43.85268" lon="7.33794">
        <ele>550.578186</ele>
        <time>2011-11-11T07:41:45Z</time>
      </trkpt>
      <trkpt lat="43.85262" lon="7.33798">
        <ele>551.429077</ele>
        <time>2011-11-11T07:41:50Z</time>
      </trkpt>
      <trkpt lat="43.85258" lon="7.33804">
        <ele>551.895691</ele>
        <time>2011-11-11T07:41:55Z</time>
      </trkpt>
      <trkpt lat="43.85255" lon="7.33811">
        <ele>551.413574</ele>
        <time>2011-11-11T07:42:00Z</time>
      </trkpt>
      <trkpt lat="43.85253" lon="7.3382">
        <ele>551.679749</ele>
        <time>2011-11-11T07:42:05Z</time>
      </trkpt>
      <trkpt lat="43.8525" lon="7.33829">
        <ele>554.023621</ele>
        <time>2011-11-11T07:42:10Z</time>
      </trkpt>
      <trkpt lat="43.85246" lon="7.33838">
        <ele>555.984009</ele>
        <time>2011-11-11T07:42:15Z</time>
      </trkpt>
      <trkpt lat="43.85242" lon="7.33847">
        <ele>556.044739</ele>
        <time>2011-11-11T07:42:20Z</time>
      </trkpt>
      <trkpt lat="43.85237" lon="7.33855">
        <ele>558.562317</ele>
        <time>2011-11-11T07:42:25Z</time>
      </trkpt>
      <trkpt lat="43.85232" lon="7.33862">
        <ele>560.357849</ele>
        <time>2011-11-11T07:42:30Z</time>
      </trkpt>
      <trkpt lat="43.85231" lon="7.3387">
        <ele>560.85675</ele>
        <time>2011-11-11T07:42:35Z</time>
      </trkpt>
      <trkpt lat="43.85228" lon="7.33877">
        <ele>563.042908</ele>
        <time>2011-11-11T07:42:40Z</time>
      </trkpt>
      <trkpt lat="43.85227" lon="7.33884">
        <ele>563.170898</ele>
        <time>2011-11-11T07:42:45Z</time>
      </trkpt>
      <trkpt lat="43.85226" lon="7.33892">
        <ele>564.961426</ele>
        <time>2011-11-11T07:42:50Z</time>
      </trkpt>
      <trkpt lat="43.85226" lon="7.33897">
        <ele>565.083923</ele>
        <time>2011-11-11T07:42:55Z</time>
      </trkpt>
      <trkpt lat="43.85225" lon="7.339">
        <ele>564.747375</ele>
        <time>2011-11-11T07:43:00Z</time>
      </trkpt>
      <trkpt lat="43.85225" lon="7.33905">
        <ele>566.192688</ele>
        <time>2011-11-11T07:43:05Z</time>
      </trkpt>
      <trkpt lat="43.85226" lon="7.33909">
        <ele>566.78009</ele>
        <time>2011-11-11T07:43:10Z</time>
      </trkpt>
      <trkpt lat="43.85227" lon="7.33914">
        <ele>567.389526</ele>
        <time>2011-11-11T07:43:15Z</time>
      </trkpt>
      <trkpt lat="43.85227" lon="7.33918">
        <ele>568.733582</ele>
        <time>2011-11-11T07:43:20Z</time>
      </trkpt>
      <trkpt lat="43.85227" lon="7.33924">
        <ele>570.105957</ele>
        <time>2011-11-11T07:43:25Z</time>
      </trkpt>
      <trkpt lat="43.85228" lon="7.33929">
        <ele>571.012024</ele>
        <time>2011-11-11T07:43:30Z</time>
      </trkpt>
      <trkpt lat="43.85228" lon="7.33934">
        <ele>571.944519</ele>
        <time>2011-11-11T07:43:35Z</time>
      </trkpt>
      <trkpt lat="43.85229" lon="7.3394">
        <ele>572.84613</ele>
        <time>2011-11-11T07:43:40Z</time>
      </trkpt>
      <trkpt lat="43.85231" lon="7.33945">
        <ele>573.64563</ele>
        <time>2011-11-11T07:43:45Z</time>
      </trkpt>
      <trkpt lat="43.85232" lon="7.33952">
        <ele>574.039612</ele>
        <time>2011-11-11T07:43:50Z</time>
      </trkpt>
      <trkpt lat="43.85232" lon="7.33959">
        <ele>573.800354</ele>
        <time>2011-11-11T07:43:55Z</time>
      </trkpt>
      <trkpt lat="43.85233" lon="7.33957">
        <ele>572.678833</ele>
        <time>2011-11-11T07:44:00Z</time>
      </trkpt>
      <trkpt lat="43.85234" lon="7.33956">
        <ele>572.064697</ele>
        <time>2011-11-11T07:44:05Z</time>
      </trkpt>
      <trkpt lat="43.85234" lon="7.33957">
        <ele>572.697266</ele>
        <time>2011-11-11T07:44:10Z</time>
      </trkpt>
      <trkpt lat="43.85235" lon="7.33954">
        <ele>571.902161</ele>
        <time>2011-11-11T07:44:15Z</time>
      </trkpt>
      <trkpt lat="43.85234" lon="7.33955">
        <ele>570.453186</ele>
        <time>2011-11-11T07:44:20Z</time>
      </trkpt>
      <trkpt lat="43.8531" lon="7.33897">
        <ele>585.426147</ele>
        <time>2011-11-11T07:49:45Z</time>
      </trkpt>
      <trkpt lat="43.85401" lon="7.33948">
        <ele>595.690796</ele>
        <time>2011-11-11T07:51:55Z</time>
      </trkpt>
      <trkpt lat="43.85406" lon="7.33953">
        <ele>597.275269</ele>
        <time>2011-11-11T07:52:00Z</time>
      </trkpt>
      <trkpt lat="43.85411" lon="7.33956">
        <ele>598.626892</ele>
        <time>2011-11-11T07:52:05Z</time>
      </trkpt>
      <trkpt lat="43.85416" lon="7.33955">
        <ele>599.533264</ele>
        <time>2011-11-11T07:52:10Z</time>
      </trkpt>
      <trkpt lat="43.85419" lon="7.33948">
        <ele>600.852722</ele>
        <time>2011-11-11T07:52:15Z</time>
      </trkpt>
      <trkpt lat="43.85418" lon="7.3394">
        <ele>602.233887</ele>
        <time>2011-11-11T07:52:20Z</time>
      </trkpt>
      <trkpt lat="43.85416" lon="7.33932">
        <ele>603.210999</ele>
        <time>2011-11-11T07:52:25Z</time>
      </trkpt>
      <trkpt lat="43.85417" lon="7.33925">
        <ele>603.335327</ele>
        <time>2011-11-11T07:52:30Z</time>
      </trkpt>
      <trkpt lat="43.85417" lon="7.33918">
        <ele>603.749451</ele>
        <time>2011-11-11T07:52:35Z</time>
      </trkpt>
      <trkpt lat="43.85417" lon="7.33912">
        <ele>603.744507</ele>
        <time>2011-11-11T07:52:40Z</time>
      </trkpt>
      <trkpt lat="43.85416" lon="7.33904">
        <ele>604.603394</ele>
        <time>2011-11-11T07:52:45Z</time>
      </trkpt>
      <trkpt lat="43.85414" lon="7.33897">
        <ele>605.153564</ele>
        <time>2011-11-11T07:52:50Z</time>
      </trkpt>
      <trkpt lat="43.85417" lon="7.33891">
        <ele>604.816833</ele>
        <time>2011-11-11T07:52:55Z</time>
      </trkpt>
      <trkpt lat="43.85422" lon="7.33889">
        <ele>605.708191</ele>
        <time>2011-11-11T07:53:00Z</time>
      </trkpt>
      <trkpt lat="43.85428" lon="7.3389">
        <ele>606.462646</ele>
        <time>2011-11-11T07:53:05Z</time>
      </trkpt>
      <trkpt lat="43.85434" lon="7.33893">
        <ele>606.654419</ele>
        <time>2011-11-11T07:53:10Z</time>
      </trkpt>
      <trkpt lat="43.85439" lon="7.33896">
        <ele>607.207092</ele>
        <time>2011-11-11T07:53:15Z</time>
      </trkpt>
      <trkpt lat="43.85444" lon="7.33895">
        <ele>607.401917</ele>
        <time>2011-11-11T07:53:20Z</time>
      </trkpt>
      <trkpt lat="43.85448" lon="7.33895">
        <ele>607.472534</ele>
        <time>2011-11-11T07:53:25Z</time>
      </trkpt>
      <trkpt lat="43.85453" lon="7.33897">
        <ele>607.354065</ele>
        <time>2011-11-11T07:53:30Z</time>
      </trkpt>
      <trkpt lat="43.85458" lon="7.33898">
        <ele>607.27179</ele>
        <time>2011-11-11T07:53:35Z</time>
      </trkpt>
      <trkpt lat="43.85464" lon="7.33899">
        <ele>607.15625</ele>
        <time>2011-11-11T07:53:40Z</time>
      </trkpt>
      <trkpt lat="43.85466" lon="7.33899">
        <ele>606.57019</ele>
        <time>2011-11-11T07:53:45Z</time>
      </trkpt>
      <trkpt lat="43.85466" lon="7.33899">
        <ele>606.473267</ele>
        <time>2011-11-11T07:53:50Z</time>
      </trkpt>
      <trkpt lat="43.85466" lon="7.33899">
        <ele>606.429749</ele>
        <time>2011-11-11T07:53:55Z</time>
      </trkpt>
      <trkpt lat="43.85466" lon="7.33899">
        <ele>606.382324</ele>
        <time>2011-11-11T07:54:00Z</time>
      </trkpt>
      <trkpt lat="43.85466" lon="7.33899">
        <ele>606.373474</ele>
        <time>2011-11-11T07:54:05Z</time>
      </trkpt>
      <trkpt lat="43.85474" lon="7.33901">
        <ele>606.88855</ele>
        <time>2011-11-11T07:54:10Z</time>
      </trkpt>
      <trkpt lat="43.85485" lon="7.33902">
        <ele>607.020874</ele>
        <time>2011-11-11T07:54:15Z</time>
      </trkpt>
      <trkpt lat="43.85497" lon="7.33901">
        <ele>606.602966</ele>
        <time>2011-11-11T07:54:20Z</time>
      </trkpt>
      <trkpt lat="43.85509" lon="7.339">
        <ele>606.921509</ele>
        <time>2011-11-11T07:54:25Z</time>
      </trkpt>
      <trkpt lat="43.85522" lon="7.33898">
        <ele>607.763855</ele>
        <time>2011-11-11T07:54:30Z</time>
      </trkpt>
      <trkpt lat="43.85533" lon="7.33896">
        <ele>608.817871</ele>
        <time>2011-11-11T07:54:35Z</time>
      </trkpt>
      <trkpt lat="43.85544" lon="7.33894">
        <ele>610.359009</ele>
        <time>2011-11-11T07:54:40Z</time>
      </trkpt>
      <trkpt lat="43.85554" lon="7.33893">
        <ele>610.634949</ele>
        <time>2011-11-11T07:54:45Z</time>
      </trkpt>
      <trkpt lat="43.85563" lon="7.33891">
        <ele>610.693115</ele>
        <time>2011-11-11T07:54:50Z</time>
      </trkpt>
      <trkpt lat="43.85574" lon="7.33889">
        <ele>610.271118</ele>
        <time>2011-11-11T07:54:55Z</time>
      </trkpt>
      <trkpt lat="43.85583" lon="7.33887">
        <ele>609.444702</ele>
        <time>2011-11-11T07:55:00Z</time>
      </trkpt>
      <trkpt lat="43.85594" lon="7.33888">
        <ele>608.663208</ele>
        <time>2011-11-11T07:55:05Z</time>
      </trkpt>
      <trkpt lat="43.85602" lon="7.33894">
        <ele>609.242126</ele>
        <time>2011-11-11T07:55:10Z</time>
      </trkpt>
      <trkpt lat="43.8561" lon="7.33898">
        <ele>610.760193</ele>
        <time>2011-11-11T07:55:15Z</time>
      </trkpt>
      <trkpt lat="43.85617" lon="7.33902">
        <ele>611.867737</ele>
        <time>2011-11-11T07:55:20Z</time>
      </trkpt>
      <trkpt lat="43.85625" lon="7.33901">
        <ele>613.164124</ele>
        <time>2011-11-11T07:55:25Z</time>
      </trkpt>
      <trkpt lat="43.85633" lon="7.339">
        <ele>614.886047</ele>
        <time>2011-11-11T07:55:30Z</time>
      </trkpt>
      <trkpt lat="43.85642" lon="7.33898">
        <ele>614.410217</ele>
        <time>2011-11-11T07:55:35Z</time>
      </trkpt>
      <trkpt lat="43.85651" lon="7.33895">
        <ele>614.618713</ele>
        <time>2011-11-11T07:55:40Z</time>
      </trkpt>
      <trkpt lat="43.85659" lon="7.33892">
        <ele>615.904541</ele>
        <time>2011-11-11T07:55:45Z</time>
      </trkpt>
      <trkpt lat="43.85667" lon="7.3389">
        <ele>616.042114</ele>
        <time>2011-11-11T07:55:50Z</time>
      </trkpt>
      <trkpt lat="43.85673" lon="7.33886">
        <ele>617.187683</ele>
        <time>2011-11-11T07:55:55Z</time>
      </trkpt>
      <trkpt lat="43.8568" lon="7.33882">
        <ele>617.737793</ele>
        <time>2011-11-11T07:56:00Z</time>
      </trkpt>
      <trkpt lat="43.85686" lon="7.33877">
        <ele>617.606812</ele>
        <time>2011-11-11T07:56:05Z</time>
      </trkpt>
      <trkpt lat="43.85692" lon="7.33869">
        <ele>618.217163</ele>
        <time>2011-11-11T07:56:10Z</time>
      </trkpt>
      <trkpt lat="43.85697" lon="7.3386">
        <ele>619.544373</ele>
        <time>2011-11-11T07:56:15Z</time>
      </trkpt>
      <trkpt lat="43.85703" lon="7.33856">
        <ele>620.339478</ele>
        <time>2011-11-11T07:56:20Z</time>
      </trkpt>
      <trkpt lat="43.85705" lon="7.33863">
        <ele>622.471497</ele>
        <time>2011-11-11T07:56:25Z</time>
      </trkpt>
      <trkpt lat="43.85702" lon="7.33872">
        <ele>624.852722</ele>
        <time>2011-11-11T07:56:30Z</time>
      </trkpt>
      <trkpt lat="43.85699" lon="7.33873">
        <ele>632.299072</ele>
        <time>2011-11-11T07:59:15Z</time>
      </trkpt>
      <trkpt lat="43.85697" lon="7.33878">
        <ele>633.169128</ele>
        <time>2011-11-11T07:59:20Z</time>
      </trkpt>
      <trkpt lat="43.85693" lon="7.33886">
        <ele>634.277954</ele>
        <time>2011-11-11T07:59:25Z</time>
      </trkpt>
      <trkpt lat="43.85687" lon="7.33893">
        <ele>636.55304</ele>
        <time>2011-11-11T07:59:30Z</time>
      </trkpt>
      <trkpt lat="43.8568" lon="7.33899">
        <ele>638.358887</ele>
        <time>2011-11-11T07:59:35Z</time>
      </trkpt>
      <trkpt lat="43.85674" lon="7.33906">
        <ele>640.514221</ele>
        <time>2011-11-11T07:59:40Z</time>
      </trkpt>
      <trkpt lat="43.85666" lon="7.33911">
        <ele>641.412109</ele>
        <time>2011-11-11T07:59:45Z</time>
      </trkpt>
      <trkpt lat="43.8566" lon="7.33916">
        <ele>640.939514</ele>
        <time>2011-11-11T07:59:50Z</time>
      </trkpt>
      <trkpt lat="43.85655" lon="7.33921">
        <ele>642.072754</ele>
        <time>2011-11-11T07:59:55Z</time>
      </trkpt>
      <trkpt lat="43.85662" lon="7.33922">
        <ele>641.14978</ele>
        <time>2011-11-11T08:00:00Z</time>
      </trkpt>
      <trkpt lat="43.8567" lon="7.3392">
        <ele>641.289429</ele>
        <time>2011-11-11T08:00:05Z</time>
      </trkpt>
      <trkpt lat="43.85678" lon="7.33918">
        <ele>642.475098</ele>
        <time>2011-11-11T08:00:10Z</time>
      </trkpt>
      <trkpt lat="43.85686" lon="7.33918">
        <ele>642.529602</ele>
        <time>2011-11-11T08:00:15Z</time>
      </trkpt>
      <trkpt lat="43.85694" lon="7.33916">
        <ele>642.987183</ele>
        <time>2011-11-11T08:00:20Z</time>
      </trkpt>
      <trkpt lat="43.857" lon="7.33918">
        <ele>645.104492</ele>
        <time>2011-11-11T08:00:25Z</time>
      </trkpt>
      <trkpt lat="43.85701" lon="7.33925">
        <ele>646.458252</ele>
        <time>2011-11-11T08:00:30Z</time>
      </trkpt>
      <trkpt lat="43.85694" lon="7.33933">
        <ele>646.664734</ele>
        <time>2011-11-11T08:00:35Z</time>
      </trkpt>
      <trkpt lat="43.85688" lon="7.33939">
        <ele>647.694519</ele>
        <time>2011-11-11T08:00:40Z</time>
      </trkpt>
      <trkpt lat="43.85683" lon="7.33946">
        <ele>649.224731</ele>
        <time>2011-11-11T08:00:45Z</time>
      </trkpt>
      <trkpt lat="43.85678" lon="7.33952">
        <ele>650.410767</ele>
        <time>2011-11-11T08:00:50Z</time>
      </trkpt>
      <trkpt lat="43.85672" lon="7.3396">
        <ele>652.160156</ele>
        <time>2011-11-11T08:00:55Z</time>
      </trkpt>
      <trkpt lat="43.85666" lon="7.33966">
        <ele>653.317078</ele>
        <time>2011-11-11T08:01:00Z</time>
      </trkpt>
      <trkpt lat="43.8566" lon="7.33973">
        <ele>652.658752</ele>
        <time>2011-11-11T08:01:05Z</time>
      </trkpt>
      <trkpt lat="43.85653" lon="7.3398">
        <ele>653.069031</ele>
        <time>2011-11-11T08:01:10Z</time>
      </trkpt>
      <trkpt lat="43.85645" lon="7.33987">
        <ele>652.606873</ele>
        <time>2011-11-11T08:01:15Z</time>
      </trkpt>
      <trkpt lat="43.85637" lon="7.33995">
        <ele>653.187439</ele>
        <time>2011-11-11T08:01:20Z</time>
      </trkpt>
      <trkpt lat="43.85635" lon="7.33998">
        <ele>653.440186</ele>
        <time>2011-11-11T08:01:45Z</time>
      </trkpt>
      <trkpt lat="43.85634" lon="7.33999">
        <ele>654.916992</ele>
        <time>2011-11-11T08:01:50Z</time>
      </trkpt>
      <trkpt lat="43.85629" lon="7.34002">
        <ele>655.595825</ele>
        <time>2011-11-11T08:01:55Z</time>
      </trkpt>
      <trkpt lat="43.85622" lon="7.34008">
        <ele>656.114929</ele>
        <time>2011-11-11T08:02:00Z</time>
      </trkpt>
      <trkpt lat="43.85612" lon="7.34011">
        <ele>656.455078</ele>
        <time>2011-11-11T08:02:05Z</time>
      </trkpt>
      <trkpt lat="43.85602" lon="7.34015">
        <ele>656.210266</ele>
        <time>2011-11-11T08:02:10Z</time>
      </trkpt>
      <trkpt lat="43.85593" lon="7.34019">
        <ele>657.107117</ele>
        <time>2011-11-11T08:02:15Z</time>
      </trkpt>
      <trkpt lat="43.85583" lon="7.34023">
        <ele>657.985352</ele>
        <time>2011-11-11T08:02:20Z</time>
      </trkpt>
      <trkpt lat="43.85571" lon="7.34026">
        <ele>660.092285</ele>
        <time>2011-11-11T08:02:25Z</time>
      </trkpt>
      <trkpt lat="43.85564" lon="7.34032">
        <ele>658.919861</ele>
        <time>2011-11-11T08:02:30Z</time>
      </trkpt>
      <trkpt lat="43.85559" lon="7.34039">
        <ele>656.878723</ele>
        <time>2011-11-11T08:02:35Z</time>
      </trkpt>
      <trkpt lat="43.85552" lon="7.34045">
        <ele>657.169556</ele>
        <time>2011-11-11T08:02:40Z</time>
      </trkpt>
      <trkpt lat="43.85558" lon="7.34047">
        <ele>654.801941</ele>
        <time>2011-11-11T08:02:45Z</time>
      </trkpt>
      <trkpt lat="43.85565" lon="7.34048">
        <ele>653.571472</ele>
        <time>2011-11-11T08:02:50Z</time>
      </trkpt>
      <trkpt lat="43.85573" lon="7.3405">
        <ele>652.877991</ele>
        <time>2011-11-11T08:02:55Z</time>
      </trkpt>
      <trkpt lat="43.8558" lon="7.34053">
        <ele>653.152161</ele>
        <time>2011-11-11T08:03:00Z</time>
      </trkpt>
      <trkpt lat="43.85586" lon="7.34054">
        <ele>654.624756</ele>
        <time>2011-11-11T08:03:05Z</time>
      </trkpt>
      <trkpt lat="43.85593" lon="7.34056">
        <ele>656.776489</ele>
        <time>2011-11-11T08:03:10Z</time>
      </trkpt>
      <trkpt lat="43.85599" lon="7.34061">
        <ele>657.470764</ele>
        <time>2011-11-11T08:03:15Z</time>
      </trkpt>
      <trkpt lat="43.85606" lon="7.34063">
        <ele>657.73999</ele>
        <time>2011-11-11T08:03:20Z</time>
      </trkpt>
      <trkpt lat="43.85612" lon="7.34068">
        <ele>657.181458</ele>
        <time>2011-11-11T08:03:25Z</time>
      </trkpt>
      <trkpt lat="43.8562" lon="7.34071">
        <ele>657.368774</ele>
        <time>2011-11-11T08:03:30Z</time>
      </trkpt>
      <trkpt lat="43.85626" lon="7.34074">
        <ele>658.078796</ele>
        <time>2011-11-11T08:03:35Z</time>
      </trkpt>
      <trkpt lat="43.85633" lon="7.34077">
        <ele>659.019165</ele>
        <time>2011-11-11T08:03:40Z</time>
      </trkpt>
      <trkpt lat="43.8564" lon="7.34078">
        <ele>660.941223</ele>
        <time>2011-11-11T08:03:45Z</time>
      </trkpt>
      <trkpt lat="43.85646" lon="7.34076">
        <ele>662.189636</ele>
        <time>2011-11-11T08:03:50Z</time>
      </trkpt>
      <trkpt lat="43.85653" lon="7.34072">
        <ele>662.710938</ele>
        <time>2011-11-11T08:03:55Z</time>
      </trkpt>
      <trkpt lat="43.8566" lon="7.3407">
        <ele>662.750061</ele>
        <time>2011-11-11T08:04:00Z</time>
      </trkpt>
      <trkpt lat="43.85667" lon="7.34069">
        <ele>662.963989</ele>
        <time>2011-11-11T08:04:05Z</time>
      </trkpt>
      <trkpt lat="43.85673" lon="7.34065">
        <ele>663.561646</ele>
        <time>2011-11-11T08:04:10Z</time>
      </trkpt>
      <trkpt lat="43.8568" lon="7.34063">
        <ele>664.719299</ele>
        <time>2011-11-11T08:04:15Z</time>
      </trkpt>
      <trkpt lat="43.85686" lon="7.3406">
        <ele>666.204346</ele>
        <time>2011-11-11T08:04:20Z</time>
      </trkpt>
      <trkpt lat="43.85693" lon="7.34056">
        <ele>667.950256</ele>
        <time>2011-11-11T08:04:25Z</time>
      </trkpt>
      <trkpt lat="43.85699" lon="7.34055">
        <ele>669.375549</ele>
        <time>2011-11-11T08:04:30Z</time>
      </trkpt>
      <trkpt lat="43.85706" lon="7.34052">
        <ele>670.985107</ele>
        <time>2011-11-11T08:04:35Z</time>
      </trkpt>
      <trkpt lat="43.85713" lon="7.3405">
        <ele>673.355225</ele>
        <time>2011-11-11T08:04:40Z</time>
      </trkpt>
      <trkpt lat="43.85719" lon="7.34047">
        <ele>674.571167</ele>
        <time>2011-11-11T08:04:45Z</time>
      </trkpt>
      <trkpt lat="43.85726" lon="7.34043">
        <ele>674.580322</ele>
        <time>2011-11-11T08:04:50Z</time>
      </trkpt>
      <trkpt lat="43.85732" lon="7.34038">
        <ele>675.026062</ele>
        <time>2011-11-11T08:04:55Z</time>
      </trkpt>
      <trkpt lat="43.85738" lon="7.34036">
        <ele>675.609497</ele>
        <time>2011-11-11T08:05:00Z</time>
      </trkpt>
      <trkpt lat="43.85744" lon="7.34034">
        <ele>675.795593</ele>
        <time>2011-11-11T08:05:05Z</time>
      </trkpt>
      <trkpt lat="43.85751" lon="7.3403">
        <ele>676.864075</ele>
        <time>2011-11-11T08:05:10Z</time>
      </trkpt>
      <trkpt lat="43.85756" lon="7.34025">
        <ele>678.059021</ele>
        <time>2011-11-11T08:05:15Z</time>
      </trkpt>
      <trkpt lat="43.85763" lon="7.34019">
        <ele>678.823914</ele>
        <time>2011-11-11T08:05:20Z</time>
      </trkpt>
      <trkpt lat="43.8577" lon="7.34015">
        <ele>680.032471</ele>
        <time>2011-11-11T08:05:25Z</time>
      </trkpt>
      <trkpt lat="43.85776" lon="7.34013">
        <ele>681.221313</ele>
        <time>2011-11-11T08:05:30Z</time>
      </trkpt>
      <trkpt lat="43.85783" lon="7.34012">
        <ele>682.323242</ele>
        <time>2011-11-11T08:05:35Z</time>
      </trkpt>
      <trkpt lat="43.8579" lon="7.3401">
        <ele>683.365784</ele>
        <time>2011-11-11T08:05:40Z</time>
      </trkpt>
      <trkpt lat="43.85796" lon="7.34007">
        <ele>684.472717</ele>
        <time>2011-11-11T08:05:45Z</time>
      </trkpt>
      <trkpt lat="43.85804" lon="7.34006">
        <ele>684.961853</ele>
        <time>2011-11-11T08:05:50Z</time>
      </trkpt>
      <trkpt lat="43.85811" lon="7.34006">
        <ele>686.213013</ele>
        <time>2011-11-11T08:05:55Z</time>
      </trkpt>
      <trkpt lat="43.85818" lon="7.34005">
        <ele>687.384155</ele>
        <time>2011-11-11T08:06:00Z</time>
      </trkpt>
      <trkpt lat="43.85825" lon="7.34003">
        <ele>688.868835</ele>
        <time>2011-11-11T08:06:05Z</time>
      </trkpt>
      <trkpt lat="43.85832" lon="7.34">
        <ele>689.736206</ele>
        <time>2011-11-11T08:06:10Z</time>
      </trkpt>
      <trkpt lat="43.85838" lon="7.33996">
        <ele>690.255859</ele>
        <time>2011-11-11T08:06:15Z</time>
      </trkpt>
      <trkpt lat="43.85845" lon="7.33992">
        <ele>691.621521</ele>
        <time>2011-11-11T08:06:20Z</time>
      </trkpt>
      <trkpt lat="43.85852" lon="7.33989">
        <ele>692.523315</ele>
        <time>2011-11-11T08:06:25Z</time>
      </trkpt>
      <trkpt lat="43.85858" lon="7.33984">
        <ele>693.224731</ele>
        <time>2011-11-11T08:06:30Z</time>
      </trkpt>
      <trkpt lat="43.85865" lon="7.3398">
        <ele>693.923767</ele>
        <time>2011-11-11T08:06:35Z</time>
      </trkpt>
      <trkpt lat="43.85871" lon="7.33977">
        <ele>694.76532</ele>
        <time>2011-11-11T08:06:40Z</time>
      </trkpt>
      <trkpt lat="43.85878" lon="7.33975">
        <ele>695.403992</ele>
        <time>2011-11-11T08:06:45Z</time>
      </trkpt>
      <trkpt lat="43.85885" lon="7.33974">
        <ele>696.65802</ele>
        <time>2011-11-11T08:06:50Z</time>
      </trkpt>
      <trkpt lat="43.85892" lon="7.33971">
        <ele>698.346252</ele>
        <time>2011-11-11T08:06:55Z</time>
      </trkpt>
      <trkpt lat="43.85899" lon="7.33973">
        <ele>700.851013</ele>
        <time>2011-11-11T08:07:00Z</time>
      </trkpt>
      <trkpt lat="43.85906" lon="7.33971">
        <ele>702.276062</ele>
        <time>2011-11-11T08:07:05Z</time>
      </trkpt>
      <trkpt lat="43.85912" lon="7.33965">
        <ele>703.368835</ele>
        <time>2011-11-11T08:07:10Z</time>
      </trkpt>
      <trkpt lat="43.85919" lon="7.33959">
        <ele>703.611633</ele>
        <time>2011-11-11T08:07:15Z</time>
      </trkpt>
      <trkpt lat="43.85928" lon="7.33952">
        <ele>702.449219</ele>
        <time>2011-11-11T08:07:20Z</time>
      </trkpt>
      <trkpt lat="43.85937" lon="7.33945">
        <ele>701.557983</ele>
        <time>2011-11-11T08:07:25Z</time>
      </trkpt>
      <trkpt lat="43.85946" lon="7.33939">
        <ele>700.955627</ele>
        <time>2011-11-11T08:07:30Z</time>
      </trkpt>
      <trkpt lat="43.85955" lon="7.33934">
        <ele>700.825806</ele>
        <time>2011-11-11T08:07:35Z</time>
      </trkpt>
      <trkpt lat="43.85963" lon="7.3393">
        <ele>700.669128</ele>
        <time>2011-11-11T08:07:40Z</time>
      </trkpt>
      <trkpt lat="43.85971" lon="7.33927">
        <ele>700.87207</ele>
        <time>2011-11-11T08:07:45Z</time>
      </trkpt>
      <trkpt lat="43.85979" lon="7.33922">
        <ele>702.014771</ele>
        <time>2011-11-11T08:07:50Z</time>
      </trkpt>
      <trkpt lat="43.85987" lon="7.33916">
        <ele>703.05127</ele>
        <time>2011-11-11T08:07:55Z</time>
      </trkpt>
      <trkpt lat="43.85995" lon="7.33911">
        <ele>703.582764</ele>
        <time>2011-11-11T08:08:00Z</time>
      </trkpt>
      <trkpt lat="43.86004" lon="7.33906">
        <ele>704.06897</ele>
        <time>2011-11-11T08:08:05Z</time>
      </trkpt>
      <trkpt lat="43.86014" lon="7.33898">
        <ele>705.689758</ele>
        <time>2011-11-11T08:08:10Z</time>
      </trkpt>
      <trkpt lat="43.86023" lon="7.33892">
        <ele>706.696045</ele>
        <time>2011-11-11T08:08:15Z</time>
      </trkpt>
      <trkpt lat="43.86031" lon="7.33888">
        <ele>707.490845</ele>
        <time>2011-11-11T08:08:20Z</time>
      </trkpt>
      <trkpt lat="43.86039" lon="7.33885">
        <ele>708.597046</ele>
        <time>2011-11-11T08:08:25Z</time>
      </trkpt>
      <trkpt lat="43.86047" lon="7.33882">
        <ele>709.61792</ele>
        <time>2011-11-11T08:08:30Z</time>
      </trkpt>
      <trkpt lat="43.86054" lon="7.3388">
        <ele>710.849548</ele>
        <time>2011-11-11T08:08:35Z</time>
      </trkpt>
      <trkpt lat="43.86061" lon="7.33876">
        <ele>711.63385</ele>
        <time>2011-11-11T08:08:40Z</time>
      </trkpt>
      <trkpt lat="43.86067" lon="7.3387">
        <ele>713.261963</ele>
        <time>2011-11-11T08:08:45Z</time>
      </trkpt>
      <trkpt lat="43.86072" lon="7.33863">
        <ele>713.998352</ele>
        <time>2011-11-11T08:08:50Z</time>
      </trkpt>
      <trkpt lat="43.86077" lon="7.33855">
        <ele>714.34845</ele>
        <time>2011-11-11T08:08:55Z</time>
      </trkpt>
      <trkpt lat="43.86082" lon="7.33847">
        <ele>714.330566</ele>
        <time>2011-11-11T08:09:00Z</time>
      </trkpt>
      <trkpt lat="43.86087" lon="7.33839">
        <ele>714.834656</ele>
        <time>2011-11-11T08:09:05Z</time>
      </trkpt>
      <trkpt lat="43.86093" lon="7.33832">
        <ele>715.394531</ele>
        <time>2011-11-11T08:09:10Z</time>
      </trkpt>
      <trkpt lat="43.861" lon="7.33826">
        <ele>716.317993</ele>
        <time>2011-11-11T08:09:15Z</time>
      </trkpt>
      <trkpt lat="43.86106" lon="7.33819">
        <ele>716.625122</ele>
        <time>2011-11-11T08:09:20Z</time>
      </trkpt>
      <trkpt lat="43.86113" lon="7.33813">
        <ele>717.000916</ele>
        <time>2011-11-11T08:09:25Z</time>
      </trkpt>
      <trkpt lat="43.8612" lon="7.33808">
        <ele>717.355774</ele>
        <time>2011-11-11T08:09:30Z</time>
      </trkpt>
      <trkpt lat="43.86127" lon="7.33803">
        <ele>717.34906</ele>
        <time>2011-11-11T08:09:35Z</time>
      </trkpt>
      <trkpt lat="43.86134" lon="7.33797">
        <ele>718.16571</ele>
        <time>2011-11-11T08:09:40Z</time>
      </trkpt>
      <trkpt lat="43.86141" lon="7.33792">
        <ele>718.789001</ele>
        <time>2011-11-11T08:09:45Z</time>
      </trkpt>
      <trkpt lat="43.86147" lon="7.33787">
        <ele>719.158569</ele>
        <time>2011-11-11T08:09:50Z</time>
      </trkpt>
      <trkpt lat="43.86154" lon="7.33782">
        <ele>719.917664</ele>
        <time>2011-11-11T08:09:55Z</time>
      </trkpt>
      <trkpt lat="43.86161" lon="7.33777">
        <ele>720.284119</ele>
        <time>2011-11-11T08:10:00Z</time>
      </trkpt>
      <trkpt lat="43.86168" lon="7.33772">
        <ele>720.544495</ele>
        <time>2011-11-11T08:10:05Z</time>
      </trkpt>
      <trkpt lat="43.86175" lon="7.33767">
        <ele>721.048828</ele>
        <time>2011-11-11T08:10:10Z</time>
      </trkpt>
      <trkpt lat="43.86182" lon="7.33762">
        <ele>721.885193</ele>
        <time>2011-11-11T08:10:15Z</time>
      </trkpt>
      <trkpt lat="43.86189" lon="7.33757">
        <ele>722.888611</ele>
        <time>2011-11-11T08:10:20Z</time>
      </trkpt>
      <trkpt lat="43.86196" lon="7.33753">
        <ele>723.575989</ele>
        <time>2011-11-11T08:10:25Z</time>
      </trkpt>
      <trkpt lat="43.86204" lon="7.33751">
        <ele>724.338135</ele>
        <time>2011-11-11T08:10:30Z</time>
      </trkpt>
      <trkpt lat="43.86211" lon="7.33748">
        <ele>725.157227</ele>
        <time>2011-11-11T08:10:35Z</time>
      </trkpt>
      <trkpt lat="43.8622" lon="7.33745">
        <ele>726.436157</ele>
        <time>2011-11-11T08:10:40Z</time>
      </trkpt>
      <trkpt lat="43.86228" lon="7.33744">
        <ele>728.13324</ele>
        <time>2011-11-11T08:10:45Z</time>
      </trkpt>
      <trkpt lat="43.86235" lon="7.33748">
        <ele>729.043579</ele>
        <time>2011-11-11T08:10:50Z</time>
      </trkpt>
      <trkpt lat="43.86241" lon="7.33752">
        <ele>729.378174</ele>
        <time>2011-11-11T08:10:55Z</time>
      </trkpt>
      <trkpt lat="43.86248" lon="7.33759">
        <ele>729.505859</ele>
        <time>2011-11-11T08:11:00Z</time>
      </trkpt>
      <trkpt lat="43.86256" lon="7.33767">
        <ele>729.615845</ele>
        <time>2011-11-11T08:11:05Z</time>
      </trkpt>
      <trkpt lat="43.86264" lon="7.33774">
        <ele>730.786499</ele>
        <time>2011-11-11T08:11:10Z</time>
      </trkpt>
      <trkpt lat="43.86273" lon="7.33778">
        <ele>732.25824</ele>
        <time>2011-11-11T08:11:15Z</time>
      </trkpt>
      <trkpt lat="43.86283" lon="7.33779">
        <ele>732.810242</ele>
        <time>2011-11-11T08:11:20Z</time>
      </trkpt>
      <trkpt lat="43.86294" lon="7.33779">
        <ele>733.328064</ele>
        <time>2011-11-11T08:11:25Z</time>
      </trkpt>
      <trkpt lat="43.86306" lon="7.33774">
        <ele>734.065613</ele>
        <time>2011-11-11T08:11:30Z</time>
      </trkpt>
      <trkpt lat="43.86318" lon="7.33767">
        <ele>734.767578</ele>
        <time>2011-11-11T08:11:35Z</time>
      </trkpt>
      <trkpt lat="43.86331" lon="7.3376">
        <ele>736.063049</ele>
        <time>2011-11-11T08:11:40Z</time>
      </trkpt>
      <trkpt lat="43.86344" lon="7.33759">
        <ele>735.543518</ele>
        <time>2011-11-11T08:11:45Z</time>
      </trkpt>
      <trkpt lat="43.86355" lon="7.33756">
        <ele>735.302551</ele>
        <time>2011-11-11T08:11:50Z</time>
      </trkpt>
      <trkpt lat="43.86366" lon="7.3375">
        <ele>735.735901</ele>
        <time>2011-11-11T08:11:55Z</time>
      </trkpt>
      <trkpt lat="43.86377" lon="7.33745">
        <ele>736.502197</ele>
        <time>2011-11-11T08:12:00Z</time>
      </trkpt>
      <trkpt lat="43.8639" lon="7.33741">
        <ele>737.192566</ele>
        <time>2011-11-11T08:12:05Z</time>
      </trkpt>
      <trkpt lat="43.86402" lon="7.33738">
        <ele>737.888855</ele>
        <time>2011-11-11T08:12:10Z</time>
      </trkpt>
      <trkpt lat="43.86411" lon="7.33738">
        <ele>738.335388</ele>
        <time>2011-11-11T08:12:15Z</time>
      </trkpt>
      <trkpt lat="43.86421" lon="7.33745">
        <ele>738.135681</ele>
        <time>2011-11-11T08:12:20Z</time>
      </trkpt>
      <trkpt lat="43.86431" lon="7.33757">
        <ele>737.383423</ele>
        <time>2011-11-11T08:12:25Z</time>
      </trkpt>
      <trkpt lat="43.86443" lon="7.33766">
        <ele>737.467651</ele>
        <time>2011-11-11T08:12:30Z</time>
      </trkpt>
      <trkpt lat="43.86457" lon="7.33774">
        <ele>737.490112</ele>
        <time>2011-11-11T08:12:35Z</time>
      </trkpt>
      <trkpt lat="43.86471" lon="7.33778">
        <ele>737.960388</ele>
        <time>2011-11-11T08:12:40Z</time>
      </trkpt>
      <trkpt lat="43.86486" lon="7.33784">
        <ele>739.032349</ele>
        <time>2011-11-11T08:12:45Z</time>
      </trkpt>
      <trkpt lat="43.86499" lon="7.33793">
        <ele>739.612976</ele>
        <time>2011-11-11T08:12:50Z</time>
      </trkpt>
      <trkpt lat="43.86512" lon="7.33807">
        <ele>738.797119</ele>
        <time>2011-11-11T08:12:55Z</time>
      </trkpt>
      <trkpt lat="43.86521" lon="7.33825">
        <ele>739.22998</ele>
        <time>2011-11-11T08:13:00Z</time>
      </trkpt>
      <trkpt lat="43.86526" lon="7.33844">
        <ele>739.473938</ele>
        <time>2011-11-11T08:13:05Z</time>
      </trkpt>
      <trkpt lat="43.86531" lon="7.33865">
        <ele>740.858459</ele>
        <time>2011-11-11T08:13:10Z</time>
      </trkpt>
      <trkpt lat="43.86536" lon="7.33883">
        <ele>741.502808</ele>
        <time>2011-11-11T08:13:15Z</time>
      </trkpt>
      <trkpt lat="43.86544" lon="7.33902">
        <ele>741.60968</ele>
        <time>2011-11-11T08:13:20Z</time>
      </trkpt>
      <trkpt lat="43.8655" lon="7.33922">
        <ele>741.566223</ele>
        <time>2011-11-11T08:13:25Z</time>
      </trkpt>
      <trkpt lat="43.86558" lon="7.33942">
        <ele>741.298706</ele>
        <time>2011-11-11T08:13:30Z</time>
      </trkpt>
      <trkpt lat="43.8657" lon="7.33957">
        <ele>740.068726</ele>
        <time>2011-11-11T08:13:35Z</time>
      </trkpt>
      <trkpt lat="43.86587" lon="7.33963">
        <ele>740.358276</ele>
        <time>2011-11-11T08:13:40Z</time>
      </trkpt>
      <trkpt lat="43.866" lon="7.3398">
        <ele>740.020813</ele>
        <time>2011-11-11T08:13:45Z</time>
      </trkpt>
      <trkpt lat="43.86615" lon="7.33996">
        <ele>739.834717</ele>
        <time>2011-11-11T08:13:50Z</time>
      </trkpt>
      <trkpt lat="43.86637" lon="7.34003">
        <ele>738.925232</ele>
        <time>2011-11-11T08:13:55Z</time>
      </trkpt>
      <trkpt lat="43.86656" lon="7.3402">
        <ele>738.401794</ele>
        <time>2011-11-11T08:14:00Z</time>
      </trkpt>
      <trkpt lat="43.86677" lon="7.34032">
        <ele>737.781799</ele>
        <time>2011-11-11T08:14:05Z</time>
      </trkpt>
      <trkpt lat="43.86704" lon="7.3404">
        <ele>735.352417</ele>
        <time>2011-11-11T08:14:10Z</time>
      </trkpt>
      <trkpt lat="43.86731" lon="7.34053">
        <ele>734.066772</ele>
        <time>2011-11-11T08:14:15Z</time>
      </trkpt>
      <trkpt lat="43.86752" lon="7.34081">
        <ele>732.233276</ele>
        <time>2011-11-11T08:14:20Z</time>
      </trkpt>
      <trkpt lat="43.86773" lon="7.34105">
        <ele>730.794373</ele>
        <time>2011-11-11T08:14:25Z</time>
      </trkpt>
      <trkpt lat="43.86799" lon="7.34137">
        <ele>725.570251</ele>
        <time>2011-11-11T08:14:30Z</time>
      </trkpt>
      <trkpt lat="43.86833" lon="7.3418">
        <ele>720.577515</ele>
        <time>2011-11-11T08:14:35Z</time>
      </trkpt>
      <trkpt lat="43.86881" lon="7.34208">
        <ele>718.426025</ele>
        <time>2011-11-11T08:14:40Z</time>
      </trkpt>
      <trkpt lat="43.86926" lon="7.34216">
        <ele>719.740906</ele>
        <time>2011-11-11T08:14:45Z</time>
      </trkpt>
      <trkpt lat="43.86948" lon="7.34222">
        <ele>721.701599</ele>
        <time>2011-11-11T08:14:50Z</time>
      </trkpt>
      <trkpt lat="43.86959" lon="7.34227">
        <ele>722.845459</ele>
        <time>2011-11-11T08:14:55Z</time>
      </trkpt>
      <trkpt lat="43.8697" lon="7.34224">
        <ele>723.905701</ele>
        <time>2011-11-11T08:15:00Z</time>
      </trkpt>
      <trkpt lat="43.86981" lon="7.34219">
        <ele>724.52478</ele>
        <time>2011-11-11T08:15:05Z</time>
      </trkpt>
      <trkpt lat="43.8699" lon="7.34212">
        <ele>725.656799</ele>
        <time>2011-11-11T08:15:10Z</time>
      </trkpt>
      <trkpt lat="43.87" lon="7.34205">
        <ele>725.670837</ele>
        <time>2011-11-11T08:15:15Z</time>
      </trkpt>
      <trkpt lat="43.8701" lon="7.342">
        <ele>726.353271</ele>
        <time>2011-11-11T08:15:20Z</time>
      </trkpt>
      <trkpt lat="43.8702" lon="7.34199">
        <ele>726.797363</ele>
        <time>2011-11-11T08:15:25Z</time>
      </trkpt>
      <trkpt lat="43.8703" lon="7.34199">
        <ele>727.347595</ele>
        <time>2011-11-11T08:15:30Z</time>
      </trkpt>
      <trkpt lat="43.8704" lon="7.34201">
        <ele>728.226013</ele>
        <time>2011-11-11T08:15:35Z</time>
      </trkpt>
      <trkpt lat="43.8705" lon="7.34204">
        <ele>729.035522</ele>
        <time>2011-11-11T08:15:40Z</time>
      </trkpt>
      <trkpt lat="43.87062" lon="7.34204">
        <ele>729.95459</ele>
        <time>2011-11-11T08:15:45Z</time>
      </trkpt>
      <trkpt lat="43.87072" lon="7.34204">
        <ele>730.966675</ele>
        <time>2011-11-11T08:15:50Z</time>
      </trkpt>
      <trkpt lat="43.87082" lon="7.34202">
        <ele>731.766663</ele>
        <time>2011-11-11T08:15:55Z</time>
      </trkpt>
      <trkpt lat="43.87093" lon="7.34202">
        <ele>732.342468</ele>
        <time>2011-11-11T08:16:00Z</time>
      </trkpt>
      <trkpt lat="43.87103" lon="7.34203">
        <ele>732.27887</ele>
        <time>2011-11-11T08:16:05Z</time>
      </trkpt>
      <trkpt lat="43.87114" lon="7.34204">
        <ele>732.819275</ele>
        <time>2011-11-11T08:16:10Z</time>
      </trkpt>
      <trkpt lat="43.87123" lon="7.34205">
        <ele>733.798279</ele>
        <time>2011-11-11T08:16:15Z</time>
      </trkpt>
      <trkpt lat="43.87133" lon="7.34209">
        <ele>734.610596</ele>
        <time>2011-11-11T08:16:20Z</time>
      </trkpt>
      <trkpt lat="43.87142" lon="7.34213">
        <ele>736.37616</ele>
        <time>2011-11-11T08:16:25Z</time>
      </trkpt>
      <trkpt lat="43.87151" lon="7.34217">
        <ele>739.592346</ele>
        <time>2011-11-11T08:16:30Z</time>
      </trkpt>
      <trkpt lat="43.87159" lon="7.34222">
        <ele>741.487122</ele>
        <time>2011-11-11T08:16:35Z</time>
      </trkpt>
      <trkpt lat="43.87169" lon="7.34226">
        <ele>743.292847</ele>
        <time>2011-11-11T08:16:40Z</time>
      </trkpt>
      <trkpt lat="43.87179" lon="7.34229">
        <ele>743.007202</ele>
        <time>2011-11-11T08:16:45Z</time>
      </trkpt>
      <trkpt lat="43.8719" lon="7.34231">
        <ele>744.380493</ele>
        <time>2011-11-11T08:16:50Z</time>
      </trkpt>
      <trkpt lat="43.87204" lon="7.34235">
        <ele>744.204773</ele>
        <time>2011-11-11T08:16:55Z</time>
      </trkpt>
      <trkpt lat="43.87218" lon="7.34239">
        <ele>744.183777</ele>
        <time>2011-11-11T08:17:00Z</time>
      </trkpt>
      <trkpt lat="43.87233" lon="7.34242">
        <ele>746.63092</ele>
        <time>2011-11-11T08:17:05Z</time>
      </trkpt>
      <trkpt lat="43.87249" lon="7.34242">
        <ele>746.508667</ele>
        <time>2011-11-11T08:17:10Z</time>
      </trkpt>
      <trkpt lat="43.87264" lon="7.34242">
        <ele>747.365112</ele>
        <time>2011-11-11T08:17:15Z</time>
      </trkpt>
      <trkpt lat="43.87278" lon="7.3424">
        <ele>746.990479</ele>
        <time>2011-11-11T08:17:20Z</time>
      </trkpt>
      <trkpt lat="43.87294" lon="7.34235">
        <ele>745.287231</ele>
        <time>2011-11-11T08:17:25Z</time>
      </trkpt>
      <trkpt lat="43.8731" lon="7.34228">
        <ele>743.410339</ele>
        <time>2011-11-11T08:17:30Z</time>
      </trkpt>
      <trkpt lat="43.87323" lon="7.3422">
        <ele>742.764893</ele>
        <time>2011-11-11T08:17:35Z</time>
      </trkpt>
      <trkpt lat="43.87336" lon="7.34211">
        <ele>742.349609</ele>
        <time>2011-11-11T08:17:40Z</time>
      </trkpt>
      <trkpt lat="43.87347" lon="7.34202">
        <ele>742.165283</ele>
        <time>2011-11-11T08:17:45Z</time>
      </trkpt>
      <trkpt lat="43.87356" lon="7.34196">
        <ele>742.682373</ele>
        <time>2011-11-11T08:17:50Z</time>
      </trkpt>
      <trkpt lat="43.87365" lon="7.34194">
        <ele>742.651611</ele>
        <time>2011-11-11T08:17:55Z</time>
      </trkpt>
      <trkpt lat="43.87374" lon="7.34192">
        <ele>743.33313</ele>
        <time>2011-11-11T08:18:00Z</time>
      </trkpt>
      <trkpt lat="43.87383" lon="7.34189">
        <ele>744.022095</ele>
        <time>2011-11-11T08:18:05Z</time>
      </trkpt>
      <trkpt lat="43.87393" lon="7.34187">
        <ele>744.724915</ele>
        <time>2011-11-11T08:18:10Z</time>
      </trkpt>
      <trkpt lat="43.87403" lon="7.34183">
        <ele>745.756958</ele>
        <time>2011-11-11T08:18:15Z</time>
      </trkpt>
      <trkpt lat="43.87412" lon="7.34178">
        <ele>746.976501</ele>
        <time>2011-11-11T08:18:20Z</time>
      </trkpt>
      <trkpt lat="43.87419" lon="7.34172">
        <ele>748.008972</ele>
        <time>2011-11-11T08:18:25Z</time>
      </trkpt>
      <trkpt lat="43.87426" lon="7.34167">
        <ele>749.086304</ele>
        <time>2011-11-11T08:18:30Z</time>
      </trkpt>
      <trkpt lat="43.87433" lon="7.34163">
        <ele>749.564758</ele>
        <time>2011-11-11T08:18:35Z</time>
      </trkpt>
      <trkpt lat="43.8744" lon="7.34158">
        <ele>750.256897</ele>
        <time>2011-11-11T08:18:40Z</time>
      </trkpt>
      <trkpt lat="43.87447" lon="7.34155">
        <ele>750.762146</ele>
        <time>2011-11-11T08:18:45Z</time>
      </trkpt>
      <trkpt lat="43.87454" lon="7.34151">
        <ele>751.425964</ele>
        <time>2011-11-11T08:18:50Z</time>
      </trkpt>
      <trkpt lat="43.8746" lon="7.34148">
        <ele>752.191528</ele>
        <time>2011-11-11T08:18:55Z</time>
      </trkpt>
      <trkpt lat="43.87469" lon="7.34144">
        <ele>753.006714</ele>
        <time>2011-11-11T08:19:00Z</time>
      </trkpt>
      <trkpt lat="43.87478" lon="7.3414">
        <ele>753.894714</ele>
        <time>2011-11-11T08:19:05Z</time>
      </trkpt>
      <trkpt lat="43.87485" lon="7.34134">
        <ele>754.617004</ele>
        <time>2011-11-11T08:19:10Z</time>
      </trkpt>
      <trkpt lat="43.87493" lon="7.3413">
        <ele>755.632202</ele>
        <time>2011-11-11T08:19:15Z</time>
      </trkpt>
      <trkpt lat="43.875" lon="7.34125">
        <ele>757.217285</ele>
        <time>2011-11-11T08:19:20Z</time>
      </trkpt>
      <trkpt lat="43.87508" lon="7.3412">
        <ele>758.682495</ele>
        <time>2011-11-11T08:19:25Z</time>
      </trkpt>
      <trkpt lat="43.87516" lon="7.34119">
        <ele>760.361328</ele>
        <time>2011-11-11T08:19:30Z</time>
      </trkpt>
      <trkpt lat="43.87523" lon="7.34115">
        <ele>761.014343</ele>
        <time>2011-11-11T08:19:35Z</time>
      </trkpt>
      <trkpt lat="43.87529" lon="7.34111">
        <ele>762.218933</ele>
        <time>2011-11-11T08:19:40Z</time>
      </trkpt>
      <trkpt lat="43.87535" lon="7.34105">
        <ele>763.211365</ele>
        <time>2011-11-11T08:19:45Z</time>
      </trkpt>
      <trkpt lat="43.8754" lon="7.34099">
        <ele>764.090332</ele>
        <time>2011-11-11T08:19:50Z</time>
      </trkpt>
      <trkpt lat="43.87547" lon="7.34095">
        <ele>765.042175</ele>
        <time>2011-11-11T08:19:55Z</time>
      </trkpt>
      <trkpt lat="43.87553" lon="7.34089">
        <ele>765.605286</ele>
        <time>2011-11-11T08:20:00Z</time>
      </trkpt>
      <trkpt lat="43.87559" lon="7.34086">
        <ele>766.306396</ele>
        <time>2011-11-11T08:20:05Z</time>
      </trkpt>
      <trkpt lat="43.87566" lon="7.34082">
        <ele>766.94458</ele>
        <time>2011-11-11T08:20:10Z</time>
      </trkpt>
      <trkpt lat="43.87572" lon="7.34077">
        <ele>767.530396</ele>
        <time>2011-11-11T08:20:15Z</time>
      </trkpt>
      <trkpt lat="43.87578" lon="7.34072">
        <ele>768.232788</ele>
        <time>2011-11-11T08:20:20Z</time>
      </trkpt>
      <trkpt lat="43.87583" lon="7.34066">
        <ele>768.808289</ele>
        <time>2011-11-11T08:20:25Z</time>
      </trkpt>
      <trkpt lat="43.87588" lon="7.34061">
        <ele>769.677185</ele>
        <time>2011-11-11T08:20:30Z</time>
      </trkpt>
      <trkpt lat="43.87594" lon="7.34056">
        <ele>770.206909</ele>
        <time>2011-11-11T08:20:35Z</time>
      </trkpt>
      <trkpt lat="43.87599" lon="7.34051">
        <ele>771.105164</ele>
        <time>2011-11-11T08:20:40Z</time>
      </trkpt>
      <trkpt lat="43.87604" lon="7.34046">
        <ele>771.966125</ele>
        <time>2011-11-11T08:20:45Z</time>
      </trkpt>
      <trkpt lat="43.87609" lon="7.34041">
        <ele>772.895325</ele>
        <time>2011-11-11T08:20:50Z</time>
      </trkpt>
      <trkpt lat="43.87615" lon="7.34036">
        <ele>773.75293</ele>
        <time>2011-11-11T08:20:55Z</time>
      </trkpt>
      <trkpt lat="43.8762" lon="7.3403">
        <ele>774.787659</ele>
        <time>2011-11-11T08:21:00Z</time>
      </trkpt>
      <trkpt lat="43.87625" lon="7.34024">
        <ele>776.05542</ele>
        <time>2011-11-11T08:21:05Z</time>
      </trkpt>
      <trkpt lat="43.87629" lon="7.34016">
        <ele>777.052246</ele>
        <time>2011-11-11T08:21:10Z</time>
      </trkpt>
      <trkpt lat="43.87633" lon="7.34009">
        <ele>778.01825</ele>
        <time>2011-11-11T08:21:15Z</time>
      </trkpt>
      <trkpt lat="43.87636" lon="7.34001">
        <ele>778.85968</ele>
        <time>2011-11-11T08:21:20Z</time>
      </trkpt>
      <trkpt lat="43.8764" lon="7.33993">
        <ele>780.083496</ele>
        <time>2011-11-11T08:21:25Z</time>
      </trkpt>
      <trkpt lat="43.87643" lon="7.33986">
        <ele>781.027161</ele>
        <time>2011-11-11T08:21:30Z</time>
      </trkpt>
      <trkpt lat="43.87648" lon="7.3398">
        <ele>781.920837</ele>
        <time>2011-11-11T08:21:35Z</time>
      </trkpt>
      <trkpt lat="43.87653" lon="7.33973">
        <ele>783.413818</ele>
        <time>2011-11-11T08:21:40Z</time>
      </trkpt>
      <trkpt lat="43.87658" lon="7.33967">
        <ele>784.541138</ele>
        <time>2011-11-11T08:21:45Z</time>
      </trkpt>
      <trkpt lat="43.87663" lon="7.33962">
        <ele>785.602905</ele>
        <time>2011-11-11T08:21:50Z</time>
      </trkpt>
      <trkpt lat="43.87668" lon="7.33956">
        <ele>786.560425</ele>
        <time>2011-11-11T08:21:55Z</time>
      </trkpt>
      <trkpt lat="43.87673" lon="7.33949">
        <ele>787.336182</ele>
        <time>2011-11-11T08:22:00Z</time>
      </trkpt>
      <trkpt lat="43.87679" lon="7.33944">
        <ele>788.051636</ele>
        <time>2011-11-11T08:22:05Z</time>
      </trkpt>
      <trkpt lat="43.87683" lon="7.33938">
        <ele>789.164612</ele>
        <time>2011-11-11T08:22:10Z</time>
      </trkpt>
      <trkpt lat="43.87688" lon="7.33931">
        <ele>790.172974</ele>
        <time>2011-11-11T08:22:15Z</time>
      </trkpt>
      <trkpt lat="43.87692" lon="7.33923">
        <ele>790.683533</ele>
        <time>2011-11-11T08:22:20Z</time>
      </trkpt>
      <trkpt lat="43.87698" lon="7.33917">
        <ele>791.708252</ele>
        <time>2011-11-11T08:22:25Z</time>
      </trkpt>
      <trkpt lat="43.87703" lon="7.33913">
        <ele>792.380737</ele>
        <time>2011-11-11T08:22:30Z</time>
      </trkpt>
      <trkpt lat="43.87709" lon="7.33907">
        <ele>793.168518</ele>
        <time>2011-11-11T08:22:35Z</time>
      </trkpt>
      <trkpt lat="43.87714" lon="7.33903">
        <ele>793.826721</ele>
        <time>2011-11-11T08:22:40Z</time>
      </trkpt>
      <trkpt lat="43.87719" lon="7.33896">
        <ele>794.448547</ele>
        <time>2011-11-11T08:22:45Z</time>
      </trkpt>
      <trkpt lat="43.87724" lon="7.3389">
        <ele>795.155762</ele>
        <time>2011-11-11T08:22:50Z</time>
      </trkpt>
      <trkpt lat="43.87729" lon="7.33883">
        <ele>795.618591</ele>
        <time>2011-11-11T08:22:55Z</time>
      </trkpt>
      <trkpt lat="43.87735" lon="7.33877">
        <ele>796.02002</ele>
        <time>2011-11-11T08:23:00Z</time>
      </trkpt>
      <trkpt lat="43.8774" lon="7.33871">
        <ele>796.659485</ele>
        <time>2011-11-11T08:23:05Z</time>
      </trkpt>
      <trkpt lat="43.87745" lon="7.33864">
        <ele>797.859314</ele>
        <time>2011-11-11T08:23:10Z</time>
      </trkpt>
      <trkpt lat="43.8775" lon="7.33856">
        <ele>798.388062</ele>
        <time>2011-11-11T08:23:15Z</time>
      </trkpt>
      <trkpt lat="43.87754" lon="7.33848">
        <ele>799.838684</ele>
        <time>2011-11-11T08:23:20Z</time>
      </trkpt>
      <trkpt lat="43.87759" lon="7.33842">
        <ele>800.747803</ele>
        <time>2011-11-11T08:23:25Z</time>
      </trkpt>
      <trkpt lat="43.87764" lon="7.33835">
        <ele>801.728821</ele>
        <time>2011-11-11T08:23:30Z</time>
      </trkpt>
      <trkpt lat="43.8777" lon="7.3383">
        <ele>802.791931</ele>
        <time>2011-11-11T08:23:35Z</time>
      </trkpt>
      <trkpt lat="43.87776" lon="7.33824">
        <ele>802.906189</ele>
        <time>2011-11-11T08:23:40Z</time>
      </trkpt>
      <trkpt lat="43.87782" lon="7.33819">
        <ele>803.662964</ele>
        <time>2011-11-11T08:23:45Z</time>
      </trkpt>
      <trkpt lat="43.87788" lon="7.33815">
        <ele>804.447815</ele>
        <time>2011-11-11T08:23:50Z</time>
      </trkpt>
      <trkpt lat="43.87794" lon="7.33811">
        <ele>805.407715</ele>
        <time>2011-11-11T08:23:55Z</time>
      </trkpt>
      <trkpt lat="43.878" lon="7.33807">
        <ele>806.366089</ele>
        <time>2011-11-11T08:24:00Z</time>
      </trkpt>
      <trkpt lat="43.87806" lon="7.33805">
        <ele>807.28772</ele>
        <time>2011-11-11T08:24:05Z</time>
      </trkpt>
      <trkpt lat="43.87813" lon="7.338">
        <ele>808.761719</ele>
        <time>2011-11-11T08:24:10Z</time>
      </trkpt>
      <trkpt lat="43.87819" lon="7.33795">
        <ele>810.421936</ele>
        <time>2011-11-11T08:24:15Z</time>
      </trkpt>
      <trkpt lat="43.87826" lon="7.33793">
        <ele>811.863159</ele>
        <time>2011-11-11T08:24:20Z</time>
      </trkpt>
      <trkpt lat="43.87832" lon="7.33789">
        <ele>812.946228</ele>
        <time>2011-11-11T08:24:25Z</time>
      </trkpt>
      <trkpt lat="43.87836" lon="7.33785">
        <ele>813.88562</ele>
        <time>2011-11-11T08:24:30Z</time>
      </trkpt>
      <trkpt lat="43.8784" lon="7.33779">
        <ele>814.526978</ele>
        <time>2011-11-11T08:24:35Z</time>
      </trkpt>
      <trkpt lat="43.87842" lon="7.33773">
        <ele>815.119568</ele>
        <time>2011-11-11T08:24:40Z</time>
      </trkpt>
      <trkpt lat="43.87845" lon="7.33765">
        <ele>816.13269</ele>
        <time>2011-11-11T08:24:45Z</time>
      </trkpt>
      <trkpt lat="43.87848" lon="7.33757">
        <ele>817.179932</ele>
        <time>2011-11-11T08:24:50Z</time>
      </trkpt>
      <trkpt lat="43.8785" lon="7.33749">
        <ele>817.966675</ele>
        <time>2011-11-11T08:24:55Z</time>
      </trkpt>
      <trkpt lat="43.87853" lon="7.33742">
        <ele>818.894348</ele>
        <time>2011-11-11T08:25:00Z</time>
      </trkpt>
      <trkpt lat="43.87857" lon="7.33735">
        <ele>819.599182</ele>
        <time>2011-11-11T08:25:05Z</time>
      </trkpt>
      <trkpt lat="43.8786" lon="7.3373">
        <ele>820.225464</ele>
        <time>2011-11-11T08:25:10Z</time>
      </trkpt>
      <trkpt lat="43.87865" lon="7.33723">
        <ele>821.010925</ele>
        <time>2011-11-11T08:25:15Z</time>
      </trkpt>
      <trkpt lat="43.87868" lon="7.33714">
        <ele>821.707031</ele>
        <time>2011-11-11T08:25:20Z</time>
      </trkpt>
      <trkpt lat="43.87872" lon="7.33707">
        <ele>822.609375</ele>
        <time>2011-11-11T08:25:25Z</time>
      </trkpt>
      <trkpt lat="43.87877" lon="7.33701">
        <ele>823.287842</ele>
        <time>2011-11-11T08:25:30Z</time>
      </trkpt>
      <trkpt lat="43.87882" lon="7.33694">
        <ele>823.928711</ele>
        <time>2011-11-11T08:25:35Z</time>
      </trkpt>
      <trkpt lat="43.87887" lon="7.33688">
        <ele>824.698303</ele>
        <time>2011-11-11T08:25:40Z</time>
      </trkpt>
      <trkpt lat="43.87893" lon="7.33683">
        <ele>825.300293</ele>
        <time>2011-11-11T08:25:45Z</time>
      </trkpt>
      <trkpt lat="43.87898" lon="7.33677">
        <ele>826.028259</ele>
        <time>2011-11-11T08:25:50Z</time>
      </trkpt>
      <trkpt lat="43.87903" lon="7.3367">
        <ele>826.869934</ele>
        <time>2011-11-11T08:25:55Z</time>
      </trkpt>
      <trkpt lat="43.87908" lon="7.33664">
        <ele>828.141785</ele>
        <time>2011-11-11T08:26:00Z</time>
      </trkpt>
      <trkpt lat="43.87914" lon="7.33659">
        <ele>829.084534</ele>
        <time>2011-11-11T08:26:05Z</time>
      </trkpt>
      <trkpt lat="43.87918" lon="7.33654">
        <ele>830.347717</ele>
        <time>2011-11-11T08:26:10Z</time>
      </trkpt>
      <trkpt lat="43.87923" lon="7.33651">
        <ele>831.270081</ele>
        <time>2011-11-11T08:26:15Z</time>
      </trkpt>
      <trkpt lat="43.87929" lon="7.33649">
        <ele>831.826782</ele>
        <time>2011-11-11T08:26:20Z</time>
      </trkpt>
      <trkpt lat="43.87935" lon="7.33647">
        <ele>832.736877</ele>
        <time>2011-11-11T08:26:25Z</time>
      </trkpt>
      <trkpt lat="43.87941" lon="7.33644">
        <ele>833.490356</ele>
        <time>2011-11-11T08:26:30Z</time>
      </trkpt>
      <trkpt lat="43.87948" lon="7.33641">
        <ele>834.603943</ele>
        <time>2011-11-11T08:26:35Z</time>
      </trkpt>
      <trkpt lat="43.87953" lon="7.33636">
        <ele>834.965576</ele>
        <time>2011-11-11T08:26:40Z</time>
      </trkpt>
      <trkpt lat="43.87959" lon="7.33631">
        <ele>835.45459</ele>
        <time>2011-11-11T08:26:45Z</time>
      </trkpt>
      <trkpt lat="43.87965" lon="7.33625">
        <ele>836.147583</ele>
        <time>2011-11-11T08:26:50Z</time>
      </trkpt>
      <trkpt lat="43.87972" lon="7.33619">
        <ele>836.48999</ele>
        <time>2011-11-11T08:26:55Z</time>
      </trkpt>
      <trkpt lat="43.87977" lon="7.33612">
        <ele>837.356689</ele>
        <time>2011-11-11T08:27:00Z</time>
      </trkpt>
      <trkpt lat="43.87984" lon="7.33606">
        <ele>838.115479</ele>
        <time>2011-11-11T08:27:05Z</time>
      </trkpt>
      <trkpt lat="43.8799" lon="7.336">
        <ele>838.813965</ele>
        <time>2011-11-11T08:27:10Z</time>
      </trkpt>
      <trkpt lat="43.87996" lon="7.33594">
        <ele>839.034607</ele>
        <time>2011-11-11T08:27:15Z</time>
      </trkpt>
      <trkpt lat="43.88002" lon="7.33587">
        <ele>839.063171</ele>
        <time>2011-11-11T08:27:20Z</time>
      </trkpt>
      <trkpt lat="43.88008" lon="7.3358">
        <ele>839.348022</ele>
        <time>2011-11-11T08:27:25Z</time>
      </trkpt>
      <trkpt lat="43.88015" lon="7.33573">
        <ele>839.512512</ele>
        <time>2011-11-11T08:27:30Z</time>
      </trkpt>
      <trkpt lat="43.88021" lon="7.33566">
        <ele>839.86438</ele>
        <time>2011-11-11T08:27:35Z</time>
      </trkpt>
      <trkpt lat="43.88027" lon="7.33559">
        <ele>840.41394</ele>
        <time>2011-11-11T08:27:40Z</time>
      </trkpt>
      <trkpt lat="43.88033" lon="7.33551">
        <ele>840.816711</ele>
        <time>2011-11-11T08:27:45Z</time>
      </trkpt>
      <trkpt lat="43.88039" lon="7.33544">
        <ele>841.365723</ele>
        <time>2011-11-11T08:27:50Z</time>
      </trkpt>
      <trkpt lat="43.88046" lon="7.33537">
        <ele>841.811707</ele>
        <time>2011-11-11T08:27:55Z</time>
      </trkpt>
      <trkpt lat="43.88052" lon="7.33531">
        <ele>842.543335</ele>
        <time>2011-11-11T08:28:00Z</time>
      </trkpt>
      <trkpt lat="43.88058" lon="7.33525">
        <ele>843.433533</ele>
        <time>2011-11-11T08:28:05Z</time>
      </trkpt>
      <trkpt lat="43.88064" lon="7.3352">
        <ele>844.056335</ele>
        <time>2011-11-11T08:28:10Z</time>
      </trkpt>
      <trkpt lat="43.8807" lon="7.33515">
        <ele>845.2099</ele>
        <time>2011-11-11T08:28:15Z</time>
      </trkpt>
      <trkpt lat="43.88076" lon="7.3351">
        <ele>846.059509</ele>
        <time>2011-11-11T08:28:20Z</time>
      </trkpt>
      <trkpt lat="43.88081" lon="7.33504">
        <ele>846.823303</ele>
        <time>2011-11-11T08:28:25Z</time>
      </trkpt>
      <trkpt lat="43.88085" lon="7.33497">
        <ele>847.548828</ele>
        <time>2011-11-11T08:28:30Z</time>
      </trkpt>
      <trkpt lat="43.88089" lon="7.33489">
        <ele>848.596436</ele>
        <time>2011-11-11T08:28:35Z</time>
      </trkpt>
      <trkpt lat="43.88093" lon="7.33482">
        <ele>849.460388</ele>
        <time>2011-11-11T08:28:40Z</time>
      </trkpt>
      <trkpt lat="43.88097" lon="7.33475">
        <ele>849.970215</ele>
        <time>2011-11-11T08:28:45Z</time>
      </trkpt>
      <trkpt lat="43.88102" lon="7.33469">
        <ele>850.279602</ele>
        <time>2011-11-11T08:28:50Z</time>
      </trkpt>
      <trkpt lat="43.88107" lon="7.33463">
        <ele>851.042725</ele>
        <time>2011-11-11T08:28:55Z</time>
      </trkpt>
      <trkpt lat="43.88111" lon="7.33457">
        <ele>851.796326</ele>
        <time>2011-11-11T08:29:00Z</time>
      </trkpt>
      <trkpt lat="43.88117" lon="7.3345">
        <ele>852.216003</ele>
        <time>2011-11-11T08:29:05Z</time>
      </trkpt>
      <trkpt lat="43.88122" lon="7.33445">
        <ele>852.635254</ele>
        <time>2011-11-11T08:29:10Z</time>
      </trkpt>
      <trkpt lat="43.88126" lon="7.33437">
        <ele>853.389038</ele>
        <time>2011-11-11T08:29:15Z</time>
      </trkpt>
      <trkpt lat="43.8813" lon="7.33429">
        <ele>853.998535</ele>
        <time>2011-11-11T08:29:20Z</time>
      </trkpt>
      <trkpt lat="43.88133" lon="7.3342">
        <ele>854.106567</ele>
        <time>2011-11-11T08:29:25Z</time>
      </trkpt>
      <trkpt lat="43.88136" lon="7.33412">
        <ele>854.718262</ele>
        <time>2011-11-11T08:29:30Z</time>
      </trkpt>
      <trkpt lat="43.8814" lon="7.33403">
        <ele>855.314941</ele>
        <time>2011-11-11T08:29:35Z</time>
      </trkpt>
      <trkpt lat="43.88143" lon="7.33396">
        <ele>856.179871</ele>
        <time>2011-11-11T08:29:40Z</time>
      </trkpt>
      <trkpt lat="43.88145" lon="7.33388">
        <ele>856.997559</ele>
        <time>2011-11-11T08:29:45Z</time>
      </trkpt>
      <trkpt lat="43.88149" lon="7.3338">
        <ele>857.662231</ele>
        <time>2011-11-11T08:29:50Z</time>
      </trkpt>
      <trkpt lat="43.88153" lon="7.33374">
        <ele>858.666565</ele>
        <time>2011-11-11T08:29:55Z</time>
      </trkpt>
      <trkpt lat="43.88158" lon="7.33367">
        <ele>859.759705</ele>
        <time>2011-11-11T08:30:00Z</time>
      </trkpt>
      <trkpt lat="43.88163" lon="7.33362">
        <ele>860.915283</ele>
        <time>2011-11-11T08:30:05Z</time>
      </trkpt>
      <trkpt lat="43.88168" lon="7.33356">
        <ele>862.295776</ele>
        <time>2011-11-11T08:30:10Z</time>
      </trkpt>
      <trkpt lat="43.88173" lon="7.33351">
        <ele>863.458923</ele>
        <time>2011-11-11T08:30:15Z</time>
      </trkpt>
      <trkpt lat="43.88177" lon="7.33345">
        <ele>864.588562</ele>
        <time>2011-11-11T08:30:20Z</time>
      </trkpt>
      <trkpt lat="43.8818" lon="7.33338">
        <ele>865.790833</ele>
        <time>2011-11-11T08:30:25Z</time>
      </trkpt>
      <trkpt lat="43.88182" lon="7.3333">
        <ele>867.364746</ele>
        <time>2011-11-11T08:30:30Z</time>
      </trkpt>
      <trkpt lat="43.88185" lon="7.33323">
        <ele>867.92511</ele>
        <time>2011-11-11T08:30:35Z</time>
      </trkpt>
      <trkpt lat="43.88187" lon="7.33315">
        <ele>869.152527</ele>
        <time>2011-11-11T08:30:40Z</time>
      </trkpt>
      <trkpt lat="43.88189" lon="7.33308">
        <ele>870.244934</ele>
        <time>2011-11-11T08:30:45Z</time>
      </trkpt>
      <trkpt lat="43.88193" lon="7.33301">
        <ele>870.884949</ele>
        <time>2011-11-11T08:30:50Z</time>
      </trkpt>
      <trkpt lat="43.88199" lon="7.33299">
        <ele>871.902527</ele>
        <time>2011-11-11T08:30:55Z</time>
      </trkpt>
      <trkpt lat="43.88205" lon="7.33299">
        <ele>873.017334</ele>
        <time>2011-11-11T08:31:00Z</time>
      </trkpt>
      <trkpt lat="43.88211" lon="7.33297">
        <ele>873.75354</ele>
        <time>2011-11-11T08:31:05Z</time>
      </trkpt>
      <trkpt lat="43.88218" lon="7.33296">
        <ele>874.654602</ele>
        <time>2011-11-11T08:31:10Z</time>
      </trkpt>
      <trkpt lat="43.88224" lon="7.33294">
        <ele>875.509216</ele>
        <time>2011-11-11T08:31:15Z</time>
      </trkpt>
      <trkpt lat="43.8823" lon="7.33291">
        <ele>876.984924</ele>
        <time>2011-11-11T08:31:20Z</time>
      </trkpt>
      <trkpt lat="43.88235" lon="7.33291">
        <ele>877.399414</ele>
        <time>2011-11-11T08:31:25Z</time>
      </trkpt>
      <trkpt lat="43.88241" lon="7.33292">
        <ele>878.428711</ele>
        <time>2011-11-11T08:31:30Z</time>
      </trkpt>
      <trkpt lat="43.88247" lon="7.33291">
        <ele>879.674866</ele>
        <time>2011-11-11T08:31:35Z</time>
      </trkpt>
      <trkpt lat="43.88253" lon="7.33291">
        <ele>880.136475</ele>
        <time>2011-11-11T08:31:40Z</time>
      </trkpt>
      <trkpt lat="43.88258" lon="7.33291">
        <ele>881.236206</ele>
        <time>2011-11-11T08:31:45Z</time>
      </trkpt>
      <trkpt lat="43.88264" lon="7.33292">
        <ele>881.923706</ele>
        <time>2011-11-11T08:31:50Z</time>
      </trkpt>
      <trkpt lat="43.8827" lon="7.33294">
        <ele>882.623718</ele>
        <time>2011-11-11T08:31:55Z</time>
      </trkpt>
      <trkpt lat="43.88276" lon="7.33294">
        <ele>883.378174</ele>
        <time>2011-11-11T08:32:00Z</time>
      </trkpt>
      <trkpt lat="43.88282" lon="7.3329">
        <ele>884.86676</ele>
        <time>2011-11-11T08:32:05Z</time>
      </trkpt>
      <trkpt lat="43.88288" lon="7.33286">
        <ele>886.054688</ele>
        <time>2011-11-11T08:32:10Z</time>
      </trkpt>
      <trkpt lat="43.88294" lon="7.33283">
        <ele>886.623169</ele>
        <time>2011-11-11T08:32:15Z</time>
      </trkpt>
      <trkpt lat="43.883" lon="7.33281">
        <ele>887.292786</ele>
        <time>2011-11-11T08:32:20Z</time>
      </trkpt>
      <trkpt lat="43.88306" lon="7.33279">
        <ele>887.657288</ele>
        <time>2011-11-11T08:32:25Z</time>
      </trkpt>
      <trkpt lat="43.88312" lon="7.33275">
        <ele>888.559509</ele>
        <time>2011-11-11T08:32:30Z</time>
      </trkpt>
      <trkpt lat="43.88318" lon="7.33272">
        <ele>889.696106</ele>
        <time>2011-11-11T08:32:35Z</time>
      </trkpt>
      <trkpt lat="43.88325" lon="7.33269">
        <ele>890.496277</ele>
        <time>2011-11-11T08:32:40Z</time>
      </trkpt>
      <trkpt lat="43.88331" lon="7.33266">
        <ele>891.170105</ele>
        <time>2011-11-11T08:32:45Z</time>
      </trkpt>
      <trkpt lat="43.88337" lon="7.33263">
        <ele>891.831787</ele>
        <time>2011-11-11T08:32:50Z</time>
      </trkpt>
      <trkpt lat="43.88343" lon="7.33261">
        <ele>892.038208</ele>
        <time>2011-11-11T08:32:55Z</time>
      </trkpt>
      <trkpt lat="43.88349" lon="7.3326">
        <ele>892.448608</ele>
        <time>2011-11-11T08:33:00Z</time>
      </trkpt>
      <trkpt lat="43.88356" lon="7.33258">
        <ele>893.648438</ele>
        <time>2011-11-11T08:33:05Z</time>
      </trkpt>
      <trkpt lat="43.88356" lon="7.33251">
        <ele>894.94751</ele>
        <time>2011-11-11T08:33:10Z</time>
      </trkpt>
      <trkpt lat="43.88347" lon="7.33253">
        <ele>895.081726</ele>
        <time>2011-11-11T08:33:15Z</time>
      </trkpt>
      <trkpt lat="43.88337" lon="7.33255">
        <ele>896.130188</ele>
        <time>2011-11-11T08:33:20Z</time>
      </trkpt>
      <trkpt lat="43.88328" lon="7.33256">
        <ele>896.860107</ele>
        <time>2011-11-11T08:33:25Z</time>
      </trkpt>
      <trkpt lat="43.8832" lon="7.33255">
        <ele>897.268738</ele>
        <time>2011-11-11T08:33:30Z</time>
      </trkpt>
      <trkpt lat="43.88312" lon="7.33253">
        <ele>897.303955</ele>
        <time>2011-11-11T08:33:35Z</time>
      </trkpt>
      <trkpt lat="43.88303" lon="7.33252">
        <ele>897.965515</ele>
        <time>2011-11-11T08:33:40Z</time>
      </trkpt>
      <trkpt lat="43.88295" lon="7.33245">
        <ele>899.214661</ele>
        <time>2011-11-11T08:33:45Z</time>
      </trkpt>
      <trkpt lat="43.88289" lon="7.33235">
        <ele>900.458191</ele>
        <time>2011-11-11T08:33:50Z</time>
      </trkpt>
      <trkpt lat="43.88286" lon="7.33224">
        <ele>901.834229</ele>
        <time>2011-11-11T08:33:55Z</time>
      </trkpt>
      <trkpt lat="43.88283" lon="7.33212">
        <ele>903.292786</ele>
        <time>2011-11-11T08:34:00Z</time>
      </trkpt>
      <trkpt lat="43.88284" lon="7.33201">
        <ele>903.977722</ele>
        <time>2011-11-11T08:34:05Z</time>
      </trkpt>
      <trkpt lat="43.88285" lon="7.3319">
        <ele>904.367004</ele>
        <time>2011-11-11T08:34:10Z</time>
      </trkpt>
      <trkpt lat="43.88288" lon="7.33179">
        <ele>905.286011</ele>
        <time>2011-11-11T08:34:15Z</time>
      </trkpt>
      <trkpt lat="43.88292" lon="7.33168">
        <ele>906.49231</ele>
        <time>2011-11-11T08:34:20Z</time>
      </trkpt>
      <trkpt lat="43.88296" lon="7.33159">
        <ele>906.715027</ele>
        <time>2011-11-11T08:34:25Z</time>
      </trkpt>
      <trkpt lat="43.883" lon="7.33149">
        <ele>907.113831</ele>
        <time>2011-11-11T08:34:30Z</time>
      </trkpt>
      <trkpt lat="43.88302" lon="7.33139">
        <ele>907.668457</ele>
        <time>2011-11-11T08:34:35Z</time>
      </trkpt>
      <trkpt lat="43.88303" lon="7.33128">
        <ele>908.508972</ele>
        <time>2011-11-11T08:34:40Z</time>
      </trkpt>
      <trkpt lat="43.88304" lon="7.33117">
        <ele>909.301941</ele>
        <time>2011-11-11T08:34:45Z</time>
      </trkpt>
      <trkpt lat="43.88309" lon="7.33115">
        <ele>910.310913</ele>
        <time>2011-11-11T08:34:50Z</time>
      </trkpt>
      <trkpt lat="43.88309" lon="7.33125">
        <ele>911.940308</ele>
        <time>2011-11-11T08:34:55Z</time>
      </trkpt>
      <trkpt lat="43.88307" lon="7.33134">
        <ele>912.931274</ele>
        <time>2011-11-11T08:35:00Z</time>
      </trkpt>
      <trkpt lat="43.88306" lon="7.33145">
        <ele>914.264893</ele>
        <time>2011-11-11T08:35:05Z</time>
      </trkpt>
      <trkpt lat="43.88309" lon="7.33155">
        <ele>913.788757</ele>
        <time>2011-11-11T08:35:10Z</time>
      </trkpt>
      <trkpt lat="43.88315" lon="7.33161">
        <ele>914.056091</ele>
        <time>2011-11-11T08:35:15Z</time>
      </trkpt>
      <trkpt lat="43.88322" lon="7.33165">
        <ele>915.839844</ele>
        <time>2011-11-11T08:35:20Z</time>
      </trkpt>
      <trkpt lat="43.88328" lon="7.33168">
        <ele>916.721191</ele>
        <time>2011-11-11T08:35:25Z</time>
      </trkpt>
      <trkpt lat="43.88335" lon="7.33171">
        <ele>918.110962</ele>
        <time>2011-11-11T08:35:30Z</time>
      </trkpt>
      <trkpt lat="43.88342" lon="7.3317">
        <ele>919.281677</ele>
        <time>2011-11-11T08:35:35Z</time>
      </trkpt>
      <trkpt lat="43.88348" lon="7.33166">
        <ele>920.188904</ele>
        <time>2011-11-11T08:35:40Z</time>
      </trkpt>
      <trkpt lat="43.88353" lon="7.33161">
        <ele>921.127991</ele>
        <time>2011-11-11T08:35:45Z</time>
      </trkpt>
      <trkpt lat="43.88359" lon="7.33156">
        <ele>922.172058</ele>
        <time>2011-11-11T08:35:50Z</time>
      </trkpt>
      <trkpt lat="43.88365" lon="7.33151">
        <ele>923.07373</ele>
        <time>2011-11-11T08:35:55Z</time>
      </trkpt>
      <trkpt lat="43.88371" lon="7.33148">
        <ele>923.803894</ele>
        <time>2011-11-11T08:36:00Z</time>
      </trkpt>
      <trkpt lat="43.88378" lon="7.33146">
        <ele>924.55304</ele>
        <time>2011-11-11T08:36:05Z</time>
      </trkpt>
      <trkpt lat="43.88384" lon="7.33144">
        <ele>925.173828</ele>
        <time>2011-11-11T08:36:10Z</time>
      </trkpt>
      <trkpt lat="43.88391" lon="7.33145">
        <ele>925.803101</ele>
        <time>2011-11-11T08:36:15Z</time>
      </trkpt>
      <trkpt lat="43.88398" lon="7.33144">
        <ele>926.516785</ele>
        <time>2011-11-11T08:36:20Z</time>
      </trkpt>
      <trkpt lat="43.88402" lon="7.33135">
        <ele>927.307617</ele>
        <time>2011-11-11T08:36:25Z</time>
      </trkpt>
      <trkpt lat="43.88396" lon="7.33131">
        <ele>928.472046</ele>
        <time>2011-11-11T08:36:30Z</time>
      </trkpt>
      <trkpt lat="43.88388" lon="7.33131">
        <ele>929.65094</ele>
        <time>2011-11-11T08:36:35Z</time>
      </trkpt>
      <trkpt lat="43.88381" lon="7.33127">
        <ele>931.246155</ele>
        <time>2011-11-11T08:36:40Z</time>
      </trkpt>
      <trkpt lat="43.88378" lon="7.33119">
        <ele>932.554688</ele>
        <time>2011-11-11T08:36:45Z</time>
      </trkpt>
      <trkpt lat="43.88378" lon="7.3311">
        <ele>933.671814</ele>
        <time>2011-11-11T08:36:50Z</time>
      </trkpt>
      <trkpt lat="43.88378" lon="7.331">
        <ele>934.111938</ele>
        <time>2011-11-11T08:36:55Z</time>
      </trkpt>
      <trkpt lat="43.88377" lon="7.3309">
        <ele>935.56488</ele>
        <time>2011-11-11T08:37:00Z</time>
      </trkpt>
      <trkpt lat="43.88374" lon="7.33081">
        <ele>936.145325</ele>
        <time>2011-11-11T08:37:05Z</time>
      </trkpt>
      <trkpt lat="43.88373" lon="7.33072">
        <ele>936.667358</ele>
        <time>2011-11-11T08:37:10Z</time>
      </trkpt>
      <trkpt lat="43.88378" lon="7.33067">
        <ele>936.947021</ele>
        <time>2011-11-11T08:37:15Z</time>
      </trkpt>
      <trkpt lat="43.88383" lon="7.33073">
        <ele>936.733215</ele>
        <time>2011-11-11T08:37:20Z</time>
      </trkpt>
      <trkpt lat="43.88383" lon="7.33082">
        <ele>936.901123</ele>
        <time>2011-11-11T08:37:25Z</time>
      </trkpt>
      <trkpt lat="43.88386" lon="7.33091">
        <ele>936.68335</ele>
        <time>2011-11-11T08:37:30Z</time>
      </trkpt>
      <trkpt lat="43.88388" lon="7.331">
        <ele>936.892517</ele>
        <time>2011-11-11T08:37:35Z</time>
      </trkpt>
      <trkpt lat="43.88395" lon="7.33104">
        <ele>937.507813</ele>
        <time>2011-11-11T08:37:40Z</time>
      </trkpt>
      <trkpt lat="43.88399" lon="7.33095">
        <ele>939.045654</ele>
        <time>2011-11-11T08:37:45Z</time>
      </trkpt>
      <trkpt lat="43.88397" lon="7.33086">
        <ele>940.339844</ele>
        <time>2011-11-11T08:37:50Z</time>
      </trkpt>
      <trkpt lat="43.88395" lon="7.33076">
        <ele>941.887695</ele>
        <time>2011-11-11T08:37:55Z</time>
      </trkpt>
      <trkpt lat="43.88396" lon="7.33067">
        <ele>942.689331</ele>
        <time>2011-11-11T08:38:00Z</time>
      </trkpt>
      <trkpt lat="43.88399" lon="7.33058">
        <ele>943.418701</ele>
        <time>2011-11-11T08:38:05Z</time>
      </trkpt>
      <trkpt lat="43.88402" lon="7.33049">
        <ele>944.007141</ele>
        <time>2011-11-11T08:38:10Z</time>
      </trkpt>
      <trkpt lat="43.88403" lon="7.3304">
        <ele>945.051331</ele>
        <time>2011-11-11T08:38:15Z</time>
      </trkpt>
      <trkpt lat="43.88403" lon="7.33031">
        <ele>946.263367</ele>
        <time>2011-11-11T08:38:20Z</time>
      </trkpt>
      <trkpt lat="43.88399" lon="7.33023">
        <ele>947.501709</ele>
        <time>2011-11-11T08:38:25Z</time>
      </trkpt>
      <trkpt lat="43.88393" lon="7.33019">
        <ele>949.259583</ele>
        <time>2011-11-11T08:38:30Z</time>
      </trkpt>
      <trkpt lat="43.88387" lon="7.33016">
        <ele>950.241333</ele>
        <time>2011-11-11T08:38:35Z</time>
      </trkpt>
      <trkpt lat="43.8838" lon="7.33014">
        <ele>951.246277</ele>
        <time>2011-11-11T08:38:40Z</time>
      </trkpt>
      <trkpt lat="43.88374" lon="7.33015">
        <ele>952.130798</ele>
        <time>2011-11-11T08:38:45Z</time>
      </trkpt>
      <trkpt lat="43.88368" lon="7.33013">
        <ele>952.655884</ele>
        <time>2011-11-11T08:38:50Z</time>
      </trkpt>
      <trkpt lat="43.88367" lon="7.33006">
        <ele>952.934204</ele>
        <time>2011-11-11T08:38:55Z</time>
      </trkpt>
      <trkpt lat="43.88372" lon="7.33002">
        <ele>953.601135</ele>
        <time>2011-11-11T08:39:00Z</time>
      </trkpt>
      <trkpt lat="43.88378" lon="7.33002">
        <ele>954.427124</ele>
        <time>2011-11-11T08:39:05Z</time>
      </trkpt>
      <trkpt lat="43.88384" lon="7.33">
        <ele>955.51593</ele>
        <time>2011-11-11T08:39:10Z</time>
      </trkpt>
      <trkpt lat="43.88391" lon="7.32998">
        <ele>956.253174</ele>
        <time>2011-11-11T08:39:15Z</time>
      </trkpt>
      <trkpt lat="43.88397" lon="7.32994">
        <ele>957.191223</ele>
        <time>2011-11-11T08:39:20Z</time>
      </trkpt>
      <trkpt lat="43.88402" lon="7.32988">
        <ele>958.151428</ele>
        <time>2011-11-11T08:39:25Z</time>
      </trkpt>
      <trkpt lat="43.88408" lon="7.32984">
        <ele>959.441345</ele>
        <time>2011-11-11T08:39:30Z</time>
      </trkpt>
      <trkpt lat="43.88414" lon="7.32981">
        <ele>960.605835</ele>
        <time>2011-11-11T08:39:35Z</time>
      </trkpt>
      <trkpt lat="43.8842" lon="7.32978">
        <ele>961.322327</ele>
        <time>2011-11-11T08:39:40Z</time>
      </trkpt>
      <trkpt lat="43.88425" lon="7.32974">
        <ele>962.53595</ele>
        <time>2011-11-11T08:39:45Z</time>
      </trkpt>
      <trkpt lat="43.88431" lon="7.32968">
        <ele>963.702332</ele>
        <time>2011-11-11T08:39:50Z</time>
      </trkpt>
      <trkpt lat="43.88435" lon="7.32962">
        <ele>964.846985</ele>
        <time>2011-11-11T08:39:55Z</time>
      </trkpt>
      <trkpt lat="43.88438" lon="7.32955">
        <ele>966.081421</ele>
        <time>2011-11-11T08:40:00Z</time>
      </trkpt>
      <trkpt lat="43.88441" lon="7.32948">
        <ele>966.943176</ele>
        <time>2011-11-11T08:40:05Z</time>
      </trkpt>
      <trkpt lat="43.88444" lon="7.32942">
        <ele>967.736023</ele>
        <time>2011-11-11T08:40:10Z</time>
      </trkpt>
      <trkpt lat="43.88449" lon="7.32936">
        <ele>968.679871</ele>
        <time>2011-11-11T08:40:15Z</time>
      </trkpt>
      <trkpt lat="43.88454" lon="7.32931">
        <ele>969.305847</ele>
        <time>2011-11-11T08:40:20Z</time>
      </trkpt>
      <trkpt lat="43.88459" lon="7.32927">
        <ele>970.456299</ele>
        <time>2011-11-11T08:40:25Z</time>
      </trkpt>
      <trkpt lat="43.88467" lon="7.32922">
        <ele>972.2146</ele>
        <time>2011-11-11T08:40:30Z</time>
      </trkpt>
      <trkpt lat="43.88473" lon="7.32922">
        <ele>973.020203</ele>
        <time>2011-11-11T08:40:35Z</time>
      </trkpt>
      <trkpt lat="43.88479" lon="7.32921">
        <ele>973.275146</ele>
        <time>2011-11-11T08:40:40Z</time>
      </trkpt>
      <trkpt lat="43.88484" lon="7.32926">
        <ele>974.415039</ele>
        <time>2011-11-11T08:40:45Z</time>
      </trkpt>
      <trkpt lat="43.88487" lon="7.32934">
        <ele>975.53064</ele>
        <time>2011-11-11T08:40:50Z</time>
      </trkpt>
      <trkpt lat="43.88489" lon="7.32944">
        <ele>976.510254</ele>
        <time>2011-11-11T08:40:55Z</time>
      </trkpt>
      <trkpt lat="43.88493" lon="7.3295">
        <ele>977.009766</ele>
        <time>2011-11-11T08:41:00Z</time>
      </trkpt>
      <trkpt lat="43.88498" lon="7.32958">
        <ele>977.921997</ele>
        <time>2011-11-11T08:41:05Z</time>
      </trkpt>
      <trkpt lat="43.88501" lon="7.32965">
        <ele>978.610779</ele>
        <time>2011-11-11T08:41:10Z</time>
      </trkpt>
      <trkpt lat="43.88505" lon="7.32972">
        <ele>979.233765</ele>
        <time>2011-11-11T08:41:15Z</time>
      </trkpt>
      <trkpt lat="43.88509" lon="7.32979">
        <ele>979.989258</ele>
        <time>2011-11-11T08:41:20Z</time>
      </trkpt>
      <trkpt lat="43.88516" lon="7.32983">
        <ele>980.803223</ele>
        <time>2011-11-11T08:41:25Z</time>
      </trkpt>
      <trkpt lat="43.88522" lon="7.3299">
        <ele>982.188232</ele>
        <time>2011-11-11T08:41:30Z</time>
      </trkpt>
      <trkpt lat="43.88528" lon="7.32995">
        <ele>983.727722</ele>
        <time>2011-11-11T08:41:35Z</time>
      </trkpt>
      <trkpt lat="43.88535" lon="7.32997">
        <ele>985.083496</ele>
        <time>2011-11-11T08:41:40Z</time>
      </trkpt>
      <trkpt lat="43.88541" lon="7.32997">
        <ele>986.212341</ele>
        <time>2011-11-11T08:41:45Z</time>
      </trkpt>
      <trkpt lat="43.88549" lon="7.33">
        <ele>986.85022</ele>
        <time>2011-11-11T08:41:50Z</time>
      </trkpt>
      <trkpt lat="43.88553" lon="7.33009">
        <ele>987.76178</ele>
        <time>2011-11-11T08:41:55Z</time>
      </trkpt>
      <trkpt lat="43.88555" lon="7.33017">
        <ele>987.522278</ele>
        <time>2011-11-11T08:42:00Z</time>
      </trkpt>
      <trkpt lat="43.88559" lon="7.33026">
        <ele>987.841003</ele>
        <time>2011-11-11T08:42:05Z</time>
      </trkpt>
      <trkpt lat="43.88566" lon="7.33031">
        <ele>988.092346</ele>
        <time>2011-11-11T08:42:10Z</time>
      </trkpt>
      <trkpt lat="43.88573" lon="7.33034">
        <ele>988.381836</ele>
        <time>2011-11-11T08:42:15Z</time>
      </trkpt>
      <trkpt lat="43.88581" lon="7.33037">
        <ele>989.361145</ele>
        <time>2011-11-11T08:42:20Z</time>
      </trkpt>
      <trkpt lat="43.8859" lon="7.33039">
        <ele>990.387085</ele>
        <time>2011-11-11T08:42:25Z</time>
      </trkpt>
      <trkpt lat="43.88601" lon="7.33041">
        <ele>991.551941</ele>
        <time>2011-11-11T08:42:30Z</time>
      </trkpt>
      <trkpt lat="43.88611" lon="7.33042">
        <ele>992.884949</ele>
        <time>2011-11-11T08:42:35Z</time>
      </trkpt>
      <trkpt lat="43.88622" lon="7.33044">
        <ele>994.230286</ele>
        <time>2011-11-11T08:42:40Z</time>
      </trkpt>
      <trkpt lat="43.88631" lon="7.33045">
        <ele>995.328491</ele>
        <time>2011-11-11T08:42:45Z</time>
      </trkpt>
      <trkpt lat="43.8864" lon="7.33047">
        <ele>996.260193</ele>
        <time>2011-11-11T08:42:50Z</time>
      </trkpt>
      <trkpt lat="43.88647" lon="7.33041">
        <ele>997.592041</ele>
        <time>2011-11-11T08:42:55Z</time>
      </trkpt>
      <trkpt lat="43.88639" lon="7.33035">
        <ele>998.265747</ele>
        <time>2011-11-11T08:43:00Z</time>
      </trkpt>
      <trkpt lat="43.88629" lon="7.33035">
        <ele>999.222351</ele>
        <time>2011-11-11T08:43:05Z</time>
      </trkpt>
      <trkpt lat="43.88619" lon="7.3303">
        <ele>999.934204</ele>
        <time>2011-11-11T08:43:10Z</time>
      </trkpt>
      <trkpt lat="43.88609" lon="7.33023">
        <ele>1001.355103</ele>
        <time>2011-11-11T08:43:15Z</time>
      </trkpt>
      <trkpt lat="43.88602" lon="7.33016">
        <ele>1002.748169</ele>
        <time>2011-11-11T08:43:20Z</time>
      </trkpt>
      <trkpt lat="43.88595" lon="7.33008">
        <ele>1003.711365</ele>
        <time>2011-11-11T08:43:25Z</time>
      </trkpt>
      <trkpt lat="43.88589" lon="7.32999">
        <ele>1004.682373</ele>
        <time>2011-11-11T08:43:30Z</time>
      </trkpt>
      <trkpt lat="43.88583" lon="7.3299">
        <ele>1005.722229</ele>
        <time>2011-11-11T08:43:35Z</time>
      </trkpt>
      <trkpt lat="43.88578" lon="7.3298">
        <ele>1006.894592</ele>
        <time>2011-11-11T08:43:40Z</time>
      </trkpt>
      <trkpt lat="43.88573" lon="7.3297">
        <ele>1007.895447</ele>
        <time>2011-11-11T08:43:45Z</time>
      </trkpt>
      <trkpt lat="43.88567" lon="7.32961">
        <ele>1009.132629</ele>
        <time>2011-11-11T08:43:50Z</time>
      </trkpt>
      <trkpt lat="43.88562" lon="7.32953">
        <ele>1010.018372</ele>
        <time>2011-11-11T08:43:55Z</time>
      </trkpt>
      <trkpt lat="43.88557" lon="7.32941">
        <ele>1011.096191</ele>
        <time>2011-11-11T08:44:00Z</time>
      </trkpt>
      <trkpt lat="43.88558" lon="7.3293">
        <ele>1011.797424</ele>
        <time>2011-11-11T08:44:05Z</time>
      </trkpt>
      <trkpt lat="43.8856" lon="7.32922">
        <ele>1011.943848</ele>
        <time>2011-11-11T08:44:10Z</time>
      </trkpt>
      <trkpt lat="43.88561" lon="7.32916">
        <ele>1011.806396</ele>
        <time>2011-11-11T08:44:15Z</time>
      </trkpt>
      <trkpt lat="43.8856" lon="7.32911">
        <ele>1011.409058</ele>
        <time>2011-11-11T08:44:20Z</time>
      </trkpt>
      <trkpt lat="43.88558" lon="7.32903">
        <ele>1010.923645</ele>
        <time>2011-11-11T08:44:25Z</time>
      </trkpt>
      <trkpt lat="43.88552" lon="7.32895">
        <ele>1010.488892</ele>
        <time>2011-11-11T08:44:30Z</time>
      </trkpt>
      <trkpt lat="43.88545" lon="7.32882">
        <ele>1009.812439</ele>
        <time>2011-11-11T08:44:35Z</time>
      </trkpt>
      <trkpt lat="43.88539" lon="7.32868">
        <ele>1009.206726</ele>
        <time>2011-11-11T08:44:40Z</time>
      </trkpt>
      <trkpt lat="43.88535" lon="7.32864">
        <ele>1007.521912</ele>
        <time>2011-11-11T08:44:45Z</time>
      </trkpt>
      <trkpt lat="43.88534" lon="7.32863">
        <ele>1007.998901</ele>
        <time>2011-11-11T08:44:50Z</time>
      </trkpt>
      <trkpt lat="43.88534" lon="7.32863">
        <ele>1008.135315</ele>
        <time>2011-11-11T08:44:55Z</time>
      </trkpt>
      <trkpt lat="43.88533" lon="7.32863">
        <ele>1007.839844</ele>
        <time>2011-11-11T08:45:00Z</time>
      </trkpt>
      <trkpt lat="43.88532" lon="7.32861">
        <ele>1007.55188</ele>
        <time>2011-11-11T08:45:05Z</time>
      </trkpt>
      <trkpt lat="43.88532" lon="7.32856">
        <ele>1007.262207</ele>
        <time>2011-11-11T08:45:10Z</time>
      </trkpt>
      <trkpt lat="43.8853" lon="7.32855">
        <ele>1007.104736</ele>
        <time>2011-11-11T08:45:15Z</time>
      </trkpt>
      <trkpt lat="43.88527" lon="7.32806">
        <ele>1006.336853</ele>
        <time>2011-11-11T08:56:35Z</time>
      </trkpt>
      <trkpt lat="43.88512" lon="7.32681">
        <ele>997.457458</ele>
        <time>2011-11-11T08:56:55Z</time>
      </trkpt>
      <trkpt lat="43.88506" lon="7.32676">
        <ele>997.432495</ele>
        <time>2011-11-11T08:57:00Z</time>
      </trkpt>
      <trkpt lat="43.88504" lon="7.32658">
        <ele>995.893005</ele>
        <time>2011-11-11T08:57:05Z</time>
      </trkpt>
      <trkpt lat="43.88498" lon="7.32631">
        <ele>993.81134</ele>
        <time>2011-11-11T08:57:10Z</time>
      </trkpt>
      <trkpt lat="43.88483" lon="7.32605">
        <ele>992.690735</ele>
        <time>2011-11-11T08:57:15Z</time>
      </trkpt>
      <trkpt lat="43.88474" lon="7.32577">
        <ele>991.405884</ele>
        <time>2011-11-11T08:57:20Z</time>
      </trkpt>
      <trkpt lat="43.8847" lon="7.32553">
        <ele>991.921021</ele>
        <time>2011-11-11T08:57:25Z</time>
      </trkpt>
      <trkpt lat="43.88463" lon="7.32539">
        <ele>992.369446</ele>
        <time>2011-11-11T08:57:30Z</time>
      </trkpt>
      <trkpt lat="43.88459" lon="7.32538">
        <ele>991.474182</ele>
        <time>2011-11-11T08:57:35Z</time>
      </trkpt>
      <trkpt lat="43.88453" lon="7.32539">
        <ele>991.625183</ele>
        <time>2011-11-11T08:57:40Z</time>
      </trkpt>
      <trkpt lat="43.88451" lon="7.32536">
        <ele>992.456726</ele>
        <time>2011-11-11T08:57:45Z</time>
      </trkpt>
      <trkpt lat="43.88446" lon="7.32535">
        <ele>992.859131</ele>
        <time>2011-11-11T08:57:50Z</time>
      </trkpt>
      <trkpt lat="43.8844" lon="7.32536">
        <ele>993.001953</ele>
        <time>2011-11-11T08:57:55Z</time>
      </trkpt>
      <trkpt lat="43.88438" lon="7.32534">
        <ele>993.316223</ele>
        <time>2011-11-11T08:58:00Z</time>
      </trkpt>
      <trkpt lat="43.88438" lon="7.32534">
        <ele>994.337585</ele>
        <time>2011-11-11T08:58:05Z</time>
      </trkpt>
      <trkpt lat="43.88436" lon="7.32535">
        <ele>995.993042</ele>
        <time>2011-11-11T08:58:10Z</time>
      </trkpt>
      <trkpt lat="43.88433" lon="7.32532">
        <ele>997.545044</ele>
        <time>2011-11-11T08:58:15Z</time>
      </trkpt>
      <trkpt lat="43.88428" lon="7.32527">
        <ele>999.170654</ele>
        <time>2011-11-11T08:58:20Z</time>
      </trkpt>
      <trkpt lat="43.88424" lon="7.32527">
        <ele>1000.777527</ele>
        <time>2011-11-11T08:58:25Z</time>
      </trkpt>
      <trkpt lat="43.88421" lon="7.32529">
        <ele>1002.024231</ele>
        <time>2011-11-11T08:58:30Z</time>
      </trkpt>
      <trkpt lat="43.88416" lon="7.32526">
        <ele>1002.601868</ele>
        <time>2011-11-11T08:58:35Z</time>
      </trkpt>
      <trkpt lat="43.88413" lon="7.32523">
        <ele>1003.213318</ele>
        <time>2011-11-11T08:58:40Z</time>
      </trkpt>
      <trkpt lat="43.88407" lon="7.32521">
        <ele>1003.160217</ele>
        <time>2011-11-11T08:58:45Z</time>
      </trkpt>
      <trkpt lat="43.88406" lon="7.32515">
        <ele>1003.481445</ele>
        <time>2011-11-11T08:58:50Z</time>
      </trkpt>
      <trkpt lat="43.88406" lon="7.32514">
        <ele>1002.411255</ele>
        <time>2011-11-11T08:58:55Z</time>
      </trkpt>
      <trkpt lat="43.88405" lon="7.32511">
        <ele>998.601624</ele>
        <time>2011-11-11T09:02:00Z</time>
      </trkpt>
      <trkpt lat="43.88405" lon="7.32511">
        <ele>999.001038</ele>
        <time>2011-11-11T09:02:05Z</time>
      </trkpt>
      <trkpt lat="43.88404" lon="7.32505">
        <ele>998.116211</ele>
        <time>2011-11-11T09:02:10Z</time>
      </trkpt>
      <trkpt lat="43.88397" lon="7.32488">
        <ele>999.272339</ele>
        <time>2011-11-11T09:02:15Z</time>
      </trkpt>
      <trkpt lat="43.88396" lon="7.32473">
        <ele>997.96698</ele>
        <time>2011-11-11T09:02:20Z</time>
      </trkpt>
      <trkpt lat="43.88396" lon="7.32469">
        <ele>998.245483</ele>
        <time>2011-11-11T09:02:25Z</time>
      </trkpt>
      <trkpt lat="43.88397" lon="7.32463">
        <ele>1000.675964</ele>
        <time>2011-11-11T09:02:30Z</time>
      </trkpt>
      <trkpt lat="43.88395" lon="7.32449">
        <ele>1001.652588</ele>
        <time>2011-11-11T09:02:35Z</time>
      </trkpt>
      <trkpt lat="43.88394" lon="7.32436">
        <ele>999.081299</ele>
        <time>2011-11-11T09:02:40Z</time>
      </trkpt>
      <trkpt lat="43.88392" lon="7.32433">
        <ele>997.35907</ele>
        <time>2011-11-11T09:03:10Z</time>
      </trkpt>
      <trkpt lat="43.88386" lon="7.3243">
        <ele>995.652588</ele>
        <time>2011-11-11T09:03:15Z</time>
      </trkpt>
      <trkpt lat="43.88378" lon="7.3242">
        <ele>992.620422</ele>
        <time>2011-11-11T09:03:20Z</time>
      </trkpt>
      <trkpt lat="43.88376" lon="7.32409">
        <ele>989.757385</ele>
        <time>2011-11-11T09:03:25Z</time>
      </trkpt>
      <trkpt lat="43.88374" lon="7.32405">
        <ele>988.021606</ele>
        <time>2011-11-11T09:03:30Z</time>
      </trkpt>
      <trkpt lat="43.88367" lon="7.32398">
        <ele>984.933228</ele>
        <time>2011-11-11T09:03:35Z</time>
      </trkpt>
      <trkpt lat="43.88357" lon="7.32392">
        <ele>980.834656</ele>
        <time>2011-11-11T09:03:40Z</time>
      </trkpt>
      <trkpt lat="43.88345" lon="7.32371">
        <ele>974.316711</ele>
        <time>2011-11-11T09:03:45Z</time>
      </trkpt>
      <trkpt lat="43.88332" lon="7.3237">
        <ele>973.972412</ele>
        <time>2011-11-11T09:03:50Z</time>
      </trkpt>
      <trkpt lat="43.88319" lon="7.32378">
        <ele>973.999817</ele>
        <time>2011-11-11T09:03:55Z</time>
      </trkpt>
      <trkpt lat="43.88307" lon="7.32388">
        <ele>970.90918</ele>
        <time>2011-11-11T09:04:00Z</time>
      </trkpt>
      <trkpt lat="43.88292" lon="7.32386">
        <ele>967.284668</ele>
        <time>2011-11-11T09:04:05Z</time>
      </trkpt>
      <trkpt lat="43.88279" lon="7.32389">
        <ele>962.358337</ele>
        <time>2011-11-11T09:04:10Z</time>
      </trkpt>
      <trkpt lat="43.88268" lon="7.32387">
        <ele>957.58136</ele>
        <time>2011-11-11T09:04:15Z</time>
      </trkpt>
      <trkpt lat="43.88253" lon="7.32381">
        <ele>954.496277</ele>
        <time>2011-11-11T09:04:20Z</time>
      </trkpt>
      <trkpt lat="43.88241" lon="7.32383">
        <ele>953.458435</ele>
        <time>2011-11-11T09:04:45Z</time>
      </trkpt>
      <trkpt lat="43.88239" lon="7.32383">
        <ele>953.585388</ele>
        <time>2011-11-11T09:04:50Z</time>
      </trkpt>
      <trkpt lat="43.88219" lon="7.32392">
        <ele>951.115112</ele>
        <time>2011-11-11T09:04:55Z</time>
      </trkpt>
      <trkpt lat="43.88192" lon="7.32402">
        <ele>946.971069</ele>
        <time>2011-11-11T09:05:00Z</time>
      </trkpt>
      <trkpt lat="43.88178" lon="7.32398">
        <ele>942.902771</ele>
        <time>2011-11-11T09:05:05Z</time>
      </trkpt>
      <trkpt lat="43.88163" lon="7.32383">
        <ele>938.895386</ele>
        <time>2011-11-11T09:05:10Z</time>
      </trkpt>
      <trkpt lat="43.88146" lon="7.32382">
        <ele>936.767456</ele>
        <time>2011-11-11T09:05:15Z</time>
      </trkpt>
      <trkpt lat="43.88128" lon="7.32377">
        <ele>934.504211</ele>
        <time>2011-11-11T09:05:20Z</time>
      </trkpt>
      <trkpt lat="43.8812" lon="7.32373">
        <ele>933.701904</ele>
        <time>2011-11-11T09:05:25Z</time>
      </trkpt>
      <trkpt lat="43.88119" lon="7.32374">
        <ele>933.364807</ele>
        <time>2011-11-11T09:05:30Z</time>
      </trkpt>
      <trkpt lat="43.88115" lon="7.32373">
        <ele>932.770264</ele>
        <time>2011-11-11T09:05:35Z</time>
      </trkpt>
      <trkpt lat="43.88105" lon="7.32362">
        <ele>931.111206</ele>
        <time>2011-11-11T09:05:40Z</time>
      </trkpt>
      <trkpt lat="43.88092" lon="7.32353">
        <ele>929.390259</ele>
        <time>2011-11-11T09:05:45Z</time>
      </trkpt>
      <trkpt lat="43.88078" lon="7.32362">
        <ele>927.013306</ele>
        <time>2011-11-11T09:05:50Z</time>
      </trkpt>
      <trkpt lat="43.88062" lon="7.32378">
        <ele>925.134155</ele>
        <time>2011-11-11T09:05:55Z</time>
      </trkpt>
      <trkpt lat="43.88049" lon="7.32378">
        <ele>922.379883</ele>
        <time>2011-11-11T09:06:00Z</time>
      </trkpt>
      <trkpt lat="43.88038" lon="7.32386">
        <ele>921.854736</ele>
        <time>2011-11-11T09:06:05Z</time>
      </trkpt>
      <trkpt lat="43.88025" lon="7.32385">
        <ele>920.708191</ele>
        <time>2011-11-11T09:06:10Z</time>
      </trkpt>
      <trkpt lat="43.88009" lon="7.32384">
        <ele>920.301941</ele>
        <time>2011-11-11T09:06:15Z</time>
      </trkpt>
      <trkpt lat="43.88003" lon="7.32401">
        <ele>920.118774</ele>
        <time>2011-11-11T09:06:20Z</time>
      </trkpt>
      <trkpt lat="43.87995" lon="7.32416">
        <ele>918.247192</ele>
        <time>2011-11-11T09:06:25Z</time>
      </trkpt>
      <trkpt lat="43.87995" lon="7.32418">
        <ele>916.683289</ele>
        <time>2011-11-11T09:06:30Z</time>
      </trkpt>
      <trkpt lat="43.87994" lon="7.32421">
        <ele>915.449524</ele>
        <time>2011-11-11T09:06:35Z</time>
      </trkpt>
      <trkpt lat="43.87985" lon="7.32426">
        <ele>915.016174</ele>
        <time>2011-11-11T09:06:40Z</time>
      </trkpt>
      <trkpt lat="43.87974" lon="7.32433">
        <ele>913.571106</ele>
        <time>2011-11-11T09:06:45Z</time>
      </trkpt>
      <trkpt lat="43.87964" lon="7.32433">
        <ele>911.46991</ele>
        <time>2011-11-11T09:06:50Z</time>
      </trkpt>
      <trkpt lat="43.87956" lon="7.32435">
        <ele>909.305176</ele>
        <time>2011-11-11T09:06:55Z</time>
      </trkpt>
      <trkpt lat="43.87952" lon="7.32434">
        <ele>907.772461</ele>
        <time>2011-11-11T09:07:00Z</time>
      </trkpt>
      <trkpt lat="43.87941" lon="7.32432">
        <ele>905.553772</ele>
        <time>2011-11-11T09:07:05Z</time>
      </trkpt>
      <trkpt lat="43.87928" lon="7.32438">
        <ele>902.97052</ele>
        <time>2011-11-11T09:07:10Z</time>
      </trkpt>
      <trkpt lat="43.87917" lon="7.32441">
        <ele>899.922791</ele>
        <time>2011-11-11T09:07:15Z</time>
      </trkpt>
      <trkpt lat="43.87904" lon="7.32445">
        <ele>897.611572</ele>
        <time>2011-11-11T09:07:20Z</time>
      </trkpt>
      <trkpt lat="43.87891" lon="7.32453">
        <ele>898.102234</ele>
        <time>2011-11-11T09:07:25Z</time>
      </trkpt>
      <trkpt lat="43.87883" lon="7.32459">
        <ele>897.128967</ele>
        <time>2011-11-11T09:07:30Z</time>
      </trkpt>
      <trkpt lat="43.87871" lon="7.32461">
        <ele>894.757507</ele>
        <time>2011-11-11T09:07:35Z</time>
      </trkpt>
      <trkpt lat="43.87859" lon="7.32472">
        <ele>892.02124</ele>
        <time>2011-11-11T09:07:40Z</time>
      </trkpt>
      <trkpt lat="43.87848" lon="7.32484">
        <ele>888.256226</ele>
        <time>2011-11-11T09:07:45Z</time>
      </trkpt>
      <trkpt lat="43.87843" lon="7.32492">
        <ele>885.274902</ele>
        <time>2011-11-11T09:07:50Z</time>
      </trkpt>
      <trkpt lat="43.8784" lon="7.32494">
        <ele>883.432434</ele>
        <time>2011-11-11T09:07:55Z</time>
      </trkpt>
      <trkpt lat="43.87834" lon="7.32496">
        <ele>882.333801</ele>
        <time>2011-11-11T09:08:00Z</time>
      </trkpt>
      <trkpt lat="43.8782" lon="7.32488">
        <ele>881.611511</ele>
        <time>2011-11-11T09:08:05Z</time>
      </trkpt>
      <trkpt lat="43.87813" lon="7.32482">
        <ele>881.661865</ele>
        <time>2011-11-11T09:08:10Z</time>
      </trkpt>
      <trkpt lat="43.87802" lon="7.32482">
        <ele>880.254883</ele>
        <time>2011-11-11T09:08:15Z</time>
      </trkpt>
      <trkpt lat="43.87788" lon="7.32475">
        <ele>877.586731</ele>
        <time>2011-11-11T09:08:20Z</time>
      </trkpt>
      <trkpt lat="43.87771" lon="7.32469">
        <ele>875.785889</ele>
        <time>2011-11-11T09:08:25Z</time>
      </trkpt>
      <trkpt lat="43.87751" lon="7.32468">
        <ele>872.085144</ele>
        <time>2011-11-11T09:08:30Z</time>
      </trkpt>
      <trkpt lat="43.87738" lon="7.32465">
        <ele>872.320862</ele>
        <time>2011-11-11T09:08:35Z</time>
      </trkpt>
      <trkpt lat="43.87728" lon="7.32459">
        <ele>874.801697</ele>
        <time>2011-11-11T09:08:40Z</time>
      </trkpt>
      <trkpt lat="43.87721" lon="7.32455">
        <ele>876.46167</ele>
        <time>2011-11-11T09:08:45Z</time>
      </trkpt>
      <trkpt lat="43.87719" lon="7.32457">
        <ele>876.710266</ele>
        <time>2011-11-11T09:08:50Z</time>
      </trkpt>
      <trkpt lat="43.87719" lon="7.32457">
        <ele>876.803406</ele>
        <time>2011-11-11T09:08:55Z</time>
      </trkpt>
      <trkpt lat="43.87713" lon="7.32455">
        <ele>875.30957</ele>
        <time>2011-11-11T09:09:00Z</time>
      </trkpt>
      <trkpt lat="43.87708" lon="7.3245">
        <ele>873.372498</ele>
        <time>2011-11-11T09:09:05Z</time>
      </trkpt>
      <trkpt lat="43.877" lon="7.32441">
        <ele>870.114624</ele>
        <time>2011-11-11T09:09:10Z</time>
      </trkpt>
      <trkpt lat="43.87698" lon="7.3244">
        <ele>869.238892</ele>
        <time>2011-11-11T09:09:15Z</time>
      </trkpt>
      <trkpt lat="43.8769" lon="7.32436">
        <ele>867.885376</ele>
        <time>2011-11-11T09:09:20Z</time>
      </trkpt>
      <trkpt lat="43.87689" lon="7.32436">
        <ele>867.741394</ele>
        <time>2011-11-11T09:09:25Z</time>
      </trkpt>
      <trkpt lat="43.87685" lon="7.32325">
        <ele>825.380981</ele>
        <time>2011-11-11T09:14:55Z</time>
      </trkpt>
      <trkpt lat="43.87776" lon="7.32344">
        <ele>822.932861</ele>
        <time>2011-11-11T09:15:25Z</time>
      </trkpt>
      <trkpt lat="43.87789" lon="7.32348">
        <ele>824.061157</ele>
        <time>2011-11-11T09:15:30Z</time>
      </trkpt>
      <trkpt lat="43.87799" lon="7.32349">
        <ele>825.131104</ele>
        <time>2011-11-11T09:15:35Z</time>
      </trkpt>
      <trkpt lat="43.878" lon="7.32349">
        <ele>825.016235</ele>
        <time>2011-11-11T09:15:40Z</time>
      </trkpt>
      <trkpt lat="43.87803" lon="7.32349">
        <ele>826.704468</ele>
        <time>2011-11-11T09:15:45Z</time>
      </trkpt>
      <trkpt lat="43.87808" lon="7.32347">
        <ele>827.298035</ele>
        <time>2011-11-11T09:15:50Z</time>
      </trkpt>
      <trkpt lat="43.87812" lon="7.32345">
        <ele>825.309021</ele>
        <time>2011-11-11T09:15:55Z</time>
      </trkpt>
      <trkpt lat="43.87813" lon="7.32343">
        <ele>824.168884</ele>
        <time>2011-11-11T09:16:00Z</time>
      </trkpt>
      <trkpt lat="43.87812" lon="7.32344">
        <ele>823.917175</ele>
        <time>2011-11-11T09:16:05Z</time>
      </trkpt>
      <trkpt lat="43.87812" lon="7.32344">
        <ele>823.891785</ele>
        <time>2011-11-11T09:16:10Z</time>
      </trkpt>
      <trkpt lat="43.87812" lon="7.32346">
        <ele>822.079163</ele>
        <time>2011-11-11T09:16:15Z</time>
      </trkpt>
      <trkpt lat="43.87807" lon="7.3235">
        <ele>818.889771</ele>
        <time>2011-11-11T09:16:40Z</time>
      </trkpt>
      <trkpt lat="43.87811" lon="7.32348">
        <ele>818.699646</ele>
        <time>2011-11-11T09:16:45Z</time>
      </trkpt>
      <trkpt lat="43.87817" lon="7.32343">
        <ele>818.81189</ele>
        <time>2011-11-11T09:16:50Z</time>
      </trkpt>
      <trkpt lat="43.87826" lon="7.32341">
        <ele>819.620361</ele>
        <time>2011-11-11T09:16:55Z</time>
      </trkpt>
      <trkpt lat="43.8783" lon="7.32339">
        <ele>821.326355</ele>
        <time>2011-11-11T09:17:00Z</time>
      </trkpt>
      <trkpt lat="43.87832" lon="7.32339">
        <ele>819.529968</ele>
        <time>2011-11-11T09:17:05Z</time>
      </trkpt>
      <trkpt lat="43.87836" lon="7.32328">
        <ele>817.987305</ele>
        <time>2011-11-11T09:17:10Z</time>
      </trkpt>
      <trkpt lat="43.87844" lon="7.32322">
        <ele>818.056152</ele>
        <time>2011-11-11T09:17:15Z</time>
      </trkpt>
      <trkpt lat="43.87854" lon="7.32319">
        <ele>818.647339</ele>
        <time>2011-11-11T09:17:20Z</time>
      </trkpt>
      <trkpt lat="43.87863" lon="7.32313">
        <ele>818.257813</ele>
        <time>2011-11-11T09:17:25Z</time>
      </trkpt>
      <trkpt lat="43.87872" lon="7.32306">
        <ele>817.770142</ele>
        <time>2011-11-11T09:17:30Z</time>
      </trkpt>
      <trkpt lat="43.87881" lon="7.32299">
        <ele>820.519531</ele>
        <time>2011-11-11T09:17:35Z</time>
      </trkpt>
      <trkpt lat="43.87885" lon="7.32296">
        <ele>821.873352</ele>
        <time>2011-11-11T09:17:40Z</time>
      </trkpt>
      <trkpt lat="43.87888" lon="7.32296">
        <ele>823.232544</ele>
        <time>2011-11-11T09:17:45Z</time>
      </trkpt>
      <trkpt lat="43.87892" lon="7.32292">
        <ele>825.858826</ele>
        <time>2011-11-11T09:17:50Z</time>
      </trkpt>
      <trkpt lat="43.87893" lon="7.32287">
        <ele>827.915527</ele>
        <time>2011-11-11T09:17:55Z</time>
      </trkpt>
      <trkpt lat="43.87897" lon="7.32282">
        <ele>828.606567</ele>
        <time>2011-11-11T09:18:00Z</time>
      </trkpt>
      <trkpt lat="43.87901" lon="7.32282">
        <ele>831.137512</ele>
        <time>2011-11-11T09:18:05Z</time>
      </trkpt>
      <trkpt lat="43.87905" lon="7.32279">
        <ele>831.946777</ele>
        <time>2011-11-11T09:18:10Z</time>
      </trkpt>
      <trkpt lat="43.87906" lon="7.32277">
        <ele>832.059143</ele>
        <time>2011-11-11T09:18:15Z</time>
      </trkpt>
      <trkpt lat="43.87911" lon="7.32274">
        <ele>832.938904</ele>
        <time>2011-11-11T09:18:20Z</time>
      </trkpt>
      <trkpt lat="43.87917" lon="7.32272">
        <ele>835.014587</ele>
        <time>2011-11-11T09:18:25Z</time>
      </trkpt>
      <trkpt lat="43.8792" lon="7.32269">
        <ele>838.135864</ele>
        <time>2011-11-11T09:18:30Z</time>
      </trkpt>
      <trkpt lat="43.87927" lon="7.32268">
        <ele>841.078491</ele>
        <time>2011-11-11T09:18:35Z</time>
      </trkpt>
      <trkpt lat="43.87932" lon="7.32268">
        <ele>841.978577</ele>
        <time>2011-11-11T09:18:40Z</time>
      </trkpt>
      <trkpt lat="43.87939" lon="7.32266">
        <ele>842.380127</ele>
        <time>2011-11-11T09:18:45Z</time>
      </trkpt>
      <trkpt lat="43.87942" lon="7.32266">
        <ele>843.072937</ele>
        <time>2011-11-11T09:18:50Z</time>
      </trkpt>
      <trkpt lat="43.87946" lon="7.32264">
        <ele>843.085327</ele>
        <time>2011-11-11T09:18:55Z</time>
      </trkpt>
      <trkpt lat="43.87955" lon="7.32257">
        <ele>844.412842</ele>
        <time>2011-11-11T09:19:00Z</time>
      </trkpt>
      <trkpt lat="43.87965" lon="7.32252">
        <ele>843.96936</ele>
        <time>2011-11-11T09:19:05Z</time>
      </trkpt>
      <trkpt lat="43.87974" lon="7.32245">
        <ele>844.790833</ele>
        <time>2011-11-11T09:19:10Z</time>
      </trkpt>
      <trkpt lat="43.87981" lon="7.32232">
        <ele>846.21106</ele>
        <time>2011-11-11T09:19:15Z</time>
      </trkpt>
      <trkpt lat="43.87985" lon="7.3222">
        <ele>847.260681</ele>
        <time>2011-11-11T09:19:20Z</time>
      </trkpt>
      <trkpt lat="43.87986" lon="7.32213">
        <ele>845.922791</ele>
        <time>2011-11-11T09:19:25Z</time>
      </trkpt>
      <trkpt lat="43.87994" lon="7.32194">
        <ele>846.029846</ele>
        <time>2011-11-11T09:19:30Z</time>
      </trkpt>
      <trkpt lat="43.87997" lon="7.32179">
        <ele>847.331543</ele>
        <time>2011-11-11T09:19:35Z</time>
      </trkpt>
      <trkpt lat="43.88004" lon="7.32172">
        <ele>847.710144</ele>
        <time>2011-11-11T09:19:40Z</time>
      </trkpt>
      <trkpt lat="43.88009" lon="7.32164">
        <ele>847.871704</ele>
        <time>2011-11-11T09:20:20Z</time>
      </trkpt>
      <trkpt lat="43.88009" lon="7.32164">
        <ele>847.521973</ele>
        <time>2011-11-11T09:20:25Z</time>
      </trkpt>
      <trkpt lat="43.88016" lon="7.32152">
        <ele>843.975098</ele>
        <time>2011-11-11T09:20:30Z</time>
      </trkpt>
      <trkpt lat="43.88021" lon="7.32139">
        <ele>840.833801</ele>
        <time>2011-11-11T09:20:35Z</time>
      </trkpt>
      <trkpt lat="43.8802" lon="7.32139">
        <ele>840.572693</ele>
        <time>2011-11-11T09:20:40Z</time>
      </trkpt>
      <trkpt lat="43.88022" lon="7.32133">
        <ele>838.088989</ele>
        <time>2011-11-11T09:20:45Z</time>
      </trkpt>
      <trkpt lat="43.88023" lon="7.3213">
        <ele>837.553345</ele>
        <time>2011-11-11T09:20:50Z</time>
      </trkpt>
      <trkpt lat="43.88023" lon="7.3213">
        <ele>837.302307</ele>
        <time>2011-11-11T09:20:55Z</time>
      </trkpt>
      <trkpt lat="43.88023" lon="7.3213">
        <ele>837.408569</ele>
        <time>2011-11-11T09:21:00Z</time>
      </trkpt>
      <trkpt lat="43.88023" lon="7.32129">
        <ele>837.782837</ele>
        <time>2011-11-11T09:21:05Z</time>
      </trkpt>
      <trkpt lat="43.88028" lon="7.32119">
        <ele>836.282654</ele>
        <time>2011-11-11T09:21:10Z</time>
      </trkpt>
      <trkpt lat="43.88028" lon="7.32116">
        <ele>836.226257</ele>
        <time>2011-11-11T09:21:15Z</time>
      </trkpt>
      <trkpt lat="43.88028" lon="7.32119">
        <ele>836.632568</ele>
        <time>2011-11-11T09:21:20Z</time>
      </trkpt>
      <trkpt lat="43.88027" lon="7.32123">
        <ele>836.45697</ele>
        <time>2011-11-11T09:21:25Z</time>
      </trkpt>
      <trkpt lat="43.88029" lon="7.32127">
        <ele>835.60022</ele>
        <time>2011-11-11T09:21:30Z</time>
      </trkpt>
      <trkpt lat="43.8803" lon="7.32127">
        <ele>836.445251</ele>
        <time>2011-11-11T09:21:35Z</time>
      </trkpt>
      <trkpt lat="43.88033" lon="7.32128">
        <ele>835.756714</ele>
        <time>2011-11-11T09:21:40Z</time>
      </trkpt>
      <trkpt lat="43.88035" lon="7.32121">
        <ele>835.491394</ele>
        <time>2011-11-11T09:21:45Z</time>
      </trkpt>
      <trkpt lat="43.88072" lon="7.32002">
        <ele>815.975647</ele>
        <time>2011-11-11T09:23:05Z</time>
      </trkpt>
      <trkpt lat="43.88084" lon="7.31874">
        <ele>804.989868</ele>
        <time>2011-11-11T09:24:40Z</time>
      </trkpt>
      <trkpt lat="43.88084" lon="7.31868">
        <ele>805.583618</ele>
        <time>2011-11-11T09:24:45Z</time>
      </trkpt>
      <trkpt lat="43.8808" lon="7.31859">
        <ele>805.006531</ele>
        <time>2011-11-11T09:24:50Z</time>
      </trkpt>
      <trkpt lat="43.88078" lon="7.31855">
        <ele>805.522644</ele>
        <time>2011-11-11T09:24:55Z</time>
      </trkpt>
      <trkpt lat="43.88078" lon="7.31848">
        <ele>806.286011</ele>
        <time>2011-11-11T09:25:00Z</time>
      </trkpt>
      <trkpt lat="43.88077" lon="7.31839">
        <ele>806.919556</ele>
        <time>2011-11-11T09:25:05Z</time>
      </trkpt>
      <trkpt lat="43.88078" lon="7.31831">
        <ele>807.715454</ele>
        <time>2011-11-11T09:25:10Z</time>
      </trkpt>
      <trkpt lat="43.88078" lon="7.31822">
        <ele>808.24054</ele>
        <time>2011-11-11T09:25:15Z</time>
      </trkpt>
      <trkpt lat="43.88079" lon="7.31814">
        <ele>809.149292</ele>
        <time>2011-11-11T09:25:20Z</time>
      </trkpt>
      <trkpt lat="43.88079" lon="7.31807">
        <ele>809.914001</ele>
        <time>2011-11-11T09:25:25Z</time>
      </trkpt>
      <trkpt lat="43.8808" lon="7.318">
        <ele>810.795227</ele>
        <time>2011-11-11T09:25:30Z</time>
      </trkpt>
      <trkpt lat="43.8808" lon="7.31793">
        <ele>810.690796</ele>
        <time>2011-11-11T09:25:35Z</time>
      </trkpt>
      <trkpt lat="43.88081" lon="7.31789">
        <ele>812.1698</ele>
        <time>2011-11-11T09:25:40Z</time>
      </trkpt>
      <trkpt lat="43.88081" lon="7.31783">
        <ele>813.566956</ele>
        <time>2011-11-11T09:25:45Z</time>
      </trkpt>
      <trkpt lat="43.88081" lon="7.31778">
        <ele>814.735596</ele>
        <time>2011-11-11T09:25:50Z</time>
      </trkpt>
      <trkpt lat="43.88081" lon="7.31773">
        <ele>816.798401</ele>
        <time>2011-11-11T09:25:55Z</time>
      </trkpt>
      <trkpt lat="43.88082" lon="7.31769">
        <ele>817.676208</ele>
        <time>2011-11-11T09:26:00Z</time>
      </trkpt>
      <trkpt lat="43.88081" lon="7.31763">
        <ele>818.014465</ele>
        <time>2011-11-11T09:26:05Z</time>
      </trkpt>
      <trkpt lat="43.88082" lon="7.31756">
        <ele>818.728516</ele>
        <time>2011-11-11T09:26:10Z</time>
      </trkpt>
      <trkpt lat="43.88084" lon="7.31748">
        <ele>819.315735</ele>
        <time>2011-11-11T09:26:15Z</time>
      </trkpt>
      <trkpt lat="43.88084" lon="7.31743">
        <ele>819.524109</ele>
        <time>2011-11-11T09:26:20Z</time>
      </trkpt>
      <trkpt lat="43.88085" lon="7.31743">
        <ele>819.144165</ele>
        <time>2011-11-11T09:26:30Z</time>
      </trkpt>
      <trkpt lat="43.88084" lon="7.31743">
        <ele>819.089661</ele>
        <time>2011-11-11T09:26:35Z</time>
      </trkpt>
      <trkpt lat="43.88084" lon="7.31743">
        <ele>819.591064</ele>
        <time>2011-11-11T09:26:40Z</time>
      </trkpt>
      <trkpt lat="43.88084" lon="7.31743">
        <ele>819.650818</ele>
        <time>2011-11-11T09:26:45Z</time>
      </trkpt>
      <trkpt lat="43.88081" lon="7.31724">
        <ele>819.205688</ele>
        <time>2011-11-11T09:26:50Z</time>
      </trkpt>
      <trkpt lat="43.88078" lon="7.31708">
        <ele>820.636841</ele>
        <time>2011-11-11T09:26:55Z</time>
      </trkpt>
      <trkpt lat="43.88074" lon="7.31697">
        <ele>822.203674</ele>
        <time>2011-11-11T09:27:00Z</time>
      </trkpt>
      <trkpt lat="43.88074" lon="7.31697">
        <ele>822.196594</ele>
        <time>2011-11-11T09:27:05Z</time>
      </trkpt>
      <trkpt lat="43.88073" lon="7.3169">
        <ele>821.701172</ele>
        <time>2011-11-11T09:27:10Z</time>
      </trkpt>
      <trkpt lat="43.88074" lon="7.31677">
        <ele>824.284058</ele>
        <time>2011-11-11T09:27:15Z</time>
      </trkpt>
      <trkpt lat="43.88076" lon="7.31663">
        <ele>825.941528</ele>
        <time>2011-11-11T09:27:20Z</time>
      </trkpt>
      <trkpt lat="43.88079" lon="7.31648">
        <ele>827.126953</ele>
        <time>2011-11-11T09:27:25Z</time>
      </trkpt>
      <trkpt lat="43.88081" lon="7.31634">
        <ele>827.335571</ele>
        <time>2011-11-11T09:27:30Z</time>
      </trkpt>
      <trkpt lat="43.88081" lon="7.31618">
        <ele>828.120789</ele>
        <time>2011-11-11T09:27:35Z</time>
      </trkpt>
      <trkpt lat="43.88082" lon="7.31602">
        <ele>828.264893</ele>
        <time>2011-11-11T09:27:40Z</time>
      </trkpt>
      <trkpt lat="43.88109" lon="7.31471">
        <ele>830.437622</ele>
        <time>2011-11-11T09:30:25Z</time>
      </trkpt>
      <trkpt lat="43.88198" lon="7.31421">
        <ele>844.975159</ele>
        <time>2011-11-11T09:35:30Z</time>
      </trkpt>
      <trkpt lat="43.88201" lon="7.31422">
        <ele>844.804565</ele>
        <time>2011-11-11T09:35:35Z</time>
      </trkpt>
      <trkpt lat="43.88201" lon="7.31422">
        <ele>844.725525</ele>
        <time>2011-11-11T09:35:40Z</time>
      </trkpt>
      <trkpt lat="43.88201" lon="7.31422">
        <ele>844.708374</ele>
        <time>2011-11-11T09:35:45Z</time>
      </trkpt>
      <trkpt lat="43.88202" lon="7.31422">
        <ele>844.697937</ele>
        <time>2011-11-11T09:35:50Z</time>
      </trkpt>
      <trkpt lat="43.88204" lon="7.31423">
        <ele>844.505981</ele>
        <time>2011-11-11T09:35:55Z</time>
      </trkpt>
      <trkpt lat="43.88219" lon="7.31435">
        <ele>843.200806</ele>
        <time>2011-11-11T09:36:00Z</time>
      </trkpt>
      <trkpt lat="43.88238" lon="7.31446">
        <ele>841.793945</ele>
        <time>2011-11-11T09:36:05Z</time>
      </trkpt>
      <trkpt lat="43.88255" lon="7.31442">
        <ele>839.07959</ele>
        <time>2011-11-11T09:36:10Z</time>
      </trkpt>
      <trkpt lat="43.88264" lon="7.31428">
        <ele>839.29657</ele>
        <time>2011-11-11T09:36:15Z</time>
      </trkpt>
      <trkpt lat="43.88273" lon="7.31409">
        <ele>836.419128</ele>
        <time>2011-11-11T09:36:20Z</time>
      </trkpt>
      <trkpt lat="43.88284" lon="7.31401">
        <ele>832.984192</ele>
        <time>2011-11-11T09:36:25Z</time>
      </trkpt>
      <trkpt lat="43.883" lon="7.31401">
        <ele>829.014832</ele>
        <time>2011-11-11T09:36:30Z</time>
      </trkpt>
      <trkpt lat="43.88314" lon="7.31398">
        <ele>825.486877</ele>
        <time>2011-11-11T09:36:35Z</time>
      </trkpt>
      <trkpt lat="43.88331" lon="7.31398">
        <ele>822.210876</ele>
        <time>2011-11-11T09:36:40Z</time>
      </trkpt>
      <trkpt lat="43.88345" lon="7.31398">
        <ele>821.971191</ele>
        <time>2011-11-11T09:36:45Z</time>
      </trkpt>
      <trkpt lat="43.88357" lon="7.31399">
        <ele>821.833923</ele>
        <time>2011-11-11T09:36:50Z</time>
      </trkpt>
      <trkpt lat="43.88377" lon="7.31403">
        <ele>817.599731</ele>
        <time>2011-11-11T09:36:55Z</time>
      </trkpt>
      <trkpt lat="43.88397" lon="7.31409">
        <ele>814.345093</ele>
        <time>2011-11-11T09:37:00Z</time>
      </trkpt>
      <trkpt lat="43.88411" lon="7.31394">
        <ele>811.511353</ele>
        <time>2011-11-11T09:37:05Z</time>
      </trkpt>
      <trkpt lat="43.88429" lon="7.31403">
        <ele>809.049255</ele>
        <time>2011-11-11T09:37:10Z</time>
      </trkpt>
      <trkpt lat="43.88444" lon="7.31413">
        <ele>806.603027</ele>
        <time>2011-11-11T09:37:15Z</time>
      </trkpt>
      <trkpt lat="43.88449" lon="7.31406">
        <ele>807.1651</ele>
        <time>2011-11-11T09:37:20Z</time>
      </trkpt>
      <trkpt lat="43.88449" lon="7.31406">
        <ele>807.040222</ele>
        <time>2011-11-11T09:37:25Z</time>
      </trkpt>
      <trkpt lat="43.8845" lon="7.31403">
        <ele>807.167358</ele>
        <time>2011-11-11T09:37:30Z</time>
      </trkpt>
      <trkpt lat="43.88454" lon="7.31398">
        <ele>807.882324</ele>
        <time>2011-11-11T09:37:35Z</time>
      </trkpt>
      <trkpt lat="43.88458" lon="7.31396">
        <ele>808.409363</ele>
        <time>2011-11-11T09:37:40Z</time>
      </trkpt>
      <trkpt lat="43.88458" lon="7.31395">
        <ele>808.223511</ele>
        <time>2011-11-11T09:37:45Z</time>
      </trkpt>
      <trkpt lat="43.88462" lon="7.31392">
        <ele>808.41156</ele>
        <time>2011-11-11T09:37:50Z</time>
      </trkpt>
      <trkpt lat="43.88476" lon="7.31392">
        <ele>807.598816</ele>
        <time>2011-11-11T09:37:55Z</time>
      </trkpt>
      <trkpt lat="43.88495" lon="7.31387">
        <ele>807.495117</ele>
        <time>2011-11-11T09:38:00Z</time>
      </trkpt>
      <trkpt lat="43.88507" lon="7.31391">
        <ele>806.108887</ele>
        <time>2011-11-11T09:38:05Z</time>
      </trkpt>
      <trkpt lat="43.88512" lon="7.31406">
        <ele>802.749695</ele>
        <time>2011-11-11T09:38:10Z</time>
      </trkpt>
      <trkpt lat="43.88516" lon="7.31411">
        <ele>800.104187</ele>
        <time>2011-11-11T09:38:15Z</time>
      </trkpt>
      <trkpt lat="43.88519" lon="7.31417">
        <ele>797.805725</ele>
        <time>2011-11-11T09:38:20Z</time>
      </trkpt>
      <trkpt lat="43.88524" lon="7.31424">
        <ele>795.782837</ele>
        <time>2011-11-11T09:38:25Z</time>
      </trkpt>
      <trkpt lat="43.88525" lon="7.31425">
        <ele>794.802185</ele>
        <time>2011-11-11T09:38:30Z</time>
      </trkpt>
      <trkpt lat="43.88526" lon="7.31421">
        <ele>793.865784</ele>
        <time>2011-11-11T09:38:35Z</time>
      </trkpt>
      <trkpt lat="43.88526" lon="7.31413">
        <ele>791.605591</ele>
        <time>2011-11-11T09:38:40Z</time>
      </trkpt>
      <trkpt lat="43.88527" lon="7.31414">
        <ele>790.969849</ele>
        <time>2011-11-11T09:39:25Z</time>
      </trkpt>
      <trkpt lat="43.88532" lon="7.31417">
        <ele>789.955139</ele>
        <time>2011-11-11T09:39:30Z</time>
      </trkpt>
      <trkpt lat="43.88534" lon="7.31418">
        <ele>790.198853</ele>
        <time>2011-11-11T09:39:35Z</time>
      </trkpt>
      <trkpt lat="43.88535" lon="7.31421">
        <ele>790.343018</ele>
        <time>2011-11-11T09:40:30Z</time>
      </trkpt>
      <trkpt lat="43.88535" lon="7.31422">
        <ele>790.354492</ele>
        <time>2011-11-11T09:40:35Z</time>
      </trkpt>
      <trkpt lat="43.88536" lon="7.31429">
        <ele>790.856384</ele>
        <time>2011-11-11T09:40:40Z</time>
      </trkpt>
      <trkpt lat="43.88539" lon="7.31433">
        <ele>791.331299</ele>
        <time>2011-11-11T09:40:45Z</time>
      </trkpt>
      <trkpt lat="43.88541" lon="7.3143">
        <ele>793.200195</ele>
        <time>2011-11-11T09:40:50Z</time>
      </trkpt>
      <trkpt lat="43.88542" lon="7.31425">
        <ele>794.438782</ele>
        <time>2011-11-11T09:40:55Z</time>
      </trkpt>
      <trkpt lat="43.88542" lon="7.31422">
        <ele>795.902466</ele>
        <time>2011-11-11T09:41:00Z</time>
      </trkpt>
      <trkpt lat="43.88543" lon="7.31417">
        <ele>797.448059</ele>
        <time>2011-11-11T09:41:05Z</time>
      </trkpt>
      <trkpt lat="43.88541" lon="7.31413">
        <ele>798.975647</ele>
        <time>2011-11-11T09:41:10Z</time>
      </trkpt>
      <trkpt lat="43.88539" lon="7.31409">
        <ele>800.237244</ele>
        <time>2011-11-11T09:41:15Z</time>
      </trkpt>
      <trkpt lat="43.88537" lon="7.31405">
        <ele>801.402893</ele>
        <time>2011-11-11T09:41:20Z</time>
      </trkpt>
      <trkpt lat="43.88536" lon="7.31399">
        <ele>802.255066</ele>
        <time>2011-11-11T09:41:25Z</time>
      </trkpt>
      <trkpt lat="43.88537" lon="7.31391">
        <ele>803.018433</ele>
        <time>2011-11-11T09:41:30Z</time>
      </trkpt>
      <trkpt lat="43.88537" lon="7.31384">
        <ele>803.826172</ele>
        <time>2011-11-11T09:41:35Z</time>
      </trkpt>
      <trkpt lat="43.88555" lon="7.31262">
        <ele>830.822205</ele>
        <time>2011-11-11T10:03:05Z</time>
      </trkpt>
      <trkpt lat="43.88648" lon="7.31295">
        <ele>807.802002</ele>
        <time>2011-11-11T10:05:15Z</time>
      </trkpt>
      <trkpt lat="43.88654" lon="7.31287">
        <ele>804.203674</ele>
        <time>2011-11-11T10:05:20Z</time>
      </trkpt>
      <trkpt lat="43.88658" lon="7.31286">
        <ele>800.971802</ele>
        <time>2011-11-11T10:05:25Z</time>
      </trkpt>
      <trkpt lat="43.8866" lon="7.31289">
        <ele>798.306641</ele>
        <time>2011-11-11T10:05:30Z</time>
      </trkpt>
      <trkpt lat="43.88661" lon="7.31289">
        <ele>796.698364</ele>
        <time>2011-11-11T10:05:35Z</time>
      </trkpt>
      <trkpt lat="43.88663" lon="7.31287">
        <ele>795.696777</ele>
        <time>2011-11-11T10:05:40Z</time>
      </trkpt>
      <trkpt lat="43.88669" lon="7.31292">
        <ele>793.661255</ele>
        <time>2011-11-11T10:05:45Z</time>
      </trkpt>
      <trkpt lat="43.88677" lon="7.313">
        <ele>790.364807</ele>
        <time>2011-11-11T10:05:50Z</time>
      </trkpt>
      <trkpt lat="43.88686" lon="7.31305">
        <ele>786.097351</ele>
        <time>2011-11-11T10:05:55Z</time>
      </trkpt>
      <trkpt lat="43.88693" lon="7.31309">
        <ele>782.499817</ele>
        <time>2011-11-11T10:06:00Z</time>
      </trkpt>
      <trkpt lat="43.88693" lon="7.31299">
        <ele>780.252197</ele>
        <time>2011-11-11T10:06:05Z</time>
      </trkpt>
      <trkpt lat="43.88689" lon="7.31286">
        <ele>777.886047</ele>
        <time>2011-11-11T10:06:10Z</time>
      </trkpt>
      <trkpt lat="43.88696" lon="7.31282">
        <ele>773.39917</ele>
        <time>2011-11-11T10:06:15Z</time>
      </trkpt>
      <trkpt lat="43.88704" lon="7.31283">
        <ele>770.449585</ele>
        <time>2011-11-11T10:06:20Z</time>
      </trkpt>
      <trkpt lat="43.88711" lon="7.31266">
        <ele>765.309509</ele>
        <time>2011-11-11T10:06:25Z</time>
      </trkpt>
      <trkpt lat="43.88713" lon="7.31251">
        <ele>759.837219</ele>
        <time>2011-11-11T10:06:30Z</time>
      </trkpt>
      <trkpt lat="43.88702" lon="7.31243">
        <ele>756.910095</ele>
        <time>2011-11-11T10:06:35Z</time>
      </trkpt>
      <trkpt lat="43.88696" lon="7.31232">
        <ele>752.83429</ele>
        <time>2011-11-11T10:06:40Z</time>
      </trkpt>
      <trkpt lat="43.88698" lon="7.31216">
        <ele>751.261719</ele>
        <time>2011-11-11T10:06:45Z</time>
      </trkpt>
      <trkpt lat="43.88696" lon="7.31216">
        <ele>749.028931</ele>
        <time>2011-11-11T10:07:20Z</time>
      </trkpt>
      <trkpt lat="43.88696" lon="7.31215">
        <ele>749.031799</ele>
        <time>2011-11-11T10:07:25Z</time>
      </trkpt>
      <trkpt lat="43.88698" lon="7.31204">
        <ele>748.141113</ele>
        <time>2011-11-11T10:07:30Z</time>
      </trkpt>
      <trkpt lat="43.88702" lon="7.31204">
        <ele>747.375427</ele>
        <time>2011-11-11T10:07:35Z</time>
      </trkpt>
      <trkpt lat="43.88703" lon="7.31202">
        <ele>744.968933</ele>
        <time>2011-11-11T10:07:40Z</time>
      </trkpt>
      <trkpt lat="43.88708" lon="7.31194">
        <ele>741.165466</ele>
        <time>2011-11-11T10:07:45Z</time>
      </trkpt>
      <trkpt lat="43.88711" lon="7.31191">
        <ele>739.23645</ele>
        <time>2011-11-11T10:07:50Z</time>
      </trkpt>
      <trkpt lat="43.88711" lon="7.31191">
        <ele>739.328186</ele>
        <time>2011-11-11T10:07:55Z</time>
      </trkpt>
      <trkpt lat="43.88708" lon="7.3119">
        <ele>740.025452</ele>
        <time>2011-11-11T10:08:00Z</time>
      </trkpt>
      <trkpt lat="43.8871" lon="7.31193">
        <ele>741.323303</ele>
        <time>2011-11-11T10:08:05Z</time>
      </trkpt>
      <trkpt lat="43.8871" lon="7.31192">
        <ele>741.942322</ele>
        <time>2011-11-11T10:08:10Z</time>
      </trkpt>
      <trkpt lat="43.88713" lon="7.31192">
        <ele>740.362793</ele>
        <time>2011-11-11T10:08:15Z</time>
      </trkpt>
      <trkpt lat="43.88714" lon="7.31195">
        <ele>738.752136</ele>
        <time>2011-11-11T10:08:20Z</time>
      </trkpt>
      <trkpt lat="43.88721" lon="7.31194">
        <ele>738.071533</ele>
        <time>2011-11-11T10:08:25Z</time>
      </trkpt>
      <trkpt lat="43.8873" lon="7.31192">
        <ele>733.914612</ele>
        <time>2011-11-11T10:08:30Z</time>
      </trkpt>
      <trkpt lat="43.88743" lon="7.31193">
        <ele>727.772461</ele>
        <time>2011-11-11T10:08:35Z</time>
      </trkpt>
      <trkpt lat="43.88758" lon="7.31181">
        <ele>720.074463</ele>
        <time>2011-11-11T10:08:40Z</time>
      </trkpt>
      <trkpt lat="43.88768" lon="7.31163">
        <ele>717.020081</ele>
        <time>2011-11-11T10:08:45Z</time>
      </trkpt>
      <trkpt lat="43.88767" lon="7.31153">
        <ele>714.371826</ele>
        <time>2011-11-11T10:08:50Z</time>
      </trkpt>
      <trkpt lat="43.88763" lon="7.31153">
        <ele>712.524597</ele>
        <time>2011-11-11T10:08:55Z</time>
      </trkpt>
      <trkpt lat="43.88761" lon="7.31152">
        <ele>711.534058</ele>
        <time>2011-11-11T10:09:00Z</time>
      </trkpt>
      <trkpt lat="43.88761" lon="7.31152">
        <ele>711.38208</ele>
        <time>2011-11-11T10:09:05Z</time>
      </trkpt>
      <trkpt lat="43.88765" lon="7.31144">
        <ele>709.293701</ele>
        <time>2011-11-11T10:09:10Z</time>
      </trkpt>
      <trkpt lat="43.88772" lon="7.31135">
        <ele>705.897766</ele>
        <time>2011-11-11T10:09:15Z</time>
      </trkpt>
      <trkpt lat="43.88781" lon="7.31128">
        <ele>703.086182</ele>
        <time>2011-11-11T10:09:20Z</time>
      </trkpt>
      <trkpt lat="43.88786" lon="7.31126">
        <ele>701.378906</ele>
        <time>2011-11-11T10:09:25Z</time>
      </trkpt>
      <trkpt lat="43.88786" lon="7.31125">
        <ele>701.537109</ele>
        <time>2011-11-11T10:09:30Z</time>
      </trkpt>
      <trkpt lat="43.88787" lon="7.31125">
        <ele>701.139648</ele>
        <time>2011-11-11T10:09:35Z</time>
      </trkpt>
      <trkpt lat="43.88787" lon="7.31125">
        <ele>701.089111</ele>
        <time>2011-11-11T10:09:40Z</time>
      </trkpt>
      <trkpt lat="43.88788" lon="7.31125">
        <ele>700.66687</ele>
        <time>2011-11-11T10:09:45Z</time>
      </trkpt>
      <trkpt lat="43.88792" lon="7.31124">
        <ele>698.421387</ele>
        <time>2011-11-11T10:09:50Z</time>
      </trkpt>
      <trkpt lat="43.88793" lon="7.31124">
        <ele>698.287903</ele>
        <time>2011-11-11T10:09:55Z</time>
      </trkpt>
      <trkpt lat="43.88793" lon="7.31123">
        <ele>698.204651</ele>
        <time>2011-11-11T10:10:00Z</time>
      </trkpt>
      <trkpt lat="43.88793" lon="7.3112">
        <ele>697.188599</ele>
        <time>2011-11-11T10:10:05Z</time>
      </trkpt>
      <trkpt lat="43.888" lon="7.31119">
        <ele>695.684814</ele>
        <time>2011-11-11T10:10:10Z</time>
      </trkpt>
      <trkpt lat="43.88807" lon="7.31113">
        <ele>692.298401</ele>
        <time>2011-11-11T10:10:15Z</time>
      </trkpt>
      <trkpt lat="43.88807" lon="7.31112">
        <ele>694.117249</ele>
        <time>2011-11-11T10:11:00Z</time>
      </trkpt>
      <trkpt lat="43.88806" lon="7.31111">
        <ele>694.279907</ele>
        <time>2011-11-11T10:11:05Z</time>
      </trkpt>
      <trkpt lat="43.88798" lon="7.3111">
        <ele>693.614746</ele>
        <time>2011-11-11T10:11:10Z</time>
      </trkpt>
      <trkpt lat="43.88781" lon="7.3111">
        <ele>692.29718</ele>
        <time>2011-11-11T10:11:15Z</time>
      </trkpt>
      <trkpt lat="43.88759" lon="7.3111">
        <ele>690.066467</ele>
        <time>2011-11-11T10:11:20Z</time>
      </trkpt>
      <trkpt lat="43.88745" lon="7.31098">
        <ele>688.647278</ele>
        <time>2011-11-11T10:11:25Z</time>
      </trkpt>
      <trkpt lat="43.88743" lon="7.31074">
        <ele>687.864197</ele>
        <time>2011-11-11T10:11:30Z</time>
      </trkpt>
      <trkpt lat="43.88737" lon="7.3106">
        <ele>685.543579</ele>
        <time>2011-11-11T10:11:35Z</time>
      </trkpt>
      <trkpt lat="43.88729" lon="7.31058">
        <ele>683.097839</ele>
        <time>2011-11-11T10:11:40Z</time>
      </trkpt>
      <trkpt lat="43.88732" lon="7.31049">
        <ele>681.135193</ele>
        <time>2011-11-11T10:11:45Z</time>
      </trkpt>
      <trkpt lat="43.88744" lon="7.31038">
        <ele>678.86554</ele>
        <time>2011-11-11T10:11:50Z</time>
      </trkpt>
      <trkpt lat="43.88753" lon="7.31036">
        <ele>675.545471</ele>
        <time>2011-11-11T10:11:55Z</time>
      </trkpt>
      <trkpt lat="43.88741" lon="7.31037">
        <ele>673.048767</ele>
        <time>2011-11-11T10:12:00Z</time>
      </trkpt>
      <trkpt lat="43.88722" lon="7.31039">
        <ele>669.528992</ele>
        <time>2011-11-11T10:12:05Z</time>
      </trkpt>
      <trkpt lat="43.88709" lon="7.31046">
        <ele>666.919739</ele>
        <time>2011-11-11T10:12:10Z</time>
      </trkpt>
      <trkpt lat="43.88704" lon="7.31048">
        <ele>665.727539</ele>
        <time>2011-11-11T10:12:15Z</time>
      </trkpt>
      <trkpt lat="43.88714" lon="7.31036">
        <ele>663.51355</ele>
        <time>2011-11-11T10:12:20Z</time>
      </trkpt>
      <trkpt lat="43.88732" lon="7.31027">
        <ele>661.209412</ele>
        <time>2011-11-11T10:12:25Z</time>
      </trkpt>
      <trkpt lat="43.88742" lon="7.31013">
        <ele>659.084961</ele>
        <time>2011-11-11T10:12:30Z</time>
      </trkpt>
      <trkpt lat="43.88756" lon="7.30998">
        <ele>656.205505</ele>
        <time>2011-11-11T10:12:35Z</time>
      </trkpt>
      <trkpt lat="43.88764" lon="7.3101">
        <ele>654.187988</ele>
        <time>2011-11-11T10:12:40Z</time>
      </trkpt>
      <trkpt lat="43.8876" lon="7.30995">
        <ele>652.487549</ele>
        <time>2011-11-11T10:12:45Z</time>
      </trkpt>
      <trkpt lat="43.88754" lon="7.30989">
        <ele>651.086182</ele>
        <time>2011-11-11T10:12:50Z</time>
      </trkpt>
      <trkpt lat="43.88767" lon="7.30995">
        <ele>648.296753</ele>
        <time>2011-11-11T10:12:55Z</time>
      </trkpt>
      <trkpt lat="43.88785" lon="7.31018">
        <ele>644.100037</ele>
        <time>2011-11-11T10:13:00Z</time>
      </trkpt>
      <trkpt lat="43.888" lon="7.31006">
        <ele>641.751343</ele>
        <time>2011-11-11T10:13:05Z</time>
      </trkpt>
      <trkpt lat="43.88811" lon="7.30991">
        <ele>640.198242</ele>
        <time>2011-11-11T10:13:10Z</time>
      </trkpt>
      <trkpt lat="43.88824" lon="7.30975">
        <ele>639.143372</ele>
        <time>2011-11-11T10:13:15Z</time>
      </trkpt>
      <trkpt lat="43.8884" lon="7.30958">
        <ele>637.22644</ele>
        <time>2011-11-11T10:13:20Z</time>
      </trkpt>
      <trkpt lat="43.88926" lon="7.30907">
        <ele>630.149475</ele>
        <time>2011-11-11T10:14:20Z</time>
      </trkpt>
      <trkpt lat="43.88957" lon="7.30831">
        <ele>626.663025</ele>
        <time>2011-11-11T10:28:30Z</time>
      </trkpt>
      <trkpt lat="43.88957" lon="7.30831">
        <ele>626.655701</ele>
        <time>2011-11-11T10:28:35Z</time>
      </trkpt>
      <trkpt lat="43.88956" lon="7.30815">
        <ele>626.965698</ele>
        <time>2011-11-11T10:28:40Z</time>
      </trkpt>
      <trkpt lat="43.88952" lon="7.30797">
        <ele>627.539795</ele>
        <time>2011-11-11T10:28:45Z</time>
      </trkpt>
      <trkpt lat="43.88944" lon="7.30782">
        <ele>628.309814</ele>
        <time>2011-11-11T10:28:50Z</time>
      </trkpt>
      <trkpt lat="43.88935" lon="7.30771">
        <ele>629.350647</ele>
        <time>2011-11-11T10:28:55Z</time>
      </trkpt>
      <trkpt lat="43.88925" lon="7.30762">
        <ele>630.210815</ele>
        <time>2011-11-11T10:29:00Z</time>
      </trkpt>
      <trkpt lat="43.88913" lon="7.30756">
        <ele>630.890991</ele>
        <time>2011-11-11T10:29:05Z</time>
      </trkpt>
      <trkpt lat="43.889" lon="7.30754">
        <ele>631.8573</ele>
        <time>2011-11-11T10:29:10Z</time>
      </trkpt>
      <trkpt lat="43.88888" lon="7.30755">
        <ele>632.810242</ele>
        <time>2011-11-11T10:29:15Z</time>
      </trkpt>
      <trkpt lat="43.88875" lon="7.30759">
        <ele>633.648682</ele>
        <time>2011-11-11T10:29:20Z</time>
      </trkpt>
      <trkpt lat="43.88864" lon="7.30766">
        <ele>634.661743</ele>
        <time>2011-11-11T10:29:25Z</time>
      </trkpt>
      <trkpt lat="43.88851" lon="7.3077">
        <ele>636.074463</ele>
        <time>2011-11-11T10:29:30Z</time>
      </trkpt>
      <trkpt lat="43.88838" lon="7.30764">
        <ele>636.223206</ele>
        <time>2011-11-11T10:29:35Z</time>
      </trkpt>
      <trkpt lat="43.88831" lon="7.30748">
        <ele>636.11499</ele>
        <time>2011-11-11T10:29:40Z</time>
      </trkpt>
      <trkpt lat="43.8883" lon="7.3073">
        <ele>636.261353</ele>
        <time>2011-11-11T10:29:45Z</time>
      </trkpt>
      <trkpt lat="43.88833" lon="7.30715">
        <ele>637.16925</ele>
        <time>2011-11-11T10:29:50Z</time>
      </trkpt>
      <trkpt lat="43.88836" lon="7.307">
        <ele>638.239563</ele>
        <time>2011-11-11T10:29:55Z</time>
      </trkpt>
      <trkpt lat="43.8884" lon="7.30686">
        <ele>639.072021</ele>
        <time>2011-11-11T10:30:00Z</time>
      </trkpt>
      <trkpt lat="43.88843" lon="7.30673">
        <ele>639.888245</ele>
        <time>2011-11-11T10:30:05Z</time>
      </trkpt>
      <trkpt lat="43.88847" lon="7.30658">
        <ele>640.916199</ele>
        <time>2011-11-11T10:30:10Z</time>
      </trkpt>
      <trkpt lat="43.8885" lon="7.30645">
        <ele>642.010193</ele>
        <time>2011-11-11T10:30:15Z</time>
      </trkpt>
      <trkpt lat="43.88852" lon="7.30631">
        <ele>642.964539</ele>
        <time>2011-11-11T10:30:20Z</time>
      </trkpt>
      <trkpt lat="43.88853" lon="7.30616">
        <ele>644.100769</ele>
        <time>2011-11-11T10:30:25Z</time>
      </trkpt>
      <trkpt lat="43.8885" lon="7.306">
        <ele>644.875916</ele>
        <time>2011-11-11T10:30:30Z</time>
      </trkpt>
      <trkpt lat="43.88844" lon="7.30586">
        <ele>645.254822</ele>
        <time>2011-11-11T10:30:35Z</time>
      </trkpt>
      <trkpt lat="43.88836" lon="7.30575">
        <ele>645.080872</ele>
        <time>2011-11-11T10:30:40Z</time>
      </trkpt>
      <trkpt lat="43.88829" lon="7.30565">
        <ele>644.937073</ele>
        <time>2011-11-11T10:30:45Z</time>
      </trkpt>
      <trkpt lat="43.88822" lon="7.30556">
        <ele>645.055542</ele>
        <time>2011-11-11T10:30:50Z</time>
      </trkpt>
      <trkpt lat="43.88815" lon="7.30547">
        <ele>645.524719</ele>
        <time>2011-11-11T10:30:55Z</time>
      </trkpt>
      <trkpt lat="43.88809" lon="7.30537">
        <ele>645.918518</ele>
        <time>2011-11-11T10:31:00Z</time>
      </trkpt>
      <trkpt lat="43.88801" lon="7.30528">
        <ele>646.35022</ele>
        <time>2011-11-11T10:31:05Z</time>
      </trkpt>
      <trkpt lat="43.88795" lon="7.30519">
        <ele>646.796082</ele>
        <time>2011-11-11T10:31:10Z</time>
      </trkpt>
      <trkpt lat="43.88789" lon="7.30509">
        <ele>647.22699</ele>
        <time>2011-11-11T10:31:15Z</time>
      </trkpt>
      <trkpt lat="43.88785" lon="7.30497">
        <ele>647.566467</ele>
        <time>2011-11-11T10:31:20Z</time>
      </trkpt>
      <trkpt lat="43.88783" lon="7.30483">
        <ele>647.763916</ele>
        <time>2011-11-11T10:31:25Z</time>
      </trkpt>
      <trkpt lat="43.88782" lon="7.30468">
        <ele>648.013733</ele>
        <time>2011-11-11T10:31:30Z</time>
      </trkpt>
      <trkpt lat="43.8878" lon="7.30455">
        <ele>648.424133</ele>
        <time>2011-11-11T10:31:35Z</time>
      </trkpt>
      <trkpt lat="43.88778" lon="7.30442">
        <ele>649.153442</ele>
        <time>2011-11-11T10:31:40Z</time>
      </trkpt>
      <trkpt lat="43.88773" lon="7.30428">
        <ele>649.246948</ele>
        <time>2011-11-11T10:31:45Z</time>
      </trkpt>
      <trkpt lat="43.88766" lon="7.30416">
        <ele>649.18335</ele>
        <time>2011-11-11T10:31:50Z</time>
      </trkpt>
      <trkpt lat="43.88758" lon="7.30404">
        <ele>649.320801</ele>
        <time>2011-11-11T10:31:55Z</time>
      </trkpt>
      <trkpt lat="43.88751" lon="7.30393">
        <ele>649.507813</ele>
        <time>2011-11-11T10:32:00Z</time>
      </trkpt>
      <trkpt lat="43.88748" lon="7.3038">
        <ele>649.682373</ele>
        <time>2011-11-11T10:32:05Z</time>
      </trkpt>
      <trkpt lat="43.88747" lon="7.30365">
        <ele>649.686279</ele>
        <time>2011-11-11T10:32:10Z</time>
      </trkpt>
      <trkpt lat="43.8875" lon="7.30352">
        <ele>649.840881</ele>
        <time>2011-11-11T10:32:15Z</time>
      </trkpt>
      <trkpt lat="43.88754" lon="7.3034">
        <ele>649.901733</ele>
        <time>2011-11-11T10:32:20Z</time>
      </trkpt>
      <trkpt lat="43.8876" lon="7.30329">
        <ele>650.475098</ele>
        <time>2011-11-11T10:32:25Z</time>
      </trkpt>
      <trkpt lat="43.88761" lon="7.30336">
        <ele>651.522705</ele>
        <time>2011-11-11T10:32:30Z</time>
      </trkpt>
      <trkpt lat="43.88758" lon="7.30346">
        <ele>652.905273</ele>
        <time>2011-11-11T10:32:35Z</time>
      </trkpt>
      <trkpt lat="43.88755" lon="7.30357">
        <ele>654.165405</ele>
        <time>2011-11-11T10:32:40Z</time>
      </trkpt>
      <trkpt lat="43.88753" lon="7.30369">
        <ele>655.430603</ele>
        <time>2011-11-11T10:32:45Z</time>
      </trkpt>
      <trkpt lat="43.88755" lon="7.3038">
        <ele>656.91272</ele>
        <time>2011-11-11T10:32:50Z</time>
      </trkpt>
      <trkpt lat="43.88761" lon="7.30387">
        <ele>658.370056</ele>
        <time>2011-11-11T10:32:55Z</time>
      </trkpt>
      <trkpt lat="43.88767" lon="7.30391">
        <ele>659.644409</ele>
        <time>2011-11-11T10:33:00Z</time>
      </trkpt>
      <trkpt lat="43.88774" lon="7.30396">
        <ele>661.093201</ele>
        <time>2011-11-11T10:33:05Z</time>
      </trkpt>
      <trkpt lat="43.8878" lon="7.30402">
        <ele>662.297058</ele>
        <time>2011-11-11T10:33:10Z</time>
      </trkpt>
      <trkpt lat="43.88786" lon="7.30407">
        <ele>663.50354</ele>
        <time>2011-11-11T10:33:15Z</time>
      </trkpt>
      <trkpt lat="43.88791" lon="7.30414">
        <ele>664.276001</ele>
        <time>2011-11-11T10:33:20Z</time>
      </trkpt>
      <trkpt lat="43.88795" lon="7.30422">
        <ele>665.286316</ele>
        <time>2011-11-11T10:33:25Z</time>
      </trkpt>
      <trkpt lat="43.88799" lon="7.30429">
        <ele>666.094482</ele>
        <time>2011-11-11T10:33:30Z</time>
      </trkpt>
      <trkpt lat="43.88802" lon="7.30438">
        <ele>666.868713</ele>
        <time>2011-11-11T10:33:35Z</time>
      </trkpt>
      <trkpt lat="43.88804" lon="7.30448">
        <ele>667.921631</ele>
        <time>2011-11-11T10:33:40Z</time>
      </trkpt>
      <trkpt lat="43.88806" lon="7.30457">
        <ele>669.038086</ele>
        <time>2011-11-11T10:33:45Z</time>
      </trkpt>
      <trkpt lat="43.88809" lon="7.30466">
        <ele>669.980835</ele>
        <time>2011-11-11T10:33:50Z</time>
      </trkpt>
      <trkpt lat="43.88813" lon="7.30475">
        <ele>670.671936</ele>
        <time>2011-11-11T10:33:55Z</time>
      </trkpt>
      <trkpt lat="43.88818" lon="7.30483">
        <ele>671.829102</ele>
        <time>2011-11-11T10:34:00Z</time>
      </trkpt>
      <trkpt lat="43.88824" lon="7.30487">
        <ele>672.641785</ele>
        <time>2011-11-11T10:34:05Z</time>
      </trkpt>
      <trkpt lat="43.88831" lon="7.30491">
        <ele>673.547729</ele>
        <time>2011-11-11T10:34:10Z</time>
      </trkpt>
      <trkpt lat="43.88838" lon="7.30494">
        <ele>674.730957</ele>
        <time>2011-11-11T10:34:15Z</time>
      </trkpt>
      <trkpt lat="43.88844" lon="7.30498">
        <ele>675.810608</ele>
        <time>2011-11-11T10:34:20Z</time>
      </trkpt>
      <trkpt lat="43.88851" lon="7.30501">
        <ele>676.772644</ele>
        <time>2011-11-11T10:34:25Z</time>
      </trkpt>
      <trkpt lat="43.88858" lon="7.30504">
        <ele>678.027893</ele>
        <time>2011-11-11T10:34:30Z</time>
      </trkpt>
      <trkpt lat="43.88865" lon="7.30509">
        <ele>679.485596</ele>
        <time>2011-11-11T10:34:35Z</time>
      </trkpt>
      <trkpt lat="43.8887" lon="7.30516">
        <ele>680.712585</ele>
        <time>2011-11-11T10:34:40Z</time>
      </trkpt>
      <trkpt lat="43.88874" lon="7.30524">
        <ele>681.707092</ele>
        <time>2011-11-11T10:34:45Z</time>
      </trkpt>
      <trkpt lat="43.88878" lon="7.30531">
        <ele>683.089539</ele>
        <time>2011-11-11T10:34:50Z</time>
      </trkpt>
      <trkpt lat="43.88883" lon="7.30538">
        <ele>684.3573</ele>
        <time>2011-11-11T10:34:55Z</time>
      </trkpt>
      <trkpt lat="43.88889" lon="7.30545">
        <ele>685.139465</ele>
        <time>2011-11-11T10:35:00Z</time>
      </trkpt>
      <trkpt lat="43.88895" lon="7.3055">
        <ele>685.847595</ele>
        <time>2011-11-11T10:35:05Z</time>
      </trkpt>
      <trkpt lat="43.88903" lon="7.3055">
        <ele>686.174683</ele>
        <time>2011-11-11T10:35:10Z</time>
      </trkpt>
      <trkpt lat="43.8891" lon="7.30548">
        <ele>686.5849</ele>
        <time>2011-11-11T10:35:15Z</time>
      </trkpt>
      <trkpt lat="43.88919" lon="7.30548">
        <ele>687.247864</ele>
        <time>2011-11-11T10:35:20Z</time>
      </trkpt>
      <trkpt lat="43.88927" lon="7.30551">
        <ele>687.572571</ele>
        <time>2011-11-11T10:35:25Z</time>
      </trkpt>
      <trkpt lat="43.88935" lon="7.30554">
        <ele>688.149963</ele>
        <time>2011-11-11T10:35:30Z</time>
      </trkpt>
      <trkpt lat="43.88943" lon="7.30558">
        <ele>688.73175</ele>
        <time>2011-11-11T10:35:35Z</time>
      </trkpt>
      <trkpt lat="43.8895" lon="7.30565">
        <ele>689.601929</ele>
        <time>2011-11-11T10:35:40Z</time>
      </trkpt>
      <trkpt lat="43.88957" lon="7.30571">
        <ele>690.481934</ele>
        <time>2011-11-11T10:35:45Z</time>
      </trkpt>
      <trkpt lat="43.8896" lon="7.30564">
        <ele>691.089539</ele>
        <time>2011-11-11T10:35:50Z</time>
      </trkpt>
      <trkpt lat="43.88957" lon="7.30554">
        <ele>691.781494</ele>
        <time>2011-11-11T10:35:55Z</time>
      </trkpt>
      <trkpt lat="43.88952" lon="7.30546">
        <ele>692.472839</ele>
        <time>2011-11-11T10:36:00Z</time>
      </trkpt>
      <trkpt lat="43.88945" lon="7.3054">
        <ele>693.589722</ele>
        <time>2011-11-11T10:36:05Z</time>
      </trkpt>
      <trkpt lat="43.88938" lon="7.30534">
        <ele>694.428711</ele>
        <time>2011-11-11T10:36:10Z</time>
      </trkpt>
      <trkpt lat="43.88931" lon="7.3053">
        <ele>695.700012</ele>
        <time>2011-11-11T10:36:15Z</time>
      </trkpt>
      <trkpt lat="43.88925" lon="7.30529">
        <ele>696.53717</ele>
        <time>2011-11-11T10:36:20Z</time>
      </trkpt>
      <trkpt lat="43.88915" lon="7.30527">
        <ele>697.594421</ele>
        <time>2011-11-11T10:36:25Z</time>
      </trkpt>
      <trkpt lat="43.88909" lon="7.30521">
        <ele>698.456909</ele>
        <time>2011-11-11T10:36:30Z</time>
      </trkpt>
      <trkpt lat="43.88902" lon="7.30513">
        <ele>698.9104</ele>
        <time>2011-11-11T10:36:35Z</time>
      </trkpt>
      <trkpt lat="43.88896" lon="7.30503">
        <ele>699.288696</ele>
        <time>2011-11-11T10:36:40Z</time>
      </trkpt>
      <trkpt lat="43.88891" lon="7.30494">
        <ele>699.504639</ele>
        <time>2011-11-11T10:36:45Z</time>
      </trkpt>
      <trkpt lat="43.88886" lon="7.30484">
        <ele>699.700439</ele>
        <time>2011-11-11T10:36:50Z</time>
      </trkpt>
      <trkpt lat="43.88881" lon="7.30475">
        <ele>700.082275</ele>
        <time>2011-11-11T10:36:55Z</time>
      </trkpt>
      <trkpt lat="43.88875" lon="7.30466">
        <ele>700.918823</ele>
        <time>2011-11-11T10:37:00Z</time>
      </trkpt>
      <trkpt lat="43.8887" lon="7.30456">
        <ele>701.888</ele>
        <time>2011-11-11T10:37:05Z</time>
      </trkpt>
      <trkpt lat="43.88865" lon="7.30448">
        <ele>703.335144</ele>
        <time>2011-11-11T10:37:10Z</time>
      </trkpt>
      <trkpt lat="43.8886" lon="7.30439">
        <ele>704.862488</ele>
        <time>2011-11-11T10:37:15Z</time>
      </trkpt>
      <trkpt lat="43.88856" lon="7.3043">
        <ele>706.157288</ele>
        <time>2011-11-11T10:37:20Z</time>
      </trkpt>
      <trkpt lat="43.88851" lon="7.30419">
        <ele>706.893738</ele>
        <time>2011-11-11T10:37:25Z</time>
      </trkpt>
      <trkpt lat="43.88848" lon="7.30408">
        <ele>707.59552</ele>
        <time>2011-11-11T10:37:30Z</time>
      </trkpt>
      <trkpt lat="43.88845" lon="7.30397">
        <ele>708.027893</ele>
        <time>2011-11-11T10:37:35Z</time>
      </trkpt>
      <trkpt lat="43.88842" lon="7.30386">
        <ele>708.538513</ele>
        <time>2011-11-11T10:37:40Z</time>
      </trkpt>
      <trkpt lat="43.8884" lon="7.30374">
        <ele>709.014954</ele>
        <time>2011-11-11T10:37:45Z</time>
      </trkpt>
      <trkpt lat="43.88838" lon="7.30361">
        <ele>709.813171</ele>
        <time>2011-11-11T10:37:50Z</time>
      </trkpt>
      <trkpt lat="43.88841" lon="7.30349">
        <ele>710.72052</ele>
        <time>2011-11-11T10:37:55Z</time>
      </trkpt>
      <trkpt lat="43.88844" lon="7.30339">
        <ele>711.870605</ele>
        <time>2011-11-11T10:38:00Z</time>
      </trkpt>
      <trkpt lat="43.88847" lon="7.3033">
        <ele>712.99585</ele>
        <time>2011-11-11T10:38:05Z</time>
      </trkpt>
      <trkpt lat="43.88849" lon="7.3032">
        <ele>714.166199</ele>
        <time>2011-11-11T10:38:10Z</time>
      </trkpt>
      <trkpt lat="43.88852" lon="7.30311">
        <ele>715.086548</ele>
        <time>2011-11-11T10:38:15Z</time>
      </trkpt>
      <trkpt lat="43.88855" lon="7.30302">
        <ele>716.104309</ele>
        <time>2011-11-11T10:38:20Z</time>
      </trkpt>
      <trkpt lat="43.88858" lon="7.30294">
        <ele>717.065247</ele>
        <time>2011-11-11T10:38:25Z</time>
      </trkpt>
      <trkpt lat="43.8886" lon="7.30284">
        <ele>718.225708</ele>
        <time>2011-11-11T10:38:30Z</time>
      </trkpt>
      <trkpt lat="43.88864" lon="7.30275">
        <ele>719.192505</ele>
        <time>2011-11-11T10:38:35Z</time>
      </trkpt>
      <trkpt lat="43.88867" lon="7.30266">
        <ele>720.275574</ele>
        <time>2011-11-11T10:38:40Z</time>
      </trkpt>
      <trkpt lat="43.8887" lon="7.30257">
        <ele>721.259399</ele>
        <time>2011-11-11T10:38:45Z</time>
      </trkpt>
      <trkpt lat="43.88875" lon="7.30249">
        <ele>722.586487</ele>
        <time>2011-11-11T10:38:50Z</time>
      </trkpt>
      <trkpt lat="43.8888" lon="7.30254">
        <ele>723.563416</ele>
        <time>2011-11-11T10:38:55Z</time>
      </trkpt>
      <trkpt lat="43.88878" lon="7.30265">
        <ele>725.096436</ele>
        <time>2011-11-11T10:39:00Z</time>
      </trkpt>
      <trkpt lat="43.88875" lon="7.30275">
        <ele>726.452942</ele>
        <time>2011-11-11T10:39:05Z</time>
      </trkpt>
      <trkpt lat="43.88874" lon="7.30285">
        <ele>727.708862</ele>
        <time>2011-11-11T10:39:10Z</time>
      </trkpt>
      <trkpt lat="43.88874" lon="7.30295">
        <ele>728.792664</ele>
        <time>2011-11-11T10:39:15Z</time>
      </trkpt>
      <trkpt lat="43.88873" lon="7.30305">
        <ele>729.770813</ele>
        <time>2011-11-11T10:39:20Z</time>
      </trkpt>
      <trkpt lat="43.88874" lon="7.30314">
        <ele>730.533508</ele>
        <time>2011-11-11T10:39:25Z</time>
      </trkpt>
      <trkpt lat="43.88875" lon="7.30323">
        <ele>731.779114</ele>
        <time>2011-11-11T10:39:30Z</time>
      </trkpt>
      <trkpt lat="43.88876" lon="7.30333">
        <ele>732.794556</ele>
        <time>2011-11-11T10:39:35Z</time>
      </trkpt>
      <trkpt lat="43.88877" lon="7.30341">
        <ele>733.84259</ele>
        <time>2011-11-11T10:39:40Z</time>
      </trkpt>
      <trkpt lat="43.88879" lon="7.30351">
        <ele>735.215698</ele>
        <time>2011-11-11T10:39:45Z</time>
      </trkpt>
      <trkpt lat="43.88882" lon="7.30359">
        <ele>736.530884</ele>
        <time>2011-11-11T10:39:50Z</time>
      </trkpt>
      <trkpt lat="43.88887" lon="7.30366">
        <ele>737.467407</ele>
        <time>2011-11-11T10:39:55Z</time>
      </trkpt>
      <trkpt lat="43.88893" lon="7.3037">
        <ele>738.034546</ele>
        <time>2011-11-11T10:40:00Z</time>
      </trkpt>
      <trkpt lat="43.88901" lon="7.30371">
        <ele>738.379944</ele>
        <time>2011-11-11T10:40:05Z</time>
      </trkpt>
      <trkpt lat="43.88909" lon="7.30371">
        <ele>738.769531</ele>
        <time>2011-11-11T10:40:10Z</time>
      </trkpt>
      <trkpt lat="43.88918" lon="7.30372">
        <ele>739.195923</ele>
        <time>2011-11-11T10:40:15Z</time>
      </trkpt>
      <trkpt lat="43.88926" lon="7.30373">
        <ele>739.778748</ele>
        <time>2011-11-11T10:40:20Z</time>
      </trkpt>
      <trkpt lat="43.88934" lon="7.30375">
        <ele>740.076782</ele>
        <time>2011-11-11T10:40:25Z</time>
      </trkpt>
      <trkpt lat="43.88942" lon="7.30378">
        <ele>740.676758</ele>
        <time>2011-11-11T10:40:30Z</time>
      </trkpt>
      <trkpt lat="43.88949" lon="7.3038">
        <ele>741.155029</ele>
        <time>2011-11-11T10:40:35Z</time>
      </trkpt>
      <trkpt lat="43.88957" lon="7.30382">
        <ele>741.855774</ele>
        <time>2011-11-11T10:40:40Z</time>
      </trkpt>
      <trkpt lat="43.88965" lon="7.30384">
        <ele>742.545105</ele>
        <time>2011-11-11T10:40:45Z</time>
      </trkpt>
      <trkpt lat="43.88972" lon="7.30385">
        <ele>743.619202</ele>
        <time>2011-11-11T10:40:50Z</time>
      </trkpt>
      <trkpt lat="43.8898" lon="7.30386">
        <ele>744.568848</ele>
        <time>2011-11-11T10:40:55Z</time>
      </trkpt>
      <trkpt lat="43.88987" lon="7.30388">
        <ele>744.948608</ele>
        <time>2011-11-11T10:41:00Z</time>
      </trkpt>
      <trkpt lat="43.88995" lon="7.30391">
        <ele>746.12915</ele>
        <time>2011-11-11T10:41:05Z</time>
      </trkpt>
      <trkpt lat="43.89002" lon="7.30396">
        <ele>747.30249</ele>
        <time>2011-11-11T10:41:10Z</time>
      </trkpt>
      <trkpt lat="43.89008" lon="7.30401">
        <ele>748.26178</ele>
        <time>2011-11-11T10:41:15Z</time>
      </trkpt>
      <trkpt lat="43.89014" lon="7.30399">
        <ele>748.758667</ele>
        <time>2011-11-11T10:41:20Z</time>
      </trkpt>
      <trkpt lat="43.89014" lon="7.30392">
        <ele>749.865723</ele>
        <time>2011-11-11T10:41:25Z</time>
      </trkpt>
      <trkpt lat="43.89009" lon="7.30385">
        <ele>751.348083</ele>
        <time>2011-11-11T10:41:30Z</time>
      </trkpt>
      <trkpt lat="43.89003" lon="7.30379">
        <ele>752.05188</ele>
        <time>2011-11-11T10:41:35Z</time>
      </trkpt>
      <trkpt lat="43.88999" lon="7.30372">
        <ele>753.035889</ele>
        <time>2011-11-11T10:41:40Z</time>
      </trkpt>
      <trkpt lat="43.88995" lon="7.30365">
        <ele>754.352173</ele>
        <time>2011-11-11T10:41:45Z</time>
      </trkpt>
      <trkpt lat="43.8899" lon="7.30358">
        <ele>755.690552</ele>
        <time>2011-11-11T10:41:50Z</time>
      </trkpt>
      <trkpt lat="43.88986" lon="7.30352">
        <ele>756.906067</ele>
        <time>2011-11-11T10:41:55Z</time>
      </trkpt>
      <trkpt lat="43.88981" lon="7.30346">
        <ele>758.227905</ele>
        <time>2011-11-11T10:42:00Z</time>
      </trkpt>
      <trkpt lat="43.88976" lon="7.30342">
        <ele>759.291077</ele>
        <time>2011-11-11T10:42:05Z</time>
      </trkpt>
      <trkpt lat="43.88971" lon="7.30337">
        <ele>759.863159</ele>
        <time>2011-11-11T10:42:10Z</time>
      </trkpt>
      <trkpt lat="43.88966" lon="7.30332">
        <ele>760.866638</ele>
        <time>2011-11-11T10:42:15Z</time>
      </trkpt>
      <trkpt lat="43.88961" lon="7.30326">
        <ele>761.553223</ele>
        <time>2011-11-11T10:42:20Z</time>
      </trkpt>
      <trkpt lat="43.88955" lon="7.30321">
        <ele>762.893555</ele>
        <time>2011-11-11T10:42:25Z</time>
      </trkpt>
      <trkpt lat="43.8895" lon="7.30317">
        <ele>763.249451</ele>
        <time>2011-11-11T10:42:30Z</time>
      </trkpt>
      <trkpt lat="43.88953" lon="7.30318">
        <ele>763.881042</ele>
        <time>2011-11-11T10:46:10Z</time>
      </trkpt>
      <trkpt lat="43.8895" lon="7.30314">
        <ele>764.809265</ele>
        <time>2011-11-11T10:46:15Z</time>
      </trkpt>
      <trkpt lat="43.88942" lon="7.30309">
        <ele>774.338196</ele>
        <time>2011-11-11T10:47:50Z</time>
      </trkpt>
      <trkpt lat="43.88942" lon="7.30306">
        <ele>774.80072</ele>
        <time>2011-11-11T10:47:55Z</time>
      </trkpt>
      <trkpt lat="43.88941" lon="7.30298">
        <ele>776.283936</ele>
        <time>2011-11-11T10:48:00Z</time>
      </trkpt>
      <trkpt lat="43.8894" lon="7.30289">
        <ele>777.508362</ele>
        <time>2011-11-11T10:48:05Z</time>
      </trkpt>
      <trkpt lat="43.88942" lon="7.30283">
        <ele>778.274048</ele>
        <time>2011-11-11T10:48:10Z</time>
      </trkpt>
      <trkpt lat="43.88947" lon="7.30277">
        <ele>779.171204</ele>
        <time>2011-11-11T10:48:15Z</time>
      </trkpt>
      <trkpt lat="43.8895" lon="7.30269">
        <ele>780.675293</ele>
        <time>2011-11-11T10:48:20Z</time>
      </trkpt>
      <trkpt lat="43.88952" lon="7.30266">
        <ele>781.716248</ele>
        <time>2011-11-11T10:49:20Z</time>
      </trkpt>
      <trkpt lat="43.88952" lon="7.30264">
        <ele>781.836304</ele>
        <time>2011-11-11T10:49:25Z</time>
      </trkpt>
      <trkpt lat="43.88957" lon="7.30256">
        <ele>783.339539</ele>
        <time>2011-11-11T10:49:30Z</time>
      </trkpt>
      <trkpt lat="43.88962" lon="7.30249">
        <ele>784.795532</ele>
        <time>2011-11-11T10:49:35Z</time>
      </trkpt>
      <trkpt lat="43.88969" lon="7.30242">
        <ele>786.172485</ele>
        <time>2011-11-11T10:49:40Z</time>
      </trkpt>
      <trkpt lat="43.88972" lon="7.30234">
        <ele>787.131836</ele>
        <time>2011-11-11T10:49:45Z</time>
      </trkpt>
      <trkpt lat="43.88974" lon="7.3023">
        <ele>787.206116</ele>
        <time>2011-11-11T10:50:15Z</time>
      </trkpt>
      <trkpt lat="43.88978" lon="7.30226">
        <ele>788.076111</ele>
        <time>2011-11-11T10:50:20Z</time>
      </trkpt>
      <trkpt lat="43.88983" lon="7.30222">
        <ele>789.284607</ele>
        <time>2011-11-11T10:50:25Z</time>
      </trkpt>
      <trkpt lat="43.88988" lon="7.30216">
        <ele>790.397583</ele>
        <time>2011-11-11T10:50:30Z</time>
      </trkpt>
      <trkpt lat="43.88994" lon="7.30211">
        <ele>791.595642</ele>
        <time>2011-11-11T10:50:35Z</time>
      </trkpt>
      <trkpt lat="43.89" lon="7.30209">
        <ele>792.564148</ele>
        <time>2011-11-11T10:50:40Z</time>
      </trkpt>
      <trkpt lat="43.89005" lon="7.30203">
        <ele>793.713989</ele>
        <time>2011-11-11T10:50:45Z</time>
      </trkpt>
      <trkpt lat="43.89002" lon="7.30194">
        <ele>795.484192</ele>
        <time>2011-11-11T10:50:50Z</time>
      </trkpt>
      <trkpt lat="43.88999" lon="7.30186">
        <ele>796.831726</ele>
        <time>2011-11-11T10:50:55Z</time>
      </trkpt>
      <trkpt lat="43.88996" lon="7.30177">
        <ele>798.226807</ele>
        <time>2011-11-11T10:51:00Z</time>
      </trkpt>
      <trkpt lat="43.88994" lon="7.30168">
        <ele>799.348022</ele>
        <time>2011-11-11T10:51:05Z</time>
      </trkpt>
      <trkpt lat="43.88992" lon="7.30158">
        <ele>800.047546</ele>
        <time>2011-11-11T10:51:10Z</time>
      </trkpt>
      <trkpt lat="43.88991" lon="7.30148">
        <ele>800.739014</ele>
        <time>2011-11-11T10:51:15Z</time>
      </trkpt>
      <trkpt lat="43.8899" lon="7.30137">
        <ele>801.319702</ele>
        <time>2011-11-11T10:51:20Z</time>
      </trkpt>
      <trkpt lat="43.88989" lon="7.30127">
        <ele>801.46344</ele>
        <time>2011-11-11T10:51:25Z</time>
      </trkpt>
      <trkpt lat="43.88988" lon="7.30116">
        <ele>801.606628</ele>
        <time>2011-11-11T10:51:30Z</time>
      </trkpt>
      <trkpt lat="43.8899" lon="7.30103">
        <ele>802.009277</ele>
        <time>2011-11-11T10:51:35Z</time>
      </trkpt>
      <trkpt lat="43.88992" lon="7.3009">
        <ele>802.669556</ele>
        <time>2011-11-11T10:51:40Z</time>
      </trkpt>
      <trkpt lat="43.88996" lon="7.30078">
        <ele>802.543152</ele>
        <time>2011-11-11T10:51:45Z</time>
      </trkpt>
      <trkpt lat="43.88996" lon="7.30079">
        <ele>802.009827</ele>
        <time>2011-11-11T10:52:10Z</time>
      </trkpt>
      <trkpt lat="43.88996" lon="7.30076">
        <ele>801.883423</ele>
        <time>2011-11-11T10:52:15Z</time>
      </trkpt>
      <trkpt lat="43.88997" lon="7.30056">
        <ele>801.473145</ele>
        <time>2011-11-11T10:52:20Z</time>
      </trkpt>
      <trkpt lat="43.88999" lon="7.30033">
        <ele>801.128601</ele>
        <time>2011-11-11T10:52:25Z</time>
      </trkpt>
      <trkpt lat="43.89004" lon="7.30015">
        <ele>801.259583</ele>
        <time>2011-11-11T10:52:30Z</time>
      </trkpt>
      <trkpt lat="43.8901" lon="7.3">
        <ele>801.429321</ele>
        <time>2011-11-11T10:52:35Z</time>
      </trkpt>
      <trkpt lat="43.89013" lon="7.29983">
        <ele>801.71637</ele>
        <time>2011-11-11T10:52:40Z</time>
      </trkpt>
      <trkpt lat="43.89017" lon="7.29966">
        <ele>802.108704</ele>
        <time>2011-11-11T10:52:45Z</time>
      </trkpt>
      <trkpt lat="43.89023" lon="7.29948">
        <ele>802.668457</ele>
        <time>2011-11-11T10:52:50Z</time>
      </trkpt>
      <trkpt lat="43.89029" lon="7.29929">
        <ele>803.233704</ele>
        <time>2011-11-11T10:52:55Z</time>
      </trkpt>
      <trkpt lat="43.89035" lon="7.2991">
        <ele>803.439453</ele>
        <time>2011-11-11T10:53:00Z</time>
      </trkpt>
      <trkpt lat="43.89039" lon="7.29892">
        <ele>803.995667</ele>
        <time>2011-11-11T10:53:05Z</time>
      </trkpt>
      <trkpt lat="43.89041" lon="7.29874">
        <ele>804.488831</ele>
        <time>2011-11-11T10:53:10Z</time>
      </trkpt>
      <trkpt lat="43.89044" lon="7.29858">
        <ele>805.053528</ele>
        <time>2011-11-11T10:53:15Z</time>
      </trkpt>
      <trkpt lat="43.89049" lon="7.29844">
        <ele>805.72345</ele>
        <time>2011-11-11T10:53:20Z</time>
      </trkpt>
      <trkpt lat="43.89056" lon="7.29833">
        <ele>806.407776</ele>
        <time>2011-11-11T10:53:25Z</time>
      </trkpt>
      <trkpt lat="43.89065" lon="7.29824">
        <ele>807.282959</ele>
        <time>2011-11-11T10:53:30Z</time>
      </trkpt>
      <trkpt lat="43.89072" lon="7.29813">
        <ele>808.341553</ele>
        <time>2011-11-11T10:53:35Z</time>
      </trkpt>
      <trkpt lat="43.89081" lon="7.29808">
        <ele>808.975525</ele>
        <time>2011-11-11T10:53:40Z</time>
      </trkpt>
      <trkpt lat="43.89087" lon="7.29806">
        <ele>809.83197</ele>
        <time>2011-11-11T10:53:45Z</time>
      </trkpt>
      <trkpt lat="43.89087" lon="7.29796">
        <ele>810.601257</ele>
        <time>2011-11-11T10:53:50Z</time>
      </trkpt>
      <trkpt lat="43.89085" lon="7.29784">
        <ele>811.626587</ele>
        <time>2011-11-11T10:53:55Z</time>
      </trkpt>
      <trkpt lat="43.89084" lon="7.29772">
        <ele>812.94751</ele>
        <time>2011-11-11T10:54:00Z</time>
      </trkpt>
      <trkpt lat="43.89083" lon="7.29762">
        <ele>813.901611</ele>
        <time>2011-11-11T10:54:05Z</time>
      </trkpt>
      <trkpt lat="43.89082" lon="7.29751">
        <ele>814.888245</ele>
        <time>2011-11-11T10:54:10Z</time>
      </trkpt>
      <trkpt lat="43.89081" lon="7.29741">
        <ele>816.048462</ele>
        <time>2011-11-11T10:54:15Z</time>
      </trkpt>
      <trkpt lat="43.8908" lon="7.29731">
        <ele>817.012695</ele>
        <time>2011-11-11T10:54:20Z</time>
      </trkpt>
      <trkpt lat="43.89079" lon="7.29721">
        <ele>817.722778</ele>
        <time>2011-11-11T10:54:25Z</time>
      </trkpt>
      <trkpt lat="43.89081" lon="7.29712">
        <ele>818.599426</ele>
        <time>2011-11-11T10:54:30Z</time>
      </trkpt>
      <trkpt lat="43.89083" lon="7.29703">
        <ele>819.141113</ele>
        <time>2011-11-11T10:54:35Z</time>
      </trkpt>
      <trkpt lat="43.89081" lon="7.29692">
        <ele>820.273987</ele>
        <time>2011-11-11T10:54:40Z</time>
      </trkpt>
      <trkpt lat="43.8908" lon="7.29681">
        <ele>821.591187</ele>
        <time>2011-11-11T10:54:45Z</time>
      </trkpt>
      <trkpt lat="43.89082" lon="7.29672">
        <ele>822.537537</ele>
        <time>2011-11-11T10:54:50Z</time>
      </trkpt>
      <trkpt lat="43.89087" lon="7.29666">
        <ele>823.725952</ele>
        <time>2011-11-11T10:54:55Z</time>
      </trkpt>
      <trkpt lat="43.8909" lon="7.29659">
        <ele>824.639648</ele>
        <time>2011-11-11T10:55:00Z</time>
      </trkpt>
      <trkpt lat="43.89094" lon="7.29653">
        <ele>825.461792</ele>
        <time>2011-11-11T10:55:05Z</time>
      </trkpt>
      <trkpt lat="43.89099" lon="7.29652">
        <ele>826.197144</ele>
        <time>2011-11-11T10:55:10Z</time>
      </trkpt>
      <trkpt lat="43.89104" lon="7.29651">
        <ele>827.204102</ele>
        <time>2011-11-11T10:55:15Z</time>
      </trkpt>
      <trkpt lat="43.8911" lon="7.2965">
        <ele>828.173889</ele>
        <time>2011-11-11T10:55:20Z</time>
      </trkpt>
      <trkpt lat="43.89114" lon="7.29648">
        <ele>828.609436</ele>
        <time>2011-11-11T10:55:55Z</time>
      </trkpt>
      <trkpt lat="43.89116" lon="7.29645">
        <ele>829.266174</ele>
        <time>2011-11-11T10:56:00Z</time>
      </trkpt>
      <trkpt lat="43.89122" lon="7.2964">
        <ele>830.312439</ele>
        <time>2011-11-11T10:56:05Z</time>
      </trkpt>
      <trkpt lat="43.8913" lon="7.29638">
        <ele>831.565979</ele>
        <time>2011-11-11T10:56:10Z</time>
      </trkpt>
      <trkpt lat="43.89138" lon="7.29638">
        <ele>833.089722</ele>
        <time>2011-11-11T10:56:15Z</time>
      </trkpt>
      <trkpt lat="43.89146" lon="7.29636">
        <ele>834.55603</ele>
        <time>2011-11-11T10:56:20Z</time>
      </trkpt>
      <trkpt lat="43.89152" lon="7.29633">
        <ele>835.998352</ele>
        <time>2011-11-11T10:56:25Z</time>
      </trkpt>
      <trkpt lat="43.8916" lon="7.29634">
        <ele>836.067993</ele>
        <time>2011-11-11T10:56:30Z</time>
      </trkpt>
      <trkpt lat="43.89166" lon="7.29632">
        <ele>836.642517</ele>
        <time>2011-11-11T10:56:35Z</time>
      </trkpt>
      <trkpt lat="43.89173" lon="7.29629">
        <ele>837.582397</ele>
        <time>2011-11-11T10:56:40Z</time>
      </trkpt>
      <trkpt lat="43.89179" lon="7.29628">
        <ele>838.754333</ele>
        <time>2011-11-11T10:56:45Z</time>
      </trkpt>
      <trkpt lat="43.89184" lon="7.29627">
        <ele>839.638245</ele>
        <time>2011-11-11T10:56:50Z</time>
      </trkpt>
      <trkpt lat="43.89189" lon="7.29627">
        <ele>840.852173</ele>
        <time>2011-11-11T10:56:55Z</time>
      </trkpt>
      <trkpt lat="43.89195" lon="7.29628">
        <ele>842.110107</ele>
        <time>2011-11-11T10:57:00Z</time>
      </trkpt>
      <trkpt lat="43.89201" lon="7.29626">
        <ele>842.853394</ele>
        <time>2011-11-11T10:57:05Z</time>
      </trkpt>
      <trkpt lat="43.89206" lon="7.29625">
        <ele>843.836121</ele>
        <time>2011-11-11T10:57:10Z</time>
      </trkpt>
      <trkpt lat="43.89211" lon="7.29623">
        <ele>844.502441</ele>
        <time>2011-11-11T10:57:15Z</time>
      </trkpt>
      <trkpt lat="43.89216" lon="7.29622">
        <ele>845.277283</ele>
        <time>2011-11-11T10:57:20Z</time>
      </trkpt>
      <trkpt lat="43.89222" lon="7.29621">
        <ele>846.638489</ele>
        <time>2011-11-11T10:57:25Z</time>
      </trkpt>
      <trkpt lat="43.89228" lon="7.29619">
        <ele>847.526184</ele>
        <time>2011-11-11T10:57:30Z</time>
      </trkpt>
      <trkpt lat="43.89232" lon="7.29619">
        <ele>848.532166</ele>
        <time>2011-11-11T10:57:35Z</time>
      </trkpt>
      <trkpt lat="43.89232" lon="7.29619">
        <ele>847.966248</ele>
        <time>2011-11-11T10:57:40Z</time>
      </trkpt>
      <trkpt lat="43.89235" lon="7.29617">
        <ele>848.592102</ele>
        <time>2011-11-11T10:57:45Z</time>
      </trkpt>
      <trkpt lat="43.89238" lon="7.29618">
        <ele>848.915039</ele>
        <time>2011-11-11T10:57:50Z</time>
      </trkpt>
      <trkpt lat="43.89242" lon="7.29618">
        <ele>849.464233</ele>
        <time>2011-11-11T10:57:55Z</time>
      </trkpt>
      <trkpt lat="43.89246" lon="7.29616">
        <ele>850.022339</ele>
        <time>2011-11-11T10:58:00Z</time>
      </trkpt>
      <trkpt lat="43.8925" lon="7.29614">
        <ele>850.766235</ele>
        <time>2011-11-11T10:58:05Z</time>
      </trkpt>
      <trkpt lat="43.89254" lon="7.29612">
        <ele>851.48468</ele>
        <time>2011-11-11T10:58:10Z</time>
      </trkpt>
      <trkpt lat="43.89259" lon="7.29611">
        <ele>852.263611</ele>
        <time>2011-11-11T10:58:15Z</time>
      </trkpt>
      <trkpt lat="43.89264" lon="7.29611">
        <ele>853.123596</ele>
        <time>2011-11-11T10:58:20Z</time>
      </trkpt>
      <trkpt lat="43.89269" lon="7.29608">
        <ele>853.712708</ele>
        <time>2011-11-11T10:58:25Z</time>
      </trkpt>
      <trkpt lat="43.89274" lon="7.29606">
        <ele>854.135498</ele>
        <time>2011-11-11T10:58:30Z</time>
      </trkpt>
      <trkpt lat="43.89279" lon="7.29603">
        <ele>854.657959</ele>
        <time>2011-11-11T10:58:35Z</time>
      </trkpt>
      <trkpt lat="43.89281" lon="7.29605">
        <ele>855.369446</ele>
        <time>2011-11-11T10:58:40Z</time>
      </trkpt>
      <trkpt lat="43.89278" lon="7.29609">
        <ele>856.567444</ele>
        <time>2011-11-11T10:58:45Z</time>
      </trkpt>
      <trkpt lat="43.89274" lon="7.29613">
        <ele>857.659729</ele>
        <time>2011-11-11T10:58:50Z</time>
      </trkpt>
      <trkpt lat="43.89272" lon="7.29616">
        <ele>858.798279</ele>
        <time>2011-11-11T10:59:40Z</time>
      </trkpt>
      <trkpt lat="43.89271" lon="7.29617">
        <ele>859.274048</ele>
        <time>2011-11-11T10:59:45Z</time>
      </trkpt>
      <trkpt lat="43.89266" lon="7.29622">
        <ele>860.183289</ele>
        <time>2011-11-11T10:59:50Z</time>
      </trkpt>
      <trkpt lat="43.89261" lon="7.29627">
        <ele>861.509216</ele>
        <time>2011-11-11T10:59:55Z</time>
      </trkpt>
      <trkpt lat="43.89256" lon="7.29631">
        <ele>862.433838</ele>
        <time>2011-11-11T11:00:00Z</time>
      </trkpt>
      <trkpt lat="43.89252" lon="7.29636">
        <ele>863.738892</ele>
        <time>2011-11-11T11:00:05Z</time>
      </trkpt>
      <trkpt lat="43.89248" lon="7.29641">
        <ele>864.802185</ele>
        <time>2011-11-11T11:00:10Z</time>
      </trkpt>
      <trkpt lat="43.89244" lon="7.29646">
        <ele>865.558655</ele>
        <time>2011-11-11T11:00:15Z</time>
      </trkpt>
      <trkpt lat="43.89242" lon="7.29648">
        <ele>865.945984</ele>
        <time>2011-11-11T11:00:20Z</time>
      </trkpt>
      <trkpt lat="43.89237" lon="7.2965">
        <ele>866.741882</ele>
        <time>2011-11-11T11:00:25Z</time>
      </trkpt>
      <trkpt lat="43.89233" lon="7.29654">
        <ele>867.660217</ele>
        <time>2011-11-11T11:00:30Z</time>
      </trkpt>
      <trkpt lat="43.8923" lon="7.2966">
        <ele>868.449402</ele>
        <time>2011-11-11T11:00:35Z</time>
      </trkpt>
      <trkpt lat="43.89226" lon="7.29665">
        <ele>869.405029</ele>
        <time>2011-11-11T11:00:40Z</time>
      </trkpt>
      <trkpt lat="43.89222" lon="7.29669">
        <ele>870.111328</ele>
        <time>2011-11-11T11:00:45Z</time>
      </trkpt>
      <trkpt lat="43.89217" lon="7.29674">
        <ele>871.115051</ele>
        <time>2011-11-11T11:00:50Z</time>
      </trkpt>
      <trkpt lat="43.89214" lon="7.29676">
        <ele>871.941284</ele>
        <time>2011-11-11T11:00:55Z</time>
      </trkpt>
      <trkpt lat="43.89215" lon="7.29676">
        <ele>871.832275</ele>
        <time>2011-11-11T11:01:00Z</time>
      </trkpt>
      <trkpt lat="43.89212" lon="7.2968">
        <ele>872.305664</ele>
        <time>2011-11-11T11:01:05Z</time>
      </trkpt>
      <trkpt lat="43.89206" lon="7.29688">
        <ele>873.737366</ele>
        <time>2011-11-11T11:01:10Z</time>
      </trkpt>
      <trkpt lat="43.89201" lon="7.29696">
        <ele>875.130432</ele>
        <time>2011-11-11T11:01:15Z</time>
      </trkpt>
      <trkpt lat="43.89195" lon="7.29703">
        <ele>876.055664</ele>
        <time>2011-11-11T11:01:20Z</time>
      </trkpt>
      <trkpt lat="43.8919" lon="7.2971">
        <ele>877.272888</ele>
        <time>2011-11-11T11:01:25Z</time>
      </trkpt>
      <trkpt lat="43.89185" lon="7.29717">
        <ele>878.392517</ele>
        <time>2011-11-11T11:01:30Z</time>
      </trkpt>
      <trkpt lat="43.89179" lon="7.29722">
        <ele>879.301392</ele>
        <time>2011-11-11T11:01:35Z</time>
      </trkpt>
      <trkpt lat="43.8918" lon="7.29731">
        <ele>880.260864</ele>
        <time>2011-11-11T11:01:40Z</time>
      </trkpt>
      <trkpt lat="43.89182" lon="7.2974">
        <ele>881.1073</ele>
        <time>2011-11-11T11:01:45Z</time>
      </trkpt>
      <trkpt lat="43.89184" lon="7.2975">
        <ele>880.924683</ele>
        <time>2011-11-11T11:01:50Z</time>
      </trkpt>
      <trkpt lat="43.89185" lon="7.29759">
        <ele>881.331848</ele>
        <time>2011-11-11T11:01:55Z</time>
      </trkpt>
      <trkpt lat="43.89188" lon="7.29768">
        <ele>882.252319</ele>
        <time>2011-11-11T11:02:00Z</time>
      </trkpt>
      <trkpt lat="43.8919" lon="7.29777">
        <ele>882.943176</ele>
        <time>2011-11-11T11:02:05Z</time>
      </trkpt>
      <trkpt lat="43.89192" lon="7.29785">
        <ele>883.870483</ele>
        <time>2011-11-11T11:02:10Z</time>
      </trkpt>
      <trkpt lat="43.89194" lon="7.29792">
        <ele>884.671204</ele>
        <time>2011-11-11T11:02:15Z</time>
      </trkpt>
      <trkpt lat="43.89197" lon="7.298">
        <ele>885.482483</ele>
        <time>2011-11-11T11:02:20Z</time>
      </trkpt>
      <trkpt lat="43.892" lon="7.29808">
        <ele>886.327759</ele>
        <time>2011-11-11T11:02:25Z</time>
      </trkpt>
      <trkpt lat="43.89202" lon="7.29815">
        <ele>887.015808</ele>
        <time>2011-11-11T11:02:30Z</time>
      </trkpt>
      <trkpt lat="43.89205" lon="7.29815">
        <ele>887.834351</ele>
        <time>2011-11-11T11:02:35Z</time>
      </trkpt>
      <trkpt lat="43.89204" lon="7.29812">
        <ele>887.254639</ele>
        <time>2011-11-11T11:03:30Z</time>
      </trkpt>
      <trkpt lat="43.89204" lon="7.29809">
        <ele>887.538269</ele>
        <time>2011-11-11T11:03:35Z</time>
      </trkpt>
      <trkpt lat="43.89203" lon="7.29799">
        <ele>888.573547</ele>
        <time>2011-11-11T11:03:40Z</time>
      </trkpt>
      <trkpt lat="43.89204" lon="7.29788">
        <ele>889.848022</ele>
        <time>2011-11-11T11:03:45Z</time>
      </trkpt>
      <trkpt lat="43.89205" lon="7.29778">
        <ele>890.765564</ele>
        <time>2011-11-11T11:03:50Z</time>
      </trkpt>
      <trkpt lat="43.89207" lon="7.29768">
        <ele>891.916565</ele>
        <time>2011-11-11T11:03:55Z</time>
      </trkpt>
      <trkpt lat="43.89209" lon="7.29759">
        <ele>892.834595</ele>
        <time>2011-11-11T11:04:00Z</time>
      </trkpt>
      <trkpt lat="43.89211" lon="7.29751">
        <ele>893.428833</ele>
        <time>2011-11-11T11:04:05Z</time>
      </trkpt>
      <trkpt lat="43.89216" lon="7.29746">
        <ele>894.108826</ele>
        <time>2011-11-11T11:04:10Z</time>
      </trkpt>
      <trkpt lat="43.89222" lon="7.29742">
        <ele>895.30127</ele>
        <time>2011-11-11T11:04:15Z</time>
      </trkpt>
      <trkpt lat="43.89227" lon="7.29739">
        <ele>896.261108</ele>
        <time>2011-11-11T11:04:20Z</time>
      </trkpt>
      <trkpt lat="43.89233" lon="7.29735">
        <ele>897.27179</ele>
        <time>2011-11-11T11:04:25Z</time>
      </trkpt>
      <trkpt lat="43.89238" lon="7.29733">
        <ele>898.335327</ele>
        <time>2011-11-11T11:04:30Z</time>
      </trkpt>
      <trkpt lat="43.89244" lon="7.29731">
        <ele>899.69342</ele>
        <time>2011-11-11T11:04:35Z</time>
      </trkpt>
      <trkpt lat="43.8925" lon="7.29728">
        <ele>900.678894</ele>
        <time>2011-11-11T11:04:40Z</time>
      </trkpt>
      <trkpt lat="43.89256" lon="7.29725">
        <ele>901.854187</ele>
        <time>2011-11-11T11:04:45Z</time>
      </trkpt>
      <trkpt lat="43.89261" lon="7.29723">
        <ele>903.639526</ele>
        <time>2011-11-11T11:04:50Z</time>
      </trkpt>
      <trkpt lat="43.89267" lon="7.29721">
        <ele>904.805725</ele>
        <time>2011-11-11T11:04:55Z</time>
      </trkpt>
      <trkpt lat="43.89273" lon="7.29717">
        <ele>905.721558</ele>
        <time>2011-11-11T11:05:00Z</time>
      </trkpt>
      <trkpt lat="43.89278" lon="7.29714">
        <ele>906.807068</ele>
        <time>2011-11-11T11:05:05Z</time>
      </trkpt>
      <trkpt lat="43.89284" lon="7.29712">
        <ele>907.668457</ele>
        <time>2011-11-11T11:05:10Z</time>
      </trkpt>
      <trkpt lat="43.8929" lon="7.2971">
        <ele>909.360229</ele>
        <time>2011-11-11T11:05:15Z</time>
      </trkpt>
      <trkpt lat="43.89295" lon="7.29709">
        <ele>910.10376</ele>
        <time>2011-11-11T11:05:20Z</time>
      </trkpt>
      <trkpt lat="43.89301" lon="7.29706">
        <ele>911.010498</ele>
        <time>2011-11-11T11:05:25Z</time>
      </trkpt>
      <trkpt lat="43.89308" lon="7.29704">
        <ele>912.173157</ele>
        <time>2011-11-11T11:05:30Z</time>
      </trkpt>
      <trkpt lat="43.89313" lon="7.29703">
        <ele>912.890381</ele>
        <time>2011-11-11T11:05:35Z</time>
      </trkpt>
      <trkpt lat="43.89319" lon="7.29704">
        <ele>913.638367</ele>
        <time>2011-11-11T11:05:40Z</time>
      </trkpt>
      <trkpt lat="43.89326" lon="7.29706">
        <ele>913.184814</ele>
        <time>2011-11-11T11:05:45Z</time>
      </trkpt>
      <trkpt lat="43.89332" lon="7.29705">
        <ele>914.145935</ele>
        <time>2011-11-11T11:05:50Z</time>
      </trkpt>
      <trkpt lat="43.89337" lon="7.29702">
        <ele>915.184814</ele>
        <time>2011-11-11T11:05:55Z</time>
      </trkpt>
      <trkpt lat="43.89343" lon="7.297">
        <ele>916.055908</ele>
        <time>2011-11-11T11:06:00Z</time>
      </trkpt>
      <trkpt lat="43.89349" lon="7.297">
        <ele>916.754395</ele>
        <time>2011-11-11T11:06:05Z</time>
      </trkpt>
      <trkpt lat="43.89354" lon="7.29699">
        <ele>918.033325</ele>
        <time>2011-11-11T11:06:10Z</time>
      </trkpt>
      <trkpt lat="43.8936" lon="7.29699">
        <ele>919.003601</ele>
        <time>2011-11-11T11:06:15Z</time>
      </trkpt>
      <trkpt lat="43.89366" lon="7.29698">
        <ele>919.841248</ele>
        <time>2011-11-11T11:06:20Z</time>
      </trkpt>
      <trkpt lat="43.89368" lon="7.29697">
        <ele>919.671875</ele>
        <time>2011-11-11T11:07:20Z</time>
      </trkpt>
      <trkpt lat="43.89368" lon="7.29697">
        <ele>919.644775</ele>
        <time>2011-11-11T11:07:25Z</time>
      </trkpt>
      <trkpt lat="43.8937" lon="7.29696">
        <ele>917.650024</ele>
        <time>2011-11-11T11:10:40Z</time>
      </trkpt>
      <trkpt lat="43.89377" lon="7.29694">
        <ele>919.031372</ele>
        <time>2011-11-11T11:10:45Z</time>
      </trkpt>
      <trkpt lat="43.89386" lon="7.29692">
        <ele>921.255615</ele>
        <time>2011-11-11T11:10:50Z</time>
      </trkpt>
      <trkpt lat="43.89395" lon="7.29688">
        <ele>923.709106</ele>
        <time>2011-11-11T11:10:55Z</time>
      </trkpt>
      <trkpt lat="43.89402" lon="7.29683">
        <ele>925.231689</ele>
        <time>2011-11-11T11:11:00Z</time>
      </trkpt>
      <trkpt lat="43.8941" lon="7.2968">
        <ele>926.922729</ele>
        <time>2011-11-11T11:11:05Z</time>
      </trkpt>
      <trkpt lat="43.89416" lon="7.29678">
        <ele>928.568787</ele>
        <time>2011-11-11T11:11:10Z</time>
      </trkpt>
      <trkpt lat="43.89421" lon="7.29679">
        <ele>928.987183</ele>
        <time>2011-11-11T11:11:15Z</time>
      </trkpt>
      <trkpt lat="43.89429" lon="7.29681">
        <ele>930.801025</ele>
        <time>2011-11-11T11:11:20Z</time>
      </trkpt>
      <trkpt lat="43.89435" lon="7.29683">
        <ele>932.172546</ele>
        <time>2011-11-11T11:11:25Z</time>
      </trkpt>
      <trkpt lat="43.89442" lon="7.29682">
        <ele>933.27002</ele>
        <time>2011-11-11T11:11:30Z</time>
      </trkpt>
      <trkpt lat="43.89448" lon="7.29683">
        <ele>934.341858</ele>
        <time>2011-11-11T11:11:35Z</time>
      </trkpt>
      <trkpt lat="43.89455" lon="7.2968">
        <ele>935.22229</ele>
        <time>2011-11-11T11:11:40Z</time>
      </trkpt>
      <trkpt lat="43.89458" lon="7.29672">
        <ele>936.326965</ele>
        <time>2011-11-11T11:11:45Z</time>
      </trkpt>
      <trkpt lat="43.89461" lon="7.29666">
        <ele>937.351563</ele>
        <time>2011-11-11T11:11:50Z</time>
      </trkpt>
      <trkpt lat="43.89466" lon="7.29661">
        <ele>937.997253</ele>
        <time>2011-11-11T11:11:55Z</time>
      </trkpt>
      <trkpt lat="43.89471" lon="7.29657">
        <ele>938.737</ele>
        <time>2011-11-11T11:12:00Z</time>
      </trkpt>
      <trkpt lat="43.89476" lon="7.29654">
        <ele>939.996277</ele>
        <time>2011-11-11T11:12:05Z</time>
      </trkpt>
      <trkpt lat="43.8948" lon="7.29648">
        <ele>940.876831</ele>
        <time>2011-11-11T11:12:10Z</time>
      </trkpt>
      <trkpt lat="43.89487" lon="7.29646">
        <ele>941.860291</ele>
        <time>2011-11-11T11:12:15Z</time>
      </trkpt>
      <trkpt lat="43.89493" lon="7.29643">
        <ele>942.731384</ele>
        <time>2011-11-11T11:12:20Z</time>
      </trkpt>
      <trkpt lat="43.89499" lon="7.29638">
        <ele>943.763367</ele>
        <time>2011-11-11T11:12:25Z</time>
      </trkpt>
      <trkpt lat="43.89504" lon="7.29635">
        <ele>944.333801</ele>
        <time>2011-11-11T11:12:30Z</time>
      </trkpt>
      <trkpt lat="43.89511" lon="7.29632">
        <ele>945.087585</ele>
        <time>2011-11-11T11:12:35Z</time>
      </trkpt>
      <trkpt lat="43.89517" lon="7.29626">
        <ele>945.641907</ele>
        <time>2011-11-11T11:12:40Z</time>
      </trkpt>
      <trkpt lat="43.89524" lon="7.2962">
        <ele>945.998047</ele>
        <time>2011-11-11T11:12:45Z</time>
      </trkpt>
      <trkpt lat="43.8953" lon="7.29611">
        <ele>946.279114</ele>
        <time>2011-11-11T11:12:50Z</time>
      </trkpt>
      <trkpt lat="43.8953" lon="7.29599">
        <ele>946.098328</ele>
        <time>2011-11-11T11:12:55Z</time>
      </trkpt>
      <trkpt lat="43.8953" lon="7.29596">
        <ele>945.784424</ele>
        <time>2011-11-11T11:13:40Z</time>
      </trkpt>
      <trkpt lat="43.8953" lon="7.29596">
        <ele>945.772461</ele>
        <time>2011-11-11T11:13:45Z</time>
      </trkpt>
      <trkpt lat="43.8954" lon="7.2959">
        <ele>945.399414</ele>
        <time>2011-11-11T11:13:50Z</time>
      </trkpt>
      <trkpt lat="43.89549" lon="7.29575">
        <ele>944.506653</ele>
        <time>2011-11-11T11:13:55Z</time>
      </trkpt>
      <trkpt lat="43.89557" lon="7.29552">
        <ele>942.217651</ele>
        <time>2011-11-11T11:14:00Z</time>
      </trkpt>
      <trkpt lat="43.89564" lon="7.29533">
        <ele>941.524475</ele>
        <time>2011-11-11T11:14:05Z</time>
      </trkpt>
      <trkpt lat="43.89572" lon="7.29514">
        <ele>940.564453</ele>
        <time>2011-11-11T11:14:10Z</time>
      </trkpt>
      <trkpt lat="43.89575" lon="7.29488">
        <ele>938.222534</ele>
        <time>2011-11-11T11:14:15Z</time>
      </trkpt>
      <trkpt lat="43.89561" lon="7.29457">
        <ele>936.797485</ele>
        <time>2011-11-11T11:14:20Z</time>
      </trkpt>
      <trkpt lat="43.89553" lon="7.29425">
        <ele>935.805176</ele>
        <time>2011-11-11T11:14:25Z</time>
      </trkpt>
      <trkpt lat="43.89547" lon="7.29401">
        <ele>935.798523</ele>
        <time>2011-11-11T11:14:30Z</time>
      </trkpt>
      <trkpt lat="43.89548" lon="7.29401">
        <ele>935.184753</ele>
        <time>2011-11-11T11:15:00Z</time>
      </trkpt>
      <trkpt lat="43.89549" lon="7.29399">
        <ele>935.172241</ele>
        <time>2011-11-11T11:15:05Z</time>
      </trkpt>
      <trkpt lat="43.8956" lon="7.29383">
        <ele>934.364075</ele>
        <time>2011-11-11T11:15:10Z</time>
      </trkpt>
      <trkpt lat="43.89564" lon="7.29359">
        <ele>934.097046</ele>
        <time>2011-11-11T11:15:15Z</time>
      </trkpt>
      <trkpt lat="43.89551" lon="7.29345">
        <ele>934.662231</ele>
        <time>2011-11-11T11:15:20Z</time>
      </trkpt>
      <trkpt lat="43.8954" lon="7.29327">
        <ele>935.060486</ele>
        <time>2011-11-11T11:15:25Z</time>
      </trkpt>
      <trkpt lat="43.89526" lon="7.29314">
        <ele>935.429565</ele>
        <time>2011-11-11T11:15:30Z</time>
      </trkpt>
      <trkpt lat="43.89521" lon="7.29293">
        <ele>936.067017</ele>
        <time>2011-11-11T11:15:35Z</time>
      </trkpt>
      <trkpt lat="43.89518" lon="7.29279">
        <ele>936.669739</ele>
        <time>2011-11-11T11:15:40Z</time>
      </trkpt>
      <trkpt lat="43.89505" lon="7.29281">
        <ele>936.913696</ele>
        <time>2011-11-11T11:15:45Z</time>
      </trkpt>
      <trkpt lat="43.89489" lon="7.29286">
        <ele>937.751831</ele>
        <time>2011-11-11T11:15:50Z</time>
      </trkpt>
      <trkpt lat="43.89476" lon="7.29283">
        <ele>937.678162</ele>
        <time>2011-11-11T11:15:55Z</time>
      </trkpt>
      <trkpt lat="43.89463" lon="7.29283">
        <ele>937.818604</ele>
        <time>2011-11-11T11:16:00Z</time>
      </trkpt>
      <trkpt lat="43.89452" lon="7.29282">
        <ele>937.41571</ele>
        <time>2011-11-11T11:16:05Z</time>
      </trkpt>
      <trkpt lat="43.89451" lon="7.29282">
        <ele>936.523804</ele>
        <time>2011-11-11T11:16:10Z</time>
      </trkpt>
      <trkpt lat="43.89451" lon="7.29282">
        <ele>936.467712</ele>
        <time>2011-11-11T11:16:15Z</time>
      </trkpt>
      <trkpt lat="43.89452" lon="7.29282">
        <ele>936.423706</ele>
        <time>2011-11-11T11:16:20Z</time>
      </trkpt>
      <trkpt lat="43.89452" lon="7.29282">
        <ele>936.374512</ele>
        <time>2011-11-11T11:16:25Z</time>
      </trkpt>
      <trkpt lat="43.89446" lon="7.29279">
        <ele>936.545593</ele>
        <time>2011-11-11T11:16:30Z</time>
      </trkpt>
      <trkpt lat="43.89438" lon="7.29274">
        <ele>936.962646</ele>
        <time>2011-11-11T11:16:35Z</time>
      </trkpt>
      <trkpt lat="43.8943" lon="7.29268">
        <ele>937.402344</ele>
        <time>2011-11-11T11:16:40Z</time>
      </trkpt>
      <trkpt lat="43.89423" lon="7.2926">
        <ele>938.16803</ele>
        <time>2011-11-11T11:16:45Z</time>
      </trkpt>
      <trkpt lat="43.89416" lon="7.29254">
        <ele>938.659668</ele>
        <time>2011-11-11T11:16:50Z</time>
      </trkpt>
      <trkpt lat="43.89407" lon="7.29251">
        <ele>939.462036</ele>
        <time>2011-11-11T11:16:55Z</time>
      </trkpt>
      <trkpt lat="43.89399" lon="7.29244">
        <ele>940.117554</ele>
        <time>2011-11-11T11:17:00Z</time>
      </trkpt>
      <trkpt lat="43.89393" lon="7.29237">
        <ele>940.296265</ele>
        <time>2011-11-11T11:17:05Z</time>
      </trkpt>
      <trkpt lat="43.89388" lon="7.29229">
        <ele>940.697571</ele>
        <time>2011-11-11T11:17:10Z</time>
      </trkpt>
      <trkpt lat="43.89383" lon="7.29222">
        <ele>941.534485</ele>
        <time>2011-11-11T11:17:15Z</time>
      </trkpt>
      <trkpt lat="43.89378" lon="7.29214">
        <ele>941.817383</ele>
        <time>2011-11-11T11:17:20Z</time>
      </trkpt>
      <trkpt lat="43.89372" lon="7.29207">
        <ele>942.620239</ele>
        <time>2011-11-11T11:17:25Z</time>
      </trkpt>
      <trkpt lat="43.89367" lon="7.29201">
        <ele>943.261169</ele>
        <time>2011-11-11T11:17:30Z</time>
      </trkpt>
      <trkpt lat="43.89361" lon="7.29194">
        <ele>943.774231</ele>
        <time>2011-11-11T11:17:35Z</time>
      </trkpt>
      <trkpt lat="43.89357" lon="7.29187">
        <ele>944.565369</ele>
        <time>2011-11-11T11:17:40Z</time>
      </trkpt>
      <trkpt lat="43.89352" lon="7.2918">
        <ele>945.085754</ele>
        <time>2011-11-11T11:17:45Z</time>
      </trkpt>
      <trkpt lat="43.89347" lon="7.29174">
        <ele>946.114624</ele>
        <time>2011-11-11T11:17:50Z</time>
      </trkpt>
      <trkpt lat="43.89342" lon="7.29167">
        <ele>946.530884</ele>
        <time>2011-11-11T11:17:55Z</time>
      </trkpt>
      <trkpt lat="43.89336" lon="7.29162">
        <ele>947.238525</ele>
        <time>2011-11-11T11:18:00Z</time>
      </trkpt>
      <trkpt lat="43.89331" lon="7.29156">
        <ele>948.166321</ele>
        <time>2011-11-11T11:18:05Z</time>
      </trkpt>
      <trkpt lat="43.89326" lon="7.29151">
        <ele>948.878113</ele>
        <time>2011-11-11T11:18:10Z</time>
      </trkpt>
      <trkpt lat="43.89321" lon="7.29146">
        <ele>949.7323</ele>
        <time>2011-11-11T11:18:15Z</time>
      </trkpt>
      <trkpt lat="43.89319" lon="7.29146">
        <ele>949.562195</ele>
        <time>2011-11-11T11:18:20Z</time>
      </trkpt>
      <trkpt lat="43.89319" lon="7.29146">
        <ele>949.531433</ele>
        <time>2011-11-11T11:18:25Z</time>
      </trkpt>
      <trkpt lat="43.89319" lon="7.29146">
        <ele>949.520203</ele>
        <time>2011-11-11T11:18:30Z</time>
      </trkpt>
      <trkpt lat="43.89319" lon="7.29146">
        <ele>949.528076</ele>
        <time>2011-11-11T11:18:35Z</time>
      </trkpt>
      <trkpt lat="43.89316" lon="7.29144">
        <ele>950.177246</ele>
        <time>2011-11-11T11:18:40Z</time>
      </trkpt>
      <trkpt lat="43.8931" lon="7.29139">
        <ele>951.426331</ele>
        <time>2011-11-11T11:18:45Z</time>
      </trkpt>
      <trkpt lat="43.89305" lon="7.29132">
        <ele>952.690735</ele>
        <time>2011-11-11T11:18:50Z</time>
      </trkpt>
      <trkpt lat="43.89302" lon="7.29126">
        <ele>953.547852</ele>
        <time>2011-11-11T11:18:55Z</time>
      </trkpt>
      <trkpt lat="43.89299" lon="7.29117">
        <ele>954.30658</ele>
        <time>2011-11-11T11:19:00Z</time>
      </trkpt>
      <trkpt lat="43.89295" lon="7.2911">
        <ele>955.424438</ele>
        <time>2011-11-11T11:19:05Z</time>
      </trkpt>
      <trkpt lat="43.89289" lon="7.29104">
        <ele>956.540955</ele>
        <time>2011-11-11T11:19:10Z</time>
      </trkpt>
      <trkpt lat="43.89284" lon="7.29099">
        <ele>957.089905</ele>
        <time>2011-11-11T11:19:15Z</time>
      </trkpt>
      <trkpt lat="43.89279" lon="7.29096">
        <ele>957.862732</ele>
        <time>2011-11-11T11:19:20Z</time>
      </trkpt>
      <trkpt lat="43.89274" lon="7.29093">
        <ele>958.596497</ele>
        <time>2011-11-11T11:19:25Z</time>
      </trkpt>
      <trkpt lat="43.8927" lon="7.29086">
        <ele>959.773987</ele>
        <time>2011-11-11T11:19:30Z</time>
      </trkpt>
      <trkpt lat="43.89265" lon="7.29078">
        <ele>961.026001</ele>
        <time>2011-11-11T11:19:35Z</time>
      </trkpt>
      <trkpt lat="43.89263" lon="7.29073">
        <ele>961.309937</ele>
        <time>2011-11-11T11:20:15Z</time>
      </trkpt>
      <trkpt lat="43.89261" lon="7.2907">
        <ele>961.965576</ele>
        <time>2011-11-11T11:20:20Z</time>
      </trkpt>
      <trkpt lat="43.89247" lon="7.28945">
        <ele>967.755859</ele>
        <time>2011-11-11T11:24:00Z</time>
      </trkpt>
      <trkpt lat="43.89166" lon="7.28865">
        <ele>969.208862</ele>
        <time>2011-11-11T11:25:20Z</time>
      </trkpt>
      <trkpt lat="43.89158" lon="7.28853">
        <ele>972.850098</ele>
        <time>2011-11-11T11:25:25Z</time>
      </trkpt>
      <trkpt lat="43.89153" lon="7.28843">
        <ele>975.576721</ele>
        <time>2011-11-11T11:25:30Z</time>
      </trkpt>
      <trkpt lat="43.89149" lon="7.28833">
        <ele>978.526978</ele>
        <time>2011-11-11T11:25:35Z</time>
      </trkpt>
      <trkpt lat="43.89145" lon="7.28825">
        <ele>980.54303</ele>
        <time>2011-11-11T11:25:40Z</time>
      </trkpt>
      <trkpt lat="43.89144" lon="7.28818">
        <ele>982.056396</ele>
        <time>2011-11-11T11:25:45Z</time>
      </trkpt>
      <trkpt lat="43.89141" lon="7.2881">
        <ele>983.673767</ele>
        <time>2011-11-11T11:25:50Z</time>
      </trkpt>
      <trkpt lat="43.89136" lon="7.28805">
        <ele>985.269775</ele>
        <time>2011-11-11T11:25:55Z</time>
      </trkpt>
      <trkpt lat="43.89131" lon="7.28801">
        <ele>986.646973</ele>
        <time>2011-11-11T11:26:00Z</time>
      </trkpt>
      <trkpt lat="43.89126" lon="7.28799">
        <ele>986.382874</ele>
        <time>2011-11-11T11:26:45Z</time>
      </trkpt>
      <trkpt lat="43.8912" lon="7.28795">
        <ele>987.388123</ele>
        <time>2011-11-11T11:26:50Z</time>
      </trkpt>
      <trkpt lat="43.89111" lon="7.2878">
        <ele>987.595337</ele>
        <time>2011-11-11T11:26:55Z</time>
      </trkpt>
      <trkpt lat="43.89098" lon="7.28763">
        <ele>987.345032</ele>
        <time>2011-11-11T11:27:00Z</time>
      </trkpt>
      <trkpt lat="43.89085" lon="7.28756">
        <ele>989.729431</ele>
        <time>2011-11-11T11:27:05Z</time>
      </trkpt>
      <trkpt lat="43.89073" lon="7.28751">
        <ele>992.44165</ele>
        <time>2011-11-11T11:27:10Z</time>
      </trkpt>
      <trkpt lat="43.89063" lon="7.28743">
        <ele>994.534851</ele>
        <time>2011-11-11T11:27:15Z</time>
      </trkpt>
      <trkpt lat="43.89057" lon="7.28736">
        <ele>996.462097</ele>
        <time>2011-11-11T11:27:20Z</time>
      </trkpt>
      <trkpt lat="43.89055" lon="7.2873">
        <ele>998.196838</ele>
        <time>2011-11-11T11:27:25Z</time>
      </trkpt>
      <trkpt lat="43.89062" lon="7.28733">
        <ele>999.823608</ele>
        <time>2011-11-11T11:27:30Z</time>
      </trkpt>
      <trkpt lat="43.89067" lon="7.28737">
        <ele>1000.703308</ele>
        <time>2011-11-11T11:27:35Z</time>
      </trkpt>
      <trkpt lat="43.89073" lon="7.28739">
        <ele>1001.346863</ele>
        <time>2011-11-11T11:27:40Z</time>
      </trkpt>
      <trkpt lat="43.89074" lon="7.2874">
        <ele>1001.858887</ele>
        <time>2011-11-11T11:27:45Z</time>
      </trkpt>
      <trkpt lat="43.89074" lon="7.2874">
        <ele>1001.8479</ele>
        <time>2011-11-11T11:27:50Z</time>
      </trkpt>
      <trkpt lat="43.89074" lon="7.2874">
        <ele>1001.840393</ele>
        <time>2011-11-11T11:27:55Z</time>
      </trkpt>
      <trkpt lat="43.89074" lon="7.2874">
        <ele>1001.868591</ele>
        <time>2011-11-11T11:28:00Z</time>
      </trkpt>
      <trkpt lat="43.89077" lon="7.28741">
        <ele>1002.253113</ele>
        <time>2011-11-11T11:28:05Z</time>
      </trkpt>
      <trkpt lat="43.8908" lon="7.28738">
        <ele>1003.633362</ele>
        <time>2011-11-11T11:28:10Z</time>
      </trkpt>
      <trkpt lat="43.89079" lon="7.28737">
        <ele>1003.737671</ele>
        <time>2011-11-11T11:28:15Z</time>
      </trkpt>
      <trkpt lat="43.89076" lon="7.28735">
        <ele>1004.381714</ele>
        <time>2011-11-11T11:28:20Z</time>
      </trkpt>
      <trkpt lat="43.89067" lon="7.28728">
        <ele>1005.568115</ele>
        <time>2011-11-11T11:28:25Z</time>
      </trkpt>
      <trkpt lat="43.89058" lon="7.2872">
        <ele>1006.937134</ele>
        <time>2011-11-11T11:28:30Z</time>
      </trkpt>
      <trkpt lat="43.89051" lon="7.28711">
        <ele>1008.469604</ele>
        <time>2011-11-11T11:28:35Z</time>
      </trkpt>
      <trkpt lat="43.89044" lon="7.28706">
        <ele>1009.783325</ele>
        <time>2011-11-11T11:28:40Z</time>
      </trkpt>
      <trkpt lat="43.89038" lon="7.28701">
        <ele>1010.899353</ele>
        <time>2011-11-11T11:28:45Z</time>
      </trkpt>
      <trkpt lat="43.89033" lon="7.28694">
        <ele>1012.441528</ele>
        <time>2011-11-11T11:28:50Z</time>
      </trkpt>
      <trkpt lat="43.89028" lon="7.28689">
        <ele>1013.857788</ele>
        <time>2011-11-11T11:28:55Z</time>
      </trkpt>
      <trkpt lat="43.89023" lon="7.28686">
        <ele>1014.586426</ele>
        <time>2011-11-11T11:29:00Z</time>
      </trkpt>
      <trkpt lat="43.89018" lon="7.28682">
        <ele>1014.926819</ele>
        <time>2011-11-11T11:29:05Z</time>
      </trkpt>
      <trkpt lat="43.89014" lon="7.28677">
        <ele>1015.23114</ele>
        <time>2011-11-11T11:29:10Z</time>
      </trkpt>
      <trkpt lat="43.89011" lon="7.28672">
        <ele>1015.474854</ele>
        <time>2011-11-11T11:29:15Z</time>
      </trkpt>
      <trkpt lat="43.89006" lon="7.28672">
        <ele>1015.086365</ele>
        <time>2011-11-11T11:29:20Z</time>
      </trkpt>
      <trkpt lat="43.89006" lon="7.28673">
        <ele>1014.033447</ele>
        <time>2011-11-11T11:29:25Z</time>
      </trkpt>
      <trkpt lat="43.88996" lon="7.2868">
        <ele>1016.707153</ele>
        <time>2011-11-11T11:51:20Z</time>
      </trkpt>
      <trkpt lat="43.88905" lon="7.28642">
        <ele>1027.046997</ele>
        <time>2011-11-11T11:52:55Z</time>
      </trkpt>
      <trkpt lat="43.88901" lon="7.28635">
        <ele>1027.549316</ele>
        <time>2011-11-11T11:53:00Z</time>
      </trkpt>
      <trkpt lat="43.88897" lon="7.28628">
        <ele>1028.68103</ele>
        <time>2011-11-11T11:53:05Z</time>
      </trkpt>
      <trkpt lat="43.88893" lon="7.2862">
        <ele>1029.430908</ele>
        <time>2011-11-11T11:53:10Z</time>
      </trkpt>
      <trkpt lat="43.88889" lon="7.28613">
        <ele>1030.291748</ele>
        <time>2011-11-11T11:53:15Z</time>
      </trkpt>
      <trkpt lat="43.88885" lon="7.28606">
        <ele>1031.159302</ele>
        <time>2011-11-11T11:53:20Z</time>
      </trkpt>
      <trkpt lat="43.8888" lon="7.28599">
        <ele>1031.906982</ele>
        <time>2011-11-11T11:53:25Z</time>
      </trkpt>
      <trkpt lat="43.88876" lon="7.28593">
        <ele>1033.056519</ele>
        <time>2011-11-11T11:53:30Z</time>
      </trkpt>
      <trkpt lat="43.88871" lon="7.28586">
        <ele>1034.171631</ele>
        <time>2011-11-11T11:53:35Z</time>
      </trkpt>
      <trkpt lat="43.88867" lon="7.2858">
        <ele>1035.264282</ele>
        <time>2011-11-11T11:53:40Z</time>
      </trkpt>
      <trkpt lat="43.88862" lon="7.28573">
        <ele>1036.07373</ele>
        <time>2011-11-11T11:53:45Z</time>
      </trkpt>
      <trkpt lat="43.88857" lon="7.28566">
        <ele>1036.520386</ele>
        <time>2011-11-11T11:53:50Z</time>
      </trkpt>
      <trkpt lat="43.88852" lon="7.28561">
        <ele>1037.812866</ele>
        <time>2011-11-11T11:53:55Z</time>
      </trkpt>
      <trkpt lat="43.88846" lon="7.28557">
        <ele>1038.879272</ele>
        <time>2011-11-11T11:54:00Z</time>
      </trkpt>
      <trkpt lat="43.8884" lon="7.28552">
        <ele>1039.713867</ele>
        <time>2011-11-11T11:54:05Z</time>
      </trkpt>
      <trkpt lat="43.88834" lon="7.28548">
        <ele>1040.045898</ele>
        <time>2011-11-11T11:54:10Z</time>
      </trkpt>
      <trkpt lat="43.88829" lon="7.28542">
        <ele>1040.346802</ele>
        <time>2011-11-11T11:54:15Z</time>
      </trkpt>
      <trkpt lat="43.88823" lon="7.28536">
        <ele>1041.329712</ele>
        <time>2011-11-11T11:54:20Z</time>
      </trkpt>
      <trkpt lat="43.88819" lon="7.28528">
        <ele>1042.18811</ele>
        <time>2011-11-11T11:54:25Z</time>
      </trkpt>
      <trkpt lat="43.88816" lon="7.28519">
        <ele>1043.774414</ele>
        <time>2011-11-11T11:54:30Z</time>
      </trkpt>
      <trkpt lat="43.88812" lon="7.2851">
        <ele>1045.305664</ele>
        <time>2011-11-11T11:54:35Z</time>
      </trkpt>
      <trkpt lat="43.88809" lon="7.28502">
        <ele>1046.506836</ele>
        <time>2011-11-11T11:54:40Z</time>
      </trkpt>
      <trkpt lat="43.88806" lon="7.28492">
        <ele>1047.482056</ele>
        <time>2011-11-11T11:54:45Z</time>
      </trkpt>
      <trkpt lat="43.88804" lon="7.28482">
        <ele>1048.280518</ele>
        <time>2011-11-11T11:54:50Z</time>
      </trkpt>
      <trkpt lat="43.88801" lon="7.28473">
        <ele>1048.887207</ele>
        <time>2011-11-11T11:54:55Z</time>
      </trkpt>
      <trkpt lat="43.88797" lon="7.28466">
        <ele>1050.228149</ele>
        <time>2011-11-11T11:55:00Z</time>
      </trkpt>
      <trkpt lat="43.88794" lon="7.28459">
        <ele>1050.975464</ele>
        <time>2011-11-11T11:55:05Z</time>
      </trkpt>
      <trkpt lat="43.88789" lon="7.28457">
        <ele>1051.104614</ele>
        <time>2011-11-11T11:55:10Z</time>
      </trkpt>
      <trkpt lat="43.88785" lon="7.2846">
        <ele>1050.721802</ele>
        <time>2011-11-11T11:55:15Z</time>
      </trkpt>
      <trkpt lat="43.88784" lon="7.28465">
        <ele>1050.573975</ele>
        <time>2011-11-11T11:55:20Z</time>
      </trkpt>
      <trkpt lat="43.88781" lon="7.28474">
        <ele>1050.761963</ele>
        <time>2011-11-11T11:55:25Z</time>
      </trkpt>
      <trkpt lat="43.88777" lon="7.2848">
        <ele>1050.941406</ele>
        <time>2011-11-11T11:55:30Z</time>
      </trkpt>
      <trkpt lat="43.88771" lon="7.28486">
        <ele>1051.920776</ele>
        <time>2011-11-11T11:55:35Z</time>
      </trkpt>
      <trkpt lat="43.88765" lon="7.28493">
        <ele>1053.138306</ele>
        <time>2011-11-11T11:55:40Z</time>
      </trkpt>
      <trkpt lat="43.88761" lon="7.28499">
        <ele>1053.598389</ele>
        <time>2011-11-11T11:55:45Z</time>
      </trkpt>
      <trkpt lat="43.88757" lon="7.28506">
        <ele>1054.112427</ele>
        <time>2011-11-11T11:55:50Z</time>
      </trkpt>
      <trkpt lat="43.88752" lon="7.28515">
        <ele>1055.355713</ele>
        <time>2011-11-11T11:55:55Z</time>
      </trkpt>
      <trkpt lat="43.8875" lon="7.28522">
        <ele>1055.802368</ele>
        <time>2011-11-11T11:56:00Z</time>
      </trkpt>
      <trkpt lat="43.88744" lon="7.28529">
        <ele>1056.838379</ele>
        <time>2011-11-11T11:56:05Z</time>
      </trkpt>
      <trkpt lat="43.88738" lon="7.28534">
        <ele>1057.912964</ele>
        <time>2011-11-11T11:56:10Z</time>
      </trkpt>
      <trkpt lat="43.88732" lon="7.28538">
        <ele>1058.595581</ele>
        <time>2011-11-11T11:56:15Z</time>
      </trkpt>
      <trkpt lat="43.88727" lon="7.28544">
        <ele>1059.118164</ele>
        <time>2011-11-11T11:56:20Z</time>
      </trkpt>
      <trkpt lat="43.88724" lon="7.28552">
        <ele>1059.780029</ele>
        <time>2011-11-11T11:56:25Z</time>
      </trkpt>
      <trkpt lat="43.88721" lon="7.2856">
        <ele>1060.358887</ele>
        <time>2011-11-11T11:56:30Z</time>
      </trkpt>
      <trkpt lat="43.88717" lon="7.28567">
        <ele>1060.999756</ele>
        <time>2011-11-11T11:56:35Z</time>
      </trkpt>
      <trkpt lat="43.88711" lon="7.28573">
        <ele>1061.637695</ele>
        <time>2011-11-11T11:56:40Z</time>
      </trkpt>
      <trkpt lat="43.88704" lon="7.28572">
        <ele>1061.813477</ele>
        <time>2011-11-11T11:56:45Z</time>
      </trkpt>
      <trkpt lat="43.88696" lon="7.2857">
        <ele>1062.5448</ele>
        <time>2011-11-11T11:56:50Z</time>
      </trkpt>
      <trkpt lat="43.88689" lon="7.28571">
        <ele>1063.348877</ele>
        <time>2011-11-11T11:56:55Z</time>
      </trkpt>
      <trkpt lat="43.88683" lon="7.2857">
        <ele>1063.835205</ele>
        <time>2011-11-11T11:57:00Z</time>
      </trkpt>
      <trkpt lat="43.88678" lon="7.28566">
        <ele>1064.351318</ele>
        <time>2011-11-11T11:57:05Z</time>
      </trkpt>
      <trkpt lat="43.88671" lon="7.28566">
        <ele>1065.342285</ele>
        <time>2011-11-11T11:57:10Z</time>
      </trkpt>
      <trkpt lat="43.88665" lon="7.2857">
        <ele>1066.445801</ele>
        <time>2011-11-11T11:57:15Z</time>
      </trkpt>
      <trkpt lat="43.88658" lon="7.28572">
        <ele>1067.491211</ele>
        <time>2011-11-11T11:57:20Z</time>
      </trkpt>
      <trkpt lat="43.88651" lon="7.28571">
        <ele>1068.360474</ele>
        <time>2011-11-11T11:57:25Z</time>
      </trkpt>
      <trkpt lat="43.88645" lon="7.28571">
        <ele>1069.105835</ele>
        <time>2011-11-11T11:57:30Z</time>
      </trkpt>
      <trkpt lat="43.88639" lon="7.28572">
        <ele>1069.633057</ele>
        <time>2011-11-11T11:57:35Z</time>
      </trkpt>
      <trkpt lat="43.88633" lon="7.28572">
        <ele>1070.408691</ele>
        <time>2011-11-11T11:57:40Z</time>
      </trkpt>
      <trkpt lat="43.88626" lon="7.28574">
        <ele>1071.194336</ele>
        <time>2011-11-11T11:57:45Z</time>
      </trkpt>
      <trkpt lat="43.8862" lon="7.28576">
        <ele>1071.927856</ele>
        <time>2011-11-11T11:57:50Z</time>
      </trkpt>
      <trkpt lat="43.88614" lon="7.28578">
        <ele>1072.796143</ele>
        <time>2011-11-11T11:57:55Z</time>
      </trkpt>
      <trkpt lat="43.88608" lon="7.2858">
        <ele>1073.647583</ele>
        <time>2011-11-11T11:58:00Z</time>
      </trkpt>
      <trkpt lat="43.88603" lon="7.28583">
        <ele>1074.703369</ele>
        <time>2011-11-11T11:58:05Z</time>
      </trkpt>
      <trkpt lat="43.88597" lon="7.28588">
        <ele>1075.231079</ele>
        <time>2011-11-11T11:58:10Z</time>
      </trkpt>
      <trkpt lat="43.88591" lon="7.28592">
        <ele>1075.611328</ele>
        <time>2011-11-11T11:58:15Z</time>
      </trkpt>
      <trkpt lat="43.88585" lon="7.28597">
        <ele>1076.399902</ele>
        <time>2011-11-11T11:58:20Z</time>
      </trkpt>
      <trkpt lat="43.88578" lon="7.28599">
        <ele>1076.665039</ele>
        <time>2011-11-11T11:58:25Z</time>
      </trkpt>
      <trkpt lat="43.88571" lon="7.28597">
        <ele>1077.477783</ele>
        <time>2011-11-11T11:58:30Z</time>
      </trkpt>
      <trkpt lat="43.88565" lon="7.28594">
        <ele>1078.344482</ele>
        <time>2011-11-11T11:58:35Z</time>
      </trkpt>
      <trkpt lat="43.88559" lon="7.28592">
        <ele>1079.64917</ele>
        <time>2011-11-11T11:58:40Z</time>
      </trkpt>
      <trkpt lat="43.88552" lon="7.28591">
        <ele>1080.092041</ele>
        <time>2011-11-11T11:58:45Z</time>
      </trkpt>
      <trkpt lat="43.88545" lon="7.28589">
        <ele>1080.152466</ele>
        <time>2011-11-11T11:58:50Z</time>
      </trkpt>
      <trkpt lat="43.88538" lon="7.28586">
        <ele>1080.654297</ele>
        <time>2011-11-11T11:58:55Z</time>
      </trkpt>
      <trkpt lat="43.88533" lon="7.28583">
        <ele>1081.087646</ele>
        <time>2011-11-11T11:59:00Z</time>
      </trkpt>
      <trkpt lat="43.88526" lon="7.2858">
        <ele>1081.724854</ele>
        <time>2011-11-11T11:59:05Z</time>
      </trkpt>
      <trkpt lat="43.88519" lon="7.28579">
        <ele>1082.203491</ele>
        <time>2011-11-11T11:59:10Z</time>
      </trkpt>
      <trkpt lat="43.88513" lon="7.28576">
        <ele>1083.204102</ele>
        <time>2011-11-11T11:59:15Z</time>
      </trkpt>
      <trkpt lat="43.88506" lon="7.28575">
        <ele>1083.533813</ele>
        <time>2011-11-11T11:59:20Z</time>
      </trkpt>
      <trkpt lat="43.885" lon="7.28573">
        <ele>1084.052979</ele>
        <time>2011-11-11T11:59:25Z</time>
      </trkpt>
      <trkpt lat="43.88493" lon="7.28571">
        <ele>1084.429565</ele>
        <time>2011-11-11T11:59:30Z</time>
      </trkpt>
      <trkpt lat="43.88487" lon="7.2857">
        <ele>1085.578003</ele>
        <time>2011-11-11T11:59:35Z</time>
      </trkpt>
      <trkpt lat="43.8848" lon="7.28568">
        <ele>1085.903076</ele>
        <time>2011-11-11T11:59:40Z</time>
      </trkpt>
      <trkpt lat="43.88474" lon="7.28566">
        <ele>1086.478882</ele>
        <time>2011-11-11T11:59:45Z</time>
      </trkpt>
      <trkpt lat="43.88466" lon="7.28564">
        <ele>1086.720093</ele>
        <time>2011-11-11T11:59:50Z</time>
      </trkpt>
      <trkpt lat="43.88459" lon="7.28563">
        <ele>1087.316162</ele>
        <time>2011-11-11T11:59:55Z</time>
      </trkpt>
      <trkpt lat="43.88453" lon="7.28562">
        <ele>1088.23291</ele>
        <time>2011-11-11T12:00:00Z</time>
      </trkpt>
      <trkpt lat="43.88446" lon="7.28562">
        <ele>1088.822632</ele>
        <time>2011-11-11T12:00:05Z</time>
      </trkpt>
      <trkpt lat="43.88439" lon="7.28562">
        <ele>1088.491943</ele>
        <time>2011-11-11T12:00:10Z</time>
      </trkpt>
      <trkpt lat="43.88432" lon="7.28563">
        <ele>1089.387451</ele>
        <time>2011-11-11T12:00:15Z</time>
      </trkpt>
      <trkpt lat="43.88426" lon="7.28564">
        <ele>1089.935913</ele>
        <time>2011-11-11T12:00:20Z</time>
      </trkpt>
      <trkpt lat="43.88419" lon="7.28564">
        <ele>1090.612427</ele>
        <time>2011-11-11T12:00:25Z</time>
      </trkpt>
      <trkpt lat="43.88411" lon="7.28564">
        <ele>1091.005615</ele>
        <time>2011-11-11T12:00:30Z</time>
      </trkpt>
      <trkpt lat="43.88405" lon="7.28563">
        <ele>1092.146484</ele>
        <time>2011-11-11T12:00:35Z</time>
      </trkpt>
      <trkpt lat="43.88398" lon="7.28561">
        <ele>1093.337158</ele>
        <time>2011-11-11T12:00:40Z</time>
      </trkpt>
      <trkpt lat="43.88392" lon="7.28557">
        <ele>1093.582153</ele>
        <time>2011-11-11T12:00:45Z</time>
      </trkpt>
      <trkpt lat="43.88386" lon="7.28554">
        <ele>1093.673096</ele>
        <time>2011-11-11T12:00:50Z</time>
      </trkpt>
      <trkpt lat="43.88379" lon="7.28551">
        <ele>1094.348267</ele>
        <time>2011-11-11T12:00:55Z</time>
      </trkpt>
      <trkpt lat="43.88373" lon="7.28548">
        <ele>1095.244263</ele>
        <time>2011-11-11T12:01:00Z</time>
      </trkpt>
      <trkpt lat="43.88367" lon="7.28544">
        <ele>1095.88562</ele>
        <time>2011-11-11T12:01:05Z</time>
      </trkpt>
      <trkpt lat="43.88361" lon="7.2854">
        <ele>1096.674927</ele>
        <time>2011-11-11T12:01:10Z</time>
      </trkpt>
      <trkpt lat="43.88356" lon="7.28536">
        <ele>1096.629028</ele>
        <time>2011-11-11T12:01:15Z</time>
      </trkpt>
      <trkpt lat="43.88351" lon="7.28532">
        <ele>1097.656128</ele>
        <time>2011-11-11T12:01:20Z</time>
      </trkpt>
      <trkpt lat="43.88345" lon="7.28528">
        <ele>1098.678345</ele>
        <time>2011-11-11T12:01:25Z</time>
      </trkpt>
      <trkpt lat="43.88339" lon="7.28525">
        <ele>1098.397827</ele>
        <time>2011-11-11T12:01:30Z</time>
      </trkpt>
      <trkpt lat="43.88333" lon="7.28522">
        <ele>1099.273682</ele>
        <time>2011-11-11T12:01:35Z</time>
      </trkpt>
      <trkpt lat="43.88327" lon="7.2852">
        <ele>1098.935669</ele>
        <time>2011-11-11T12:01:40Z</time>
      </trkpt>
      <trkpt lat="43.8832" lon="7.28518">
        <ele>1098.431763</ele>
        <time>2011-11-11T12:01:45Z</time>
      </trkpt>
      <trkpt lat="43.88314" lon="7.28516">
        <ele>1099.350952</ele>
        <time>2011-11-11T12:01:50Z</time>
      </trkpt>
      <trkpt lat="43.88307" lon="7.28515">
        <ele>1099.603394</ele>
        <time>2011-11-11T12:01:55Z</time>
      </trkpt>
      <trkpt lat="43.88301" lon="7.28515">
        <ele>1099.611328</ele>
        <time>2011-11-11T12:02:00Z</time>
      </trkpt>
      <trkpt lat="43.88294" lon="7.28515">
        <ele>1100.359863</ele>
        <time>2011-11-11T12:02:05Z</time>
      </trkpt>
      <trkpt lat="43.88288" lon="7.28514">
        <ele>1101.393433</ele>
        <time>2011-11-11T12:02:10Z</time>
      </trkpt>
      <trkpt lat="43.88281" lon="7.28513">
        <ele>1102.273926</ele>
        <time>2011-11-11T12:02:15Z</time>
      </trkpt>
      <trkpt lat="43.88274" lon="7.28512">
        <ele>1101.625854</ele>
        <time>2011-11-11T12:02:20Z</time>
      </trkpt>
      <trkpt lat="43.88267" lon="7.2851">
        <ele>1100.855225</ele>
        <time>2011-11-11T12:02:25Z</time>
      </trkpt>
      <trkpt lat="43.8826" lon="7.28508">
        <ele>1100.455933</ele>
        <time>2011-11-11T12:02:30Z</time>
      </trkpt>
      <trkpt lat="43.88253" lon="7.28506">
        <ele>1100.458984</ele>
        <time>2011-11-11T12:02:35Z</time>
      </trkpt>
      <trkpt lat="43.88247" lon="7.28505">
        <ele>1100.46875</ele>
        <time>2011-11-11T12:02:40Z</time>
      </trkpt>
      <trkpt lat="43.8824" lon="7.28502">
        <ele>1100.927734</ele>
        <time>2011-11-11T12:02:45Z</time>
      </trkpt>
      <trkpt lat="43.88233" lon="7.285">
        <ele>1101.803955</ele>
        <time>2011-11-11T12:02:50Z</time>
      </trkpt>
      <trkpt lat="43.88227" lon="7.28499">
        <ele>1101.65918</ele>
        <time>2011-11-11T12:02:55Z</time>
      </trkpt>
      <trkpt lat="43.88219" lon="7.28496">
        <ele>1102.063477</ele>
        <time>2011-11-11T12:03:00Z</time>
      </trkpt>
      <trkpt lat="43.88211" lon="7.28495">
        <ele>1102.859619</ele>
        <time>2011-11-11T12:03:05Z</time>
      </trkpt>
      <trkpt lat="43.88202" lon="7.28494">
        <ele>1103.987183</ele>
        <time>2011-11-11T12:03:10Z</time>
      </trkpt>
      <trkpt lat="43.88193" lon="7.28493">
        <ele>1104.790649</ele>
        <time>2011-11-11T12:03:15Z</time>
      </trkpt>
      <trkpt lat="43.88183" lon="7.28492">
        <ele>1105.35083</ele>
        <time>2011-11-11T12:03:20Z</time>
      </trkpt>
      <trkpt lat="43.88173" lon="7.28492">
        <ele>1105.606323</ele>
        <time>2011-11-11T12:03:25Z</time>
      </trkpt>
      <trkpt lat="43.88164" lon="7.28493">
        <ele>1106.133911</ele>
        <time>2011-11-11T12:03:30Z</time>
      </trkpt>
      <trkpt lat="43.88155" lon="7.28493">
        <ele>1107.815552</ele>
        <time>2011-11-11T12:03:35Z</time>
      </trkpt>
      <trkpt lat="43.88146" lon="7.28494">
        <ele>1108.221558</ele>
        <time>2011-11-11T12:03:40Z</time>
      </trkpt>
      <trkpt lat="43.88137" lon="7.28495">
        <ele>1108.528564</ele>
        <time>2011-11-11T12:03:45Z</time>
      </trkpt>
      <trkpt lat="43.88128" lon="7.28495">
        <ele>1110.008789</ele>
        <time>2011-11-11T12:03:50Z</time>
      </trkpt>
      <trkpt lat="43.88119" lon="7.28495">
        <ele>1109.87915</ele>
        <time>2011-11-11T12:03:55Z</time>
      </trkpt>
      <trkpt lat="43.88109" lon="7.28495">
        <ele>1109.803833</ele>
        <time>2011-11-11T12:04:00Z</time>
      </trkpt>
      <trkpt lat="43.881" lon="7.28494">
        <ele>1109.191406</ele>
        <time>2011-11-11T12:04:05Z</time>
      </trkpt>
      <trkpt lat="43.8809" lon="7.28494">
        <ele>1108.937988</ele>
        <time>2011-11-11T12:04:10Z</time>
      </trkpt>
      <trkpt lat="43.88078" lon="7.28495">
        <ele>1108.442383</ele>
        <time>2011-11-11T12:04:15Z</time>
      </trkpt>
      <trkpt lat="43.88067" lon="7.28495">
        <ele>1108.75061</ele>
        <time>2011-11-11T12:04:20Z</time>
      </trkpt>
      <trkpt lat="43.88057" lon="7.28495">
        <ele>1108.564087</ele>
        <time>2011-11-11T12:04:25Z</time>
      </trkpt>
      <trkpt lat="43.88047" lon="7.28496">
        <ele>1108.857422</ele>
        <time>2011-11-11T12:04:30Z</time>
      </trkpt>
      <trkpt lat="43.88038" lon="7.28497">
        <ele>1109.065308</ele>
        <time>2011-11-11T12:04:35Z</time>
      </trkpt>
      <trkpt lat="43.88028" lon="7.28498">
        <ele>1109.34375</ele>
        <time>2011-11-11T12:04:40Z</time>
      </trkpt>
      <trkpt lat="43.88018" lon="7.28497">
        <ele>1110.049316</ele>
        <time>2011-11-11T12:04:45Z</time>
      </trkpt>
      <trkpt lat="43.88009" lon="7.28497">
        <ele>1110.499634</ele>
        <time>2011-11-11T12:04:50Z</time>
      </trkpt>
      <trkpt lat="43.88" lon="7.28496">
        <ele>1110.7677</ele>
        <time>2011-11-11T12:04:55Z</time>
      </trkpt>
      <trkpt lat="43.87991" lon="7.28495">
        <ele>1111.199097</ele>
        <time>2011-11-11T12:05:00Z</time>
      </trkpt>
      <trkpt lat="43.87982" lon="7.28494">
        <ele>1112.403198</ele>
        <time>2011-11-11T12:05:05Z</time>
      </trkpt>
      <trkpt lat="43.87973" lon="7.28492">
        <ele>1112.694092</ele>
        <time>2011-11-11T12:05:10Z</time>
      </trkpt>
      <trkpt lat="43.87966" lon="7.2849">
        <ele>1113.369263</ele>
        <time>2011-11-11T12:05:15Z</time>
      </trkpt>
      <trkpt lat="43.87958" lon="7.28488">
        <ele>1113.755005</ele>
        <time>2011-11-11T12:05:20Z</time>
      </trkpt>
      <trkpt lat="43.87951" lon="7.28486">
        <ele>1114.603027</ele>
        <time>2011-11-11T12:05:25Z</time>
      </trkpt>
      <trkpt lat="43.87943" lon="7.28483">
        <ele>1115.368042</ele>
        <time>2011-11-11T12:05:30Z</time>
      </trkpt>
      <trkpt lat="43.87936" lon="7.2848">
        <ele>1115.85791</ele>
        <time>2011-11-11T12:05:35Z</time>
      </trkpt>
      <trkpt lat="43.8793" lon="7.28476">
        <ele>1116.269531</ele>
        <time>2011-11-11T12:05:40Z</time>
      </trkpt>
      <trkpt lat="43.87924" lon="7.28473">
        <ele>1116.562622</ele>
        <time>2011-11-11T12:05:45Z</time>
      </trkpt>
      <trkpt lat="43.87919" lon="7.28468">
        <ele>1117.049072</ele>
        <time>2011-11-11T12:05:50Z</time>
      </trkpt>
      <trkpt lat="43.87914" lon="7.28464">
        <ele>1117.229248</ele>
        <time>2011-11-11T12:05:55Z</time>
      </trkpt>
      <trkpt lat="43.87908" lon="7.28458">
        <ele>1117.718994</ele>
        <time>2011-11-11T12:06:00Z</time>
      </trkpt>
      <trkpt lat="43.87903" lon="7.28452">
        <ele>1118.084229</ele>
        <time>2011-11-11T12:06:05Z</time>
      </trkpt>
      <trkpt lat="43.87899" lon="7.28444">
        <ele>1118.57373</ele>
        <time>2011-11-11T12:06:10Z</time>
      </trkpt>
      <trkpt lat="43.87895" lon="7.28437">
        <ele>1119.616089</ele>
        <time>2011-11-11T12:06:15Z</time>
      </trkpt>
      <trkpt lat="43.87891" lon="7.28429">
        <ele>1120.049561</ele>
        <time>2011-11-11T12:06:20Z</time>
      </trkpt>
      <trkpt lat="43.87888" lon="7.28421">
        <ele>1120.434692</ele>
        <time>2011-11-11T12:06:25Z</time>
      </trkpt>
      <trkpt lat="43.87885" lon="7.28414">
        <ele>1120.966064</ele>
        <time>2011-11-11T12:06:30Z</time>
      </trkpt>
      <trkpt lat="43.87881" lon="7.28407">
        <ele>1121.74939</ele>
        <time>2011-11-11T12:06:35Z</time>
      </trkpt>
      <trkpt lat="43.87877" lon="7.28399">
        <ele>1122.823242</ele>
        <time>2011-11-11T12:06:40Z</time>
      </trkpt>
      <trkpt lat="43.87875" lon="7.28391">
        <ele>1123.959106</ele>
        <time>2011-11-11T12:06:45Z</time>
      </trkpt>
      <trkpt lat="43.87874" lon="7.28382">
        <ele>1125.015503</ele>
        <time>2011-11-11T12:06:50Z</time>
      </trkpt>
      <trkpt lat="43.87874" lon="7.28373">
        <ele>1125.317139</ele>
        <time>2011-11-11T12:06:55Z</time>
      </trkpt>
      <trkpt lat="43.87873" lon="7.28364">
        <ele>1125.824585</ele>
        <time>2011-11-11T12:07:00Z</time>
      </trkpt>
      <trkpt lat="43.87873" lon="7.28355">
        <ele>1126.972046</ele>
        <time>2011-11-11T12:07:05Z</time>
      </trkpt>
      <trkpt lat="43.87873" lon="7.28347">
        <ele>1128.28894</ele>
        <time>2011-11-11T12:07:10Z</time>
      </trkpt>
      <trkpt lat="43.87873" lon="7.28339">
        <ele>1130.204102</ele>
        <time>2011-11-11T12:07:15Z</time>
      </trkpt>
      <trkpt lat="43.87873" lon="7.28331">
        <ele>1130.593628</ele>
        <time>2011-11-11T12:07:20Z</time>
      </trkpt>
      <trkpt lat="43.87871" lon="7.28323">
        <ele>1131.520874</ele>
        <time>2011-11-11T12:07:25Z</time>
      </trkpt>
      <trkpt lat="43.87871" lon="7.28315">
        <ele>1132.142456</ele>
        <time>2011-11-11T12:07:30Z</time>
      </trkpt>
      <trkpt lat="43.8787" lon="7.28308">
        <ele>1131.960571</ele>
        <time>2011-11-11T12:07:35Z</time>
      </trkpt>
      <trkpt lat="43.87869" lon="7.283">
        <ele>1132.238037</ele>
        <time>2011-11-11T12:07:40Z</time>
      </trkpt>
      <trkpt lat="43.87869" lon="7.28291">
        <ele>1132.533569</ele>
        <time>2011-11-11T12:07:45Z</time>
      </trkpt>
      <trkpt lat="43.87868" lon="7.28283">
        <ele>1132.949951</ele>
        <time>2011-11-11T12:07:50Z</time>
      </trkpt>
      <trkpt lat="43.87867" lon="7.28274">
        <ele>1133.244995</ele>
        <time>2011-11-11T12:07:55Z</time>
      </trkpt>
      <trkpt lat="43.87866" lon="7.28265">
        <ele>1133.401001</ele>
        <time>2011-11-11T12:08:00Z</time>
      </trkpt>
      <trkpt lat="43.87864" lon="7.28257">
        <ele>1133.913208</ele>
        <time>2011-11-11T12:08:05Z</time>
      </trkpt>
      <trkpt lat="43.87863" lon="7.28249">
        <ele>1134.136597</ele>
        <time>2011-11-11T12:08:10Z</time>
      </trkpt>
      <trkpt lat="43.87862" lon="7.2824">
        <ele>1134.628784</ele>
        <time>2011-11-11T12:08:15Z</time>
      </trkpt>
      <trkpt lat="43.87861" lon="7.28232">
        <ele>1135.102417</ele>
        <time>2011-11-11T12:08:20Z</time>
      </trkpt>
      <trkpt lat="43.8786" lon="7.28224">
        <ele>1135.746704</ele>
        <time>2011-11-11T12:08:25Z</time>
      </trkpt>
      <trkpt lat="43.8786" lon="7.28215">
        <ele>1136.815063</ele>
        <time>2011-11-11T12:08:30Z</time>
      </trkpt>
      <trkpt lat="43.87859" lon="7.28207">
        <ele>1136.966675</ele>
        <time>2011-11-11T12:08:35Z</time>
      </trkpt>
      <trkpt lat="43.87858" lon="7.28199">
        <ele>1137.389648</ele>
        <time>2011-11-11T12:08:40Z</time>
      </trkpt>
      <trkpt lat="43.87857" lon="7.28192">
        <ele>1138.46167</ele>
        <time>2011-11-11T12:08:45Z</time>
      </trkpt>
      <trkpt lat="43.87855" lon="7.28183">
        <ele>1139.271973</ele>
        <time>2011-11-11T12:08:50Z</time>
      </trkpt>
      <trkpt lat="43.87851" lon="7.28177">
        <ele>1140.258423</ele>
        <time>2011-11-11T12:08:55Z</time>
      </trkpt>
      <trkpt lat="43.87848" lon="7.28171">
        <ele>1140.740112</ele>
        <time>2011-11-11T12:09:00Z</time>
      </trkpt>
      <trkpt lat="43.87844" lon="7.28165">
        <ele>1141.170654</ele>
        <time>2011-11-11T12:09:05Z</time>
      </trkpt>
      <trkpt lat="43.8784" lon="7.2816">
        <ele>1142.047485</ele>
        <time>2011-11-11T12:09:10Z</time>
      </trkpt>
      <trkpt lat="43.87835" lon="7.28156">
        <ele>1142.271851</ele>
        <time>2011-11-11T12:09:15Z</time>
      </trkpt>
      <trkpt lat="43.8783" lon="7.28151">
        <ele>1143.050659</ele>
        <time>2011-11-11T12:09:20Z</time>
      </trkpt>
      <trkpt lat="43.87825" lon="7.28147">
        <ele>1143.760254</ele>
        <time>2011-11-11T12:09:25Z</time>
      </trkpt>
      <trkpt lat="43.8782" lon="7.28143">
        <ele>1144.484497</ele>
        <time>2011-11-11T12:09:30Z</time>
      </trkpt>
      <trkpt lat="43.87816" lon="7.28138">
        <ele>1145.159912</ele>
        <time>2011-11-11T12:09:35Z</time>
      </trkpt>
      <trkpt lat="43.8781" lon="7.28135">
        <ele>1145.98291</ele>
        <time>2011-11-11T12:09:40Z</time>
      </trkpt>
      <trkpt lat="43.87805" lon="7.28131">
        <ele>1146.432739</ele>
        <time>2011-11-11T12:09:45Z</time>
      </trkpt>
      <trkpt lat="43.878" lon="7.28127">
        <ele>1146.859985</ele>
        <time>2011-11-11T12:09:50Z</time>
      </trkpt>
      <trkpt lat="43.87795" lon="7.28122">
        <ele>1148.112915</ele>
        <time>2011-11-11T12:09:55Z</time>
      </trkpt>
      <trkpt lat="43.8779" lon="7.28117">
        <ele>1148.89917</ele>
        <time>2011-11-11T12:10:00Z</time>
      </trkpt>
      <trkpt lat="43.87785" lon="7.28112">
        <ele>1149.93042</ele>
        <time>2011-11-11T12:10:05Z</time>
      </trkpt>
      <trkpt lat="43.87779" lon="7.28108">
        <ele>1150.878052</ele>
        <time>2011-11-11T12:10:10Z</time>
      </trkpt>
      <trkpt lat="43.87774" lon="7.28103">
        <ele>1151.600464</ele>
        <time>2011-11-11T12:10:15Z</time>
      </trkpt>
      <trkpt lat="43.8777" lon="7.28098">
        <ele>1153.437866</ele>
        <time>2011-11-11T12:10:20Z</time>
      </trkpt>
      <trkpt lat="43.87766" lon="7.28092">
        <ele>1154.440674</ele>
        <time>2011-11-11T12:10:25Z</time>
      </trkpt>
      <trkpt lat="43.87762" lon="7.28087">
        <ele>1156.123413</ele>
        <time>2011-11-11T12:10:30Z</time>
      </trkpt>
      <trkpt lat="43.87757" lon="7.28082">
        <ele>1157.294678</ele>
        <time>2011-11-11T12:10:35Z</time>
      </trkpt>
      <trkpt lat="43.87753" lon="7.28077">
        <ele>1158.224609</ele>
        <time>2011-11-11T12:10:40Z</time>
      </trkpt>
      <trkpt lat="43.87749" lon="7.28071">
        <ele>1158.469116</ele>
        <time>2011-11-11T12:10:45Z</time>
      </trkpt>
      <trkpt lat="43.87744" lon="7.28066">
        <ele>1158.707886</ele>
        <time>2011-11-11T12:10:50Z</time>
      </trkpt>
      <trkpt lat="43.8774" lon="7.28061">
        <ele>1159.242065</ele>
        <time>2011-11-11T12:10:55Z</time>
      </trkpt>
      <trkpt lat="43.87735" lon="7.28056">
        <ele>1159.632202</ele>
        <time>2011-11-11T12:11:00Z</time>
      </trkpt>
      <trkpt lat="43.87729" lon="7.28053">
        <ele>1159.21228</ele>
        <time>2011-11-11T12:11:05Z</time>
      </trkpt>
      <trkpt lat="43.87724" lon="7.28049">
        <ele>1160.25647</ele>
        <time>2011-11-11T12:11:10Z</time>
      </trkpt>
      <trkpt lat="43.87719" lon="7.28046">
        <ele>1161.20874</ele>
        <time>2011-11-11T12:11:15Z</time>
      </trkpt>
      <trkpt lat="43.87713" lon="7.28044">
        <ele>1161.699585</ele>
        <time>2011-11-11T12:11:20Z</time>
      </trkpt>
      <trkpt lat="43.87707" lon="7.28042">
        <ele>1162.520264</ele>
        <time>2011-11-11T12:11:25Z</time>
      </trkpt>
      <trkpt lat="43.87702" lon="7.28038">
        <ele>1163.233276</ele>
        <time>2011-11-11T12:11:30Z</time>
      </trkpt>
      <trkpt lat="43.87697" lon="7.28035">
        <ele>1164.63147</ele>
        <time>2011-11-11T12:11:35Z</time>
      </trkpt>
      <trkpt lat="43.87692" lon="7.2803">
        <ele>1165.186646</ele>
        <time>2011-11-11T12:11:40Z</time>
      </trkpt>
      <trkpt lat="43.87687" lon="7.28026">
        <ele>1166.040405</ele>
        <time>2011-11-11T12:11:45Z</time>
      </trkpt>
      <trkpt lat="43.87682" lon="7.28021">
        <ele>1166.966309</ele>
        <time>2011-11-11T12:11:50Z</time>
      </trkpt>
      <trkpt lat="43.87675" lon="7.28015">
        <ele>1167.384644</ele>
        <time>2011-11-11T12:11:55Z</time>
      </trkpt>
      <trkpt lat="43.87671" lon="7.28011">
        <ele>1168.059814</ele>
        <time>2011-11-11T12:12:00Z</time>
      </trkpt>
      <trkpt lat="43.87666" lon="7.28007">
        <ele>1167.790161</ele>
        <time>2011-11-11T12:12:05Z</time>
      </trkpt>
      <trkpt lat="43.87661" lon="7.28004">
        <ele>1168.058838</ele>
        <time>2011-11-11T12:12:10Z</time>
      </trkpt>
      <trkpt lat="43.87656" lon="7.28">
        <ele>1169.87146</ele>
        <time>2011-11-11T12:12:15Z</time>
      </trkpt>
      <trkpt lat="43.8765" lon="7.27997">
        <ele>1170.470337</ele>
        <time>2011-11-11T12:12:20Z</time>
      </trkpt>
      <trkpt lat="43.87645" lon="7.27994">
        <ele>1171.017578</ele>
        <time>2011-11-11T12:12:25Z</time>
      </trkpt>
      <trkpt lat="43.8764" lon="7.2799">
        <ele>1172.093384</ele>
        <time>2011-11-11T12:12:30Z</time>
      </trkpt>
      <trkpt lat="43.87634" lon="7.27986">
        <ele>1172.905884</ele>
        <time>2011-11-11T12:12:35Z</time>
      </trkpt>
      <trkpt lat="43.87629" lon="7.27982">
        <ele>1173.517822</ele>
        <time>2011-11-11T12:12:40Z</time>
      </trkpt>
      <trkpt lat="43.87623" lon="7.27979">
        <ele>1174.401489</ele>
        <time>2011-11-11T12:12:45Z</time>
      </trkpt>
      <trkpt lat="43.87618" lon="7.27976">
        <ele>1175.737305</ele>
        <time>2011-11-11T12:12:50Z</time>
      </trkpt>
      <trkpt lat="43.87613" lon="7.27973">
        <ele>1176.119629</ele>
        <time>2011-11-11T12:12:55Z</time>
      </trkpt>
      <trkpt lat="43.87608" lon="7.27971">
        <ele>1174.782837</ele>
        <time>2011-11-11T12:13:00Z</time>
      </trkpt>
      <trkpt lat="43.87602" lon="7.27969">
        <ele>1175.422241</ele>
        <time>2011-11-11T12:13:05Z</time>
      </trkpt>
      <trkpt lat="43.87597" lon="7.27968">
        <ele>1176.021973</ele>
        <time>2011-11-11T12:13:10Z</time>
      </trkpt>
      <trkpt lat="43.87591" lon="7.27967">
        <ele>1177.071777</ele>
        <time>2011-11-11T12:13:15Z</time>
      </trkpt>
      <trkpt lat="43.87585" lon="7.27966">
        <ele>1177.728149</ele>
        <time>2011-11-11T12:13:20Z</time>
      </trkpt>
      <trkpt lat="43.8758" lon="7.27965">
        <ele>1178.151855</ele>
        <time>2011-11-11T12:13:25Z</time>
      </trkpt>
      <trkpt lat="43.87574" lon="7.27963">
        <ele>1178.638428</ele>
        <time>2011-11-11T12:13:30Z</time>
      </trkpt>
      <trkpt lat="43.87568" lon="7.27962">
        <ele>1178.918091</ele>
        <time>2011-11-11T12:13:35Z</time>
      </trkpt>
      <trkpt lat="43.87562" lon="7.27959">
        <ele>1178.809326</ele>
        <time>2011-11-11T12:13:40Z</time>
      </trkpt>
      <trkpt lat="43.87557" lon="7.27954">
        <ele>1179.050049</ele>
        <time>2011-11-11T12:13:45Z</time>
      </trkpt>
      <trkpt lat="43.87553" lon="7.27949">
        <ele>1180.165405</ele>
        <time>2011-11-11T12:13:50Z</time>
      </trkpt>
      <trkpt lat="43.87549" lon="7.27943">
        <ele>1180.939575</ele>
        <time>2011-11-11T12:13:55Z</time>
      </trkpt>
      <trkpt lat="43.87544" lon="7.27937">
        <ele>1183.259888</ele>
        <time>2011-11-11T12:14:00Z</time>
      </trkpt>
      <trkpt lat="43.87539" lon="7.27931">
        <ele>1183.578613</ele>
        <time>2011-11-11T12:14:05Z</time>
      </trkpt>
      <trkpt lat="43.87534" lon="7.27927">
        <ele>1184.954224</ele>
        <time>2011-11-11T12:14:10Z</time>
      </trkpt>
      <trkpt lat="43.87529" lon="7.27922">
        <ele>1186.296631</ele>
        <time>2011-11-11T12:14:15Z</time>
      </trkpt>
      <trkpt lat="43.87524" lon="7.27917">
        <ele>1187.099487</ele>
        <time>2011-11-11T12:14:20Z</time>
      </trkpt>
      <trkpt lat="43.87519" lon="7.27912">
        <ele>1188.185303</ele>
        <time>2011-11-11T12:14:25Z</time>
      </trkpt>
      <trkpt lat="43.87515" lon="7.27909">
        <ele>1189.574585</ele>
        <time>2011-11-11T12:14:30Z</time>
      </trkpt>
      <trkpt lat="43.8751" lon="7.27902">
        <ele>1190.195801</ele>
        <time>2011-11-11T12:14:35Z</time>
      </trkpt>
      <trkpt lat="43.87507" lon="7.27897">
        <ele>1190.829956</ele>
        <time>2011-11-11T12:14:40Z</time>
      </trkpt>
      <trkpt lat="43.87504" lon="7.27889">
        <ele>1191.439209</ele>
        <time>2011-11-11T12:14:45Z</time>
      </trkpt>
      <trkpt lat="43.87502" lon="7.27882">
        <ele>1193.336182</ele>
        <time>2011-11-11T12:14:50Z</time>
      </trkpt>
      <trkpt lat="43.87503" lon="7.27875">
        <ele>1196.515869</ele>
        <time>2011-11-11T12:14:55Z</time>
      </trkpt>
      <trkpt lat="43.875" lon="7.27867">
        <ele>1197.398804</ele>
        <time>2011-11-11T12:15:00Z</time>
      </trkpt>
      <trkpt lat="43.87497" lon="7.27859">
        <ele>1197.906738</ele>
        <time>2011-11-11T12:15:05Z</time>
      </trkpt>
      <trkpt lat="43.87494" lon="7.27852">
        <ele>1199.114624</ele>
        <time>2011-11-11T12:15:10Z</time>
      </trkpt>
      <trkpt lat="43.87491" lon="7.27845">
        <ele>1199.456909</ele>
        <time>2011-11-11T12:15:15Z</time>
      </trkpt>
      <trkpt lat="43.87487" lon="7.27837">
        <ele>1198.547852</ele>
        <time>2011-11-11T12:15:20Z</time>
      </trkpt>
      <trkpt lat="43.87482" lon="7.27831">
        <ele>1198.246216</ele>
        <time>2011-11-11T12:15:25Z</time>
      </trkpt>
      <trkpt lat="43.87477" lon="7.27824">
        <ele>1198.470825</ele>
        <time>2011-11-11T12:15:30Z</time>
      </trkpt>
      <trkpt lat="43.87473" lon="7.27819">
        <ele>1198.484985</ele>
        <time>2011-11-11T12:15:35Z</time>
      </trkpt>
      <trkpt lat="43.87467" lon="7.27812">
        <ele>1198.005249</ele>
        <time>2011-11-11T12:15:40Z</time>
      </trkpt>
      <trkpt lat="43.87463" lon="7.27806">
        <ele>1198.405029</ele>
        <time>2011-11-11T12:15:45Z</time>
      </trkpt>
      <trkpt lat="43.87459" lon="7.27799">
        <ele>1198.848389</ele>
        <time>2011-11-11T12:15:50Z</time>
      </trkpt>
      <trkpt lat="43.87454" lon="7.27793">
        <ele>1199.798218</ele>
        <time>2011-11-11T12:15:55Z</time>
      </trkpt>
      <trkpt lat="43.87447" lon="7.27786">
        <ele>1198.602417</ele>
        <time>2011-11-11T12:16:00Z</time>
      </trkpt>
      <trkpt lat="43.8744" lon="7.27778">
        <ele>1197.882813</ele>
        <time>2011-11-11T12:16:05Z</time>
      </trkpt>
      <trkpt lat="43.87433" lon="7.27769">
        <ele>1197.496948</ele>
        <time>2011-11-11T12:16:10Z</time>
      </trkpt>
      <trkpt lat="43.87428" lon="7.2776">
        <ele>1197.422241</ele>
        <time>2011-11-11T12:16:15Z</time>
      </trkpt>
      <trkpt lat="43.87422" lon="7.27753">
        <ele>1197.560059</ele>
        <time>2011-11-11T12:16:20Z</time>
      </trkpt>
      <trkpt lat="43.87417" lon="7.27759">
        <ele>1197.519653</ele>
        <time>2011-11-11T12:16:25Z</time>
      </trkpt>
      <trkpt lat="43.87422" lon="7.27769">
        <ele>1198.092285</ele>
        <time>2011-11-11T12:16:30Z</time>
      </trkpt>
      <trkpt lat="43.87429" lon="7.27777">
        <ele>1198.099243</ele>
        <time>2011-11-11T12:16:35Z</time>
      </trkpt>
      <trkpt lat="43.87436" lon="7.27785">
        <ele>1198.375732</ele>
        <time>2011-11-11T12:16:40Z</time>
      </trkpt>
      <trkpt lat="43.87442" lon="7.27794">
        <ele>1198.803711</ele>
        <time>2011-11-11T12:16:45Z</time>
      </trkpt>
      <trkpt lat="43.87448" lon="7.27804">
        <ele>1198.878174</ele>
        <time>2011-11-11T12:16:50Z</time>
      </trkpt>
      <trkpt lat="43.87454" lon="7.27817">
        <ele>1199.831909</ele>
        <time>2011-11-11T12:16:55Z</time>
      </trkpt>
      <trkpt lat="43.87461" lon="7.27829">
        <ele>1200.181396</ele>
        <time>2011-11-11T12:17:00Z</time>
      </trkpt>
      <trkpt lat="43.87468" lon="7.27839">
        <ele>1200.712402</ele>
        <time>2011-11-11T12:17:05Z</time>
      </trkpt>
      <trkpt lat="43.87475" lon="7.27852">
        <ele>1200.240723</ele>
        <time>2011-11-11T12:17:10Z</time>
      </trkpt>
      <trkpt lat="43.8748" lon="7.27868">
        <ele>1201.302002</ele>
        <time>2011-11-11T12:17:15Z</time>
      </trkpt>
      <trkpt lat="43.87484" lon="7.27881">
        <ele>1203.990356</ele>
        <time>2011-11-11T12:17:20Z</time>
      </trkpt>
      <trkpt lat="43.87485" lon="7.27896">
        <ele>1203.53064</ele>
        <time>2011-11-11T12:17:25Z</time>
      </trkpt>
      <trkpt lat="43.87484" lon="7.2791">
        <ele>1203.151245</ele>
        <time>2011-11-11T12:17:30Z</time>
      </trkpt>
      <trkpt lat="43.87485" lon="7.27923">
        <ele>1202.547974</ele>
        <time>2011-11-11T12:17:35Z</time>
      </trkpt>
      <trkpt lat="43.87482" lon="7.27934">
        <ele>1203.724121</ele>
        <time>2011-11-11T12:17:40Z</time>
      </trkpt>
      <trkpt lat="43.87476" lon="7.27938">
        <ele>1204.087158</ele>
        <time>2011-11-11T12:17:45Z</time>
      </trkpt>
      <trkpt lat="43.87475" lon="7.27937">
        <ele>1203.496338</ele>
        <time>2011-11-11T12:18:40Z</time>
      </trkpt>
      <trkpt lat="43.87474" lon="7.27937">
        <ele>1203.166504</ele>
        <time>2011-11-11T12:18:45Z</time>
      </trkpt>
      <trkpt lat="43.87474" lon="7.27936">
        <ele>1204.139038</ele>
        <time>2011-11-11T12:20:30Z</time>
      </trkpt>
      <trkpt lat="43.87475" lon="7.27935">
        <ele>1204.30481</ele>
        <time>2011-11-11T12:20:35Z</time>
      </trkpt>
      <trkpt lat="43.87476" lon="7.27925">
        <ele>1204.670288</ele>
        <time>2011-11-11T12:20:40Z</time>
      </trkpt>
      <trkpt lat="43.87475" lon="7.2791">
        <ele>1205.557495</ele>
        <time>2011-11-11T12:20:45Z</time>
      </trkpt>
      <trkpt lat="43.87475" lon="7.27895">
        <ele>1207.415894</ele>
        <time>2011-11-11T12:20:50Z</time>
      </trkpt>
      <trkpt lat="43.87472" lon="7.27882">
        <ele>1208.193726</ele>
        <time>2011-11-11T12:20:55Z</time>
      </trkpt>
      <trkpt lat="43.87469" lon="7.2787">
        <ele>1209.739258</ele>
        <time>2011-11-11T12:21:00Z</time>
      </trkpt>
      <trkpt lat="43.87464" lon="7.27859">
        <ele>1209.876343</ele>
        <time>2011-11-11T12:21:05Z</time>
      </trkpt>
      <trkpt lat="43.87459" lon="7.27851">
        <ele>1210.38269</ele>
        <time>2011-11-11T12:21:10Z</time>
      </trkpt>
      <trkpt lat="43.87451" lon="7.27847">
        <ele>1211.832642</ele>
        <time>2011-11-11T12:21:15Z</time>
      </trkpt>
      <trkpt lat="43.87445" lon="7.27842">
        <ele>1213.113037</ele>
        <time>2011-11-11T12:21:20Z</time>
      </trkpt>
      <trkpt lat="43.87439" lon="7.27835">
        <ele>1213.582886</ele>
        <time>2011-11-11T12:21:25Z</time>
      </trkpt>
      <trkpt lat="43.87432" lon="7.27829">
        <ele>1213.739014</ele>
        <time>2011-11-11T12:21:30Z</time>
      </trkpt>
      <trkpt lat="43.87425" lon="7.27822">
        <ele>1215.552002</ele>
        <time>2011-11-11T12:21:35Z</time>
      </trkpt>
      <trkpt lat="43.87418" lon="7.27814">
        <ele>1216.317017</ele>
        <time>2011-11-11T12:21:40Z</time>
      </trkpt>
      <trkpt lat="43.87409" lon="7.27806">
        <ele>1216.848145</ele>
        <time>2011-11-11T12:21:45Z</time>
      </trkpt>
      <trkpt lat="43.87401" lon="7.27796">
        <ele>1217.647949</ele>
        <time>2011-11-11T12:21:50Z</time>
      </trkpt>
      <trkpt lat="43.87395" lon="7.27785">
        <ele>1217.861938</ele>
        <time>2011-11-11T12:21:55Z</time>
      </trkpt>
      <trkpt lat="43.87389" lon="7.27774">
        <ele>1218.487671</ele>
        <time>2011-11-11T12:22:00Z</time>
      </trkpt>
      <trkpt lat="43.87384" lon="7.27762">
        <ele>1219.487793</ele>
        <time>2011-11-11T12:22:05Z</time>
      </trkpt>
      <trkpt lat="43.87378" lon="7.27752">
        <ele>1220.515503</ele>
        <time>2011-11-11T12:22:10Z</time>
      </trkpt>
      <trkpt lat="43.87373" lon="7.27744">
        <ele>1221.273682</ele>
        <time>2011-11-11T12:22:15Z</time>
      </trkpt>
      <trkpt lat="43.87372" lon="7.27744">
        <ele>1225.105713</ele>
        <time>2011-11-11T12:30:00Z</time>
      </trkpt>
      <trkpt lat="43.87365" lon="7.27745">
        <ele>1224.266113</ele>
        <time>2011-11-11T12:30:05Z</time>
      </trkpt>
      <trkpt lat="43.87343" lon="7.27738">
        <ele>1221.66626</ele>
        <time>2011-11-11T12:30:10Z</time>
      </trkpt>
      <trkpt lat="43.87321" lon="7.27749">
        <ele>1216.841064</ele>
        <time>2011-11-11T12:30:15Z</time>
      </trkpt>
      <trkpt lat="43.87303" lon="7.27763">
        <ele>1212.270386</ele>
        <time>2011-11-11T12:30:20Z</time>
      </trkpt>
      <trkpt lat="43.87286" lon="7.27773">
        <ele>1210.936035</ele>
        <time>2011-11-11T12:30:25Z</time>
      </trkpt>
      <trkpt lat="43.87271" lon="7.27785">
        <ele>1210.168457</ele>
        <time>2011-11-11T12:30:30Z</time>
      </trkpt>
      <trkpt lat="43.87252" lon="7.27802">
        <ele>1207.682373</ele>
        <time>2011-11-11T12:30:35Z</time>
      </trkpt>
      <trkpt lat="43.87233" lon="7.27814">
        <ele>1205.099976</ele>
        <time>2011-11-11T12:30:40Z</time>
      </trkpt>
      <trkpt lat="43.87214" lon="7.27824">
        <ele>1199.568359</ele>
        <time>2011-11-11T12:30:45Z</time>
      </trkpt>
      <trkpt lat="43.87204" lon="7.27835">
        <ele>1195.712402</ele>
        <time>2011-11-11T12:30:50Z</time>
      </trkpt>
      <trkpt lat="43.8719" lon="7.27852">
        <ele>1191.0979</ele>
        <time>2011-11-11T12:30:55Z</time>
      </trkpt>
      <trkpt lat="43.87172" lon="7.27872">
        <ele>1186.800171</ele>
        <time>2011-11-11T12:31:00Z</time>
      </trkpt>
      <trkpt lat="43.87153" lon="7.27907">
        <ele>1180.981323</ele>
        <time>2011-11-11T12:31:05Z</time>
      </trkpt>
      <trkpt lat="43.87153" lon="7.27912">
        <ele>1181.149658</ele>
        <time>2011-11-11T12:31:10Z</time>
      </trkpt>
      <trkpt lat="43.87152" lon="7.27913">
        <ele>1183.19519</ele>
        <time>2011-11-11T12:31:15Z</time>
      </trkpt>
      <trkpt lat="43.87152" lon="7.27913">
        <ele>1183.194214</ele>
        <time>2011-11-11T12:31:20Z</time>
      </trkpt>
      <trkpt lat="43.87152" lon="7.27913">
        <ele>1182.924194</ele>
        <time>2011-11-11T12:31:25Z</time>
      </trkpt>
      <trkpt lat="43.87152" lon="7.27916">
        <ele>1182.910645</ele>
        <time>2011-11-11T12:31:30Z</time>
      </trkpt>
      <trkpt lat="43.87153" lon="7.27938">
        <ele>1185.491333</ele>
        <time>2011-11-11T12:31:35Z</time>
      </trkpt>
      <trkpt lat="43.87153" lon="7.27955">
        <ele>1186.143066</ele>
        <time>2011-11-11T12:31:40Z</time>
      </trkpt>
      <trkpt lat="43.87152" lon="7.27975">
        <ele>1183.888672</ele>
        <time>2011-11-11T12:31:45Z</time>
      </trkpt>
      <trkpt lat="43.87149" lon="7.27985">
        <ele>1182.116699</ele>
        <time>2011-11-11T12:31:50Z</time>
      </trkpt>
      <trkpt lat="43.87149" lon="7.27985">
        <ele>1182.004883</ele>
        <time>2011-11-11T12:31:55Z</time>
      </trkpt>
      <trkpt lat="43.87149" lon="7.27985">
        <ele>1181.981201</ele>
        <time>2011-11-11T12:32:00Z</time>
      </trkpt>
      <trkpt lat="43.87149" lon="7.27985">
        <ele>1181.952271</ele>
        <time>2011-11-11T12:32:05Z</time>
      </trkpt>
      <trkpt lat="43.87149" lon="7.27985">
        <ele>1182.00061</ele>
        <time>2011-11-11T12:32:10Z</time>
      </trkpt>
      <trkpt lat="43.87146" lon="7.28004">
        <ele>1179.714722</ele>
        <time>2011-11-11T12:32:15Z</time>
      </trkpt>
      <trkpt lat="43.87142" lon="7.28018">
        <ele>1176.069702</ele>
        <time>2011-11-11T12:32:20Z</time>
      </trkpt>
      <trkpt lat="43.8714" lon="7.28032">
        <ele>1170.657227</ele>
        <time>2011-11-11T12:32:25Z</time>
      </trkpt>
      <trkpt lat="43.87135" lon="7.28054">
        <ele>1165.75354</ele>
        <time>2011-11-11T12:32:30Z</time>
      </trkpt>
      <trkpt lat="43.87135" lon="7.28053">
        <ele>1165.816528</ele>
        <time>2011-11-11T12:32:35Z</time>
      </trkpt>
      <trkpt lat="43.87131" lon="7.28054">
        <ele>1164.31604</ele>
        <time>2011-11-11T12:32:40Z</time>
      </trkpt>
      <trkpt lat="43.87124" lon="7.28065">
        <ele>1160.276123</ele>
        <time>2011-11-11T12:32:45Z</time>
      </trkpt>
      <trkpt lat="43.8712" lon="7.28086">
        <ele>1154.609131</ele>
        <time>2011-11-11T12:32:50Z</time>
      </trkpt>
      <trkpt lat="43.87112" lon="7.28092">
        <ele>1151.189697</ele>
        <time>2011-11-11T12:32:55Z</time>
      </trkpt>
      <trkpt lat="43.8711" lon="7.28103">
        <ele>1147.469116</ele>
        <time>2011-11-11T12:33:00Z</time>
      </trkpt>
      <trkpt lat="43.87111" lon="7.28107">
        <ele>1146.623535</ele>
        <time>2011-11-11T12:33:05Z</time>
      </trkpt>
      <trkpt lat="43.87111" lon="7.28114">
        <ele>1144.734741</ele>
        <time>2011-11-11T12:33:10Z</time>
      </trkpt>
      <trkpt lat="43.87111" lon="7.28113">
        <ele>1144.938721</ele>
        <time>2011-11-11T12:33:15Z</time>
      </trkpt>
      <trkpt lat="43.87113" lon="7.28113">
        <ele>1145.59668</ele>
        <time>2011-11-11T12:33:20Z</time>
      </trkpt>
      <trkpt lat="43.87117" lon="7.28114">
        <ele>1144.375122</ele>
        <time>2011-11-11T12:33:25Z</time>
      </trkpt>
      <trkpt lat="43.87116" lon="7.28122">
        <ele>1143.286133</ele>
        <time>2011-11-11T12:33:30Z</time>
      </trkpt>
      <trkpt lat="43.87113" lon="7.28133">
        <ele>1141.196655</ele>
        <time>2011-11-11T12:33:35Z</time>
      </trkpt>
      <trkpt lat="43.87103" lon="7.28142">
        <ele>1137.041626</ele>
        <time>2011-11-11T12:33:40Z</time>
      </trkpt>
      <trkpt lat="43.87094" lon="7.28144">
        <ele>1133.300049</ele>
        <time>2011-11-11T12:33:45Z</time>
      </trkpt>
      <trkpt lat="43.87088" lon="7.28161">
        <ele>1129.244995</ele>
        <time>2011-11-11T12:33:50Z</time>
      </trkpt>
      <trkpt lat="43.87085" lon="7.28173">
        <ele>1126.284424</ele>
        <time>2011-11-11T12:33:55Z</time>
      </trkpt>
      <trkpt lat="43.87087" lon="7.28185">
        <ele>1123.295898</ele>
        <time>2011-11-11T12:34:00Z</time>
      </trkpt>
      <trkpt lat="43.87086" lon="7.28192">
        <ele>1119.466431</ele>
        <time>2011-11-11T12:34:25Z</time>
      </trkpt>
      <trkpt lat="43.87083" lon="7.28191">
        <ele>1118.90979</ele>
        <time>2011-11-11T12:34:30Z</time>
      </trkpt>
      <trkpt lat="43.87075" lon="7.28188">
        <ele>1115.579468</ele>
        <time>2011-11-11T12:34:35Z</time>
      </trkpt>
      <trkpt lat="43.87072" lon="7.28189">
        <ele>1113.660645</ele>
        <time>2011-11-11T12:34:40Z</time>
      </trkpt>
      <trkpt lat="43.87072" lon="7.28203">
        <ele>1112.147339</ele>
        <time>2011-11-11T12:34:45Z</time>
      </trkpt>
      <trkpt lat="43.87073" lon="7.28211">
        <ele>1110.44519</ele>
        <time>2011-11-11T12:34:50Z</time>
      </trkpt>
      <trkpt lat="43.87075" lon="7.28226">
        <ele>1107.254395</ele>
        <time>2011-11-11T12:34:55Z</time>
      </trkpt>
      <trkpt lat="43.87072" lon="7.28244">
        <ele>1103.217773</ele>
        <time>2011-11-11T12:35:00Z</time>
      </trkpt>
      <trkpt lat="43.87066" lon="7.28258">
        <ele>1099.183228</ele>
        <time>2011-11-11T12:35:05Z</time>
      </trkpt>
      <trkpt lat="43.87064" lon="7.28272">
        <ele>1095.885132</ele>
        <time>2011-11-11T12:35:10Z</time>
      </trkpt>
      <trkpt lat="43.87065" lon="7.28272">
        <ele>1095.106812</ele>
        <time>2011-11-11T12:35:40Z</time>
      </trkpt>
      <trkpt lat="43.87062" lon="7.28281">
        <ele>1093.817505</ele>
        <time>2011-11-11T12:35:45Z</time>
      </trkpt>
      <trkpt lat="43.87053" lon="7.28305">
        <ele>1090.006714</ele>
        <time>2011-11-11T12:35:50Z</time>
      </trkpt>
      <trkpt lat="43.87049" lon="7.28332">
        <ele>1086.122559</ele>
        <time>2011-11-11T12:35:55Z</time>
      </trkpt>
      <trkpt lat="43.87044" lon="7.28355">
        <ele>1082.435913</ele>
        <time>2011-11-11T12:36:00Z</time>
      </trkpt>
      <trkpt lat="43.8704" lon="7.28367">
        <ele>1079.942139</ele>
        <time>2011-11-11T12:36:05Z</time>
      </trkpt>
      <trkpt lat="43.87035" lon="7.28383">
        <ele>1076.592407</ele>
        <time>2011-11-11T12:36:10Z</time>
      </trkpt>
      <trkpt lat="43.8703" lon="7.28397">
        <ele>1072.739258</ele>
        <time>2011-11-11T12:36:15Z</time>
      </trkpt>
      <trkpt lat="43.87027" lon="7.28404">
        <ele>1070.64502</ele>
        <time>2011-11-11T12:36:20Z</time>
      </trkpt>
      <trkpt lat="43.87025" lon="7.28407">
        <ele>1069.204712</ele>
        <time>2011-11-11T12:36:25Z</time>
      </trkpt>
      <trkpt lat="43.8702" lon="7.28403">
        <ele>1068.198608</ele>
        <time>2011-11-11T12:36:30Z</time>
      </trkpt>
      <trkpt lat="43.87015" lon="7.28405">
        <ele>1067.825195</ele>
        <time>2011-11-11T12:36:35Z</time>
      </trkpt>
      <trkpt lat="43.87017" lon="7.28414">
        <ele>1067.143555</ele>
        <time>2011-11-11T12:36:40Z</time>
      </trkpt>
      <trkpt lat="43.87017" lon="7.28414">
        <ele>1066.875366</ele>
        <time>2011-11-11T12:36:45Z</time>
      </trkpt>
      <trkpt lat="43.87017" lon="7.28426">
        <ele>1063.80603</ele>
        <time>2011-11-11T12:36:50Z</time>
      </trkpt>
      <trkpt lat="43.87016" lon="7.28448">
        <ele>1056.622314</ele>
        <time>2011-11-11T12:36:55Z</time>
      </trkpt>
      <trkpt lat="43.8701" lon="7.28468">
        <ele>1051.258789</ele>
        <time>2011-11-11T12:37:00Z</time>
      </trkpt>
      <trkpt lat="43.87002" lon="7.28483">
        <ele>1046.711426</ele>
        <time>2011-11-11T12:37:05Z</time>
      </trkpt>
      <trkpt lat="43.87003" lon="7.28484">
        <ele>1045.761108</ele>
        <time>2011-11-11T12:37:35Z</time>
      </trkpt>
      <trkpt lat="43.86996" lon="7.28491">
        <ele>1042.189575</ele>
        <time>2011-11-11T12:37:40Z</time>
      </trkpt>
      <trkpt lat="43.86988" lon="7.28503">
        <ele>1037.276489</ele>
        <time>2011-11-11T12:37:45Z</time>
      </trkpt>
      <trkpt lat="43.86982" lon="7.28518">
        <ele>1031.962158</ele>
        <time>2011-11-11T12:37:50Z</time>
      </trkpt>
      <trkpt lat="43.86974" lon="7.28533">
        <ele>1027.170288</ele>
        <time>2011-11-11T12:37:55Z</time>
      </trkpt>
      <trkpt lat="43.86976" lon="7.28544">
        <ele>1024.325928</ele>
        <time>2011-11-11T12:38:00Z</time>
      </trkpt>
      <trkpt lat="43.86984" lon="7.28557">
        <ele>1019.966797</ele>
        <time>2011-11-11T12:38:05Z</time>
      </trkpt>
      <trkpt lat="43.86993" lon="7.28569">
        <ele>1016.995178</ele>
        <time>2011-11-11T12:38:10Z</time>
      </trkpt>
      <trkpt lat="43.87003" lon="7.28573">
        <ele>1014.450684</ele>
        <time>2011-11-11T12:38:15Z</time>
      </trkpt>
      <trkpt lat="43.87003" lon="7.28581">
        <ele>1013.957581</ele>
        <time>2011-11-11T12:38:20Z</time>
      </trkpt>
      <trkpt lat="43.86999" lon="7.2858">
        <ele>1013.230774</ele>
        <time>2011-11-11T12:38:25Z</time>
      </trkpt>
      <trkpt lat="43.86989" lon="7.28579">
        <ele>1012.051208</ele>
        <time>2011-11-11T12:38:30Z</time>
      </trkpt>
      <trkpt lat="43.86992" lon="7.28585">
        <ele>1010.062744</ele>
        <time>2011-11-11T12:38:35Z</time>
      </trkpt>
      <trkpt lat="43.87" lon="7.28598">
        <ele>1005.611145</ele>
        <time>2011-11-11T12:38:40Z</time>
      </trkpt>
      <trkpt lat="43.86999" lon="7.28606">
        <ele>1001.925293</ele>
        <time>2011-11-11T12:38:45Z</time>
      </trkpt>
      <trkpt lat="43.86998" lon="7.28614">
        <ele>998.214172</ele>
        <time>2011-11-11T12:38:50Z</time>
      </trkpt>
      <trkpt lat="43.86992" lon="7.28622">
        <ele>994.885498</ele>
        <time>2011-11-11T12:38:55Z</time>
      </trkpt>
      <trkpt lat="43.8699" lon="7.28623">
        <ele>994.160217</ele>
        <time>2011-11-11T12:39:00Z</time>
      </trkpt>
      <trkpt lat="43.86991" lon="7.28623">
        <ele>993.414551</ele>
        <time>2011-11-11T12:39:05Z</time>
      </trkpt>
      <trkpt lat="43.86991" lon="7.28624">
        <ele>992.261841</ele>
        <time>2011-11-11T12:39:10Z</time>
      </trkpt>
      <trkpt lat="43.86991" lon="7.28625">
        <ele>992.149536</ele>
        <time>2011-11-11T12:39:15Z</time>
      </trkpt>
      <trkpt lat="43.86989" lon="7.28629">
        <ele>990.173889</ele>
        <time>2011-11-11T12:39:20Z</time>
      </trkpt>
      <trkpt lat="43.86987" lon="7.28633">
        <ele>988.007324</ele>
        <time>2011-11-11T12:39:25Z</time>
      </trkpt>
      <trkpt lat="43.86988" lon="7.28634">
        <ele>987.936523</ele>
        <time>2011-11-11T12:39:30Z</time>
      </trkpt>
      <trkpt lat="43.86997" lon="7.2864">
        <ele>985.061646</ele>
        <time>2011-11-11T12:39:35Z</time>
      </trkpt>
      <trkpt lat="43.86998" lon="7.28644">
        <ele>982.777222</ele>
        <time>2011-11-11T12:39:40Z</time>
      </trkpt>
      <trkpt lat="43.8699" lon="7.28654">
        <ele>978.324097</ele>
        <time>2011-11-11T12:39:45Z</time>
      </trkpt>
      <trkpt lat="43.86986" lon="7.28663">
        <ele>974.281006</ele>
        <time>2011-11-11T12:39:50Z</time>
      </trkpt>
      <trkpt lat="43.86977" lon="7.2867">
        <ele>970.667419</ele>
        <time>2011-11-11T12:39:55Z</time>
      </trkpt>
      <trkpt lat="43.86975" lon="7.28677">
        <ele>968.111572</ele>
        <time>2011-11-11T12:40:00Z</time>
      </trkpt>
      <trkpt lat="43.86976" lon="7.28683">
        <ele>965.523438</ele>
        <time>2011-11-11T12:40:05Z</time>
      </trkpt>
      <trkpt lat="43.86984" lon="7.28686">
        <ele>964.068542</ele>
        <time>2011-11-11T12:40:10Z</time>
      </trkpt>
      <trkpt lat="43.86978" lon="7.28692">
        <ele>961.365417</ele>
        <time>2011-11-11T12:40:15Z</time>
      </trkpt>
      <trkpt lat="43.86984" lon="7.28697">
        <ele>958.130371</ele>
        <time>2011-11-11T12:40:20Z</time>
      </trkpt>
      <trkpt lat="43.86984" lon="7.28705">
        <ele>955.911133</ele>
        <time>2011-11-11T12:40:25Z</time>
      </trkpt>
      <trkpt lat="43.86974" lon="7.28713">
        <ele>952.358582</ele>
        <time>2011-11-11T12:40:30Z</time>
      </trkpt>
      <trkpt lat="43.86964" lon="7.28719">
        <ele>948.778137</ele>
        <time>2011-11-11T12:40:35Z</time>
      </trkpt>
      <trkpt lat="43.8697" lon="7.28729">
        <ele>945.706726</ele>
        <time>2011-11-11T12:40:40Z</time>
      </trkpt>
      <trkpt lat="43.8696" lon="7.28736">
        <ele>940.970947</ele>
        <time>2011-11-11T12:40:45Z</time>
      </trkpt>
      <trkpt lat="43.86956" lon="7.28745">
        <ele>936.34375</ele>
        <time>2011-11-11T12:40:50Z</time>
      </trkpt>
      <trkpt lat="43.86959" lon="7.28753">
        <ele>932.700745</ele>
        <time>2011-11-11T12:41:45Z</time>
      </trkpt>
      <trkpt lat="43.8695" lon="7.28754">
        <ele>930.253479</ele>
        <time>2011-11-11T12:41:50Z</time>
      </trkpt>
      <trkpt lat="43.86953" lon="7.28765">
        <ele>926.740845</ele>
        <time>2011-11-11T12:41:55Z</time>
      </trkpt>
      <trkpt lat="43.86964" lon="7.28899">
        <ele>870.350281</ele>
        <time>2011-11-11T12:43:30Z</time>
      </trkpt>
      <trkpt lat="43.86982" lon="7.29029">
        <ele>833.374817</ele>
        <time>2011-11-11T12:45:25Z</time>
      </trkpt>
      <trkpt lat="43.86982" lon="7.29044">
        <ele>828.796631</ele>
        <time>2011-11-11T12:45:30Z</time>
      </trkpt>
      <trkpt lat="43.86985" lon="7.29053">
        <ele>825.930603</ele>
        <time>2011-11-11T12:45:35Z</time>
      </trkpt>
      <trkpt lat="43.86991" lon="7.29054">
        <ele>824.206238</ele>
        <time>2011-11-11T12:45:40Z</time>
      </trkpt>
      <trkpt lat="43.86989" lon="7.29073">
        <ele>819.92627</ele>
        <time>2011-11-11T12:45:45Z</time>
      </trkpt>
      <trkpt lat="43.86987" lon="7.29088">
        <ele>816.442871</ele>
        <time>2011-11-11T12:45:50Z</time>
      </trkpt>
      <trkpt lat="43.86982" lon="7.29101">
        <ele>813.392883</ele>
        <time>2011-11-11T12:45:55Z</time>
      </trkpt>
      <trkpt lat="43.86979" lon="7.29103">
        <ele>812.549011</ele>
        <time>2011-11-11T12:46:00Z</time>
      </trkpt>
      <trkpt lat="43.86979" lon="7.29103">
        <ele>812.744385</ele>
        <time>2011-11-11T12:46:05Z</time>
      </trkpt>
      <trkpt lat="43.86976" lon="7.29106">
        <ele>811.471008</ele>
        <time>2011-11-11T12:46:10Z</time>
      </trkpt>
      <trkpt lat="43.86981" lon="7.29115">
        <ele>811.351929</ele>
        <time>2011-11-11T12:46:15Z</time>
      </trkpt>
      <trkpt lat="43.86982" lon="7.29123">
        <ele>809.295776</ele>
        <time>2011-11-11T12:46:20Z</time>
      </trkpt>
      <trkpt lat="43.86981" lon="7.29137">
        <ele>806.315552</ele>
        <time>2011-11-11T12:46:25Z</time>
      </trkpt>
      <trkpt lat="43.86973" lon="7.29145">
        <ele>802.201965</ele>
        <time>2011-11-11T12:46:30Z</time>
      </trkpt>
      <trkpt lat="43.86969" lon="7.29149">
        <ele>800.476379</ele>
        <time>2011-11-11T12:47:30Z</time>
      </trkpt>
      <trkpt lat="43.86968" lon="7.2915">
        <ele>800.230408</ele>
        <time>2011-11-11T12:47:35Z</time>
      </trkpt>
      <trkpt lat="43.86966" lon="7.29165">
        <ele>797.29126</ele>
        <time>2011-11-11T12:47:40Z</time>
      </trkpt>
      <trkpt lat="43.86968" lon="7.29186">
        <ele>794.794678</ele>
        <time>2011-11-11T12:47:45Z</time>
      </trkpt>
      <trkpt lat="43.86969" lon="7.29206">
        <ele>791.685486</ele>
        <time>2011-11-11T12:47:50Z</time>
      </trkpt>
      <trkpt lat="43.86968" lon="7.29214">
        <ele>789.483215</ele>
        <time>2011-11-11T12:47:55Z</time>
      </trkpt>
      <trkpt lat="43.86966" lon="7.29221">
        <ele>787.495728</ele>
        <time>2011-11-11T12:48:00Z</time>
      </trkpt>
      <trkpt lat="43.86967" lon="7.29231">
        <ele>784.902771</ele>
        <time>2011-11-11T12:48:05Z</time>
      </trkpt>
      <trkpt lat="43.86968" lon="7.29244">
        <ele>782.244263</ele>
        <time>2011-11-11T12:48:10Z</time>
      </trkpt>
      <trkpt lat="43.86967" lon="7.29252">
        <ele>779.84668</ele>
        <time>2011-11-11T12:48:15Z</time>
      </trkpt>
      <trkpt lat="43.86967" lon="7.29263">
        <ele>777.024475</ele>
        <time>2011-11-11T12:48:20Z</time>
      </trkpt>
      <trkpt lat="43.86968" lon="7.29279">
        <ele>775.250854</ele>
        <time>2011-11-11T12:48:25Z</time>
      </trkpt>
      <trkpt lat="43.86961" lon="7.29292">
        <ele>773.184021</ele>
        <time>2011-11-11T12:48:30Z</time>
      </trkpt>
      <trkpt lat="43.86952" lon="7.29304">
        <ele>772.49054</ele>
        <time>2011-11-11T12:48:35Z</time>
      </trkpt>
      <trkpt lat="43.86949" lon="7.29321">
        <ele>771.498474</ele>
        <time>2011-11-11T12:48:40Z</time>
      </trkpt>
      <trkpt lat="43.8694" lon="7.29338">
        <ele>767.852417</ele>
        <time>2011-11-11T12:48:45Z</time>
      </trkpt>
      <trkpt lat="43.86947" lon="7.2936">
        <ele>762.120361</ele>
        <time>2011-11-11T12:48:50Z</time>
      </trkpt>
      <trkpt lat="43.86958" lon="7.29384">
        <ele>756.657227</ele>
        <time>2011-11-11T12:48:55Z</time>
      </trkpt>
      <trkpt lat="43.86963" lon="7.294">
        <ele>751.966553</ele>
        <time>2011-11-11T12:49:00Z</time>
      </trkpt>
      <trkpt lat="43.86964" lon="7.29421">
        <ele>748.296387</ele>
        <time>2011-11-11T12:49:05Z</time>
      </trkpt>
      <trkpt lat="43.86964" lon="7.29429">
        <ele>746.721558</ele>
        <time>2011-11-11T12:49:10Z</time>
      </trkpt>
      <trkpt lat="43.86965" lon="7.29453">
        <ele>743.273315</ele>
        <time>2011-11-11T12:49:15Z</time>
      </trkpt>
      <trkpt lat="43.86968" lon="7.29479">
        <ele>741.029907</ele>
        <time>2011-11-11T12:49:20Z</time>
      </trkpt>
      <trkpt lat="43.86968" lon="7.29482">
        <ele>740.400513</ele>
        <time>2011-11-11T12:51:00Z</time>
      </trkpt>
      <trkpt lat="43.86968" lon="7.29482">
        <ele>740.366577</ele>
        <time>2011-11-11T12:51:05Z</time>
      </trkpt>
      <trkpt lat="43.8696" lon="7.29483">
        <ele>739.061401</ele>
        <time>2011-11-11T12:51:10Z</time>
      </trkpt>
      <trkpt lat="43.86946" lon="7.29463">
        <ele>735.696777</ele>
        <time>2011-11-11T12:51:15Z</time>
      </trkpt>
      <trkpt lat="43.86925" lon="7.29434">
        <ele>731.842834</ele>
        <time>2011-11-11T12:51:20Z</time>
      </trkpt>
      <trkpt lat="43.86889" lon="7.2941">
        <ele>726.783569</ele>
        <time>2011-11-11T12:51:25Z</time>
      </trkpt>
      <trkpt lat="43.86855" lon="7.29366">
        <ele>720.920227</ele>
        <time>2011-11-11T12:51:30Z</time>
      </trkpt>
      <trkpt lat="43.86836" lon="7.29323">
        <ele>716.010315</ele>
        <time>2011-11-11T12:51:35Z</time>
      </trkpt>
      <trkpt lat="43.86824" lon="7.29294">
        <ele>714.752319</ele>
        <time>2011-11-11T12:51:40Z</time>
      </trkpt>
      <trkpt lat="43.86814" lon="7.29263">
        <ele>713.08136</ele>
        <time>2011-11-11T12:51:45Z</time>
      </trkpt>
      <trkpt lat="43.86797" lon="7.29232">
        <ele>711.802612</ele>
        <time>2011-11-11T12:51:50Z</time>
      </trkpt>
      <trkpt lat="43.86773" lon="7.29215">
        <ele>711.403442</ele>
        <time>2011-11-11T12:51:55Z</time>
      </trkpt>
      <trkpt lat="43.86746" lon="7.29188">
        <ele>708.783325</ele>
        <time>2011-11-11T12:52:00Z</time>
      </trkpt>
      <trkpt lat="43.86702" lon="7.29176">
        <ele>702.661499</ele>
        <time>2011-11-11T12:52:05Z</time>
      </trkpt>
      <trkpt lat="43.8667" lon="7.29184">
        <ele>696.270996</ele>
        <time>2011-11-11T12:52:10Z</time>
      </trkpt>
      <trkpt lat="43.86652" lon="7.29158">
        <ele>695.355408</ele>
        <time>2011-11-11T12:52:15Z</time>
      </trkpt>
      <trkpt lat="43.86651" lon="7.29123">
        <ele>695.282471</ele>
        <time>2011-11-11T12:52:20Z</time>
      </trkpt>
      <trkpt lat="43.86623" lon="7.291">
        <ele>691.009155</ele>
        <time>2011-11-11T12:52:25Z</time>
      </trkpt>
      <trkpt lat="43.86581" lon="7.29104">
        <ele>688.550171</ele>
        <time>2011-11-11T12:52:30Z</time>
      </trkpt>
      <trkpt lat="43.86549" lon="7.29152">
        <ele>683.229797</ele>
        <time>2011-11-11T12:52:35Z</time>
      </trkpt>
      <trkpt lat="43.86521" lon="7.29202">
        <ele>677.421875</ele>
        <time>2011-11-11T12:52:40Z</time>
      </trkpt>
      <trkpt lat="43.86495" lon="7.29213">
        <ele>674.521362</ele>
        <time>2011-11-11T12:52:45Z</time>
      </trkpt>
      <trkpt lat="43.86501" lon="7.29268">
        <ele>670.170349</ele>
        <time>2011-11-11T12:52:50Z</time>
      </trkpt>
      <trkpt lat="43.86504" lon="7.29314">
        <ele>667.278442</ele>
        <time>2011-11-11T12:52:55Z</time>
      </trkpt>
      <trkpt lat="43.86521" lon="7.29346">
        <ele>667.332703</ele>
        <time>2011-11-11T12:53:00Z</time>
      </trkpt>
      <trkpt lat="43.86514" lon="7.29364">
        <ele>667.685425</ele>
        <time>2011-11-11T12:53:05Z</time>
      </trkpt>
      <trkpt lat="43.86508" lon="7.29373">
        <ele>669.112549</ele>
        <time>2011-11-11T12:53:10Z</time>
      </trkpt>
      <trkpt lat="43.86502" lon="7.29381">
        <ele>669.76709</ele>
        <time>2011-11-11T12:53:15Z</time>
      </trkpt>
      <trkpt lat="43.86497" lon="7.29391">
        <ele>670.272949</ele>
        <time>2011-11-11T12:53:20Z</time>
      </trkpt>
      <trkpt lat="43.86491" lon="7.294">
        <ele>670.816345</ele>
        <time>2011-11-11T12:53:25Z</time>
      </trkpt>
      <trkpt lat="43.86485" lon="7.29409">
        <ele>671.702759</ele>
        <time>2011-11-11T12:53:30Z</time>
      </trkpt>
      <trkpt lat="43.86478" lon="7.29418">
        <ele>672.634216</ele>
        <time>2011-11-11T12:53:35Z</time>
      </trkpt>
      <trkpt lat="43.86474" lon="7.29419">
        <ele>673.025024</ele>
        <time>2011-11-11T12:53:40Z</time>
      </trkpt>
      <trkpt lat="43.86471" lon="7.2943">
        <ele>675.390137</ele>
        <time>2011-11-11T12:53:45Z</time>
      </trkpt>
      <trkpt lat="43.86465" lon="7.29446">
        <ele>679.509766</ele>
        <time>2011-11-11T12:53:50Z</time>
      </trkpt>
      <trkpt lat="43.86464" lon="7.29455">
        <ele>679.711914</ele>
        <time>2011-11-11T12:53:55Z</time>
      </trkpt>
      <trkpt lat="43.86464" lon="7.29457">
        <ele>679.280457</ele>
        <time>2011-11-11T12:54:00Z</time>
      </trkpt>
      <trkpt lat="43.86465" lon="7.29458">
        <ele>678.911682</ele>
        <time>2011-11-11T12:54:05Z</time>
      </trkpt>
      <trkpt lat="43.86471" lon="7.29471">
        <ele>677.842773</ele>
        <time>2011-11-11T12:54:10Z</time>
      </trkpt>
      <trkpt lat="43.86485" lon="7.29496">
        <ele>673.344971</ele>
        <time>2011-11-11T12:54:15Z</time>
      </trkpt>
      <trkpt lat="43.86497" lon="7.29525">
        <ele>667.473389</ele>
        <time>2011-11-11T12:54:20Z</time>
      </trkpt>
      <trkpt lat="43.86505" lon="7.29549">
        <ele>662.031067</ele>
        <time>2011-11-11T12:54:25Z</time>
      </trkpt>
      <trkpt lat="43.86521" lon="7.29565">
        <ele>656.566467</ele>
        <time>2011-11-11T12:54:30Z</time>
      </trkpt>
      <trkpt lat="43.86529" lon="7.29582">
        <ele>653.826416</ele>
        <time>2011-11-11T12:54:35Z</time>
      </trkpt>
      <trkpt lat="43.86529" lon="7.29586">
        <ele>652.712158</ele>
        <time>2011-11-11T12:55:00Z</time>
      </trkpt>
      <trkpt lat="43.8653" lon="7.29592">
        <ele>651.661499</ele>
        <time>2011-11-11T12:55:05Z</time>
      </trkpt>
      <trkpt lat="43.86532" lon="7.29609">
        <ele>646.949707</ele>
        <time>2011-11-11T12:55:10Z</time>
      </trkpt>
      <trkpt lat="43.86527" lon="7.29622">
        <ele>642.950928</ele>
        <time>2011-11-11T12:55:15Z</time>
      </trkpt>
      <trkpt lat="43.8652" lon="7.29636">
        <ele>641.976501</ele>
        <time>2011-11-11T12:55:20Z</time>
      </trkpt>
      <trkpt lat="43.86529" lon="7.29649">
        <ele>637.738281</ele>
        <time>2011-11-11T12:55:25Z</time>
      </trkpt>
      <trkpt lat="43.86542" lon="7.29659">
        <ele>632.284668</ele>
        <time>2011-11-11T12:55:30Z</time>
      </trkpt>
      <trkpt lat="43.86549" lon="7.29669">
        <ele>627.708252</ele>
        <time>2011-11-11T12:55:35Z</time>
      </trkpt>
      <trkpt lat="43.86551" lon="7.29684">
        <ele>623.084473</ele>
        <time>2011-11-11T12:55:40Z</time>
      </trkpt>
      <trkpt lat="43.86553" lon="7.29701">
        <ele>619.194153</ele>
        <time>2011-11-11T12:55:45Z</time>
      </trkpt>
      <trkpt lat="43.86553" lon="7.29718">
        <ele>617.96814</ele>
        <time>2011-11-11T12:55:50Z</time>
      </trkpt>
      <trkpt lat="43.86553" lon="7.29717">
        <ele>617.844421</ele>
        <time>2011-11-11T12:55:55Z</time>
      </trkpt>
      <trkpt lat="43.86552" lon="7.29722">
        <ele>617.121216</ele>
        <time>2011-11-11T12:56:00Z</time>
      </trkpt>
      <trkpt lat="43.86551" lon="7.29728">
        <ele>615.567078</ele>
        <time>2011-11-11T12:56:05Z</time>
      </trkpt>
      <trkpt lat="43.8655" lon="7.29746">
        <ele>611.832031</ele>
        <time>2011-11-11T12:56:10Z</time>
      </trkpt>
      <trkpt lat="43.86549" lon="7.2975">
        <ele>611.100891</ele>
        <time>2011-11-11T12:56:15Z</time>
      </trkpt>
      <trkpt lat="43.86549" lon="7.2975">
        <ele>610.821594</ele>
        <time>2011-11-11T12:56:20Z</time>
      </trkpt>
      <trkpt lat="43.86547" lon="7.2976">
        <ele>609.8974</ele>
        <time>2011-11-11T12:56:25Z</time>
      </trkpt>
      <trkpt lat="43.86545" lon="7.29769">
        <ele>607.950562</ele>
        <time>2011-11-11T12:56:30Z</time>
      </trkpt>
      <trkpt lat="43.86545" lon="7.2977">
        <ele>607.617126</ele>
        <time>2011-11-11T12:56:35Z</time>
      </trkpt>
      <trkpt lat="43.86548" lon="7.29776">
        <ele>606.64209</ele>
        <time>2011-11-11T12:56:40Z</time>
      </trkpt>
      <trkpt lat="43.8654" lon="7.29777">
        <ele>603.100891</ele>
        <time>2011-11-11T12:56:45Z</time>
      </trkpt>
      <trkpt lat="43.86536" lon="7.29777">
        <ele>601.421936</ele>
        <time>2011-11-11T12:56:50Z</time>
      </trkpt>
      <trkpt lat="43.86539" lon="7.29784">
        <ele>600.080566</ele>
        <time>2011-11-11T12:56:55Z</time>
      </trkpt>
      <trkpt lat="43.8654" lon="7.29796">
        <ele>597.75293</ele>
        <time>2011-11-11T12:57:35Z</time>
      </trkpt>
      <trkpt lat="43.86541" lon="7.29805">
        <ele>596.938599</ele>
        <time>2011-11-11T12:57:40Z</time>
      </trkpt>
      <trkpt lat="43.86537" lon="7.29825">
        <ele>592.466736</ele>
        <time>2011-11-11T12:57:45Z</time>
      </trkpt>
      <trkpt lat="43.86545" lon="7.29842">
        <ele>588.279907</ele>
        <time>2011-11-11T12:57:50Z</time>
      </trkpt>
      <trkpt lat="43.86558" lon="7.29861">
        <ele>584.736633</ele>
        <time>2011-11-11T12:57:55Z</time>
      </trkpt>
      <trkpt lat="43.86564" lon="7.29884">
        <ele>579.423523</ele>
        <time>2011-11-11T12:58:00Z</time>
      </trkpt>
      <trkpt lat="43.86551" lon="7.29903">
        <ele>574.658691</ele>
        <time>2011-11-11T12:58:05Z</time>
      </trkpt>
      <trkpt lat="43.86551" lon="7.29924">
        <ele>574.29657</ele>
        <time>2011-11-11T12:58:10Z</time>
      </trkpt>
      <trkpt lat="43.86552" lon="7.29944">
        <ele>575.706238</ele>
        <time>2011-11-11T12:58:15Z</time>
      </trkpt>
      <trkpt lat="43.86547" lon="7.2997">
        <ele>572.31311</ele>
        <time>2011-11-11T12:58:20Z</time>
      </trkpt>
      <trkpt lat="43.86534" lon="7.29989">
        <ele>566.520325</ele>
        <time>2011-11-11T12:58:25Z</time>
      </trkpt>
      <trkpt lat="43.86519" lon="7.30016">
        <ele>560.92688</ele>
        <time>2011-11-11T12:58:30Z</time>
      </trkpt>
      <trkpt lat="43.86504" lon="7.30062">
        <ele>556.199402</ele>
        <time>2011-11-11T12:58:35Z</time>
      </trkpt>
      <trkpt lat="43.86505" lon="7.30095">
        <ele>553.528687</ele>
        <time>2011-11-11T12:58:40Z</time>
      </trkpt>
      <trkpt lat="43.86505" lon="7.30123">
        <ele>550.5896</ele>
        <time>2011-11-11T12:58:45Z</time>
      </trkpt>
      <trkpt lat="43.86504" lon="7.30138">
        <ele>546.496033</ele>
        <time>2011-11-11T12:58:50Z</time>
      </trkpt>
      <trkpt lat="43.86496" lon="7.30147">
        <ele>542.877075</ele>
        <time>2011-11-11T12:58:55Z</time>
      </trkpt>
      <trkpt lat="43.86489" lon="7.30151">
        <ele>541.479492</ele>
        <time>2011-11-11T12:59:00Z</time>
      </trkpt>
      <trkpt lat="43.86487" lon="7.3015">
        <ele>540.494263</ele>
        <time>2011-11-11T12:59:05Z</time>
      </trkpt>
      <trkpt lat="43.86486" lon="7.30151">
        <ele>540.129578</ele>
        <time>2011-11-11T12:59:10Z</time>
      </trkpt>
      <trkpt lat="43.86486" lon="7.30151">
        <ele>540.337341</ele>
        <time>2011-11-11T12:59:15Z</time>
      </trkpt>
      <trkpt lat="43.86493" lon="7.30151">
        <ele>539.339539</ele>
        <time>2011-11-11T12:59:45Z</time>
      </trkpt>
      <trkpt lat="43.86492" lon="7.3015">
        <ele>539.416382</ele>
        <time>2011-11-11T12:59:50Z</time>
      </trkpt>
      <trkpt lat="43.86485" lon="7.30156">
        <ele>538.231873</ele>
        <time>2011-11-11T12:59:55Z</time>
      </trkpt>
      <trkpt lat="43.86468" lon="7.30176">
        <ele>533.15625</ele>
        <time>2011-11-11T13:00:00Z</time>
      </trkpt>
      <trkpt lat="43.86449" lon="7.30196">
        <ele>527.734924</ele>
        <time>2011-11-11T13:00:05Z</time>
      </trkpt>
      <trkpt lat="43.8643" lon="7.30218">
        <ele>524.043701</ele>
        <time>2011-11-11T13:00:10Z</time>
      </trkpt>
      <trkpt lat="43.86426" lon="7.30222">
        <ele>523.569336</ele>
        <time>2011-11-11T13:00:15Z</time>
      </trkpt>
      <trkpt lat="43.86425" lon="7.30222">
        <ele>523.180054</ele>
        <time>2011-11-11T13:00:20Z</time>
      </trkpt>
      <trkpt lat="43.86424" lon="7.30222">
        <ele>523.154785</ele>
        <time>2011-11-11T13:00:25Z</time>
      </trkpt>
      <trkpt lat="43.86427" lon="7.30222">
        <ele>523.323975</ele>
        <time>2011-11-11T13:00:30Z</time>
      </trkpt>
      <trkpt lat="43.86433" lon="7.30224">
        <ele>524.743225</ele>
        <time>2011-11-11T13:00:35Z</time>
      </trkpt>
      <trkpt lat="43.86438" lon="7.30225">
        <ele>525.909363</ele>
        <time>2011-11-11T13:00:40Z</time>
      </trkpt>
      <trkpt lat="43.86442" lon="7.30223">
        <ele>526.809875</ele>
        <time>2011-11-11T13:00:45Z</time>
      </trkpt>
      <trkpt lat="43.86442" lon="7.30223">
        <ele>527.051208</ele>
        <time>2011-11-11T13:00:50Z</time>
      </trkpt>
      <trkpt lat="43.86445" lon="7.30234">
        <ele>523.892395</ele>
        <time>2011-11-11T13:00:55Z</time>
      </trkpt>
      <trkpt lat="43.86438" lon="7.30246">
        <ele>524.136841</ele>
        <time>2011-11-11T13:01:00Z</time>
      </trkpt>
      <trkpt lat="43.86429" lon="7.30253">
        <ele>522.49884</ele>
        <time>2011-11-11T13:01:05Z</time>
      </trkpt>
      <trkpt lat="43.86415" lon="7.30247">
        <ele>519.760071</ele>
        <time>2011-11-11T13:01:10Z</time>
      </trkpt>
      <trkpt lat="43.86403" lon="7.30247">
        <ele>518.800781</ele>
        <time>2011-11-11T13:01:15Z</time>
      </trkpt>
      <trkpt lat="43.86387" lon="7.30241">
        <ele>514.993225</ele>
        <time>2011-11-11T13:01:20Z</time>
      </trkpt>
      <trkpt lat="43.86386" lon="7.30247">
        <ele>514.749329</ele>
        <time>2011-11-11T13:01:25Z</time>
      </trkpt>
      <trkpt lat="43.86387" lon="7.30247">
        <ele>514.60675</ele>
        <time>2011-11-11T13:01:30Z</time>
      </trkpt>
      <trkpt lat="43.86388" lon="7.30243">
        <ele>514.981262</ele>
        <time>2011-11-11T13:01:35Z</time>
      </trkpt>
      <trkpt lat="43.8639" lon="7.3024">
        <ele>515.185852</ele>
        <time>2011-11-11T13:01:40Z</time>
      </trkpt>
      <trkpt lat="43.8639" lon="7.30238">
        <ele>515.298035</ele>
        <time>2011-11-11T13:01:45Z</time>
      </trkpt>
      <trkpt lat="43.86391" lon="7.30238">
        <ele>515.804199</ele>
        <time>2011-11-11T13:02:20Z</time>
      </trkpt>
      <trkpt lat="43.86391" lon="7.30238">
        <ele>515.797852</ele>
        <time>2011-11-11T13:02:25Z</time>
      </trkpt>
      <trkpt lat="43.86391" lon="7.30239">
        <ele>516.102905</ele>
        <time>2011-11-11T13:02:30Z</time>
      </trkpt>
      <trkpt lat="43.86391" lon="7.30239">
        <ele>516.162048</ele>
        <time>2011-11-11T13:02:35Z</time>
      </trkpt>
      <trkpt lat="43.86391" lon="7.30239">
        <ele>516.01532</ele>
        <time>2011-11-11T13:02:40Z</time>
      </trkpt>
      <trkpt lat="43.86393" lon="7.30246">
        <ele>515.8703</ele>
        <time>2011-11-11T13:02:45Z</time>
      </trkpt>
      <trkpt lat="43.86401" lon="7.30255">
        <ele>516.272705</ele>
        <time>2011-11-11T13:02:50Z</time>
      </trkpt>
      <trkpt lat="43.86409" lon="7.30263">
        <ele>516.355713</ele>
        <time>2011-11-11T13:02:55Z</time>
      </trkpt>
      <trkpt lat="43.86426" lon="7.30268">
        <ele>515.676147</ele>
        <time>2011-11-11T13:03:00Z</time>
      </trkpt>
      <trkpt lat="43.86451" lon="7.30267">
        <ele>513.756409</ele>
        <time>2011-11-11T13:03:05Z</time>
      </trkpt>
      <trkpt lat="43.86475" lon="7.30243">
        <ele>512.690552</ele>
        <time>2011-11-11T13:03:10Z</time>
      </trkpt>
      <trkpt lat="43.86498" lon="7.30219">
        <ele>511.292786</ele>
        <time>2011-11-11T13:03:15Z</time>
      </trkpt>
      <trkpt lat="43.86511" lon="7.30252">
        <ele>509.871002</ele>
        <time>2011-11-11T13:03:20Z</time>
      </trkpt>
      <trkpt lat="43.86516" lon="7.30293">
        <ele>507.431519</ele>
        <time>2011-11-11T13:03:25Z</time>
      </trkpt>
      <trkpt lat="43.86532" lon="7.30327">
        <ele>505.629913</ele>
        <time>2011-11-11T13:03:30Z</time>
      </trkpt>
      <trkpt lat="43.86567" lon="7.30342">
        <ele>503.542603</ele>
        <time>2011-11-11T13:03:35Z</time>
      </trkpt>
      <trkpt lat="43.86602" lon="7.30359">
        <ele>501.383301</ele>
        <time>2011-11-11T13:03:40Z</time>
      </trkpt>
      <trkpt lat="43.86626" lon="7.30344">
        <ele>499.18866</ele>
        <time>2011-11-11T13:03:45Z</time>
      </trkpt>
      <trkpt lat="43.86623" lon="7.30363">
        <ele>498.194</ele>
        <time>2011-11-11T13:03:50Z</time>
      </trkpt>
      <trkpt lat="43.86606" lon="7.30385">
        <ele>495.980164</ele>
        <time>2011-11-11T13:03:55Z</time>
      </trkpt>
      <trkpt lat="43.86626" lon="7.30383">
        <ele>492.366821</ele>
        <time>2011-11-11T13:04:00Z</time>
      </trkpt>
      <trkpt lat="43.86648" lon="7.3036">
        <ele>490.631226</ele>
        <time>2011-11-11T13:04:05Z</time>
      </trkpt>
      <trkpt lat="43.86646" lon="7.30383">
        <ele>488.88562</ele>
        <time>2011-11-11T13:04:10Z</time>
      </trkpt>
      <trkpt lat="43.86635" lon="7.30427">
        <ele>483.507965</ele>
        <time>2011-11-11T13:04:15Z</time>
      </trkpt>
      <trkpt lat="43.86636" lon="7.30483">
        <ele>477.802399</ele>
        <time>2011-11-11T13:04:20Z</time>
      </trkpt>
      <trkpt lat="43.8661" lon="7.30494">
        <ele>477.109833</ele>
        <time>2011-11-11T13:04:25Z</time>
      </trkpt>
      <trkpt lat="43.86588" lon="7.30492">
        <ele>477.153076</ele>
        <time>2011-11-11T13:04:30Z</time>
      </trkpt>
      <trkpt lat="43.86572" lon="7.30493">
        <ele>478.876434</ele>
        <time>2011-11-11T13:04:35Z</time>
      </trkpt>
      <trkpt lat="43.86563" lon="7.30499">
        <ele>480.824951</ele>
        <time>2011-11-11T13:04:40Z</time>
      </trkpt>
      <trkpt lat="43.86557" lon="7.30507">
        <ele>483.185608</ele>
        <time>2011-11-11T13:04:45Z</time>
      </trkpt>
      <trkpt lat="43.86551" lon="7.30515">
        <ele>483.47995</ele>
        <time>2011-11-11T13:04:50Z</time>
      </trkpt>
      <trkpt lat="43.86546" lon="7.30522">
        <ele>484.293457</ele>
        <time>2011-11-11T13:04:55Z</time>
      </trkpt>
      <trkpt lat="43.86541" lon="7.30529">
        <ele>484.600037</ele>
        <time>2011-11-11T13:05:00Z</time>
      </trkpt>
      <trkpt lat="43.86536" lon="7.30537">
        <ele>485.531738</ele>
        <time>2011-11-11T13:05:05Z</time>
      </trkpt>
      <trkpt lat="43.8653" lon="7.30544">
        <ele>486.21344</ele>
        <time>2011-11-11T13:05:10Z</time>
      </trkpt>
      <trkpt lat="43.86524" lon="7.30551">
        <ele>486.982361</ele>
        <time>2011-11-11T13:05:15Z</time>
      </trkpt>
      <trkpt lat="43.86518" lon="7.30558">
        <ele>487.627502</ele>
        <time>2011-11-11T13:05:20Z</time>
      </trkpt>
      <trkpt lat="43.86511" lon="7.30564">
        <ele>487.933105</ele>
        <time>2011-11-11T13:05:25Z</time>
      </trkpt>
      <trkpt lat="43.86504" lon="7.30571">
        <ele>488.26712</ele>
        <time>2011-11-11T13:05:30Z</time>
      </trkpt>
      <trkpt lat="43.86498" lon="7.30578">
        <ele>488.539154</ele>
        <time>2011-11-11T13:05:35Z</time>
      </trkpt>
      <trkpt lat="43.86492" lon="7.30586">
        <ele>488.55304</ele>
        <time>2011-11-11T13:05:40Z</time>
      </trkpt>
      <trkpt lat="43.86485" lon="7.30595">
        <ele>488.943939</ele>
        <time>2011-11-11T13:05:45Z</time>
      </trkpt>
      <trkpt lat="43.86478" lon="7.30603">
        <ele>489.891754</ele>
        <time>2011-11-11T13:05:50Z</time>
      </trkpt>
      <trkpt lat="43.8647" lon="7.3061">
        <ele>490.792511</ele>
        <time>2011-11-11T13:05:55Z</time>
      </trkpt>
      <trkpt lat="43.86463" lon="7.30616">
        <ele>491.841431</ele>
        <time>2011-11-11T13:06:00Z</time>
      </trkpt>
      <trkpt lat="43.86454" lon="7.30623">
        <ele>492.250183</ele>
        <time>2011-11-11T13:06:05Z</time>
      </trkpt>
      <trkpt lat="43.86447" lon="7.3063">
        <ele>492.648376</ele>
        <time>2011-11-11T13:06:10Z</time>
      </trkpt>
      <trkpt lat="43.86439" lon="7.30638">
        <ele>493.481781</ele>
        <time>2011-11-11T13:06:15Z</time>
      </trkpt>
      <trkpt lat="43.86434" lon="7.30649">
        <ele>493.677032</ele>
        <time>2011-11-11T13:06:20Z</time>
      </trkpt>
      <trkpt lat="43.86434" lon="7.30662">
        <ele>494.062622</ele>
        <time>2011-11-11T13:06:25Z</time>
      </trkpt>
      <trkpt lat="43.86437" lon="7.30673">
        <ele>494.26889</ele>
        <time>2011-11-11T13:06:30Z</time>
      </trkpt>
      <trkpt lat="43.8644" lon="7.30684">
        <ele>494.480377</ele>
        <time>2011-11-11T13:06:35Z</time>
      </trkpt>
      <trkpt lat="43.86443" lon="7.30694">
        <ele>494.843536</ele>
        <time>2011-11-11T13:06:40Z</time>
      </trkpt>
      <trkpt lat="43.86447" lon="7.30706">
        <ele>495.454193</ele>
        <time>2011-11-11T13:06:45Z</time>
      </trkpt>
      <trkpt lat="43.86451" lon="7.30717">
        <ele>495.742035</ele>
        <time>2011-11-11T13:06:50Z</time>
      </trkpt>
      <trkpt lat="43.86455" lon="7.30728">
        <ele>496.298126</ele>
        <time>2011-11-11T13:06:55Z</time>
      </trkpt>
      <trkpt lat="43.86458" lon="7.30739">
        <ele>496.609222</ele>
        <time>2011-11-11T13:07:00Z</time>
      </trkpt>
      <trkpt lat="43.86461" lon="7.30753">
        <ele>495.851685</ele>
        <time>2011-11-11T13:07:05Z</time>
      </trkpt>
      <trkpt lat="43.86463" lon="7.30769">
        <ele>495.234619</ele>
        <time>2011-11-11T13:07:10Z</time>
      </trkpt>
      <trkpt lat="43.86462" lon="7.30783">
        <ele>494.826324</ele>
        <time>2011-11-11T13:07:15Z</time>
      </trkpt>
      <trkpt lat="43.86457" lon="7.30795">
        <ele>495.006714</ele>
        <time>2011-11-11T13:07:20Z</time>
      </trkpt>
      <trkpt lat="43.86451" lon="7.30804">
        <ele>495.327789</ele>
        <time>2011-11-11T13:07:25Z</time>
      </trkpt>
      <trkpt lat="43.86443" lon="7.3081">
        <ele>495.827972</ele>
        <time>2011-11-11T13:07:30Z</time>
      </trkpt>
      <trkpt lat="43.86434" lon="7.30814">
        <ele>496.213806</ele>
        <time>2011-11-11T13:07:35Z</time>
      </trkpt>
      <trkpt lat="43.86426" lon="7.30815">
        <ele>496.970673</ele>
        <time>2011-11-11T13:07:40Z</time>
      </trkpt>
      <trkpt lat="43.86418" lon="7.30815">
        <ele>497.858765</ele>
        <time>2011-11-11T13:07:45Z</time>
      </trkpt>
      <trkpt lat="43.8641" lon="7.30815">
        <ele>499.213867</ele>
        <time>2011-11-11T13:07:50Z</time>
      </trkpt>
      <trkpt lat="43.86402" lon="7.30817">
        <ele>500.306732</ele>
        <time>2011-11-11T13:07:55Z</time>
      </trkpt>
      <trkpt lat="43.86395" lon="7.3082">
        <ele>501.682343</ele>
        <time>2011-11-11T13:08:00Z</time>
      </trkpt>
      <trkpt lat="43.86387" lon="7.30826">
        <ele>502.002838</ele>
        <time>2011-11-11T13:08:05Z</time>
      </trkpt>
      <trkpt lat="43.86379" lon="7.30831">
        <ele>502.221191</ele>
        <time>2011-11-11T13:08:10Z</time>
      </trkpt>
      <trkpt lat="43.86372" lon="7.30838">
        <ele>502.675903</ele>
        <time>2011-11-11T13:08:15Z</time>
      </trkpt>
      <trkpt lat="43.86364" lon="7.30845">
        <ele>502.600189</ele>
        <time>2011-11-11T13:08:20Z</time>
      </trkpt>
      <trkpt lat="43.86356" lon="7.30852">
        <ele>502.912872</ele>
        <time>2011-11-11T13:08:25Z</time>
      </trkpt>
      <trkpt lat="43.8635" lon="7.30862">
        <ele>503.601715</ele>
        <time>2011-11-11T13:08:30Z</time>
      </trkpt>
      <trkpt lat="43.86348" lon="7.30875">
        <ele>505.558472</ele>
        <time>2011-11-11T13:08:35Z</time>
      </trkpt>
      <trkpt lat="43.86349" lon="7.30888">
        <ele>505.668152</ele>
        <time>2011-11-11T13:08:40Z</time>
      </trkpt>
      <trkpt lat="43.8635" lon="7.30902">
        <ele>505.655823</ele>
        <time>2011-11-11T13:08:45Z</time>
      </trkpt>
      <trkpt lat="43.86352" lon="7.30916">
        <ele>505.612549</ele>
        <time>2011-11-11T13:08:50Z</time>
      </trkpt>
      <trkpt lat="43.86354" lon="7.3093">
        <ele>505.626129</ele>
        <time>2011-11-11T13:08:55Z</time>
      </trkpt>
      <trkpt lat="43.86355" lon="7.30944">
        <ele>505.705475</ele>
        <time>2011-11-11T13:09:00Z</time>
      </trkpt>
      <trkpt lat="43.86356" lon="7.30958">
        <ele>506.612</ele>
        <time>2011-11-11T13:09:05Z</time>
      </trkpt>
      <trkpt lat="43.86353" lon="7.30969">
        <ele>507.536011</ele>
        <time>2011-11-11T13:09:10Z</time>
      </trkpt>
      <trkpt lat="43.86346" lon="7.30973">
        <ele>507.803162</ele>
        <time>2011-11-11T13:09:15Z</time>
      </trkpt>
      <trkpt lat="43.86337" lon="7.30968">
        <ele>508.880188</ele>
        <time>2011-11-11T13:09:20Z</time>
      </trkpt>
      <trkpt lat="43.86327" lon="7.30962">
        <ele>509.198181</ele>
        <time>2011-11-11T13:09:25Z</time>
      </trkpt>
      <trkpt lat="43.86318" lon="7.30957">
        <ele>509.424377</ele>
        <time>2011-11-11T13:09:30Z</time>
      </trkpt>
      <trkpt lat="43.8631" lon="7.30954">
        <ele>510.584625</ele>
        <time>2011-11-11T13:09:35Z</time>
      </trkpt>
      <trkpt lat="43.86302" lon="7.30954">
        <ele>511.651367</ele>
        <time>2011-11-11T13:09:40Z</time>
      </trkpt>
      <trkpt lat="43.86293" lon="7.30957">
        <ele>512.429138</ele>
        <time>2011-11-11T13:09:45Z</time>
      </trkpt>
      <trkpt lat="43.86284" lon="7.30961">
        <ele>512.730408</ele>
        <time>2011-11-11T13:09:50Z</time>
      </trkpt>
      <trkpt lat="43.86276" lon="7.30967">
        <ele>512.979919</ele>
        <time>2011-11-11T13:09:55Z</time>
      </trkpt>
      <trkpt lat="43.86269" lon="7.30974">
        <ele>512.491089</ele>
        <time>2011-11-11T13:10:00Z</time>
      </trkpt>
      <trkpt lat="43.86263" lon="7.30983">
        <ele>513.897705</ele>
        <time>2011-11-11T13:10:05Z</time>
      </trkpt>
      <trkpt lat="43.86258" lon="7.30992">
        <ele>514.467651</ele>
        <time>2011-11-11T13:10:10Z</time>
      </trkpt>
      <trkpt lat="43.86256" lon="7.30997">
        <ele>515.686768</ele>
        <time>2011-11-11T13:10:40Z</time>
      </trkpt>
      <trkpt lat="43.86255" lon="7.31001">
        <ele>515.703003</ele>
        <time>2011-11-11T13:10:45Z</time>
      </trkpt>
      <trkpt lat="43.86253" lon="7.31007">
        <ele>516.274048</ele>
        <time>2011-11-11T13:10:50Z</time>
      </trkpt>
      <trkpt lat="43.8625" lon="7.31014">
        <ele>516.606079</ele>
        <time>2011-11-11T13:10:55Z</time>
      </trkpt>
      <trkpt lat="43.86246" lon="7.31024">
        <ele>516.483093</ele>
        <time>2011-11-11T13:11:00Z</time>
      </trkpt>
      <trkpt lat="43.86243" lon="7.31033">
        <ele>516.760742</ele>
        <time>2011-11-11T13:11:05Z</time>
      </trkpt>
      <trkpt lat="43.86237" lon="7.31041">
        <ele>517.330078</ele>
        <time>2011-11-11T13:11:10Z</time>
      </trkpt>
      <trkpt lat="43.86229" lon="7.31045">
        <ele>518.221069</ele>
        <time>2011-11-11T13:11:15Z</time>
      </trkpt>
      <trkpt lat="43.86222" lon="7.3105">
        <ele>519.09668</ele>
        <time>2011-11-11T13:11:20Z</time>
      </trkpt>
      <trkpt lat="43.86214" lon="7.31053">
        <ele>519.847351</ele>
        <time>2011-11-11T13:11:25Z</time>
      </trkpt>
      <trkpt lat="43.86207" lon="7.31056">
        <ele>520.892029</ele>
        <time>2011-11-11T13:11:30Z</time>
      </trkpt>
      <trkpt lat="43.8621" lon="7.31061">
        <ele>521.756531</ele>
        <time>2011-11-11T13:11:35Z</time>
      </trkpt>
      <trkpt lat="43.86215" lon="7.31064">
        <ele>522.839966</ele>
        <time>2011-11-11T13:11:40Z</time>
      </trkpt>
      <trkpt lat="43.86221" lon="7.31067">
        <ele>523.429138</ele>
        <time>2011-11-11T13:11:45Z</time>
      </trkpt>
      <trkpt lat="43.86227" lon="7.31074">
        <ele>523.962158</ele>
        <time>2011-11-11T13:11:50Z</time>
      </trkpt>
      <trkpt lat="43.8623" lon="7.31082">
        <ele>524.468445</ele>
        <time>2011-11-11T13:11:55Z</time>
      </trkpt>
      <trkpt lat="43.86233" lon="7.31092">
        <ele>524.839478</ele>
        <time>2011-11-11T13:12:00Z</time>
      </trkpt>
      <trkpt lat="43.86235" lon="7.31102">
        <ele>525.348083</ele>
        <time>2011-11-11T13:12:05Z</time>
      </trkpt>
      <trkpt lat="43.86233" lon="7.31111">
        <ele>526.419861</ele>
        <time>2011-11-11T13:12:10Z</time>
      </trkpt>
      <trkpt lat="43.86229" lon="7.31119">
        <ele>527.647156</ele>
        <time>2011-11-11T13:12:15Z</time>
      </trkpt>
      <trkpt lat="43.86221" lon="7.3112">
        <ele>528.646423</ele>
        <time>2011-11-11T13:12:20Z</time>
      </trkpt>
      <trkpt lat="43.86216" lon="7.31124">
        <ele>529.234314</ele>
        <time>2011-11-11T13:12:25Z</time>
      </trkpt>
      <trkpt lat="43.86211" lon="7.3113">
        <ele>529.714417</ele>
        <time>2011-11-11T13:12:30Z</time>
      </trkpt>
      <trkpt lat="43.86207" lon="7.31137">
        <ele>530.3396</ele>
        <time>2011-11-11T13:12:35Z</time>
      </trkpt>
      <trkpt lat="43.86202" lon="7.31142">
        <ele>531.190063</ele>
        <time>2011-11-11T13:12:40Z</time>
      </trkpt>
      <trkpt lat="43.86201" lon="7.31142">
        <ele>531.51062</ele>
        <time>2011-11-11T13:13:05Z</time>
      </trkpt>
      <trkpt lat="43.862" lon="7.31143">
        <ele>531.695435</ele>
        <time>2011-11-11T13:13:10Z</time>
      </trkpt>
      <trkpt lat="43.86196" lon="7.31148">
        <ele>532.6521</ele>
        <time>2011-11-11T13:13:15Z</time>
      </trkpt>
      <trkpt lat="43.86193" lon="7.31154">
        <ele>533.625732</ele>
        <time>2011-11-11T13:13:20Z</time>
      </trkpt>
      <trkpt lat="43.8619" lon="7.3116">
        <ele>534.534668</ele>
        <time>2011-11-11T13:13:25Z</time>
      </trkpt>
      <trkpt lat="43.86189" lon="7.31166">
        <ele>536.464539</ele>
        <time>2011-11-11T13:13:30Z</time>
      </trkpt>
      <trkpt lat="43.86187" lon="7.31172">
        <ele>537.532776</ele>
        <time>2011-11-11T13:13:35Z</time>
      </trkpt>
      <trkpt lat="43.86185" lon="7.31177">
        <ele>538.760803</ele>
        <time>2011-11-11T13:13:40Z</time>
      </trkpt>
      <trkpt lat="43.86183" lon="7.31183">
        <ele>539.915344</ele>
        <time>2011-11-11T13:13:45Z</time>
      </trkpt>
      <trkpt lat="43.86182" lon="7.3119">
        <ele>541.091553</ele>
        <time>2011-11-11T13:13:50Z</time>
      </trkpt>
      <trkpt lat="43.86179" lon="7.31196">
        <ele>542.022461</ele>
        <time>2011-11-11T13:13:55Z</time>
      </trkpt>
      <trkpt lat="43.86176" lon="7.31202">
        <ele>542.475098</ele>
        <time>2011-11-11T13:14:00Z</time>
      </trkpt>
      <trkpt lat="43.86173" lon="7.31208">
        <ele>542.84906</ele>
        <time>2011-11-11T13:14:05Z</time>
      </trkpt>
      <trkpt lat="43.86171" lon="7.31212">
        <ele>543.135132</ele>
        <time>2011-11-11T13:14:10Z</time>
      </trkpt>
      <trkpt lat="43.86169" lon="7.31216">
        <ele>543.424988</ele>
        <time>2011-11-11T13:14:15Z</time>
      </trkpt>
      <trkpt lat="43.86166" lon="7.31223">
        <ele>543.339661</ele>
        <time>2011-11-11T13:14:20Z</time>
      </trkpt>
      <trkpt lat="43.86163" lon="7.31238">
        <ele>542.872498</ele>
        <time>2011-11-11T13:14:25Z</time>
      </trkpt>
      <trkpt lat="43.86164" lon="7.31254">
        <ele>542.56781</ele>
        <time>2011-11-11T13:14:30Z</time>
      </trkpt>
      <trkpt lat="43.86167" lon="7.31268">
        <ele>543.097595</ele>
        <time>2011-11-11T13:14:35Z</time>
      </trkpt>
      <trkpt lat="43.86165" lon="7.31281">
        <ele>543.468628</ele>
        <time>2011-11-11T13:14:40Z</time>
      </trkpt>
      <trkpt lat="43.86163" lon="7.31295">
        <ele>543.981812</ele>
        <time>2011-11-11T13:14:45Z</time>
      </trkpt>
      <trkpt lat="43.8616" lon="7.31307">
        <ele>544.509521</ele>
        <time>2011-11-11T13:14:50Z</time>
      </trkpt>
      <trkpt lat="43.86157" lon="7.3132">
        <ele>544.319702</ele>
        <time>2011-11-11T13:14:55Z</time>
      </trkpt>
      <trkpt lat="43.86154" lon="7.3134">
        <ele>543.750305</ele>
        <time>2011-11-11T13:15:00Z</time>
      </trkpt>
      <trkpt lat="43.86148" lon="7.31353">
        <ele>543.108704</ele>
        <time>2011-11-11T13:15:05Z</time>
      </trkpt>
      <trkpt lat="43.8614" lon="7.31363">
        <ele>543.792542</ele>
        <time>2011-11-11T13:15:10Z</time>
      </trkpt>
      <trkpt lat="43.86137" lon="7.31373">
        <ele>544.403076</ele>
        <time>2011-11-11T13:15:15Z</time>
      </trkpt>
      <trkpt lat="43.86143" lon="7.3138">
        <ele>544.417297</ele>
        <time>2011-11-11T13:15:20Z</time>
      </trkpt>
      <trkpt lat="43.86148" lon="7.31389">
        <ele>544.37384</ele>
        <time>2011-11-11T13:15:25Z</time>
      </trkpt>
      <trkpt lat="43.8614" lon="7.31403">
        <ele>543.03186</ele>
        <time>2011-11-11T13:15:30Z</time>
      </trkpt>
      <trkpt lat="43.86137" lon="7.31416">
        <ele>542.447327</ele>
        <time>2011-11-11T13:15:35Z</time>
      </trkpt>
      <trkpt lat="43.86137" lon="7.31419">
        <ele>541.545349</ele>
        <time>2011-11-11T13:15:40Z</time>
      </trkpt>
      <trkpt lat="43.86136" lon="7.31424">
        <ele>541.15802</ele>
        <time>2011-11-11T13:15:45Z</time>
      </trkpt>
      <trkpt lat="43.86132" lon="7.3143">
        <ele>541.007385</ele>
        <time>2011-11-11T13:15:50Z</time>
      </trkpt>
      <trkpt lat="43.86126" lon="7.3143">
        <ele>541.178345</ele>
        <time>2011-11-11T13:15:55Z</time>
      </trkpt>
      <trkpt lat="43.86122" lon="7.31433">
        <ele>540.78949</ele>
        <time>2011-11-11T13:16:00Z</time>
      </trkpt>
      <trkpt lat="43.86117" lon="7.31433">
        <ele>541.361267</ele>
        <time>2011-11-11T13:16:05Z</time>
      </trkpt>
      <trkpt lat="43.86113" lon="7.31432">
        <ele>540.721619</ele>
        <time>2011-11-11T13:16:10Z</time>
      </trkpt>
      <trkpt lat="43.86102" lon="7.31436">
        <ele>539.756531</ele>
        <time>2011-11-11T13:16:15Z</time>
      </trkpt>
      <trkpt lat="43.86091" lon="7.31449">
        <ele>538.993958</ele>
        <time>2011-11-11T13:16:20Z</time>
      </trkpt>
      <trkpt lat="43.86081" lon="7.3146">
        <ele>540.078674</ele>
        <time>2011-11-11T13:16:25Z</time>
      </trkpt>
      <trkpt lat="43.86075" lon="7.31471">
        <ele>540.541809</ele>
        <time>2011-11-11T13:16:30Z</time>
      </trkpt>
      <trkpt lat="43.86068" lon="7.31486">
        <ele>539.535583</ele>
        <time>2011-11-11T13:16:35Z</time>
      </trkpt>
      <trkpt lat="43.8606" lon="7.31485">
        <ele>539.152405</ele>
        <time>2011-11-11T13:16:40Z</time>
      </trkpt>
      <trkpt lat="43.86059" lon="7.31484">
        <ele>539.416931</ele>
        <time>2011-11-11T13:16:45Z</time>
      </trkpt>
      <trkpt lat="43.86055" lon="7.31485">
        <ele>540.486267</ele>
        <time>2011-11-11T13:16:50Z</time>
      </trkpt>
      <trkpt lat="43.86052" lon="7.31488">
        <ele>540.926758</ele>
        <time>2011-11-11T13:16:55Z</time>
      </trkpt>
      <trkpt lat="43.86049" lon="7.31493">
        <ele>541.267334</ele>
        <time>2011-11-11T13:17:00Z</time>
      </trkpt>
      <trkpt lat="43.86048" lon="7.31499">
        <ele>540.476379</ele>
        <time>2011-11-11T13:17:05Z</time>
      </trkpt>
      <trkpt lat="43.86043" lon="7.31502">
        <ele>540.360718</ele>
        <time>2011-11-11T13:17:10Z</time>
      </trkpt>
      <trkpt lat="43.8604" lon="7.31501">
        <ele>541.853882</ele>
        <time>2011-11-11T13:17:15Z</time>
      </trkpt>
      <trkpt lat="43.86037" lon="7.31497">
        <ele>542.381287</ele>
        <time>2011-11-11T13:17:20Z</time>
      </trkpt>
      <trkpt lat="43.86035" lon="7.31498">
        <ele>542.544189</ele>
        <time>2011-11-11T13:17:25Z</time>
      </trkpt>
      <trkpt lat="43.86036" lon="7.31498">
        <ele>542.631287</ele>
        <time>2011-11-11T13:17:30Z</time>
      </trkpt>
      <trkpt lat="43.86036" lon="7.31498">
        <ele>542.657654</ele>
        <time>2011-11-11T13:17:35Z</time>
      </trkpt>
      <trkpt lat="43.86034" lon="7.31501">
        <ele>542.72522</ele>
        <time>2011-11-11T13:17:40Z</time>
      </trkpt>
      <trkpt lat="43.8603" lon="7.31502">
        <ele>543.470947</ele>
        <time>2011-11-11T13:17:45Z</time>
      </trkpt>
      <trkpt lat="43.86027" lon="7.31503">
        <ele>544.966492</ele>
        <time>2011-11-11T13:17:50Z</time>
      </trkpt>
      <trkpt lat="43.86025" lon="7.31511">
        <ele>546.337769</ele>
        <time>2011-11-11T13:17:55Z</time>
      </trkpt>
      <trkpt lat="43.86025" lon="7.31518">
        <ele>548.642395</ele>
        <time>2011-11-11T13:18:00Z</time>
      </trkpt>
      <trkpt lat="43.86024" lon="7.31524">
        <ele>549.613464</ele>
        <time>2011-11-11T13:18:05Z</time>
      </trkpt>
      <trkpt lat="43.86023" lon="7.31529">
        <ele>549.57959</ele>
        <time>2011-11-11T13:18:10Z</time>
      </trkpt>
      <trkpt lat="43.86022" lon="7.3153">
        <ele>549.496338</ele>
        <time>2011-11-11T13:18:20Z</time>
      </trkpt>
      <trkpt lat="43.86023" lon="7.31531">
        <ele>549.872559</ele>
        <time>2011-11-11T13:18:25Z</time>
      </trkpt>
      <trkpt lat="43.86023" lon="7.31532">
        <ele>550.055786</ele>
        <time>2011-11-11T13:18:30Z</time>
      </trkpt>
      <trkpt lat="43.86021" lon="7.3153">
        <ele>550.533752</ele>
        <time>2011-11-11T13:18:35Z</time>
      </trkpt>
      <trkpt lat="43.86019" lon="7.31528">
        <ele>551.556763</ele>
        <time>2011-11-11T13:18:40Z</time>
      </trkpt>
      <trkpt lat="43.86016" lon="7.31526">
        <ele>552.158936</ele>
        <time>2011-11-11T13:18:45Z</time>
      </trkpt>
      <trkpt lat="43.86014" lon="7.31529">
        <ele>552.097107</ele>
        <time>2011-11-11T13:18:50Z</time>
      </trkpt>
      <trkpt lat="43.86013" lon="7.31532">
        <ele>552.064697</ele>
        <time>2011-11-11T13:18:55Z</time>
      </trkpt>
      <trkpt lat="43.86014" lon="7.31534">
        <ele>552.901917</ele>
        <time>2011-11-11T13:19:00Z</time>
      </trkpt>
      <trkpt lat="43.86016" lon="7.31539">
        <ele>553.655334</ele>
        <time>2011-11-11T13:19:05Z</time>
      </trkpt>
      <trkpt lat="43.86016" lon="7.31545">
        <ele>555.035278</ele>
        <time>2011-11-11T13:19:10Z</time>
      </trkpt>
      <trkpt lat="43.86015" lon="7.31549">
        <ele>556.70282</ele>
        <time>2011-11-11T13:19:15Z</time>
      </trkpt>
      <trkpt lat="43.86016" lon="7.31551">
        <ele>559.281677</ele>
        <time>2011-11-11T13:19:20Z</time>
      </trkpt>
      <trkpt lat="43.86016" lon="7.31555">
        <ele>560.693481</ele>
        <time>2011-11-11T13:19:25Z</time>
      </trkpt>
      <trkpt lat="43.86016" lon="7.3156">
        <ele>560.378174</ele>
        <time>2011-11-11T13:19:30Z</time>
      </trkpt>
      <trkpt lat="43.86014" lon="7.31562">
        <ele>560.414551</ele>
        <time>2011-11-11T13:19:35Z</time>
      </trkpt>
      <trkpt lat="43.86011" lon="7.31564">
        <ele>561.470215</ele>
        <time>2011-11-11T13:19:40Z</time>
      </trkpt>
      <trkpt lat="43.86009" lon="7.31567">
        <ele>563.180115</ele>
        <time>2011-11-11T13:19:45Z</time>
      </trkpt>
      <trkpt lat="43.86007" lon="7.31571">
        <ele>562.808716</ele>
        <time>2011-11-11T13:19:50Z</time>
      </trkpt>
      <trkpt lat="43.86007" lon="7.31575">
        <ele>563.014099</ele>
        <time>2011-11-11T13:19:55Z</time>
      </trkpt>
      <trkpt lat="43.86007" lon="7.31579">
        <ele>563.17157</ele>
        <time>2011-11-11T13:20:00Z</time>
      </trkpt>
      <trkpt lat="43.86007" lon="7.31584">
        <ele>563.354187</ele>
        <time>2011-11-11T13:20:05Z</time>
      </trkpt>
      <trkpt lat="43.86005" lon="7.31588">
        <ele>563.424561</ele>
        <time>2011-11-11T13:20:10Z</time>
      </trkpt>
      <trkpt lat="43.86003" lon="7.31591">
        <ele>564.122559</ele>
        <time>2011-11-11T13:20:15Z</time>
      </trkpt>
      <trkpt lat="43.86001" lon="7.31593">
        <ele>565.008057</ele>
        <time>2011-11-11T13:20:20Z</time>
      </trkpt>
      <trkpt lat="43.86001" lon="7.31593">
        <ele>565.443604</ele>
        <time>2011-11-11T13:20:25Z</time>
      </trkpt>
      <trkpt lat="43.86001" lon="7.31593">
        <ele>565.976257</ele>
        <time>2011-11-11T13:20:30Z</time>
      </trkpt>
      <trkpt lat="43.86002" lon="7.31597">
        <ele>566.643555</ele>
        <time>2011-11-11T13:20:35Z</time>
      </trkpt>
      <trkpt lat="43.85999" lon="7.31601">
        <ele>567.11377</ele>
        <time>2011-11-11T13:20:40Z</time>
      </trkpt>
      <trkpt lat="43.8592" lon="7.31669">
        <ele>601.502747</ele>
        <time>2011-11-11T13:27:05Z</time>
      </trkpt>
      <trkpt lat="43.8587" lon="7.31773">
        <ele>642.789673</ele>
        <time>2011-11-11T13:31:50Z</time>
      </trkpt>
      <trkpt lat="43.85873" lon="7.31775">
        <ele>643.222229</ele>
        <time>2011-11-11T13:31:55Z</time>
      </trkpt>
      <trkpt lat="43.85875" lon="7.31777">
        <ele>643.13739</ele>
        <time>2011-11-11T13:32:00Z</time>
      </trkpt>
      <trkpt lat="43.85877" lon="7.31781">
        <ele>642.934753</ele>
        <time>2011-11-11T13:32:05Z</time>
      </trkpt>
      <trkpt lat="43.85877" lon="7.31785">
        <ele>642.688599</ele>
        <time>2011-11-11T13:32:10Z</time>
      </trkpt>
      <trkpt lat="43.8588" lon="7.31788">
        <ele>642.893799</ele>
        <time>2011-11-11T13:32:15Z</time>
      </trkpt>
      <trkpt lat="43.85881" lon="7.31793">
        <ele>643.128174</ele>
        <time>2011-11-11T13:32:20Z</time>
      </trkpt>
      <trkpt lat="43.85884" lon="7.31796">
        <ele>643.581421</ele>
        <time>2011-11-11T13:32:25Z</time>
      </trkpt>
      <trkpt lat="43.85886" lon="7.31795">
        <ele>645.429138</ele>
        <time>2011-11-11T13:32:30Z</time>
      </trkpt>
      <trkpt lat="43.85889" lon="7.31795">
        <ele>647.527344</ele>
        <time>2011-11-11T13:32:35Z</time>
      </trkpt>
      <trkpt lat="43.85892" lon="7.31795">
        <ele>648.398254</ele>
        <time>2011-11-11T13:32:40Z</time>
      </trkpt>
      <trkpt lat="43.85895" lon="7.318">
        <ele>649.059875</ele>
        <time>2011-11-11T13:32:45Z</time>
      </trkpt>
      <trkpt lat="43.85901" lon="7.31802">
        <ele>649.631042</ele>
        <time>2011-11-11T13:32:50Z</time>
      </trkpt>
      <trkpt lat="43.85907" lon="7.31801">
        <ele>650.48761</ele>
        <time>2011-11-11T13:32:55Z</time>
      </trkpt>
      <trkpt lat="43.85913" lon="7.31802">
        <ele>651.245972</ele>
        <time>2011-11-11T13:33:00Z</time>
      </trkpt>
      <trkpt lat="43.85917" lon="7.31804">
        <ele>652.434021</ele>
        <time>2011-11-11T13:33:05Z</time>
      </trkpt>
      <trkpt lat="43.8592" lon="7.31805">
        <ele>654.765503</ele>
        <time>2011-11-11T13:33:10Z</time>
      </trkpt>
      <trkpt lat="43.85923" lon="7.31807">
        <ele>656.539551</ele>
        <time>2011-11-11T13:33:15Z</time>
      </trkpt>
      <trkpt lat="43.85924" lon="7.31808">
        <ele>657.885193</ele>
        <time>2011-11-11T13:33:20Z</time>
      </trkpt>
      <trkpt lat="43.85927" lon="7.3181">
        <ele>657.804688</ele>
        <time>2011-11-11T13:33:25Z</time>
      </trkpt>
      <trkpt lat="43.85931" lon="7.31814">
        <ele>658.606995</ele>
        <time>2011-11-11T13:33:30Z</time>
      </trkpt>
      <trkpt lat="43.85935" lon="7.31814">
        <ele>660.078613</ele>
        <time>2011-11-11T13:33:35Z</time>
      </trkpt>
      <trkpt lat="43.8594" lon="7.31817">
        <ele>660.180603</ele>
        <time>2011-11-11T13:33:40Z</time>
      </trkpt>
      <trkpt lat="43.85943" lon="7.3182">
        <ele>660.847168</ele>
        <time>2011-11-11T13:33:45Z</time>
      </trkpt>
      <trkpt lat="43.85947" lon="7.31824">
        <ele>661.638062</ele>
        <time>2011-11-11T13:33:50Z</time>
      </trkpt>
      <trkpt lat="43.8595" lon="7.31828">
        <ele>662.075317</ele>
        <time>2011-11-11T13:33:55Z</time>
      </trkpt>
      <trkpt lat="43.85953" lon="7.31832">
        <ele>662.582458</ele>
        <time>2011-11-11T13:34:00Z</time>
      </trkpt>
      <trkpt lat="43.85955" lon="7.31836">
        <ele>664.229614</ele>
        <time>2011-11-11T13:34:05Z</time>
      </trkpt>
      <trkpt lat="43.85957" lon="7.3184">
        <ele>664.685181</ele>
        <time>2011-11-11T13:34:10Z</time>
      </trkpt>
      <trkpt lat="43.85959" lon="7.31845">
        <ele>665.018311</ele>
        <time>2011-11-11T13:34:15Z</time>
      </trkpt>
      <trkpt lat="43.85962" lon="7.3185">
        <ele>664.924255</ele>
        <time>2011-11-11T13:34:20Z</time>
      </trkpt>
      <trkpt lat="43.85966" lon="7.31856">
        <ele>662.231567</ele>
        <time>2011-11-11T13:34:25Z</time>
      </trkpt>
      <trkpt lat="43.85969" lon="7.31864">
        <ele>660.564087</ele>
        <time>2011-11-11T13:34:30Z</time>
      </trkpt>
      <trkpt lat="43.8597" lon="7.31868">
        <ele>662.137146</ele>
        <time>2011-11-11T13:34:35Z</time>
      </trkpt>
      <trkpt lat="43.85971" lon="7.31871">
        <ele>663.804993</ele>
        <time>2011-11-11T13:34:40Z</time>
      </trkpt>
      <trkpt lat="43.85973" lon="7.31874">
        <ele>666.837219</ele>
        <time>2011-11-11T13:34:45Z</time>
      </trkpt>
      <trkpt lat="43.85976" lon="7.31878">
        <ele>668.418335</ele>
        <time>2011-11-11T13:34:50Z</time>
      </trkpt>
      <trkpt lat="43.85978" lon="7.31882">
        <ele>668.772949</ele>
        <time>2011-11-11T13:34:55Z</time>
      </trkpt>
      <trkpt lat="43.85984" lon="7.31886">
        <ele>667.855286</ele>
        <time>2011-11-11T13:35:00Z</time>
      </trkpt>
      <trkpt lat="43.85987" lon="7.31887">
        <ele>668.00531</ele>
        <time>2011-11-11T13:35:05Z</time>
      </trkpt>
      <trkpt lat="43.8599" lon="7.31889">
        <ele>669.351318</ele>
        <time>2011-11-11T13:35:10Z</time>
      </trkpt>
      <trkpt lat="43.85993" lon="7.31894">
        <ele>668.696838</ele>
        <time>2011-11-11T13:35:15Z</time>
      </trkpt>
      <trkpt lat="43.85996" lon="7.31897">
        <ele>668.608215</ele>
        <time>2011-11-11T13:35:20Z</time>
      </trkpt>
      <trkpt lat="43.85998" lon="7.31901">
        <ele>669.351135</ele>
        <time>2011-11-11T13:35:25Z</time>
      </trkpt>
      <trkpt lat="43.86" lon="7.31904">
        <ele>670.595215</ele>
        <time>2011-11-11T13:35:30Z</time>
      </trkpt>
      <trkpt lat="43.86003" lon="7.31908">
        <ele>671.419067</ele>
        <time>2011-11-11T13:35:35Z</time>
      </trkpt>
      <trkpt lat="43.86006" lon="7.31914">
        <ele>672.01062</ele>
        <time>2011-11-11T13:35:40Z</time>
      </trkpt>
      <trkpt lat="43.8601" lon="7.31919">
        <ele>670.677063</ele>
        <time>2011-11-11T13:35:45Z</time>
      </trkpt>
      <trkpt lat="43.86013" lon="7.31925">
        <ele>671.495728</ele>
        <time>2011-11-11T13:35:50Z</time>
      </trkpt>
      <trkpt lat="43.86014" lon="7.3193">
        <ele>672.116333</ele>
        <time>2011-11-11T13:35:55Z</time>
      </trkpt>
      <trkpt lat="43.86016" lon="7.31937">
        <ele>672.474731</ele>
        <time>2011-11-11T13:36:00Z</time>
      </trkpt>
      <trkpt lat="43.86017" lon="7.31942">
        <ele>672.355652</ele>
        <time>2011-11-11T13:36:05Z</time>
      </trkpt>
      <trkpt lat="43.86019" lon="7.31947">
        <ele>672.058167</ele>
        <time>2011-11-11T13:36:10Z</time>
      </trkpt>
      <trkpt lat="43.86022" lon="7.31952">
        <ele>671.288208</ele>
        <time>2011-11-11T13:36:15Z</time>
      </trkpt>
      <trkpt lat="43.86026" lon="7.31958">
        <ele>670.715576</ele>
        <time>2011-11-11T13:36:20Z</time>
      </trkpt>
      <trkpt lat="43.86027" lon="7.31964">
        <ele>670.232666</ele>
        <time>2011-11-11T13:36:25Z</time>
      </trkpt>
      <trkpt lat="43.86029" lon="7.31969">
        <ele>668.281555</ele>
        <time>2011-11-11T13:36:30Z</time>
      </trkpt>
      <trkpt lat="43.8603" lon="7.31974">
        <ele>667.24939</ele>
        <time>2011-11-11T13:36:35Z</time>
      </trkpt>
      <trkpt lat="43.8603" lon="7.31978">
        <ele>667.769348</ele>
        <time>2011-11-11T13:36:40Z</time>
      </trkpt>
      <trkpt lat="43.86028" lon="7.31983">
        <ele>668.130676</ele>
        <time>2011-11-11T13:36:45Z</time>
      </trkpt>
      <trkpt lat="43.86028" lon="7.31991">
        <ele>667.994141</ele>
        <time>2011-11-11T13:36:50Z</time>
      </trkpt>
      <trkpt lat="43.86029" lon="7.31993">
        <ele>668.617065</ele>
        <time>2011-11-11T13:36:55Z</time>
      </trkpt>
      <trkpt lat="43.86016" lon="7.32063">
        <ele>681.445374</ele>
        <time>2011-11-11T13:45:10Z</time>
      </trkpt>
      <trkpt lat="43.85922" lon="7.32131">
        <ele>677.516541</ele>
        <time>2011-11-11T13:45:40Z</time>
      </trkpt>
      <trkpt lat="43.85906" lon="7.32141">
        <ele>673.868835</ele>
        <time>2011-11-11T13:45:45Z</time>
      </trkpt>
      <trkpt lat="43.85897" lon="7.32148">
        <ele>671.842407</ele>
        <time>2011-11-11T13:45:50Z</time>
      </trkpt>
      <trkpt lat="43.85897" lon="7.32148">
        <ele>672.030762</ele>
        <time>2011-11-11T13:45:55Z</time>
      </trkpt>
      <trkpt lat="43.85898" lon="7.32148">
        <ele>672.093811</ele>
        <time>2011-11-11T13:46:00Z</time>
      </trkpt>
      <trkpt lat="43.85897" lon="7.32149">
        <ele>671.521301</ele>
        <time>2011-11-11T13:46:05Z</time>
      </trkpt>
      <trkpt lat="43.85895" lon="7.32153">
        <ele>670.516724</ele>
        <time>2011-11-11T13:46:10Z</time>
      </trkpt>
      <trkpt lat="43.85889" lon="7.32159">
        <ele>669.49054</ele>
        <time>2011-11-11T13:46:15Z</time>
      </trkpt>
      <trkpt lat="43.85879" lon="7.32169">
        <ele>666.192444</ele>
        <time>2011-11-11T13:46:20Z</time>
      </trkpt>
      <trkpt lat="43.85867" lon="7.32173">
        <ele>663.442444</ele>
        <time>2011-11-11T13:46:25Z</time>
      </trkpt>
      <trkpt lat="43.85854" lon="7.32176">
        <ele>661.813538</ele>
        <time>2011-11-11T13:46:30Z</time>
      </trkpt>
      <trkpt lat="43.85844" lon="7.32181">
        <ele>659.698242</ele>
        <time>2011-11-11T13:46:35Z</time>
      </trkpt>
      <trkpt lat="43.85839" lon="7.32181">
        <ele>658.383789</ele>
        <time>2011-11-11T13:46:40Z</time>
      </trkpt>
      <trkpt lat="43.85828" lon="7.3218">
        <ele>655.398132</ele>
        <time>2011-11-11T13:46:45Z</time>
      </trkpt>
      <trkpt lat="43.85811" lon="7.32177">
        <ele>654.409729</ele>
        <time>2011-11-11T13:46:50Z</time>
      </trkpt>
      <trkpt lat="43.85793" lon="7.32177">
        <ele>653.323547</ele>
        <time>2011-11-11T13:46:55Z</time>
      </trkpt>
      <trkpt lat="43.85777" lon="7.32189">
        <ele>650.713989</ele>
        <time>2011-11-11T13:47:00Z</time>
      </trkpt>
      <trkpt lat="43.85777" lon="7.32189">
        <ele>650.441589</ele>
        <time>2011-11-11T13:47:05Z</time>
      </trkpt>
      <trkpt lat="43.85777" lon="7.32189">
        <ele>650.409668</ele>
        <time>2011-11-11T13:47:10Z</time>
      </trkpt>
      <trkpt lat="43.85776" lon="7.32189">
        <ele>650.298523</ele>
        <time>2011-11-11T13:47:15Z</time>
      </trkpt>
      <trkpt lat="43.85764" lon="7.32196">
        <ele>650.699341</ele>
        <time>2011-11-11T13:47:20Z</time>
      </trkpt>
      <trkpt lat="43.85745" lon="7.32197">
        <ele>648.996277</ele>
        <time>2011-11-11T13:47:25Z</time>
      </trkpt>
      <trkpt lat="43.85728" lon="7.32186">
        <ele>645.98407</ele>
        <time>2011-11-11T13:47:30Z</time>
      </trkpt>
      <trkpt lat="43.85718" lon="7.32197">
        <ele>643.721375</ele>
        <time>2011-11-11T13:47:35Z</time>
      </trkpt>
      <trkpt lat="43.85714" lon="7.32204">
        <ele>643.979004</ele>
        <time>2011-11-11T13:47:40Z</time>
      </trkpt>
      <trkpt lat="43.85703" lon="7.32212">
        <ele>644.345459</ele>
        <time>2011-11-11T13:47:45Z</time>
      </trkpt>
      <trkpt lat="43.85694" lon="7.32215">
        <ele>644.224243</ele>
        <time>2011-11-11T13:47:50Z</time>
      </trkpt>
      <trkpt lat="43.85688" lon="7.32218">
        <ele>644.867981</ele>
        <time>2011-11-11T13:47:55Z</time>
      </trkpt>
      <trkpt lat="43.8568" lon="7.32229">
        <ele>642.140686</ele>
        <time>2011-11-11T13:48:00Z</time>
      </trkpt>
      <trkpt lat="43.85669" lon="7.32248">
        <ele>637.927979</ele>
        <time>2011-11-11T13:48:05Z</time>
      </trkpt>
      <trkpt lat="43.85661" lon="7.32261">
        <ele>636.241821</ele>
        <time>2011-11-11T13:48:30Z</time>
      </trkpt>
      <trkpt lat="43.85658" lon="7.32264">
        <ele>636.327209</ele>
        <time>2011-11-11T13:48:35Z</time>
      </trkpt>
      <trkpt lat="43.85641" lon="7.32265">
        <ele>633.856201</ele>
        <time>2011-11-11T13:48:40Z</time>
      </trkpt>
      <trkpt lat="43.85624" lon="7.32244">
        <ele>630.295654</ele>
        <time>2011-11-11T13:48:45Z</time>
      </trkpt>
      <trkpt lat="43.85622" lon="7.32216">
        <ele>628.621582</ele>
        <time>2011-11-11T13:48:50Z</time>
      </trkpt>
      <trkpt lat="43.85609" lon="7.32221">
        <ele>628.601318</ele>
        <time>2011-11-11T13:48:55Z</time>
      </trkpt>
      <trkpt lat="43.856" lon="7.32237">
        <ele>630.214966</ele>
        <time>2011-11-11T13:49:00Z</time>
      </trkpt>
      <trkpt lat="43.85589" lon="7.32248">
        <ele>632.196899</ele>
        <time>2011-11-11T13:49:05Z</time>
      </trkpt>
      <trkpt lat="43.85583" lon="7.32268">
        <ele>631.14032</ele>
        <time>2011-11-11T13:49:10Z</time>
      </trkpt>
      <trkpt lat="43.85576" lon="7.32277">
        <ele>629.794312</ele>
        <time>2011-11-11T13:49:15Z</time>
      </trkpt>
      <trkpt lat="43.85576" lon="7.32278">
        <ele>629.017456</ele>
        <time>2011-11-11T13:49:50Z</time>
      </trkpt>
      <trkpt lat="43.85572" lon="7.32278">
        <ele>628.898376</ele>
        <time>2011-11-11T13:49:55Z</time>
      </trkpt>
      <trkpt lat="43.85561" lon="7.32274">
        <ele>626.784973</ele>
        <time>2011-11-11T13:50:00Z</time>
      </trkpt>
      <trkpt lat="43.85555" lon="7.32281">
        <ele>624.240417</ele>
        <time>2011-11-11T13:50:05Z</time>
      </trkpt>
      <trkpt lat="43.85543" lon="7.32276">
        <ele>622.192383</ele>
        <time>2011-11-11T13:50:10Z</time>
      </trkpt>
      <trkpt lat="43.85525" lon="7.32288">
        <ele>621.674744</ele>
        <time>2011-11-11T13:50:15Z</time>
      </trkpt>
      <trkpt lat="43.85513" lon="7.32293">
        <ele>622.250549</ele>
        <time>2011-11-11T13:50:20Z</time>
      </trkpt>
      <trkpt lat="43.85498" lon="7.32311">
        <ele>623.28302</ele>
        <time>2011-11-11T13:50:25Z</time>
      </trkpt>
      <trkpt lat="43.85487" lon="7.32333">
        <ele>620.56012</ele>
        <time>2011-11-11T13:50:30Z</time>
      </trkpt>
      <trkpt lat="43.85475" lon="7.32362">
        <ele>620.310486</ele>
        <time>2011-11-11T13:50:35Z</time>
      </trkpt>
      <trkpt lat="43.85476" lon="7.32387">
        <ele>619.972412</ele>
        <time>2011-11-11T13:50:40Z</time>
      </trkpt>
      <trkpt lat="43.85473" lon="7.32411">
        <ele>618.267517</ele>
        <time>2011-11-11T13:50:45Z</time>
      </trkpt>
      <trkpt lat="43.85463" lon="7.32434">
        <ele>617.387085</ele>
        <time>2011-11-11T13:50:50Z</time>
      </trkpt>
      <trkpt lat="43.8545" lon="7.32461">
        <ele>616.725708</ele>
        <time>2011-11-11T13:50:55Z</time>
      </trkpt>
      <trkpt lat="43.85432" lon="7.32485">
        <ele>614.997192</ele>
        <time>2011-11-11T13:51:00Z</time>
      </trkpt>
      <trkpt lat="43.85411" lon="7.32502">
        <ele>613.882019</ele>
        <time>2011-11-11T13:51:05Z</time>
      </trkpt>
      <trkpt lat="43.85405" lon="7.32509">
        <ele>611.320923</ele>
        <time>2011-11-11T13:51:30Z</time>
      </trkpt>
      <trkpt lat="43.85398" lon="7.32517">
        <ele>609.88147</ele>
        <time>2011-11-11T13:51:35Z</time>
      </trkpt>
      <trkpt lat="43.85384" lon="7.32533">
        <ele>608.232056</ele>
        <time>2011-11-11T13:51:40Z</time>
      </trkpt>
      <trkpt lat="43.8537" lon="7.32566">
        <ele>603.94519</ele>
        <time>2011-11-11T13:51:45Z</time>
      </trkpt>
      <trkpt lat="43.8536" lon="7.32603">
        <ele>598.990356</ele>
        <time>2011-11-11T13:51:50Z</time>
      </trkpt>
      <trkpt lat="43.85362" lon="7.32647">
        <ele>596.71759</ele>
        <time>2011-11-11T13:51:55Z</time>
      </trkpt>
      <trkpt lat="43.8537" lon="7.32684">
        <ele>596.071838</ele>
        <time>2011-11-11T13:52:00Z</time>
      </trkpt>
      <trkpt lat="43.85369" lon="7.32711">
        <ele>595.828125</ele>
        <time>2011-11-11T13:52:05Z</time>
      </trkpt>
      <trkpt lat="43.85362" lon="7.32701">
        <ele>595.174683</ele>
        <time>2011-11-11T13:52:10Z</time>
      </trkpt>
      <trkpt lat="43.85353" lon="7.3268">
        <ele>594.114746</ele>
        <time>2011-11-11T13:52:15Z</time>
      </trkpt>
      <trkpt lat="43.85338" lon="7.32661">
        <ele>593.433777</ele>
        <time>2011-11-11T13:52:20Z</time>
      </trkpt>
      <trkpt lat="43.85324" lon="7.32649">
        <ele>592.807312</ele>
        <time>2011-11-11T13:52:25Z</time>
      </trkpt>
      <trkpt lat="43.85318" lon="7.32635">
        <ele>593.399658</ele>
        <time>2011-11-11T13:52:30Z</time>
      </trkpt>
      <trkpt lat="43.8531" lon="7.32622">
        <ele>594.202148</ele>
        <time>2011-11-11T13:52:35Z</time>
      </trkpt>
      <trkpt lat="43.85302" lon="7.3261">
        <ele>593.95636</ele>
        <time>2011-11-11T13:52:40Z</time>
      </trkpt>
      <trkpt lat="43.85295" lon="7.32596">
        <ele>592.806091</ele>
        <time>2011-11-11T13:52:45Z</time>
      </trkpt>
      <trkpt lat="43.85284" lon="7.32577">
        <ele>592.039307</ele>
        <time>2011-11-11T13:52:50Z</time>
      </trkpt>
      <trkpt lat="43.85279" lon="7.32559">
        <ele>593.218445</ele>
        <time>2011-11-11T13:52:55Z</time>
      </trkpt>
      <trkpt lat="43.85273" lon="7.32543">
        <ele>592.608093</ele>
        <time>2011-11-11T13:53:00Z</time>
      </trkpt>
      <trkpt lat="43.85261" lon="7.32523">
        <ele>588.971924</ele>
        <time>2011-11-11T13:53:05Z</time>
      </trkpt>
      <trkpt lat="43.85261" lon="7.32502">
        <ele>587.099731</ele>
        <time>2011-11-11T13:53:10Z</time>
      </trkpt>
      <trkpt lat="43.85264" lon="7.32483">
        <ele>584.151367</ele>
        <time>2011-11-11T13:53:15Z</time>
      </trkpt>
      <trkpt lat="43.8525" lon="7.32468">
        <ele>581.845886</ele>
        <time>2011-11-11T13:53:20Z</time>
      </trkpt>
      <trkpt lat="43.85239" lon="7.32457">
        <ele>578.12085</ele>
        <time>2011-11-11T13:53:25Z</time>
      </trkpt>
      <trkpt lat="43.85238" lon="7.32456">
        <ele>577.739746</ele>
        <time>2011-11-11T13:53:30Z</time>
      </trkpt>
      <trkpt lat="43.85238" lon="7.32456">
        <ele>577.740417</ele>
        <time>2011-11-11T13:53:35Z</time>
      </trkpt>
      <trkpt lat="43.85239" lon="7.3246">
        <ele>577.846802</ele>
        <time>2011-11-11T13:53:40Z</time>
      </trkpt>
      <trkpt lat="43.85239" lon="7.32462">
        <ele>577.554932</ele>
        <time>2011-11-11T13:53:45Z</time>
      </trkpt>
      <trkpt lat="43.85237" lon="7.32469">
        <ele>575.472046</ele>
        <time>2011-11-11T13:53:50Z</time>
      </trkpt>
      <trkpt lat="43.85225" lon="7.32458">
        <ele>573.319336</ele>
        <time>2011-11-11T13:53:55Z</time>
      </trkpt>
      <trkpt lat="43.85203" lon="7.32438">
        <ele>570.337402</ele>
        <time>2011-11-11T13:54:00Z</time>
      </trkpt>
      <trkpt lat="43.85186" lon="7.32433">
        <ele>568.726501</ele>
        <time>2011-11-11T13:54:05Z</time>
      </trkpt>
      <trkpt lat="43.85185" lon="7.32444">
        <ele>569.706665</ele>
        <time>2011-11-11T13:54:10Z</time>
      </trkpt>
      <trkpt lat="43.8519" lon="7.32453">
        <ele>571.196655</ele>
        <time>2011-11-11T13:54:15Z</time>
      </trkpt>
      <trkpt lat="43.85192" lon="7.32465">
        <ele>572.289978</ele>
        <time>2011-11-11T13:54:20Z</time>
      </trkpt>
      <trkpt lat="43.85192" lon="7.32478">
        <ele>573.231384</ele>
        <time>2011-11-11T13:54:25Z</time>
      </trkpt>
      <trkpt lat="43.8519" lon="7.32492">
        <ele>574.162109</ele>
        <time>2011-11-11T13:54:30Z</time>
      </trkpt>
      <trkpt lat="43.85188" lon="7.32504">
        <ele>575.112305</ele>
        <time>2011-11-11T13:54:35Z</time>
      </trkpt>
      <trkpt lat="43.85185" lon="7.32517">
        <ele>575.835693</ele>
        <time>2011-11-11T13:54:40Z</time>
      </trkpt>
      <trkpt lat="43.8518" lon="7.32529">
        <ele>576.647217</ele>
        <time>2011-11-11T13:54:45Z</time>
      </trkpt>
      <trkpt lat="43.85174" lon="7.3254">
        <ele>577.568787</ele>
        <time>2011-11-11T13:54:50Z</time>
      </trkpt>
      <trkpt lat="43.85169" lon="7.32552">
        <ele>578.547791</ele>
        <time>2011-11-11T13:54:55Z</time>
      </trkpt>
      <trkpt lat="43.85166" lon="7.32565">
        <ele>578.985718</ele>
        <time>2011-11-11T13:55:00Z</time>
      </trkpt>
      <trkpt lat="43.85165" lon="7.32577">
        <ele>579.571289</ele>
        <time>2011-11-11T13:55:05Z</time>
      </trkpt>
      <trkpt lat="43.85164" lon="7.32589">
        <ele>580.270813</ele>
        <time>2011-11-11T13:55:10Z</time>
      </trkpt>
      <trkpt lat="43.85164" lon="7.32602">
        <ele>580.957214</ele>
        <time>2011-11-11T13:55:15Z</time>
      </trkpt>
      <trkpt lat="43.8516" lon="7.32611">
        <ele>581.933533</ele>
        <time>2011-11-11T13:55:20Z</time>
      </trkpt>
      <trkpt lat="43.85156" lon="7.32604">
        <ele>582.95813</ele>
        <time>2011-11-11T13:55:25Z</time>
      </trkpt>
      <trkpt lat="43.85155" lon="7.32592">
        <ele>584.648071</ele>
        <time>2011-11-11T13:55:30Z</time>
      </trkpt>
      <trkpt lat="43.85155" lon="7.32582">
        <ele>585.585144</ele>
        <time>2011-11-11T13:55:35Z</time>
      </trkpt>
      <trkpt lat="43.85154" lon="7.32573">
        <ele>586.281921</ele>
        <time>2011-11-11T13:55:40Z</time>
      </trkpt>
      <trkpt lat="43.85154" lon="7.32563">
        <ele>586.58667</ele>
        <time>2011-11-11T13:55:45Z</time>
      </trkpt>
      <trkpt lat="43.85155" lon="7.32555">
        <ele>587.21698</ele>
        <time>2011-11-11T13:55:50Z</time>
      </trkpt>
      <trkpt lat="43.85156" lon="7.32547">
        <ele>587.329163</ele>
        <time>2011-11-11T13:55:55Z</time>
      </trkpt>
      <trkpt lat="43.85158" lon="7.32539">
        <ele>587.755005</ele>
        <time>2011-11-11T13:56:00Z</time>
      </trkpt>
      <trkpt lat="43.8516" lon="7.3253">
        <ele>588.348572</ele>
        <time>2011-11-11T13:56:05Z</time>
      </trkpt>
      <trkpt lat="43.85162" lon="7.32522">
        <ele>588.667358</ele>
        <time>2011-11-11T13:56:10Z</time>
      </trkpt>
      <trkpt lat="43.85164" lon="7.32513">
        <ele>589.656982</ele>
        <time>2011-11-11T13:56:15Z</time>
      </trkpt>
      <trkpt lat="43.85165" lon="7.32503">
        <ele>590.082642</ele>
        <time>2011-11-11T13:56:20Z</time>
      </trkpt>
      <trkpt lat="43.85166" lon="7.32493">
        <ele>590.962097</ele>
        <time>2011-11-11T13:56:25Z</time>
      </trkpt>
      <trkpt lat="43.85164" lon="7.32483">
        <ele>591.107483</ele>
        <time>2011-11-11T13:56:30Z</time>
      </trkpt>
      <trkpt lat="43.85159" lon="7.32475">
        <ele>591.661804</ele>
        <time>2011-11-11T13:56:35Z</time>
      </trkpt>
      <trkpt lat="43.85152" lon="7.32469">
        <ele>591.625366</ele>
        <time>2011-11-11T13:56:40Z</time>
      </trkpt>
      <trkpt lat="43.85143" lon="7.32467">
        <ele>591.921936</ele>
        <time>2011-11-11T13:56:45Z</time>
      </trkpt>
      <trkpt lat="43.85135" lon="7.32468">
        <ele>592.677795</ele>
        <time>2011-11-11T13:56:50Z</time>
      </trkpt>
      <trkpt lat="43.85126" lon="7.3247">
        <ele>593.429688</ele>
        <time>2011-11-11T13:56:55Z</time>
      </trkpt>
      <trkpt lat="43.85118" lon="7.32472">
        <ele>594.161743</ele>
        <time>2011-11-11T13:57:00Z</time>
      </trkpt>
      <trkpt lat="43.85112" lon="7.32483">
        <ele>595.337708</ele>
        <time>2011-11-11T13:57:05Z</time>
      </trkpt>
      <trkpt lat="43.85109" lon="7.32493">
        <ele>595.616455</ele>
        <time>2011-11-11T13:57:10Z</time>
      </trkpt>
      <trkpt lat="43.85108" lon="7.32494">
        <ele>595.368225</ele>
        <time>2011-11-11T13:57:15Z</time>
      </trkpt>
      <trkpt lat="43.85108" lon="7.32495">
        <ele>594.038086</ele>
        <time>2011-11-11T13:58:50Z</time>
      </trkpt>
      <trkpt lat="43.85108" lon="7.32495">
        <ele>594.161987</ele>
        <time>2011-11-11T13:58:55Z</time>
      </trkpt>
      <trkpt lat="43.85108" lon="7.32495">
        <ele>594.495056</ele>
        <time>2011-11-11T14:00:15Z</time>
      </trkpt>
      <trkpt lat="43.85104" lon="7.32501">
        <ele>594.710754</ele>
        <time>2011-11-11T14:00:20Z</time>
      </trkpt>
      <trkpt lat="43.85096" lon="7.32515">
        <ele>594.575745</ele>
        <time>2011-11-11T14:00:25Z</time>
      </trkpt>
      <trkpt lat="43.85089" lon="7.32531">
        <ele>594.401367</ele>
        <time>2011-11-11T14:00:30Z</time>
      </trkpt>
      <trkpt lat="43.85079" lon="7.32546">
        <ele>594.872009</ele>
        <time>2011-11-11T14:00:35Z</time>
      </trkpt>
      <trkpt lat="43.85071" lon="7.32555">
        <ele>594.294495</ele>
        <time>2011-11-11T14:00:40Z</time>
      </trkpt>
      <trkpt lat="43.85053" lon="7.32576">
        <ele>591.045959</ele>
        <time>2011-11-11T14:00:45Z</time>
      </trkpt>
      <trkpt lat="43.8504" lon="7.32592">
        <ele>587.661804</ele>
        <time>2011-11-11T14:00:50Z</time>
      </trkpt>
      <trkpt lat="43.85026" lon="7.3261">
        <ele>583.289978</ele>
        <time>2011-11-11T14:00:55Z</time>
      </trkpt>
      <trkpt lat="43.85007" lon="7.32642">
        <ele>581.116211</ele>
        <time>2011-11-11T14:01:00Z</time>
      </trkpt>
      <trkpt lat="43.84997" lon="7.32674">
        <ele>578.725403</ele>
        <time>2011-11-11T14:01:05Z</time>
      </trkpt>
      <trkpt lat="43.84993" lon="7.32708">
        <ele>576.05481</ele>
        <time>2011-11-11T14:01:10Z</time>
      </trkpt>
      <trkpt lat="43.84986" lon="7.32741">
        <ele>572.07251</ele>
        <time>2011-11-11T14:01:15Z</time>
      </trkpt>
      <trkpt lat="43.84974" lon="7.32761">
        <ele>569.558044</ele>
        <time>2011-11-11T14:01:20Z</time>
      </trkpt>
      <trkpt lat="43.84973" lon="7.32786">
        <ele>566.000793</ele>
        <time>2011-11-11T14:01:25Z</time>
      </trkpt>
      <trkpt lat="43.84966" lon="7.32818">
        <ele>564.249878</ele>
        <time>2011-11-11T14:01:30Z</time>
      </trkpt>
      <trkpt lat="43.84957" lon="7.32811">
        <ele>562.642639</ele>
        <time>2011-11-11T14:01:35Z</time>
      </trkpt>
      <trkpt lat="43.84933" lon="7.32816">
        <ele>557.597595</ele>
        <time>2011-11-11T14:01:40Z</time>
      </trkpt>
      <trkpt lat="43.84915" lon="7.3282">
        <ele>555.416565</ele>
        <time>2011-11-11T14:01:45Z</time>
      </trkpt>
      <trkpt lat="43.84904" lon="7.32825">
        <ele>551.600708</ele>
        <time>2011-11-11T14:01:50Z</time>
      </trkpt>
      <trkpt lat="43.84896" lon="7.32827">
        <ele>549.413757</ele>
        <time>2011-11-11T14:01:55Z</time>
      </trkpt>
      <trkpt lat="43.8488" lon="7.32828">
        <ele>545.085938</ele>
        <time>2011-11-11T14:02:00Z</time>
      </trkpt>
      <trkpt lat="43.84873" lon="7.32832">
        <ele>543.287292</ele>
        <time>2011-11-11T14:02:35Z</time>
      </trkpt>
      <trkpt lat="43.84873" lon="7.32832">
        <ele>543.269348</ele>
        <time>2011-11-11T14:02:40Z</time>
      </trkpt>
      <trkpt lat="43.84871" lon="7.32832">
        <ele>543.366699</ele>
        <time>2011-11-11T14:02:45Z</time>
      </trkpt>
      <trkpt lat="43.8487" lon="7.32833">
        <ele>543.626526</ele>
        <time>2011-11-11T14:02:50Z</time>
      </trkpt>
      <trkpt lat="43.84866" lon="7.32834">
        <ele>542.876404</ele>
        <time>2011-11-11T14:02:55Z</time>
      </trkpt>
      <trkpt lat="43.84846" lon="7.32837">
        <ele>537.455383</ele>
        <time>2011-11-11T14:03:00Z</time>
      </trkpt>
      <trkpt lat="43.84831" lon="7.32839">
        <ele>533.695007</ele>
        <time>2011-11-11T14:03:05Z</time>
      </trkpt>
      <trkpt lat="43.84818" lon="7.32836">
        <ele>529.059875</ele>
        <time>2011-11-11T14:03:10Z</time>
      </trkpt>
      <trkpt lat="43.8481" lon="7.3283">
        <ele>526.37677</ele>
        <time>2011-11-11T14:03:15Z</time>
      </trkpt>
      <trkpt lat="43.84802" lon="7.32822">
        <ele>523.47052</ele>
        <time>2011-11-11T14:03:20Z</time>
      </trkpt>
      <trkpt lat="43.84794" lon="7.32816">
        <ele>523.42804</ele>
        <time>2011-11-11T14:03:25Z</time>
      </trkpt>
      <trkpt lat="43.84787" lon="7.32834">
        <ele>522.143921</ele>
        <time>2011-11-11T14:03:30Z</time>
      </trkpt>
      <trkpt lat="43.84778" lon="7.32856">
        <ele>521.096375</ele>
        <time>2011-11-11T14:03:35Z</time>
      </trkpt>
      <trkpt lat="43.84776" lon="7.32885">
        <ele>518.702698</ele>
        <time>2011-11-11T14:03:40Z</time>
      </trkpt>
      <trkpt lat="43.84773" lon="7.32902">
        <ele>515.634216</ele>
        <time>2011-11-11T14:03:45Z</time>
      </trkpt>
      <trkpt lat="43.84776" lon="7.32914">
        <ele>511.702423</ele>
        <time>2011-11-11T14:03:50Z</time>
      </trkpt>
      <trkpt lat="43.84773" lon="7.3293">
        <ele>508.243561</ele>
        <time>2011-11-11T14:03:55Z</time>
      </trkpt>
      <trkpt lat="43.84767" lon="7.32942">
        <ele>507.2612</ele>
        <time>2011-11-11T14:04:00Z</time>
      </trkpt>
      <trkpt lat="43.84763" lon="7.32944">
        <ele>507.786438</ele>
        <time>2011-11-11T14:04:05Z</time>
      </trkpt>
      <trkpt lat="43.8476" lon="7.32942">
        <ele>510.011292</ele>
        <time>2011-11-11T14:04:10Z</time>
      </trkpt>
      <trkpt lat="43.84757" lon="7.32944">
        <ele>512.052185</ele>
        <time>2011-11-11T14:04:15Z</time>
      </trkpt>
      <trkpt lat="43.84755" lon="7.32956">
        <ele>512.110107</ele>
        <time>2011-11-11T14:04:20Z</time>
      </trkpt>
      <trkpt lat="43.84746" lon="7.3297">
        <ele>511.891174</ele>
        <time>2011-11-11T14:04:25Z</time>
      </trkpt>
      <trkpt lat="43.84735" lon="7.32977">
        <ele>512.776184</ele>
        <time>2011-11-11T14:04:30Z</time>
      </trkpt>
      <trkpt lat="43.84724" lon="7.32977">
        <ele>513.485962</ele>
        <time>2011-11-11T14:04:35Z</time>
      </trkpt>
      <trkpt lat="43.84726" lon="7.32989">
        <ele>509.944122</ele>
        <time>2011-11-11T14:04:40Z</time>
      </trkpt>
      <trkpt lat="43.84732" lon="7.33006">
        <ele>509.389008</ele>
        <time>2011-11-11T14:04:45Z</time>
      </trkpt>
      <trkpt lat="43.84737" lon="7.33024">
        <ele>508.963379</ele>
        <time>2011-11-11T14:04:50Z</time>
      </trkpt>
      <trkpt lat="43.84737" lon="7.33037">
        <ele>508.866302</ele>
        <time>2011-11-11T14:04:55Z</time>
      </trkpt>
      <trkpt lat="43.84739" lon="7.33055">
        <ele>509.046844</ele>
        <time>2011-11-11T14:05:00Z</time>
      </trkpt>
      <trkpt lat="43.8474" lon="7.33072">
        <ele>508.951965</ele>
        <time>2011-11-11T14:05:05Z</time>
      </trkpt>
      <trkpt lat="43.84741" lon="7.3309">
        <ele>508.746094</ele>
        <time>2011-11-11T14:05:10Z</time>
      </trkpt>
      <trkpt lat="43.84744" lon="7.33113">
        <ele>507.423492</ele>
        <time>2011-11-11T14:05:15Z</time>
      </trkpt>
      <trkpt lat="43.84741" lon="7.33136">
        <ele>506.099274</ele>
        <time>2011-11-11T14:05:20Z</time>
      </trkpt>
      <trkpt lat="43.84746" lon="7.33164">
        <ele>504.539948</ele>
        <time>2011-11-11T14:05:25Z</time>
      </trkpt>
      <trkpt lat="43.84753" lon="7.33181">
        <ele>503.140198</ele>
        <time>2011-11-11T14:05:30Z</time>
      </trkpt>
      <trkpt lat="43.84759" lon="7.3321">
        <ele>501.018463</ele>
        <time>2011-11-11T14:05:35Z</time>
      </trkpt>
      <trkpt lat="43.84757" lon="7.33232">
        <ele>499.808228</ele>
        <time>2011-11-11T14:05:40Z</time>
      </trkpt>
      <trkpt lat="43.84766" lon="7.33256">
        <ele>497.766693</ele>
        <time>2011-11-11T14:05:45Z</time>
      </trkpt>
      <trkpt lat="43.84769" lon="7.33287">
        <ele>496.521973</ele>
        <time>2011-11-11T14:05:50Z</time>
      </trkpt>
      <trkpt lat="43.84773" lon="7.33309">
        <ele>495.981689</ele>
        <time>2011-11-11T14:05:55Z</time>
      </trkpt>
      <trkpt lat="43.84771" lon="7.33333">
        <ele>494.921448</ele>
        <time>2011-11-11T14:06:00Z</time>
      </trkpt>
      <trkpt lat="43.84772" lon="7.33356">
        <ele>493.65802</ele>
        <time>2011-11-11T14:06:05Z</time>
      </trkpt>
      <trkpt lat="43.84769" lon="7.3338">
        <ele>492.507935</ele>
        <time>2011-11-11T14:06:10Z</time>
      </trkpt>
      <trkpt lat="43.84758" lon="7.33398">
        <ele>490.732391</ele>
        <time>2011-11-11T14:06:15Z</time>
      </trkpt>
      <trkpt lat="43.84751" lon="7.33399">
        <ele>490.0448</ele>
        <time>2011-11-11T14:06:20Z</time>
      </trkpt>
      <trkpt lat="43.8475" lon="7.33398">
        <ele>489.859833</ele>
        <time>2011-11-11T14:06:25Z</time>
      </trkpt>
      <trkpt lat="43.84745" lon="7.33398">
        <ele>490.731415</ele>
        <time>2011-11-11T14:06:30Z</time>
      </trkpt>
      <trkpt lat="43.8474" lon="7.33404">
        <ele>494.254944</ele>
        <time>2011-11-11T14:06:35Z</time>
      </trkpt>
      <trkpt lat="43.8474" lon="7.33407">
        <ele>494.397797</ele>
        <time>2011-11-11T14:06:40Z</time>
      </trkpt>
      <trkpt lat="43.84747" lon="7.33411">
        <ele>492.3974</ele>
        <time>2011-11-11T14:06:45Z</time>
      </trkpt>
      <trkpt lat="43.84756" lon="7.33429">
        <ele>490.169495</ele>
        <time>2011-11-11T14:06:50Z</time>
      </trkpt>
      <trkpt lat="43.84748" lon="7.33452">
        <ele>488.643494</ele>
        <time>2011-11-11T14:06:55Z</time>
      </trkpt>
      <trkpt lat="43.84737" lon="7.33475">
        <ele>487.511963</ele>
        <time>2011-11-11T14:07:00Z</time>
      </trkpt>
      <trkpt lat="43.84731" lon="7.33498">
        <ele>486.420471</ele>
        <time>2011-11-11T14:07:05Z</time>
      </trkpt>
      <trkpt lat="43.84731" lon="7.33518">
        <ele>485.219788</ele>
        <time>2011-11-11T14:07:10Z</time>
      </trkpt>
      <trkpt lat="43.84725" lon="7.33532">
        <ele>484.495789</ele>
        <time>2011-11-11T14:07:15Z</time>
      </trkpt>
      <trkpt lat="43.84721" lon="7.33541">
        <ele>484.505341</ele>
        <time>2011-11-11T14:07:20Z</time>
      </trkpt>
      <trkpt lat="43.8472" lon="7.33541">
        <ele>484.799164</ele>
        <time>2011-11-11T14:07:25Z</time>
      </trkpt>
      <trkpt lat="43.84721" lon="7.3354">
        <ele>485.523041</ele>
        <time>2011-11-11T14:07:30Z</time>
      </trkpt>
      <trkpt lat="43.84722" lon="7.33543">
        <ele>485.563263</ele>
        <time>2011-11-11T14:07:35Z</time>
      </trkpt>
      <trkpt lat="43.84729" lon="7.33554">
        <ele>484.470276</ele>
        <time>2011-11-11T14:07:40Z</time>
      </trkpt>
      <trkpt lat="43.84741" lon="7.33569">
        <ele>483.940155</ele>
        <time>2011-11-11T14:07:45Z</time>
      </trkpt>
      <trkpt lat="43.84747" lon="7.33591">
        <ele>483.099854</ele>
        <time>2011-11-11T14:07:50Z</time>
      </trkpt>
      <trkpt lat="43.84746" lon="7.33616">
        <ele>482.270447</ele>
        <time>2011-11-11T14:07:55Z</time>
      </trkpt>
      <trkpt lat="43.84739" lon="7.33639">
        <ele>481.489624</ele>
        <time>2011-11-11T14:08:00Z</time>
      </trkpt>
      <trkpt lat="43.84733" lon="7.33672">
        <ele>478.248993</ele>
        <time>2011-11-11T14:08:05Z</time>
      </trkpt>
      <trkpt lat="43.84726" lon="7.33686">
        <ele>478.53775</ele>
        <time>2011-11-11T14:08:10Z</time>
      </trkpt>
      <trkpt lat="43.84717" lon="7.33696">
        <ele>479.328583</ele>
        <time>2011-11-11T14:08:15Z</time>
      </trkpt>
      <trkpt lat="43.84725" lon="7.33703">
        <ele>479.872803</ele>
        <time>2011-11-11T14:08:20Z</time>
      </trkpt>
      <trkpt lat="43.84728" lon="7.33719">
        <ele>479.728394</ele>
        <time>2011-11-11T14:08:25Z</time>
      </trkpt>
      <trkpt lat="43.84735" lon="7.3374">
        <ele>478.470886</ele>
        <time>2011-11-11T14:08:30Z</time>
      </trkpt>
      <trkpt lat="43.84728" lon="7.33762">
        <ele>476.997162</ele>
        <time>2011-11-11T14:08:35Z</time>
      </trkpt>
      <trkpt lat="43.84735" lon="7.33777">
        <ele>475.502258</ele>
        <time>2011-11-11T14:08:40Z</time>
      </trkpt>
      <trkpt lat="43.84723" lon="7.33791">
        <ele>474.663452</ele>
        <time>2011-11-11T14:08:45Z</time>
      </trkpt>
      <trkpt lat="43.84723" lon="7.33797">
        <ele>474.543732</ele>
        <time>2011-11-11T14:08:50Z</time>
      </trkpt>
      <trkpt lat="43.84724" lon="7.33797">
        <ele>474.66748</ele>
        <time>2011-11-11T14:08:55Z</time>
      </trkpt>
      <trkpt lat="43.84725" lon="7.33797">
        <ele>474.742889</ele>
        <time>2011-11-11T14:09:00Z</time>
      </trkpt>
      <trkpt lat="43.84725" lon="7.33797">
        <ele>474.767487</ele>
        <time>2011-11-11T14:09:05Z</time>
      </trkpt>
      <trkpt lat="43.84728" lon="7.33799">
        <ele>474.755035</ele>
        <time>2011-11-11T14:09:10Z</time>
      </trkpt>
      <trkpt lat="43.84729" lon="7.33801">
        <ele>474.619598</ele>
        <time>2011-11-11T14:09:15Z</time>
      </trkpt>
      <trkpt lat="43.84729" lon="7.33803">
        <ele>474.084961</ele>
        <time>2011-11-11T14:09:20Z</time>
      </trkpt>
      <trkpt lat="43.8472" lon="7.33811">
        <ele>473.829834</ele>
        <time>2011-11-11T14:09:25Z</time>
      </trkpt>
      <trkpt lat="43.84713" lon="7.33831">
        <ele>473.038971</ele>
        <time>2011-11-11T14:09:30Z</time>
      </trkpt>
      <trkpt lat="43.84706" lon="7.33847">
        <ele>472.768127</ele>
        <time>2011-11-11T14:09:35Z</time>
      </trkpt>
      <trkpt lat="43.84699" lon="7.33857">
        <ele>472.099182</ele>
        <time>2011-11-11T14:09:40Z</time>
      </trkpt>
      <trkpt lat="43.84692" lon="7.33866">
        <ele>472.147095</ele>
        <time>2011-11-11T14:09:45Z</time>
      </trkpt>
      <trkpt lat="43.84685" lon="7.33879">
        <ele>472.881561</ele>
        <time>2011-11-11T14:09:50Z</time>
      </trkpt>
      <trkpt lat="43.84681" lon="7.33895">
        <ele>472.110168</ele>
        <time>2011-11-11T14:09:55Z</time>
      </trkpt>
      <trkpt lat="43.84676" lon="7.33915">
        <ele>472.093445</ele>
        <time>2011-11-11T14:10:00Z</time>
      </trkpt>
      <trkpt lat="43.84673" lon="7.33934">
        <ele>471.173615</ele>
        <time>2011-11-11T14:10:05Z</time>
      </trkpt>
      <trkpt lat="43.84662" lon="7.33936">
        <ele>471.135895</ele>
        <time>2011-11-11T14:10:10Z</time>
      </trkpt>
      <trkpt lat="43.84648" lon="7.33934">
        <ele>469.90329</ele>
        <time>2011-11-11T14:10:15Z</time>
      </trkpt>
      <trkpt lat="43.84649" lon="7.33949">
        <ele>471.51593</ele>
        <time>2011-11-11T14:10:20Z</time>
      </trkpt>
      <trkpt lat="43.84642" lon="7.3396">
        <ele>471.024841</ele>
        <time>2011-11-11T14:10:25Z</time>
      </trkpt>
      <trkpt lat="43.84629" lon="7.33965">
        <ele>471.056274</ele>
        <time>2011-11-11T14:10:30Z</time>
      </trkpt>
      <trkpt lat="43.84614" lon="7.33961">
        <ele>471.427002</ele>
        <time>2011-11-11T14:10:35Z</time>
      </trkpt>
      <trkpt lat="43.84615" lon="7.33977">
        <ele>472.564697</ele>
        <time>2011-11-11T14:10:40Z</time>
      </trkpt>
      <trkpt lat="43.84624" lon="7.33995">
        <ele>472.651398</ele>
        <time>2011-11-11T14:10:45Z</time>
      </trkpt>
      <trkpt lat="43.84629" lon="7.34011">
        <ele>472.465424</ele>
        <time>2011-11-11T14:10:50Z</time>
      </trkpt>
      <trkpt lat="43.84618" lon="7.34013">
        <ele>472.179871</ele>
        <time>2011-11-11T14:10:55Z</time>
      </trkpt>
      <trkpt lat="43.8461" lon="7.34024">
        <ele>472.084534</ele>
        <time>2011-11-11T14:11:00Z</time>
      </trkpt>
      <trkpt lat="43.84603" lon="7.34027">
        <ele>472.031982</ele>
        <time>2011-11-11T14:11:05Z</time>
      </trkpt>
      <trkpt lat="43.84603" lon="7.34027">
        <ele>471.719727</ele>
        <time>2011-11-11T14:11:10Z</time>
      </trkpt>
      <trkpt lat="43.84591" lon="7.34029">
        <ele>470.840881</ele>
        <time>2011-11-11T14:11:15Z</time>
      </trkpt>
      <trkpt lat="43.84571" lon="7.34027">
        <ele>468.529755</ele>
        <time>2011-11-11T14:11:20Z</time>
      </trkpt>
      <trkpt lat="43.84554" lon="7.34035">
        <ele>466.898468</ele>
        <time>2011-11-11T14:11:25Z</time>
      </trkpt>
      <trkpt lat="43.84537" lon="7.34033">
        <ele>466.065491</ele>
        <time>2011-11-11T14:11:30Z</time>
      </trkpt>
      <trkpt lat="43.84518" lon="7.3404">
        <ele>464.468445</ele>
        <time>2011-11-11T14:11:35Z</time>
      </trkpt>
      <trkpt lat="43.84505" lon="7.3404">
        <ele>464.504486</ele>
        <time>2011-11-11T14:11:40Z</time>
      </trkpt>
      <trkpt lat="43.84495" lon="7.3406">
        <ele>462.386444</ele>
        <time>2011-11-11T14:11:45Z</time>
      </trkpt>
      <trkpt lat="43.8448" lon="7.34066">
        <ele>460.866455</ele>
        <time>2011-11-11T14:11:50Z</time>
      </trkpt>
      <trkpt lat="43.84468" lon="7.34079">
        <ele>459.530609</ele>
        <time>2011-11-11T14:11:55Z</time>
      </trkpt>
      <trkpt lat="43.84449" lon="7.341">
        <ele>457.414124</ele>
        <time>2011-11-11T14:12:00Z</time>
      </trkpt>
      <trkpt lat="43.84437" lon="7.3413">
        <ele>454.496246</ele>
        <time>2011-11-11T14:12:05Z</time>
      </trkpt>
      <trkpt lat="43.84426" lon="7.34164">
        <ele>453.399048</ele>
        <time>2011-11-11T14:12:10Z</time>
      </trkpt>
      <trkpt lat="43.84419" lon="7.34195">
        <ele>451.259521</ele>
        <time>2011-11-11T14:12:15Z</time>
      </trkpt>
      <trkpt lat="43.84399" lon="7.34217">
        <ele>449.325043</ele>
        <time>2011-11-11T14:12:20Z</time>
      </trkpt>
      <trkpt lat="43.84372" lon="7.34218">
        <ele>447.937256</ele>
        <time>2011-11-11T14:12:25Z</time>
      </trkpt>
      <trkpt lat="43.84348" lon="7.34204">
        <ele>445.626221</ele>
        <time>2011-11-11T14:12:30Z</time>
      </trkpt>
      <trkpt lat="43.84331" lon="7.3418">
        <ele>442.504456</ele>
        <time>2011-11-11T14:12:35Z</time>
      </trkpt>
      <trkpt lat="43.84322" lon="7.34186">
        <ele>439.327545</ele>
        <time>2011-11-11T14:12:40Z</time>
      </trkpt>
      <trkpt lat="43.84317" lon="7.34179">
        <ele>436.455261</ele>
        <time>2011-11-11T14:12:45Z</time>
      </trkpt>
      <trkpt lat="43.84314" lon="7.34176">
        <ele>435.105408</ele>
        <time>2011-11-11T14:12:50Z</time>
      </trkpt>
      <trkpt lat="43.84312" lon="7.34189">
        <ele>432.243164</ele>
        <time>2011-11-11T14:12:55Z</time>
      </trkpt>
      <trkpt lat="43.8431" lon="7.3419">
        <ele>431.423584</ele>
        <time>2011-11-11T14:13:00Z</time>
      </trkpt>
      <trkpt lat="43.84309" lon="7.34191">
        <ele>431.195953</ele>
        <time>2011-11-11T14:13:05Z</time>
      </trkpt>
      <trkpt lat="43.84308" lon="7.34191">
        <ele>431.126648</ele>
        <time>2011-11-11T14:13:10Z</time>
      </trkpt>
      <trkpt lat="43.84305" lon="7.34193">
        <ele>432.111603</ele>
        <time>2011-11-11T14:13:15Z</time>
      </trkpt>
      <trkpt lat="43.84304" lon="7.34194">
        <ele>432.532074</ele>
        <time>2011-11-11T14:13:20Z</time>
      </trkpt>
      <trkpt lat="43.84303" lon="7.34197">
        <ele>433.206421</ele>
        <time>2011-11-11T14:13:25Z</time>
      </trkpt>
      <trkpt lat="43.84302" lon="7.34202">
        <ele>434.438293</ele>
        <time>2011-11-11T14:13:30Z</time>
      </trkpt>
      <trkpt lat="43.84299" lon="7.34202">
        <ele>435.30658</ele>
        <time>2011-11-11T14:13:35Z</time>
      </trkpt>
      <trkpt lat="43.84298" lon="7.34198">
        <ele>435.974182</ele>
        <time>2011-11-11T14:13:40Z</time>
      </trkpt>
      <trkpt lat="43.84298" lon="7.34198">
        <ele>435.916931</ele>
        <time>2011-11-11T14:13:45Z</time>
      </trkpt>
      <trkpt lat="43.84297" lon="7.34195">
        <ele>436.832214</ele>
        <time>2011-11-11T14:13:50Z</time>
      </trkpt>
      <trkpt lat="43.84295" lon="7.3419">
        <ele>438.160492</ele>
        <time>2011-11-11T14:13:55Z</time>
      </trkpt>
      <trkpt lat="43.84292" lon="7.34188">
        <ele>439.175049</ele>
        <time>2011-11-11T14:14:00Z</time>
      </trkpt>
      <trkpt lat="43.84289" lon="7.3419">
        <ele>440.356812</ele>
        <time>2011-11-11T14:14:05Z</time>
      </trkpt>
      <trkpt lat="43.84286" lon="7.34193">
        <ele>441.516083</ele>
        <time>2011-11-11T14:14:10Z</time>
      </trkpt>
      <trkpt lat="43.84283" lon="7.34195">
        <ele>442.671967</ele>
        <time>2011-11-11T14:14:15Z</time>
      </trkpt>
      <trkpt lat="43.84279" lon="7.34198">
        <ele>443.867462</ele>
        <time>2011-11-11T14:14:20Z</time>
      </trkpt>
      <trkpt lat="43.84276" lon="7.34201">
        <ele>444.752441</ele>
        <time>2011-11-11T14:14:25Z</time>
      </trkpt>
      <trkpt lat="43.84272" lon="7.34205">
        <ele>445.990234</ele>
        <time>2011-11-11T14:14:30Z</time>
      </trkpt>
      <trkpt lat="43.84271" lon="7.34211">
        <ele>447.521973</ele>
        <time>2011-11-11T14:14:35Z</time>
      </trkpt>
      <trkpt lat="43.84272" lon="7.34217">
        <ele>448.697144</ele>
        <time>2011-11-11T14:14:40Z</time>
      </trkpt>
      <trkpt lat="43.84276" lon="7.34221">
        <ele>449.540741</ele>
        <time>2011-11-11T14:14:45Z</time>
      </trkpt>
      <trkpt lat="43.84279" lon="7.34226">
        <ele>450.480499</ele>
        <time>2011-11-11T14:14:50Z</time>
      </trkpt>
      <trkpt lat="43.84283" lon="7.3423">
        <ele>451.093079</ele>
        <time>2011-11-11T14:14:55Z</time>
      </trkpt>
      <trkpt lat="43.84286" lon="7.34236">
        <ele>451.740784</ele>
        <time>2011-11-11T14:15:00Z</time>
      </trkpt>
      <trkpt lat="43.84289" lon="7.34241">
        <ele>452.068176</ele>
        <time>2011-11-11T14:15:05Z</time>
      </trkpt>
      <trkpt lat="43.8429" lon="7.34247">
        <ele>452.772766</ele>
        <time>2011-11-11T14:15:10Z</time>
      </trkpt>
      <trkpt lat="43.8429" lon="7.34253">
        <ele>453.18338</ele>
        <time>2011-11-11T14:15:15Z</time>
      </trkpt>
      <trkpt lat="43.8429" lon="7.3426">
        <ele>453.522003</ele>
        <time>2011-11-11T14:15:20Z</time>
      </trkpt>
      <trkpt lat="43.8429" lon="7.34267">
        <ele>454.010742</ele>
        <time>2011-11-11T14:15:25Z</time>
      </trkpt>
      <trkpt lat="43.84289" lon="7.34274">
        <ele>454.609924</ele>
        <time>2011-11-11T14:15:30Z</time>
      </trkpt>
      <trkpt lat="43.84288" lon="7.34281">
        <ele>455.202148</ele>
        <time>2011-11-11T14:15:35Z</time>
      </trkpt>
      <trkpt lat="43.84286" lon="7.34288">
        <ele>456.058105</ele>
        <time>2011-11-11T14:15:40Z</time>
      </trkpt>
      <trkpt lat="43.84284" lon="7.34294">
        <ele>457.151489</ele>
        <time>2011-11-11T14:15:45Z</time>
      </trkpt>
      <trkpt lat="43.84281" lon="7.343">
        <ele>457.872742</ele>
        <time>2011-11-11T14:15:50Z</time>
      </trkpt>
      <trkpt lat="43.84279" lon="7.34307">
        <ele>458.475555</ele>
        <time>2011-11-11T14:15:55Z</time>
      </trkpt>
      <trkpt lat="43.84277" lon="7.34313">
        <ele>459.370514</ele>
        <time>2011-11-11T14:16:00Z</time>
      </trkpt>
      <trkpt lat="43.84276" lon="7.34319">
        <ele>460.061127</ele>
        <time>2011-11-11T14:16:05Z</time>
      </trkpt>
      <trkpt lat="43.84276" lon="7.34317">
        <ele>459.875092</ele>
        <time>2011-11-11T14:16:10Z</time>
      </trkpt>
      <trkpt lat="43.84275" lon="7.34323">
        <ele>460.036285</ele>
        <time>2011-11-11T14:16:15Z</time>
      </trkpt>
      <trkpt lat="43.84272" lon="7.3433">
        <ele>459.329376</ele>
        <time>2011-11-11T14:16:20Z</time>
      </trkpt>
      <trkpt lat="43.84269" lon="7.34342">
        <ele>459.156403</ele>
        <time>2011-11-11T14:16:25Z</time>
      </trkpt>
      <trkpt lat="43.84263" lon="7.34363">
        <ele>457.902832</ele>
        <time>2011-11-11T14:16:30Z</time>
      </trkpt>
      <trkpt lat="43.84255" lon="7.34392">
        <ele>456.274017</ele>
        <time>2011-11-11T14:16:35Z</time>
      </trkpt>
      <trkpt lat="43.84235" lon="7.34412">
        <ele>454.479797</ele>
        <time>2011-11-11T14:16:40Z</time>
      </trkpt>
      <trkpt lat="43.84207" lon="7.34433">
        <ele>451.672638</ele>
        <time>2011-11-11T14:16:45Z</time>
      </trkpt>
      <trkpt lat="43.84184" lon="7.34465">
        <ele>450.895599</ele>
        <time>2011-11-11T14:16:50Z</time>
      </trkpt>
      <trkpt lat="43.84166" lon="7.3449">
        <ele>450.759521</ele>
        <time>2011-11-11T14:16:55Z</time>
      </trkpt>
      <trkpt lat="43.84154" lon="7.34513">
        <ele>450.689453</ele>
        <time>2011-11-11T14:17:00Z</time>
      </trkpt>
      <trkpt lat="43.84147" lon="7.34534">
        <ele>450.526947</ele>
        <time>2011-11-11T14:17:05Z</time>
      </trkpt>
      <trkpt lat="43.84132" lon="7.34548">
        <ele>450.588074</ele>
        <time>2011-11-11T14:17:10Z</time>
      </trkpt>
      <trkpt lat="43.84117" lon="7.34571">
        <ele>448.986786</ele>
        <time>2011-11-11T14:17:15Z</time>
      </trkpt>
      <trkpt lat="43.84112" lon="7.34613">
        <ele>446.365875</ele>
        <time>2011-11-11T14:17:20Z</time>
      </trkpt>
      <trkpt lat="43.84108" lon="7.34652">
        <ele>443.468018</ele>
        <time>2011-11-11T14:17:25Z</time>
      </trkpt>
      <trkpt lat="43.84082" lon="7.3467">
        <ele>440.28595</ele>
        <time>2011-11-11T14:17:30Z</time>
      </trkpt>
      <trkpt lat="43.84057" lon="7.34693">
        <ele>436.931641</ele>
        <time>2011-11-11T14:17:35Z</time>
      </trkpt>
      <trkpt lat="43.84039" lon="7.34728">
        <ele>433.020142</ele>
        <time>2011-11-11T14:17:40Z</time>
      </trkpt>
      <trkpt lat="43.84038" lon="7.34767">
        <ele>429.238617</ele>
        <time>2011-11-11T14:17:45Z</time>
      </trkpt>
      <trkpt lat="43.84043" lon="7.34804">
        <ele>425.914124</ele>
        <time>2011-11-11T14:17:50Z</time>
      </trkpt>
      <trkpt lat="43.84021" lon="7.34807">
        <ele>422.561096</ele>
        <time>2011-11-11T14:17:55Z</time>
      </trkpt>
      <trkpt lat="43.83988" lon="7.34787">
        <ele>418.176544</ele>
        <time>2011-11-11T14:18:00Z</time>
      </trkpt>
      <trkpt lat="43.83957" lon="7.34792">
        <ele>414.078339</ele>
        <time>2011-11-11T14:18:05Z</time>
      </trkpt>
      <trkpt lat="43.83943" lon="7.34803">
        <ele>412.103912</ele>
        <time>2011-11-11T14:18:10Z</time>
      </trkpt>
      <trkpt lat="43.83952" lon="7.34799">
        <ele>412.544647</ele>
        <time>2011-11-11T14:18:15Z</time>
      </trkpt>
      <trkpt lat="43.83969" lon="7.34794">
        <ele>412.769623</ele>
        <time>2011-11-11T14:18:20Z</time>
      </trkpt>
      <trkpt lat="43.83984" lon="7.34794">
        <ele>413.261841</ele>
        <time>2011-11-11T14:18:25Z</time>
      </trkpt>
      <trkpt lat="43.83999" lon="7.34802">
        <ele>413.556335</ele>
        <time>2011-11-11T14:18:30Z</time>
      </trkpt>
      <trkpt lat="43.84013" lon="7.34814">
        <ele>414.270111</ele>
        <time>2011-11-11T14:18:35Z</time>
      </trkpt>
      <trkpt lat="43.84027" lon="7.34825">
        <ele>414.44397</ele>
        <time>2011-11-11T14:18:40Z</time>
      </trkpt>
      <trkpt lat="43.84036" lon="7.34846">
        <ele>415.035187</ele>
        <time>2011-11-11T14:18:45Z</time>
      </trkpt>
      <trkpt lat="43.84038" lon="7.3487">
        <ele>414.152802</ele>
        <time>2011-11-11T14:18:50Z</time>
      </trkpt>
      <trkpt lat="43.84045" lon="7.34892">
        <ele>414.35907</ele>
        <time>2011-11-11T14:18:55Z</time>
      </trkpt>
      <trkpt lat="43.8406" lon="7.34901">
        <ele>414.584198</ele>
        <time>2011-11-11T14:19:00Z</time>
      </trkpt>
      <trkpt lat="43.84075" lon="7.34901">
        <ele>414.787567</ele>
        <time>2011-11-11T14:19:05Z</time>
      </trkpt>
      <trkpt lat="43.84079" lon="7.34903">
        <ele>413.671265</ele>
        <time>2011-11-11T14:19:55Z</time>
      </trkpt>
    </trkseg>
  </trk>
</gpx>